<?xml version="1.0" encoding="UTF-8" standalone="no" ?>
<gpx xmlns="http://www.topografix.com/GPX/1/1" xmlns:xsi="http://www.w3.org/2001/XMLSchema-instance" xsi:schemaLocation="http://www.topografix.com/GPX/1/1 http://www.topografix.com/GPX/1/1/gpx.xsd" version="1.1" creator="VisuGPX - https://www.visugpx.com">
  <metadata>
    <name>Dôme de Vaugelaz (73 Beaufortain)</name>
    <desc><![CDATA[Départ des Chapelles
Photos et commentaires sur : www.photosrandos.fr]]></desc>
  </metadata>
  <trk>
    <name><![CDATA[Dôme de Vaugelaz SR]]></name>
    <trkseg>
      <trkpt lat="45.58852" lon="6.72769">
        <ele>1299</ele>
        <time>2021-02-13T08:00:07Z</time>
      </trkpt>
      <trkpt lat="45.58852" lon="6.72769">
        <ele>1299</ele>
        <time>2021-02-13T08:00:17Z</time>
      </trkpt>
      <trkpt lat="45.58852" lon="6.72769">
        <ele>1299</ele>
        <time>2021-02-13T08:00:27Z</time>
      </trkpt>
      <trkpt lat="45.58852" lon="6.72769">
        <ele>1299</ele>
        <time>2021-02-13T08:00:37Z</time>
      </trkpt>
      <trkpt lat="45.58852" lon="6.72769">
        <ele>1298</ele>
        <time>2021-02-13T08:00:48Z</time>
      </trkpt>
      <trkpt lat="45.58852" lon="6.72769">
        <ele>1299</ele>
        <time>2021-02-13T08:00:57Z</time>
      </trkpt>
      <trkpt lat="45.58852" lon="6.72769">
        <ele>1298</ele>
        <time>2021-02-13T08:01:07Z</time>
      </trkpt>
      <trkpt lat="45.58852" lon="6.72769">
        <ele>1298</ele>
        <time>2021-02-13T08:01:17Z</time>
      </trkpt>
      <trkpt lat="45.58852" lon="6.72769">
        <ele>1298</ele>
        <time>2021-02-13T08:01:27Z</time>
      </trkpt>
      <trkpt lat="45.58852" lon="6.72769">
        <ele>1298</ele>
        <time>2021-02-13T08:01:37Z</time>
      </trkpt>
      <trkpt lat="45.58852" lon="6.72769">
        <ele>1298</ele>
        <time>2021-02-13T08:01:47Z</time>
      </trkpt>
      <trkpt lat="45.58852" lon="6.72769">
        <ele>1298</ele>
        <time>2021-02-13T08:01:57Z</time>
      </trkpt>
      <trkpt lat="45.58852" lon="6.72769">
        <ele>1297</ele>
        <time>2021-02-13T08:02:07Z</time>
      </trkpt>
      <trkpt lat="45.58853" lon="6.72767">
        <ele>1297</ele>
        <time>2021-02-13T08:02:13Z</time>
      </trkpt>
      <trkpt lat="45.58853" lon="6.72767">
        <ele>1298</ele>
        <time>2021-02-13T08:02:17Z</time>
      </trkpt>
      <trkpt lat="45.58854" lon="6.72764">
        <ele>1298</ele>
        <time>2021-02-13T08:02:18Z</time>
      </trkpt>
      <trkpt lat="45.58854" lon="6.72762">
        <ele>1298</ele>
        <time>2021-02-13T08:02:21Z</time>
      </trkpt>
      <trkpt lat="45.58854" lon="6.72759">
        <ele>1298</ele>
        <time>2021-02-13T08:02:25Z</time>
      </trkpt>
      <trkpt lat="45.58854" lon="6.72759">
        <ele>1299</ele>
        <time>2021-02-13T08:02:27Z</time>
      </trkpt>
      <trkpt lat="45.58855" lon="6.72759">
        <ele>1299</ele>
        <time>2021-02-13T08:02:37Z</time>
      </trkpt>
      <trkpt lat="45.58855" lon="6.72758">
        <ele>1299</ele>
        <time>2021-02-13T08:02:47Z</time>
      </trkpt>
      <trkpt lat="45.58855" lon="6.72757">
        <ele>1299</ele>
        <time>2021-02-13T08:02:57Z</time>
      </trkpt>
      <trkpt lat="45.58855" lon="6.72757">
        <ele>1299</ele>
        <time>2021-02-13T08:03:07Z</time>
      </trkpt>
      <trkpt lat="45.58855" lon="6.72756">
        <ele>1299</ele>
        <time>2021-02-13T08:03:17Z</time>
      </trkpt>
      <trkpt lat="45.58855" lon="6.72756">
        <ele>1300</ele>
        <time>2021-02-13T08:03:27Z</time>
      </trkpt>
      <trkpt lat="45.58855" lon="6.72755">
        <ele>1300</ele>
        <time>2021-02-13T08:03:37Z</time>
      </trkpt>
      <trkpt lat="45.58855" lon="6.72755">
        <ele>1299</ele>
        <time>2021-02-13T08:03:47Z</time>
      </trkpt>
      <trkpt lat="45.58855" lon="6.72754">
        <ele>1299</ele>
        <time>2021-02-13T08:03:58Z</time>
      </trkpt>
      <trkpt lat="45.58856" lon="6.72754">
        <ele>1299</ele>
        <time>2021-02-13T08:04:07Z</time>
      </trkpt>
      <trkpt lat="45.58856" lon="6.72753">
        <ele>1299</ele>
        <time>2021-02-13T08:04:17Z</time>
      </trkpt>
      <trkpt lat="45.58856" lon="6.72753">
        <ele>1299</ele>
        <time>2021-02-13T08:04:27Z</time>
      </trkpt>
      <trkpt lat="45.58856" lon="6.72752">
        <ele>1299</ele>
        <time>2021-02-13T08:04:37Z</time>
      </trkpt>
      <trkpt lat="45.58856" lon="6.72752">
        <ele>1299</ele>
        <time>2021-02-13T08:04:40Z</time>
      </trkpt>
      <trkpt lat="45.58856" lon="6.72751">
        <ele>1299</ele>
        <time>2021-02-13T08:04:43Z</time>
      </trkpt>
      <trkpt lat="45.58856" lon="6.72751">
        <ele>1299</ele>
        <time>2021-02-13T08:04:46Z</time>
      </trkpt>
      <trkpt lat="45.58856" lon="6.7275">
        <ele>1300</ele>
        <time>2021-02-13T08:04:47Z</time>
      </trkpt>
      <trkpt lat="45.58858" lon="6.72746">
        <ele>1300</ele>
        <time>2021-02-13T08:04:49Z</time>
      </trkpt>
      <trkpt lat="45.58858" lon="6.72744">
        <ele>1300</ele>
        <time>2021-02-13T08:04:52Z</time>
      </trkpt>
      <trkpt lat="45.58859" lon="6.72743">
        <ele>1300</ele>
        <time>2021-02-13T08:04:56Z</time>
      </trkpt>
      <trkpt lat="45.58859" lon="6.72742">
        <ele>1301</ele>
        <time>2021-02-13T08:04:57Z</time>
      </trkpt>
      <trkpt lat="45.58859" lon="6.72739">
        <ele>1301</ele>
        <time>2021-02-13T08:04:59Z</time>
      </trkpt>
      <trkpt lat="45.58859" lon="6.72736">
        <ele>1301</ele>
        <time>2021-02-13T08:05:02Z</time>
      </trkpt>
      <trkpt lat="45.58859" lon="6.72734">
        <ele>1301</ele>
        <time>2021-02-13T08:05:05Z</time>
      </trkpt>
      <trkpt lat="45.58859" lon="6.72734">
        <ele>1302</ele>
        <time>2021-02-13T08:05:07Z</time>
      </trkpt>
      <trkpt lat="45.58859" lon="6.72731">
        <ele>1302</ele>
        <time>2021-02-13T08:05:08Z</time>
      </trkpt>
      <trkpt lat="45.58859" lon="6.72727">
        <ele>1302</ele>
        <time>2021-02-13T08:05:11Z</time>
      </trkpt>
      <trkpt lat="45.58859" lon="6.72725">
        <ele>1302</ele>
        <time>2021-02-13T08:05:14Z</time>
      </trkpt>
      <trkpt lat="45.58859" lon="6.72722">
        <ele>1303</ele>
        <time>2021-02-13T08:05:17Z</time>
      </trkpt>
      <trkpt lat="45.5886" lon="6.72719">
        <ele>1303</ele>
        <time>2021-02-13T08:05:21Z</time>
      </trkpt>
      <trkpt lat="45.5886" lon="6.72716">
        <ele>1303</ele>
        <time>2021-02-13T08:05:25Z</time>
      </trkpt>
      <trkpt lat="45.5886" lon="6.72716">
        <ele>1303</ele>
        <time>2021-02-13T08:05:27Z</time>
      </trkpt>
      <trkpt lat="45.58861" lon="6.72711">
        <ele>1303</ele>
        <time>2021-02-13T08:05:29Z</time>
      </trkpt>
      <trkpt lat="45.58861" lon="6.72709">
        <ele>1303</ele>
        <time>2021-02-13T08:05:33Z</time>
      </trkpt>
      <trkpt lat="45.58861" lon="6.72707">
        <ele>1305</ele>
        <time>2021-02-13T08:05:37Z</time>
      </trkpt>
      <trkpt lat="45.58861" lon="6.72705">
        <ele>1305</ele>
        <time>2021-02-13T08:05:42Z</time>
      </trkpt>
      <trkpt lat="45.58862" lon="6.72704">
        <ele>1305</ele>
        <time>2021-02-13T08:05:46Z</time>
      </trkpt>
      <trkpt lat="45.58862" lon="6.72702">
        <ele>1306</ele>
        <time>2021-02-13T08:05:47Z</time>
      </trkpt>
      <trkpt lat="45.58862" lon="6.72698">
        <ele>1306</ele>
        <time>2021-02-13T08:05:50Z</time>
      </trkpt>
      <trkpt lat="45.58862" lon="6.72696">
        <ele>1306</ele>
        <time>2021-02-13T08:05:54Z</time>
      </trkpt>
      <trkpt lat="45.58862" lon="6.72695">
        <ele>1307</ele>
        <time>2021-02-13T08:05:57Z</time>
      </trkpt>
      <trkpt lat="45.58862" lon="6.72693">
        <ele>1307</ele>
        <time>2021-02-13T08:05:59Z</time>
      </trkpt>
      <trkpt lat="45.58863" lon="6.72692">
        <ele>1307</ele>
        <time>2021-02-13T08:06:04Z</time>
      </trkpt>
      <trkpt lat="45.58863" lon="6.7269">
        <ele>1307</ele>
        <time>2021-02-13T08:06:07Z</time>
      </trkpt>
      <trkpt lat="45.58863" lon="6.72688">
        <ele>1307</ele>
        <time>2021-02-13T08:06:09Z</time>
      </trkpt>
      <trkpt lat="45.58863" lon="6.72687">
        <ele>1307</ele>
        <time>2021-02-13T08:06:14Z</time>
      </trkpt>
      <trkpt lat="45.58863" lon="6.72685">
        <ele>1309</ele>
        <time>2021-02-13T08:06:17Z</time>
      </trkpt>
      <trkpt lat="45.58863" lon="6.72684">
        <ele>1309</ele>
        <time>2021-02-13T08:06:19Z</time>
      </trkpt>
      <trkpt lat="45.58864" lon="6.72682">
        <ele>1309</ele>
        <time>2021-02-13T08:06:24Z</time>
      </trkpt>
      <trkpt lat="45.58864" lon="6.72681">
        <ele>1311</ele>
        <time>2021-02-13T08:06:27Z</time>
      </trkpt>
      <trkpt lat="45.58864" lon="6.72679">
        <ele>1311</ele>
        <time>2021-02-13T08:06:29Z</time>
      </trkpt>
      <trkpt lat="45.58864" lon="6.72678">
        <ele>1311</ele>
        <time>2021-02-13T08:06:34Z</time>
      </trkpt>
      <trkpt lat="45.58864" lon="6.72676">
        <ele>1311</ele>
        <time>2021-02-13T08:06:37Z</time>
      </trkpt>
      <trkpt lat="45.58864" lon="6.72675">
        <ele>1311</ele>
        <time>2021-02-13T08:06:39Z</time>
      </trkpt>
      <trkpt lat="45.58865" lon="6.72673">
        <ele>1311</ele>
        <time>2021-02-13T08:06:44Z</time>
      </trkpt>
      <trkpt lat="45.58865" lon="6.72672">
        <ele>1312</ele>
        <time>2021-02-13T08:06:47Z</time>
      </trkpt>
      <trkpt lat="45.58865" lon="6.7267">
        <ele>1312</ele>
        <time>2021-02-13T08:06:49Z</time>
      </trkpt>
      <trkpt lat="45.58865" lon="6.72669">
        <ele>1312</ele>
        <time>2021-02-13T08:06:54Z</time>
      </trkpt>
      <trkpt lat="45.58865" lon="6.72667">
        <ele>1313</ele>
        <time>2021-02-13T08:06:57Z</time>
      </trkpt>
      <trkpt lat="45.58865" lon="6.72666">
        <ele>1313</ele>
        <time>2021-02-13T08:06:59Z</time>
      </trkpt>
      <trkpt lat="45.58866" lon="6.72664">
        <ele>1313</ele>
        <time>2021-02-13T08:07:04Z</time>
      </trkpt>
      <trkpt lat="45.58866" lon="6.72663">
        <ele>1315</ele>
        <time>2021-02-13T08:07:08Z</time>
      </trkpt>
      <trkpt lat="45.58866" lon="6.72661">
        <ele>1315</ele>
        <time>2021-02-13T08:07:09Z</time>
      </trkpt>
      <trkpt lat="45.58866" lon="6.72659">
        <ele>1315</ele>
        <time>2021-02-13T08:07:14Z</time>
      </trkpt>
      <trkpt lat="45.58866" lon="6.72658">
        <ele>1317</ele>
        <time>2021-02-13T08:07:17Z</time>
      </trkpt>
      <trkpt lat="45.58866" lon="6.72656">
        <ele>1317</ele>
        <time>2021-02-13T08:07:18Z</time>
      </trkpt>
      <trkpt lat="45.58867" lon="6.72655">
        <ele>1317</ele>
        <time>2021-02-13T08:07:22Z</time>
      </trkpt>
      <trkpt lat="45.58867" lon="6.72653">
        <ele>1317</ele>
        <time>2021-02-13T08:07:26Z</time>
      </trkpt>
      <trkpt lat="45.58867" lon="6.72652">
        <ele>1318</ele>
        <time>2021-02-13T08:07:27Z</time>
      </trkpt>
      <trkpt lat="45.58869" lon="6.72651">
        <ele>1318</ele>
        <time>2021-02-13T08:07:30Z</time>
      </trkpt>
      <trkpt lat="45.58871" lon="6.72649">
        <ele>1318</ele>
        <time>2021-02-13T08:07:35Z</time>
      </trkpt>
      <trkpt lat="45.58871" lon="6.72649">
        <ele>1318</ele>
        <time>2021-02-13T08:07:37Z</time>
      </trkpt>
      <trkpt lat="45.58872" lon="6.72648">
        <ele>1318</ele>
        <time>2021-02-13T08:07:40Z</time>
      </trkpt>
      <trkpt lat="45.58874" lon="6.72647">
        <ele>1318</ele>
        <time>2021-02-13T08:07:44Z</time>
      </trkpt>
      <trkpt lat="45.58874" lon="6.72647">
        <ele>1320</ele>
        <time>2021-02-13T08:07:47Z</time>
      </trkpt>
      <trkpt lat="45.58876" lon="6.72645">
        <ele>1320</ele>
        <time>2021-02-13T08:07:48Z</time>
      </trkpt>
      <trkpt lat="45.58877" lon="6.72643">
        <ele>1320</ele>
        <time>2021-02-13T08:07:53Z</time>
      </trkpt>
      <trkpt lat="45.58877" lon="6.72643">
        <ele>1320</ele>
        <time>2021-02-13T08:07:57Z</time>
      </trkpt>
      <trkpt lat="45.58879" lon="6.72641">
        <ele>1320</ele>
        <time>2021-02-13T08:07:58Z</time>
      </trkpt>
      <trkpt lat="45.5888" lon="6.72639">
        <ele>1320</ele>
        <time>2021-02-13T08:08:03Z</time>
      </trkpt>
      <trkpt lat="45.5888" lon="6.72639">
        <ele>1322</ele>
        <time>2021-02-13T08:08:07Z</time>
      </trkpt>
      <trkpt lat="45.5888" lon="6.72636">
        <ele>1322</ele>
        <time>2021-02-13T08:08:08Z</time>
      </trkpt>
      <trkpt lat="45.5888" lon="6.72634">
        <ele>1322</ele>
        <time>2021-02-13T08:08:12Z</time>
      </trkpt>
      <trkpt lat="45.5888" lon="6.7263">
        <ele>1322</ele>
        <time>2021-02-13T08:08:17Z</time>
      </trkpt>
      <trkpt lat="45.5888" lon="6.72628">
        <ele>1322</ele>
        <time>2021-02-13T08:08:21Z</time>
      </trkpt>
      <trkpt lat="45.58879" lon="6.72625">
        <ele>1322</ele>
        <time>2021-02-13T08:08:25Z</time>
      </trkpt>
      <trkpt lat="45.58879" lon="6.72625">
        <ele>1323</ele>
        <time>2021-02-13T08:08:27Z</time>
      </trkpt>
      <trkpt lat="45.58879" lon="6.72623">
        <ele>1323</ele>
        <time>2021-02-13T08:08:29Z</time>
      </trkpt>
      <trkpt lat="45.58879" lon="6.7262">
        <ele>1323</ele>
        <time>2021-02-13T08:08:33Z</time>
      </trkpt>
      <trkpt lat="45.58879" lon="6.72617">
        <ele>1324</ele>
        <time>2021-02-13T08:08:37Z</time>
      </trkpt>
      <trkpt lat="45.58879" lon="6.72614">
        <ele>1324</ele>
        <time>2021-02-13T08:08:41Z</time>
      </trkpt>
      <trkpt lat="45.58879" lon="6.72611">
        <ele>1324</ele>
        <time>2021-02-13T08:08:46Z</time>
      </trkpt>
      <trkpt lat="45.58879" lon="6.72611">
        <ele>1325</ele>
        <time>2021-02-13T08:08:47Z</time>
      </trkpt>
      <trkpt lat="45.58879" lon="6.72607">
        <ele>1325</ele>
        <time>2021-02-13T08:08:51Z</time>
      </trkpt>
      <trkpt lat="45.58879" lon="6.72606">
        <ele>1325</ele>
        <time>2021-02-13T08:08:56Z</time>
      </trkpt>
      <trkpt lat="45.58879" lon="6.72605">
        <ele>1326</ele>
        <time>2021-02-13T08:08:57Z</time>
      </trkpt>
      <trkpt lat="45.58879" lon="6.72602">
        <ele>1326</ele>
        <time>2021-02-13T08:09:00Z</time>
      </trkpt>
      <trkpt lat="45.58879" lon="6.72599">
        <ele>1326</ele>
        <time>2021-02-13T08:09:04Z</time>
      </trkpt>
      <trkpt lat="45.58879" lon="6.72599">
        <ele>1327</ele>
        <time>2021-02-13T08:09:07Z</time>
      </trkpt>
      <trkpt lat="45.58878" lon="6.72596">
        <ele>1327</ele>
        <time>2021-02-13T08:09:09Z</time>
      </trkpt>
      <trkpt lat="45.58878" lon="6.72594">
        <ele>1327</ele>
        <time>2021-02-13T08:09:13Z</time>
      </trkpt>
      <trkpt lat="45.58879" lon="6.72591">
        <ele>1329</ele>
        <time>2021-02-13T08:09:17Z</time>
      </trkpt>
      <trkpt lat="45.58879" lon="6.72588">
        <ele>1329</ele>
        <time>2021-02-13T08:09:22Z</time>
      </trkpt>
      <trkpt lat="45.58879" lon="6.72586">
        <ele>1330</ele>
        <time>2021-02-13T08:09:27Z</time>
      </trkpt>
      <trkpt lat="45.58879" lon="6.72583">
        <ele>1330</ele>
        <time>2021-02-13T08:09:32Z</time>
      </trkpt>
      <trkpt lat="45.58879" lon="6.7258">
        <ele>1331</ele>
        <time>2021-02-13T08:09:37Z</time>
      </trkpt>
      <trkpt lat="45.58879" lon="6.72577">
        <ele>1331</ele>
        <time>2021-02-13T08:09:42Z</time>
      </trkpt>
      <trkpt lat="45.58879" lon="6.72577">
        <ele>1333</ele>
        <time>2021-02-13T08:09:47Z</time>
      </trkpt>
      <trkpt lat="45.58879" lon="6.72574">
        <ele>1333</ele>
        <time>2021-02-13T08:09:48Z</time>
      </trkpt>
      <trkpt lat="45.58879" lon="6.72571">
        <ele>1333</ele>
        <time>2021-02-13T08:09:53Z</time>
      </trkpt>
      <trkpt lat="45.58879" lon="6.72571">
        <ele>1333</ele>
        <time>2021-02-13T08:09:57Z</time>
      </trkpt>
      <trkpt lat="45.58879" lon="6.72569">
        <ele>1333</ele>
        <time>2021-02-13T08:09:58Z</time>
      </trkpt>
      <trkpt lat="45.5888" lon="6.72566">
        <ele>1333</ele>
        <time>2021-02-13T08:10:03Z</time>
      </trkpt>
      <trkpt lat="45.5888" lon="6.72566">
        <ele>1334</ele>
        <time>2021-02-13T08:10:07Z</time>
      </trkpt>
      <trkpt lat="45.5888" lon="6.72563">
        <ele>1334</ele>
        <time>2021-02-13T08:10:09Z</time>
      </trkpt>
      <trkpt lat="45.5888" lon="6.7256">
        <ele>1334</ele>
        <time>2021-02-13T08:10:14Z</time>
      </trkpt>
      <trkpt lat="45.5888" lon="6.7256">
        <ele>1336</ele>
        <time>2021-02-13T08:10:18Z</time>
      </trkpt>
      <trkpt lat="45.5888" lon="6.72557">
        <ele>1336</ele>
        <time>2021-02-13T08:10:19Z</time>
      </trkpt>
      <trkpt lat="45.5888" lon="6.72554">
        <ele>1336</ele>
        <time>2021-02-13T08:10:24Z</time>
      </trkpt>
      <trkpt lat="45.5888" lon="6.72554">
        <ele>1337</ele>
        <time>2021-02-13T08:10:27Z</time>
      </trkpt>
      <trkpt lat="45.5888" lon="6.72552">
        <ele>1337</ele>
        <time>2021-02-13T08:10:29Z</time>
      </trkpt>
      <trkpt lat="45.5888" lon="6.72549">
        <ele>1337</ele>
        <time>2021-02-13T08:10:34Z</time>
      </trkpt>
      <trkpt lat="45.5888" lon="6.72549">
        <ele>1337</ele>
        <time>2021-02-13T08:10:37Z</time>
      </trkpt>
      <trkpt lat="45.5888" lon="6.72546">
        <ele>1337</ele>
        <time>2021-02-13T08:10:39Z</time>
      </trkpt>
      <trkpt lat="45.5888" lon="6.72543">
        <ele>1337</ele>
        <time>2021-02-13T08:10:44Z</time>
      </trkpt>
      <trkpt lat="45.5888" lon="6.72543">
        <ele>1338</ele>
        <time>2021-02-13T08:10:47Z</time>
      </trkpt>
      <trkpt lat="45.58879" lon="6.7254">
        <ele>1338</ele>
        <time>2021-02-13T08:10:49Z</time>
      </trkpt>
      <trkpt lat="45.58879" lon="6.72536">
        <ele>1338</ele>
        <time>2021-02-13T08:10:54Z</time>
      </trkpt>
      <trkpt lat="45.58879" lon="6.72536">
        <ele>1340</ele>
        <time>2021-02-13T08:10:57Z</time>
      </trkpt>
      <trkpt lat="45.58879" lon="6.72533">
        <ele>1340</ele>
        <time>2021-02-13T08:10:59Z</time>
      </trkpt>
      <trkpt lat="45.58879" lon="6.7253">
        <ele>1340</ele>
        <time>2021-02-13T08:11:04Z</time>
      </trkpt>
      <trkpt lat="45.58879" lon="6.7253">
        <ele>1341</ele>
        <time>2021-02-13T08:11:07Z</time>
      </trkpt>
      <trkpt lat="45.58879" lon="6.72527">
        <ele>1341</ele>
        <time>2021-02-13T08:11:09Z</time>
      </trkpt>
      <trkpt lat="45.58879" lon="6.72524">
        <ele>1341</ele>
        <time>2021-02-13T08:11:13Z</time>
      </trkpt>
      <trkpt lat="45.58879" lon="6.72521">
        <ele>1342</ele>
        <time>2021-02-13T08:11:17Z</time>
      </trkpt>
      <trkpt lat="45.58879" lon="6.72518">
        <ele>1342</ele>
        <time>2021-02-13T08:11:21Z</time>
      </trkpt>
      <trkpt lat="45.58879" lon="6.72516">
        <ele>1342</ele>
        <time>2021-02-13T08:11:25Z</time>
      </trkpt>
      <trkpt lat="45.58879" lon="6.72516">
        <ele>1343</ele>
        <time>2021-02-13T08:11:27Z</time>
      </trkpt>
      <trkpt lat="45.5888" lon="6.72513">
        <ele>1343</ele>
        <time>2021-02-13T08:11:29Z</time>
      </trkpt>
      <trkpt lat="45.5888" lon="6.72509">
        <ele>1343</ele>
        <time>2021-02-13T08:11:33Z</time>
      </trkpt>
      <trkpt lat="45.5888" lon="6.72507">
        <ele>1344</ele>
        <time>2021-02-13T08:11:37Z</time>
      </trkpt>
      <trkpt lat="45.5888" lon="6.72504">
        <ele>1344</ele>
        <time>2021-02-13T08:11:41Z</time>
      </trkpt>
      <trkpt lat="45.5888" lon="6.72501">
        <ele>1344</ele>
        <time>2021-02-13T08:11:45Z</time>
      </trkpt>
      <trkpt lat="45.5888" lon="6.72501">
        <ele>1345</ele>
        <time>2021-02-13T08:11:47Z</time>
      </trkpt>
      <trkpt lat="45.58881" lon="6.72496">
        <ele>1345</ele>
        <time>2021-02-13T08:11:49Z</time>
      </trkpt>
      <trkpt lat="45.58881" lon="6.72494">
        <ele>1345</ele>
        <time>2021-02-13T08:11:53Z</time>
      </trkpt>
      <trkpt lat="45.58881" lon="6.72492">
        <ele>1346</ele>
        <time>2021-02-13T08:11:57Z</time>
      </trkpt>
      <trkpt lat="45.58882" lon="6.72491">
        <ele>1346</ele>
        <time>2021-02-13T08:12:01Z</time>
      </trkpt>
      <trkpt lat="45.58882" lon="6.72489">
        <ele>1346</ele>
        <time>2021-02-13T08:12:06Z</time>
      </trkpt>
      <trkpt lat="45.58882" lon="6.72487">
        <ele>1348</ele>
        <time>2021-02-13T08:12:07Z</time>
      </trkpt>
      <trkpt lat="45.58883" lon="6.72484">
        <ele>1348</ele>
        <time>2021-02-13T08:12:10Z</time>
      </trkpt>
      <trkpt lat="45.58883" lon="6.72481">
        <ele>1348</ele>
        <time>2021-02-13T08:12:15Z</time>
      </trkpt>
      <trkpt lat="45.58883" lon="6.72481">
        <ele>1349</ele>
        <time>2021-02-13T08:12:17Z</time>
      </trkpt>
      <trkpt lat="45.58883" lon="6.72476">
        <ele>1349</ele>
        <time>2021-02-13T08:12:20Z</time>
      </trkpt>
      <trkpt lat="45.58883" lon="6.72475">
        <ele>1349</ele>
        <time>2021-02-13T08:12:24Z</time>
      </trkpt>
      <trkpt lat="45.58883" lon="6.72473">
        <ele>1350</ele>
        <time>2021-02-13T08:12:27Z</time>
      </trkpt>
      <trkpt lat="45.58883" lon="6.72471">
        <ele>1350</ele>
        <time>2021-02-13T08:12:29Z</time>
      </trkpt>
      <trkpt lat="45.58883" lon="6.72469">
        <ele>1350</ele>
        <time>2021-02-13T08:12:33Z</time>
      </trkpt>
      <trkpt lat="45.58883" lon="6.72468">
        <ele>1351</ele>
        <time>2021-02-13T08:12:37Z</time>
      </trkpt>
      <trkpt lat="45.58884" lon="6.72466">
        <ele>1351</ele>
        <time>2021-02-13T08:12:39Z</time>
      </trkpt>
      <trkpt lat="45.58884" lon="6.72464">
        <ele>1351</ele>
        <time>2021-02-13T08:12:43Z</time>
      </trkpt>
      <trkpt lat="45.58884" lon="6.72463">
        <ele>1353</ele>
        <time>2021-02-13T08:12:47Z</time>
      </trkpt>
      <trkpt lat="45.58884" lon="6.72461">
        <ele>1353</ele>
        <time>2021-02-13T08:12:48Z</time>
      </trkpt>
      <trkpt lat="45.58884" lon="6.72459">
        <ele>1353</ele>
        <time>2021-02-13T08:12:52Z</time>
      </trkpt>
      <trkpt lat="45.58884" lon="6.72457">
        <ele>1353</ele>
        <time>2021-02-13T08:12:56Z</time>
      </trkpt>
      <trkpt lat="45.58884" lon="6.72456">
        <ele>1354</ele>
        <time>2021-02-13T08:12:57Z</time>
      </trkpt>
      <trkpt lat="45.58884" lon="6.72451">
        <ele>1354</ele>
        <time>2021-02-13T08:13:00Z</time>
      </trkpt>
      <trkpt lat="45.58884" lon="6.72449">
        <ele>1354</ele>
        <time>2021-02-13T08:13:04Z</time>
      </trkpt>
      <trkpt lat="45.58884" lon="6.72448">
        <ele>1354</ele>
        <time>2021-02-13T08:13:07Z</time>
      </trkpt>
      <trkpt lat="45.58884" lon="6.72446">
        <ele>1354</ele>
        <time>2021-02-13T08:13:08Z</time>
      </trkpt>
      <trkpt lat="45.58884" lon="6.72444">
        <ele>1354</ele>
        <time>2021-02-13T08:13:12Z</time>
      </trkpt>
      <trkpt lat="45.58884" lon="6.72443">
        <ele>1354</ele>
        <time>2021-02-13T08:13:16Z</time>
      </trkpt>
      <trkpt lat="45.58884" lon="6.72441">
        <ele>1355</ele>
        <time>2021-02-13T08:13:17Z</time>
      </trkpt>
      <trkpt lat="45.58885" lon="6.72437">
        <ele>1355</ele>
        <time>2021-02-13T08:13:20Z</time>
      </trkpt>
      <trkpt lat="45.58885" lon="6.72435">
        <ele>1355</ele>
        <time>2021-02-13T08:13:24Z</time>
      </trkpt>
      <trkpt lat="45.58886" lon="6.72434">
        <ele>1356</ele>
        <time>2021-02-13T08:13:28Z</time>
      </trkpt>
      <trkpt lat="45.58886" lon="6.72432">
        <ele>1356</ele>
        <time>2021-02-13T08:13:32Z</time>
      </trkpt>
      <trkpt lat="45.58887" lon="6.72431">
        <ele>1356</ele>
        <time>2021-02-13T08:13:36Z</time>
      </trkpt>
      <trkpt lat="45.58887" lon="6.72429">
        <ele>1357</ele>
        <time>2021-02-13T08:13:37Z</time>
      </trkpt>
      <trkpt lat="45.5889" lon="6.72429">
        <ele>1357</ele>
        <time>2021-02-13T08:13:40Z</time>
      </trkpt>
      <trkpt lat="45.58891" lon="6.72429">
        <ele>1357</ele>
        <time>2021-02-13T08:13:44Z</time>
      </trkpt>
      <trkpt lat="45.58891" lon="6.72429">
        <ele>1358</ele>
        <time>2021-02-13T08:13:47Z</time>
      </trkpt>
      <trkpt lat="45.58893" lon="6.72429">
        <ele>1358</ele>
        <time>2021-02-13T08:13:49Z</time>
      </trkpt>
      <trkpt lat="45.58896" lon="6.72429">
        <ele>1358</ele>
        <time>2021-02-13T08:13:54Z</time>
      </trkpt>
      <trkpt lat="45.58896" lon="6.72429">
        <ele>1359</ele>
        <time>2021-02-13T08:13:57Z</time>
      </trkpt>
      <trkpt lat="45.58898" lon="6.72429">
        <ele>1359</ele>
        <time>2021-02-13T08:13:59Z</time>
      </trkpt>
      <trkpt lat="45.589" lon="6.72429">
        <ele>1359</ele>
        <time>2021-02-13T08:14:03Z</time>
      </trkpt>
      <trkpt lat="45.589" lon="6.72429">
        <ele>1361</ele>
        <time>2021-02-13T08:14:07Z</time>
      </trkpt>
      <trkpt lat="45.58902" lon="6.72429">
        <ele>1361</ele>
        <time>2021-02-13T08:14:08Z</time>
      </trkpt>
      <trkpt lat="45.58904" lon="6.72429">
        <ele>1361</ele>
        <time>2021-02-13T08:14:13Z</time>
      </trkpt>
      <trkpt lat="45.58904" lon="6.72429">
        <ele>1362</ele>
        <time>2021-02-13T08:14:17Z</time>
      </trkpt>
      <trkpt lat="45.58906" lon="6.72429">
        <ele>1362</ele>
        <time>2021-02-13T08:14:18Z</time>
      </trkpt>
      <trkpt lat="45.58908" lon="6.72429">
        <ele>1362</ele>
        <time>2021-02-13T08:14:23Z</time>
      </trkpt>
      <trkpt lat="45.58908" lon="6.72429">
        <ele>1362</ele>
        <time>2021-02-13T08:14:27Z</time>
      </trkpt>
      <trkpt lat="45.5891" lon="6.72429">
        <ele>1362</ele>
        <time>2021-02-13T08:14:28Z</time>
      </trkpt>
      <trkpt lat="45.58911" lon="6.72427">
        <ele>1362</ele>
        <time>2021-02-13T08:14:35Z</time>
      </trkpt>
      <trkpt lat="45.58911" lon="6.72427">
        <ele>1364</ele>
        <time>2021-02-13T08:14:37Z</time>
      </trkpt>
      <trkpt lat="45.58909" lon="6.72424">
        <ele>1364</ele>
        <time>2021-02-13T08:14:39Z</time>
      </trkpt>
      <trkpt lat="45.58908" lon="6.72421">
        <ele>1364</ele>
        <time>2021-02-13T08:14:42Z</time>
      </trkpt>
      <trkpt lat="45.58907" lon="6.72419">
        <ele>1364</ele>
        <time>2021-02-13T08:14:45Z</time>
      </trkpt>
      <trkpt lat="45.58907" lon="6.72419">
        <ele>1365</ele>
        <time>2021-02-13T08:14:47Z</time>
      </trkpt>
      <trkpt lat="45.58906" lon="6.72415">
        <ele>1365</ele>
        <time>2021-02-13T08:14:48Z</time>
      </trkpt>
      <trkpt lat="45.58905" lon="6.72413">
        <ele>1365</ele>
        <time>2021-02-13T08:14:52Z</time>
      </trkpt>
      <trkpt lat="45.58905" lon="6.72412">
        <ele>1365</ele>
        <time>2021-02-13T08:14:56Z</time>
      </trkpt>
      <trkpt lat="45.58905" lon="6.7241">
        <ele>1364</ele>
        <time>2021-02-13T08:14:57Z</time>
      </trkpt>
      <trkpt lat="45.58904" lon="6.72407">
        <ele>1364</ele>
        <time>2021-02-13T08:15:01Z</time>
      </trkpt>
      <trkpt lat="45.58904" lon="6.72404">
        <ele>1364</ele>
        <time>2021-02-13T08:15:06Z</time>
      </trkpt>
      <trkpt lat="45.58904" lon="6.72404">
        <ele>1366</ele>
        <time>2021-02-13T08:15:07Z</time>
      </trkpt>
      <trkpt lat="45.58904" lon="6.72401">
        <ele>1366</ele>
        <time>2021-02-13T08:15:11Z</time>
      </trkpt>
      <trkpt lat="45.58904" lon="6.724">
        <ele>1366</ele>
        <time>2021-02-13T08:15:16Z</time>
      </trkpt>
      <trkpt lat="45.58904" lon="6.72399">
        <ele>1367</ele>
        <time>2021-02-13T08:15:17Z</time>
      </trkpt>
      <trkpt lat="45.58904" lon="6.72396">
        <ele>1367</ele>
        <time>2021-02-13T08:15:21Z</time>
      </trkpt>
      <trkpt lat="45.58905" lon="6.72393">
        <ele>1367</ele>
        <time>2021-02-13T08:15:26Z</time>
      </trkpt>
      <trkpt lat="45.58905" lon="6.72393">
        <ele>1368</ele>
        <time>2021-02-13T08:15:27Z</time>
      </trkpt>
      <trkpt lat="45.58906" lon="6.7239">
        <ele>1368</ele>
        <time>2021-02-13T08:15:32Z</time>
      </trkpt>
      <trkpt lat="45.58906" lon="6.7239">
        <ele>1369</ele>
        <time>2021-02-13T08:15:37Z</time>
      </trkpt>
      <trkpt lat="45.58906" lon="6.72388">
        <ele>1369</ele>
        <time>2021-02-13T08:15:38Z</time>
      </trkpt>
      <trkpt lat="45.58907" lon="6.72385">
        <ele>1369</ele>
        <time>2021-02-13T08:15:44Z</time>
      </trkpt>
      <trkpt lat="45.58907" lon="6.72385">
        <ele>1370</ele>
        <time>2021-02-13T08:15:47Z</time>
      </trkpt>
      <trkpt lat="45.58907" lon="6.72382">
        <ele>1370</ele>
        <time>2021-02-13T08:15:50Z</time>
      </trkpt>
      <trkpt lat="45.58908" lon="6.72379">
        <ele>1370</ele>
        <time>2021-02-13T08:15:56Z</time>
      </trkpt>
      <trkpt lat="45.58908" lon="6.72379">
        <ele>1371</ele>
        <time>2021-02-13T08:15:57Z</time>
      </trkpt>
      <trkpt lat="45.58909" lon="6.72376">
        <ele>1371</ele>
        <time>2021-02-13T08:16:02Z</time>
      </trkpt>
      <trkpt lat="45.58909" lon="6.72376">
        <ele>1372</ele>
        <time>2021-02-13T08:16:07Z</time>
      </trkpt>
      <trkpt lat="45.5891" lon="6.72374">
        <ele>1372</ele>
        <time>2021-02-13T08:16:08Z</time>
      </trkpt>
      <trkpt lat="45.5891" lon="6.72371">
        <ele>1372</ele>
        <time>2021-02-13T08:16:14Z</time>
      </trkpt>
      <trkpt lat="45.5891" lon="6.72371">
        <ele>1372</ele>
        <time>2021-02-13T08:16:17Z</time>
      </trkpt>
      <trkpt lat="45.58911" lon="6.72368">
        <ele>1372</ele>
        <time>2021-02-13T08:16:19Z</time>
      </trkpt>
      <trkpt lat="45.58911" lon="6.72366">
        <ele>1372</ele>
        <time>2021-02-13T08:16:24Z</time>
      </trkpt>
      <trkpt lat="45.58911" lon="6.72366">
        <ele>1374</ele>
        <time>2021-02-13T08:16:27Z</time>
      </trkpt>
      <trkpt lat="45.58911" lon="6.72363">
        <ele>1374</ele>
        <time>2021-02-13T08:16:29Z</time>
      </trkpt>
      <trkpt lat="45.58911" lon="6.7236">
        <ele>1374</ele>
        <time>2021-02-13T08:16:34Z</time>
      </trkpt>
      <trkpt lat="45.58911" lon="6.7236">
        <ele>1375</ele>
        <time>2021-02-13T08:16:38Z</time>
      </trkpt>
      <trkpt lat="45.58912" lon="6.72357">
        <ele>1375</ele>
        <time>2021-02-13T08:16:39Z</time>
      </trkpt>
      <trkpt lat="45.58912" lon="6.72354">
        <ele>1375</ele>
        <time>2021-02-13T08:16:44Z</time>
      </trkpt>
      <trkpt lat="45.58912" lon="6.72354">
        <ele>1376</ele>
        <time>2021-02-13T08:16:47Z</time>
      </trkpt>
      <trkpt lat="45.58913" lon="6.72351">
        <ele>1376</ele>
        <time>2021-02-13T08:16:49Z</time>
      </trkpt>
      <trkpt lat="45.58913" lon="6.72349">
        <ele>1376</ele>
        <time>2021-02-13T08:16:54Z</time>
      </trkpt>
      <trkpt lat="45.58913" lon="6.72349">
        <ele>1378</ele>
        <time>2021-02-13T08:16:57Z</time>
      </trkpt>
      <trkpt lat="45.58914" lon="6.72346">
        <ele>1378</ele>
        <time>2021-02-13T08:16:59Z</time>
      </trkpt>
      <trkpt lat="45.58914" lon="6.72344">
        <ele>1378</ele>
        <time>2021-02-13T08:17:04Z</time>
      </trkpt>
      <trkpt lat="45.58914" lon="6.72344">
        <ele>1378</ele>
        <time>2021-02-13T08:17:07Z</time>
      </trkpt>
      <trkpt lat="45.58915" lon="6.72341">
        <ele>1378</ele>
        <time>2021-02-13T08:17:09Z</time>
      </trkpt>
      <trkpt lat="45.58915" lon="6.72338">
        <ele>1378</ele>
        <time>2021-02-13T08:17:15Z</time>
      </trkpt>
      <trkpt lat="45.58915" lon="6.72338">
        <ele>1379</ele>
        <time>2021-02-13T08:17:17Z</time>
      </trkpt>
      <trkpt lat="45.58916" lon="6.72336">
        <ele>1379</ele>
        <time>2021-02-13T08:17:24Z</time>
      </trkpt>
      <trkpt lat="45.58916" lon="6.72336">
        <ele>1380</ele>
        <time>2021-02-13T08:17:27Z</time>
      </trkpt>
      <trkpt lat="45.58916" lon="6.72333">
        <ele>1380</ele>
        <time>2021-02-13T08:17:29Z</time>
      </trkpt>
      <trkpt lat="45.58916" lon="6.7233">
        <ele>1380</ele>
        <time>2021-02-13T08:17:34Z</time>
      </trkpt>
      <trkpt lat="45.58916" lon="6.7233">
        <ele>1382</ele>
        <time>2021-02-13T08:17:37Z</time>
      </trkpt>
      <trkpt lat="45.58916" lon="6.72328">
        <ele>1382</ele>
        <time>2021-02-13T08:17:39Z</time>
      </trkpt>
      <trkpt lat="45.58917" lon="6.72325">
        <ele>1382</ele>
        <time>2021-02-13T08:17:44Z</time>
      </trkpt>
      <trkpt lat="45.58917" lon="6.72325">
        <ele>1383</ele>
        <time>2021-02-13T08:17:47Z</time>
      </trkpt>
      <trkpt lat="45.58918" lon="6.72322">
        <ele>1383</ele>
        <time>2021-02-13T08:17:50Z</time>
      </trkpt>
      <trkpt lat="45.58919" lon="6.7232">
        <ele>1383</ele>
        <time>2021-02-13T08:17:55Z</time>
      </trkpt>
      <trkpt lat="45.58919" lon="6.7232">
        <ele>1385</ele>
        <time>2021-02-13T08:17:57Z</time>
      </trkpt>
      <trkpt lat="45.5892" lon="6.72318">
        <ele>1385</ele>
        <time>2021-02-13T08:18:01Z</time>
      </trkpt>
      <trkpt lat="45.5892" lon="6.72315">
        <ele>1385</ele>
        <time>2021-02-13T08:18:06Z</time>
      </trkpt>
      <trkpt lat="45.5892" lon="6.72315">
        <ele>1385</ele>
        <time>2021-02-13T08:18:07Z</time>
      </trkpt>
      <trkpt lat="45.58921" lon="6.72312">
        <ele>1385</ele>
        <time>2021-02-13T08:18:12Z</time>
      </trkpt>
      <trkpt lat="45.58921" lon="6.72312">
        <ele>1385</ele>
        <time>2021-02-13T08:18:17Z</time>
      </trkpt>
      <trkpt lat="45.58922" lon="6.72311">
        <ele>1385</ele>
        <time>2021-02-13T08:18:19Z</time>
      </trkpt>
      <trkpt lat="45.58924" lon="6.72313">
        <ele>1385</ele>
        <time>2021-02-13T08:18:26Z</time>
      </trkpt>
      <trkpt lat="45.58924" lon="6.72313">
        <ele>1387</ele>
        <time>2021-02-13T08:18:27Z</time>
      </trkpt>
      <trkpt lat="45.58927" lon="6.72314">
        <ele>1387</ele>
        <time>2021-02-13T08:18:33Z</time>
      </trkpt>
      <trkpt lat="45.58928" lon="6.72314">
        <ele>1388</ele>
        <time>2021-02-13T08:18:37Z</time>
      </trkpt>
      <trkpt lat="45.58928" lon="6.72314">
        <ele>1388</ele>
        <time>2021-02-13T08:18:39Z</time>
      </trkpt>
      <trkpt lat="45.58929" lon="6.72315">
        <ele>1388</ele>
        <time>2021-02-13T08:18:46Z</time>
      </trkpt>
      <trkpt lat="45.5893" lon="6.72315">
        <ele>1389</ele>
        <time>2021-02-13T08:18:47Z</time>
      </trkpt>
      <trkpt lat="45.58932" lon="6.72315">
        <ele>1389</ele>
        <time>2021-02-13T08:18:53Z</time>
      </trkpt>
      <trkpt lat="45.58932" lon="6.72315">
        <ele>1391</ele>
        <time>2021-02-13T08:18:57Z</time>
      </trkpt>
      <trkpt lat="45.58934" lon="6.72315">
        <ele>1391</ele>
        <time>2021-02-13T08:18:59Z</time>
      </trkpt>
      <trkpt lat="45.58936" lon="6.72315">
        <ele>1391</ele>
        <time>2021-02-13T08:19:04Z</time>
      </trkpt>
      <trkpt lat="45.58936" lon="6.72315">
        <ele>1392</ele>
        <time>2021-02-13T08:19:07Z</time>
      </trkpt>
      <trkpt lat="45.58937" lon="6.72316">
        <ele>1392</ele>
        <time>2021-02-13T08:19:09Z</time>
      </trkpt>
      <trkpt lat="45.58939" lon="6.72316">
        <ele>1392</ele>
        <time>2021-02-13T08:19:15Z</time>
      </trkpt>
      <trkpt lat="45.58939" lon="6.72316">
        <ele>1392</ele>
        <time>2021-02-13T08:19:17Z</time>
      </trkpt>
      <trkpt lat="45.58943" lon="6.72317">
        <ele>1392</ele>
        <time>2021-02-13T08:19:20Z</time>
      </trkpt>
      <trkpt lat="45.58944" lon="6.72317">
        <ele>1394</ele>
        <time>2021-02-13T08:19:27Z</time>
      </trkpt>
      <trkpt lat="45.58945" lon="6.72317">
        <ele>1394</ele>
        <time>2021-02-13T08:19:29Z</time>
      </trkpt>
      <trkpt lat="45.58946" lon="6.72318">
        <ele>1394</ele>
        <time>2021-02-13T08:19:34Z</time>
      </trkpt>
      <trkpt lat="45.58948" lon="6.72318">
        <ele>1395</ele>
        <time>2021-02-13T08:19:37Z</time>
      </trkpt>
      <trkpt lat="45.58949" lon="6.72318">
        <ele>1395</ele>
        <time>2021-02-13T08:19:39Z</time>
      </trkpt>
      <trkpt lat="45.5895" lon="6.72318">
        <ele>1395</ele>
        <time>2021-02-13T08:19:44Z</time>
      </trkpt>
      <trkpt lat="45.58952" lon="6.72318">
        <ele>1397</ele>
        <time>2021-02-13T08:19:48Z</time>
      </trkpt>
      <trkpt lat="45.58953" lon="6.72319">
        <ele>1397</ele>
        <time>2021-02-13T08:19:53Z</time>
      </trkpt>
      <trkpt lat="45.58954" lon="6.72319">
        <ele>1398</ele>
        <time>2021-02-13T08:19:57Z</time>
      </trkpt>
      <trkpt lat="45.58956" lon="6.72319">
        <ele>1398</ele>
        <time>2021-02-13T08:19:58Z</time>
      </trkpt>
      <trkpt lat="45.58957" lon="6.72319">
        <ele>1398</ele>
        <time>2021-02-13T08:20:03Z</time>
      </trkpt>
      <trkpt lat="45.58958" lon="6.7232">
        <ele>1398</ele>
        <time>2021-02-13T08:20:07Z</time>
      </trkpt>
      <trkpt lat="45.58959" lon="6.7232">
        <ele>1398</ele>
        <time>2021-02-13T08:20:12Z</time>
      </trkpt>
      <trkpt lat="45.58961" lon="6.7232">
        <ele>1399</ele>
        <time>2021-02-13T08:20:17Z</time>
      </trkpt>
      <trkpt lat="45.58962" lon="6.7232">
        <ele>1399</ele>
        <time>2021-02-13T08:20:23Z</time>
      </trkpt>
      <trkpt lat="45.58963" lon="6.72321">
        <ele>1401</ele>
        <time>2021-02-13T08:20:27Z</time>
      </trkpt>
      <trkpt lat="45.58965" lon="6.72321">
        <ele>1401</ele>
        <time>2021-02-13T08:20:29Z</time>
      </trkpt>
      <trkpt lat="45.58966" lon="6.72321">
        <ele>1401</ele>
        <time>2021-02-13T08:20:34Z</time>
      </trkpt>
      <trkpt lat="45.58967" lon="6.72321">
        <ele>1401</ele>
        <time>2021-02-13T08:20:37Z</time>
      </trkpt>
      <trkpt lat="45.58968" lon="6.72322">
        <ele>1401</ele>
        <time>2021-02-13T08:20:40Z</time>
      </trkpt>
      <trkpt lat="45.5897" lon="6.72322">
        <ele>1401</ele>
        <time>2021-02-13T08:20:46Z</time>
      </trkpt>
      <trkpt lat="45.58971" lon="6.72322">
        <ele>1402</ele>
        <time>2021-02-13T08:20:47Z</time>
      </trkpt>
      <trkpt lat="45.58972" lon="6.7232">
        <ele>1402</ele>
        <time>2021-02-13T08:20:51Z</time>
      </trkpt>
      <trkpt lat="45.58972" lon="6.72317">
        <ele>1402</ele>
        <time>2021-02-13T08:20:56Z</time>
      </trkpt>
      <trkpt lat="45.58972" lon="6.72317">
        <ele>1403</ele>
        <time>2021-02-13T08:20:57Z</time>
      </trkpt>
      <trkpt lat="45.58973" lon="6.72315">
        <ele>1403</ele>
        <time>2021-02-13T08:21:01Z</time>
      </trkpt>
      <trkpt lat="45.58974" lon="6.72312">
        <ele>1403</ele>
        <time>2021-02-13T08:21:06Z</time>
      </trkpt>
      <trkpt lat="45.58974" lon="6.72312">
        <ele>1404</ele>
        <time>2021-02-13T08:21:07Z</time>
      </trkpt>
      <trkpt lat="45.58974" lon="6.72308">
        <ele>1404</ele>
        <time>2021-02-13T08:21:11Z</time>
      </trkpt>
      <trkpt lat="45.58974" lon="6.72307">
        <ele>1404</ele>
        <time>2021-02-13T08:21:16Z</time>
      </trkpt>
      <trkpt lat="45.58974" lon="6.72307">
        <ele>1405</ele>
        <time>2021-02-13T08:21:17Z</time>
      </trkpt>
      <trkpt lat="45.58975" lon="6.72304">
        <ele>1405</ele>
        <time>2021-02-13T08:21:21Z</time>
      </trkpt>
      <trkpt lat="45.58976" lon="6.72301">
        <ele>1405</ele>
        <time>2021-02-13T08:21:26Z</time>
      </trkpt>
      <trkpt lat="45.58976" lon="6.72301">
        <ele>1406</ele>
        <time>2021-02-13T08:21:27Z</time>
      </trkpt>
      <trkpt lat="45.58977" lon="6.72297">
        <ele>1406</ele>
        <time>2021-02-13T08:21:32Z</time>
      </trkpt>
      <trkpt lat="45.58978" lon="6.72296">
        <ele>1407</ele>
        <time>2021-02-13T08:21:37Z</time>
      </trkpt>
      <trkpt lat="45.58978" lon="6.72294">
        <ele>1407</ele>
        <time>2021-02-13T08:21:38Z</time>
      </trkpt>
      <trkpt lat="45.58979" lon="6.72292">
        <ele>1407</ele>
        <time>2021-02-13T08:21:43Z</time>
      </trkpt>
      <trkpt lat="45.58979" lon="6.72291">
        <ele>1409</ele>
        <time>2021-02-13T08:21:47Z</time>
      </trkpt>
      <trkpt lat="45.5898" lon="6.72289">
        <ele>1409</ele>
        <time>2021-02-13T08:21:48Z</time>
      </trkpt>
      <trkpt lat="45.5898" lon="6.72288">
        <ele>1409</ele>
        <time>2021-02-13T08:21:53Z</time>
      </trkpt>
      <trkpt lat="45.58981" lon="6.72286">
        <ele>1410</ele>
        <time>2021-02-13T08:21:57Z</time>
      </trkpt>
      <trkpt lat="45.58981" lon="6.72285">
        <ele>1410</ele>
        <time>2021-02-13T08:21:58Z</time>
      </trkpt>
      <trkpt lat="45.58982" lon="6.72283">
        <ele>1410</ele>
        <time>2021-02-13T08:22:03Z</time>
      </trkpt>
      <trkpt lat="45.58982" lon="6.72281">
        <ele>1411</ele>
        <time>2021-02-13T08:22:07Z</time>
      </trkpt>
      <trkpt lat="45.58983" lon="6.7228">
        <ele>1411</ele>
        <time>2021-02-13T08:22:08Z</time>
      </trkpt>
      <trkpt lat="45.58983" lon="6.72278">
        <ele>1411</ele>
        <time>2021-02-13T08:22:13Z</time>
      </trkpt>
      <trkpt lat="45.58984" lon="6.72277">
        <ele>1413</ele>
        <time>2021-02-13T08:22:17Z</time>
      </trkpt>
      <trkpt lat="45.58985" lon="6.72275">
        <ele>1413</ele>
        <time>2021-02-13T08:22:18Z</time>
      </trkpt>
      <trkpt lat="45.58985" lon="6.72274">
        <ele>1413</ele>
        <time>2021-02-13T08:22:23Z</time>
      </trkpt>
      <trkpt lat="45.58986" lon="6.72272">
        <ele>1413</ele>
        <time>2021-02-13T08:22:27Z</time>
      </trkpt>
      <trkpt lat="45.58986" lon="6.7227">
        <ele>1413</ele>
        <time>2021-02-13T08:22:28Z</time>
      </trkpt>
      <trkpt lat="45.58987" lon="6.72269">
        <ele>1413</ele>
        <time>2021-02-13T08:22:33Z</time>
      </trkpt>
      <trkpt lat="45.58987" lon="6.72267">
        <ele>1415</ele>
        <time>2021-02-13T08:22:37Z</time>
      </trkpt>
      <trkpt lat="45.58988" lon="6.72266">
        <ele>1415</ele>
        <time>2021-02-13T08:22:38Z</time>
      </trkpt>
      <trkpt lat="45.58988" lon="6.72264">
        <ele>1415</ele>
        <time>2021-02-13T08:22:43Z</time>
      </trkpt>
      <trkpt lat="45.58989" lon="6.72263">
        <ele>1416</ele>
        <time>2021-02-13T08:22:47Z</time>
      </trkpt>
      <trkpt lat="45.58989" lon="6.72261">
        <ele>1416</ele>
        <time>2021-02-13T08:22:48Z</time>
      </trkpt>
      <trkpt lat="45.5899" lon="6.72259">
        <ele>1416</ele>
        <time>2021-02-13T08:22:52Z</time>
      </trkpt>
      <trkpt lat="45.58991" lon="6.72258">
        <ele>1416</ele>
        <time>2021-02-13T08:22:57Z</time>
      </trkpt>
      <trkpt lat="45.58991" lon="6.72256">
        <ele>1416</ele>
        <time>2021-02-13T08:22:58Z</time>
      </trkpt>
      <trkpt lat="45.58992" lon="6.72252">
        <ele>1416</ele>
        <time>2021-02-13T08:23:02Z</time>
      </trkpt>
      <trkpt lat="45.58993" lon="6.72251">
        <ele>1417</ele>
        <time>2021-02-13T08:23:07Z</time>
      </trkpt>
      <trkpt lat="45.58993" lon="6.72249">
        <ele>1417</ele>
        <time>2021-02-13T08:23:13Z</time>
      </trkpt>
      <trkpt lat="45.58994" lon="6.72248">
        <ele>1419</ele>
        <time>2021-02-13T08:23:17Z</time>
      </trkpt>
      <trkpt lat="45.58994" lon="6.72246">
        <ele>1419</ele>
        <time>2021-02-13T08:23:18Z</time>
      </trkpt>
      <trkpt lat="45.58995" lon="6.72245">
        <ele>1419</ele>
        <time>2021-02-13T08:23:24Z</time>
      </trkpt>
      <trkpt lat="45.58996" lon="6.72243">
        <ele>1419</ele>
        <time>2021-02-13T08:23:27Z</time>
      </trkpt>
      <trkpt lat="45.58996" lon="6.72242">
        <ele>1419</ele>
        <time>2021-02-13T08:23:30Z</time>
      </trkpt>
      <trkpt lat="45.58997" lon="6.72241">
        <ele>1419</ele>
        <time>2021-02-13T08:23:36Z</time>
      </trkpt>
      <trkpt lat="45.58997" lon="6.72239">
        <ele>1421</ele>
        <time>2021-02-13T08:23:37Z</time>
      </trkpt>
      <trkpt lat="45.58999" lon="6.72237">
        <ele>1421</ele>
        <time>2021-02-13T08:23:42Z</time>
      </trkpt>
      <trkpt lat="45.58999" lon="6.72237">
        <ele>1422</ele>
        <time>2021-02-13T08:23:47Z</time>
      </trkpt>
      <trkpt lat="45.59" lon="6.72235">
        <ele>1422</ele>
        <time>2021-02-13T08:23:48Z</time>
      </trkpt>
      <trkpt lat="45.59001" lon="6.72233">
        <ele>1422</ele>
        <time>2021-02-13T08:23:54Z</time>
      </trkpt>
      <trkpt lat="45.59001" lon="6.72233">
        <ele>1423</ele>
        <time>2021-02-13T08:23:57Z</time>
      </trkpt>
      <trkpt lat="45.59002" lon="6.72231">
        <ele>1423</ele>
        <time>2021-02-13T08:24:00Z</time>
      </trkpt>
      <trkpt lat="45.59003" lon="6.72228">
        <ele>1423</ele>
        <time>2021-02-13T08:24:06Z</time>
      </trkpt>
      <trkpt lat="45.59003" lon="6.72228">
        <ele>1425</ele>
        <time>2021-02-13T08:24:07Z</time>
      </trkpt>
      <trkpt lat="45.59004" lon="6.72225">
        <ele>1425</ele>
        <time>2021-02-13T08:24:12Z</time>
      </trkpt>
      <trkpt lat="45.59004" lon="6.72224">
        <ele>1425</ele>
        <time>2021-02-13T08:24:17Z</time>
      </trkpt>
      <trkpt lat="45.59004" lon="6.72223">
        <ele>1426</ele>
        <time>2021-02-13T08:24:18Z</time>
      </trkpt>
      <trkpt lat="45.59005" lon="6.7222">
        <ele>1426</ele>
        <time>2021-02-13T08:24:22Z</time>
      </trkpt>
      <trkpt lat="45.59006" lon="6.72218">
        <ele>1427</ele>
        <time>2021-02-13T08:24:27Z</time>
      </trkpt>
      <trkpt lat="45.59007" lon="6.72217">
        <ele>1427</ele>
        <time>2021-02-13T08:24:31Z</time>
      </trkpt>
      <trkpt lat="45.59007" lon="6.72217">
        <ele>1428</ele>
        <time>2021-02-13T08:24:37Z</time>
      </trkpt>
      <trkpt lat="45.59007" lon="6.72217">
        <ele>1428</ele>
        <time>2021-02-13T08:24:47Z</time>
      </trkpt>
      <trkpt lat="45.59007" lon="6.72217">
        <ele>1427</ele>
        <time>2021-02-13T08:24:57Z</time>
      </trkpt>
      <trkpt lat="45.59007" lon="6.72217">
        <ele>1427</ele>
        <time>2021-02-13T08:25:07Z</time>
      </trkpt>
      <trkpt lat="45.59007" lon="6.72217">
        <ele>1427</ele>
        <time>2021-02-13T08:25:17Z</time>
      </trkpt>
      <trkpt lat="45.59007" lon="6.72217">
        <ele>1428</ele>
        <time>2021-02-13T08:25:27Z</time>
      </trkpt>
      <trkpt lat="45.59009" lon="6.72217">
        <ele>1428</ele>
        <time>2021-02-13T08:25:32Z</time>
      </trkpt>
      <trkpt lat="45.59009" lon="6.72217">
        <ele>1428</ele>
        <time>2021-02-13T08:25:37Z</time>
      </trkpt>
      <trkpt lat="45.59009" lon="6.72217">
        <ele>1427</ele>
        <time>2021-02-13T08:25:47Z</time>
      </trkpt>
      <trkpt lat="45.59009" lon="6.72217">
        <ele>1427</ele>
        <time>2021-02-13T08:25:57Z</time>
      </trkpt>
      <trkpt lat="45.59009" lon="6.72217">
        <ele>1426</ele>
        <time>2021-02-13T08:26:08Z</time>
      </trkpt>
      <trkpt lat="45.59009" lon="6.72217">
        <ele>1426</ele>
        <time>2021-02-13T08:26:17Z</time>
      </trkpt>
      <trkpt lat="45.59009" lon="6.72217">
        <ele>1427</ele>
        <time>2021-02-13T08:26:27Z</time>
      </trkpt>
      <trkpt lat="45.59009" lon="6.72217">
        <ele>1428</ele>
        <time>2021-02-13T08:26:37Z</time>
      </trkpt>
      <trkpt lat="45.59009" lon="6.72217">
        <ele>1427</ele>
        <time>2021-02-13T08:26:47Z</time>
      </trkpt>
      <trkpt lat="45.59009" lon="6.72217">
        <ele>1426</ele>
        <time>2021-02-13T08:26:57Z</time>
      </trkpt>
      <trkpt lat="45.59009" lon="6.72217">
        <ele>1427</ele>
        <time>2021-02-13T08:27:07Z</time>
      </trkpt>
      <trkpt lat="45.59009" lon="6.72217">
        <ele>1427</ele>
        <time>2021-02-13T08:27:17Z</time>
      </trkpt>
      <trkpt lat="45.59009" lon="6.72217">
        <ele>1427</ele>
        <time>2021-02-13T08:27:27Z</time>
      </trkpt>
      <trkpt lat="45.59009" lon="6.72217">
        <ele>1427</ele>
        <time>2021-02-13T08:27:37Z</time>
      </trkpt>
      <trkpt lat="45.59009" lon="6.72217">
        <ele>1427</ele>
        <time>2021-02-13T08:27:47Z</time>
      </trkpt>
      <trkpt lat="45.59009" lon="6.72217">
        <ele>1427</ele>
        <time>2021-02-13T08:27:57Z</time>
      </trkpt>
      <trkpt lat="45.59009" lon="6.72217">
        <ele>1427</ele>
        <time>2021-02-13T08:28:07Z</time>
      </trkpt>
      <trkpt lat="45.59009" lon="6.72217">
        <ele>1427</ele>
        <time>2021-02-13T08:28:17Z</time>
      </trkpt>
      <trkpt lat="45.5901" lon="6.7222">
        <ele>1427</ele>
        <time>2021-02-13T08:28:20Z</time>
      </trkpt>
      <trkpt lat="45.59011" lon="6.72222">
        <ele>1427</ele>
        <time>2021-02-13T08:28:24Z</time>
      </trkpt>
      <trkpt lat="45.59011" lon="6.72222">
        <ele>1427</ele>
        <time>2021-02-13T08:28:27Z</time>
      </trkpt>
      <trkpt lat="45.59013" lon="6.72224">
        <ele>1427</ele>
        <time>2021-02-13T08:28:28Z</time>
      </trkpt>
      <trkpt lat="45.59014" lon="6.72226">
        <ele>1427</ele>
        <time>2021-02-13T08:28:33Z</time>
      </trkpt>
      <trkpt lat="45.59016" lon="6.72227">
        <ele>1428</ele>
        <time>2021-02-13T08:28:37Z</time>
      </trkpt>
      <trkpt lat="45.59018" lon="6.72228">
        <ele>1428</ele>
        <time>2021-02-13T08:28:42Z</time>
      </trkpt>
      <trkpt lat="45.5902" lon="6.72228">
        <ele>1428</ele>
        <time>2021-02-13T08:28:47Z</time>
      </trkpt>
      <trkpt lat="45.59022" lon="6.72229">
        <ele>1428</ele>
        <time>2021-02-13T08:28:52Z</time>
      </trkpt>
      <trkpt lat="45.59025" lon="6.7223">
        <ele>1430</ele>
        <time>2021-02-13T08:28:57Z</time>
      </trkpt>
      <trkpt lat="45.59027" lon="6.7223">
        <ele>1430</ele>
        <time>2021-02-13T08:29:02Z</time>
      </trkpt>
      <trkpt lat="45.59029" lon="6.7223">
        <ele>1431</ele>
        <time>2021-02-13T08:29:07Z</time>
      </trkpt>
      <trkpt lat="45.59031" lon="6.72231">
        <ele>1431</ele>
        <time>2021-02-13T08:29:12Z</time>
      </trkpt>
      <trkpt lat="45.59033" lon="6.72231">
        <ele>1431</ele>
        <time>2021-02-13T08:29:17Z</time>
      </trkpt>
      <trkpt lat="45.59033" lon="6.72231">
        <ele>1432</ele>
        <time>2021-02-13T08:29:18Z</time>
      </trkpt>
      <trkpt lat="45.59036" lon="6.72231">
        <ele>1432</ele>
        <time>2021-02-13T08:29:22Z</time>
      </trkpt>
      <trkpt lat="45.59038" lon="6.72232">
        <ele>1432</ele>
        <time>2021-02-13T08:29:27Z</time>
      </trkpt>
      <trkpt lat="45.59039" lon="6.72232">
        <ele>1432</ele>
        <time>2021-02-13T08:29:33Z</time>
      </trkpt>
      <trkpt lat="45.5904" lon="6.72232">
        <ele>1434</ele>
        <time>2021-02-13T08:29:37Z</time>
      </trkpt>
      <trkpt lat="45.59041" lon="6.72233">
        <ele>1434</ele>
        <time>2021-02-13T08:29:38Z</time>
      </trkpt>
      <trkpt lat="45.59043" lon="6.72233">
        <ele>1434</ele>
        <time>2021-02-13T08:29:43Z</time>
      </trkpt>
      <trkpt lat="45.59044" lon="6.72233">
        <ele>1434</ele>
        <time>2021-02-13T08:29:47Z</time>
      </trkpt>
      <trkpt lat="45.59045" lon="6.72234">
        <ele>1434</ele>
        <time>2021-02-13T08:29:48Z</time>
      </trkpt>
      <trkpt lat="45.59047" lon="6.72234">
        <ele>1434</ele>
        <time>2021-02-13T08:29:52Z</time>
      </trkpt>
      <trkpt lat="45.59048" lon="6.72234">
        <ele>1434</ele>
        <time>2021-02-13T08:29:56Z</time>
      </trkpt>
      <trkpt lat="45.59049" lon="6.72235">
        <ele>1435</ele>
        <time>2021-02-13T08:29:57Z</time>
      </trkpt>
      <trkpt lat="45.59051" lon="6.72235">
        <ele>1435</ele>
        <time>2021-02-13T08:30:00Z</time>
      </trkpt>
      <trkpt lat="45.59053" lon="6.72236">
        <ele>1435</ele>
        <time>2021-02-13T08:30:04Z</time>
      </trkpt>
      <trkpt lat="45.59053" lon="6.72236">
        <ele>1437</ele>
        <time>2021-02-13T08:30:07Z</time>
      </trkpt>
      <trkpt lat="45.59055" lon="6.72237">
        <ele>1437</ele>
        <time>2021-02-13T08:30:09Z</time>
      </trkpt>
      <trkpt lat="45.59057" lon="6.72237">
        <ele>1437</ele>
        <time>2021-02-13T08:30:14Z</time>
      </trkpt>
      <trkpt lat="45.59057" lon="6.72237">
        <ele>1438</ele>
        <time>2021-02-13T08:30:17Z</time>
      </trkpt>
      <trkpt lat="45.59059" lon="6.72238">
        <ele>1438</ele>
        <time>2021-02-13T08:30:19Z</time>
      </trkpt>
      <trkpt lat="45.59061" lon="6.72239">
        <ele>1438</ele>
        <time>2021-02-13T08:30:24Z</time>
      </trkpt>
      <trkpt lat="45.59061" lon="6.72239">
        <ele>1439</ele>
        <time>2021-02-13T08:30:27Z</time>
      </trkpt>
      <trkpt lat="45.59063" lon="6.72239">
        <ele>1439</ele>
        <time>2021-02-13T08:30:29Z</time>
      </trkpt>
      <trkpt lat="45.59065" lon="6.72239">
        <ele>1439</ele>
        <time>2021-02-13T08:30:33Z</time>
      </trkpt>
      <trkpt lat="45.59067" lon="6.7224">
        <ele>1441</ele>
        <time>2021-02-13T08:30:37Z</time>
      </trkpt>
      <trkpt lat="45.59069" lon="6.7224">
        <ele>1441</ele>
        <time>2021-02-13T08:30:41Z</time>
      </trkpt>
      <trkpt lat="45.59071" lon="6.7224">
        <ele>1441</ele>
        <time>2021-02-13T08:30:45Z</time>
      </trkpt>
      <trkpt lat="45.59071" lon="6.7224">
        <ele>1441</ele>
        <time>2021-02-13T08:30:47Z</time>
      </trkpt>
      <trkpt lat="45.59074" lon="6.7224">
        <ele>1441</ele>
        <time>2021-02-13T08:30:49Z</time>
      </trkpt>
      <trkpt lat="45.59075" lon="6.7224">
        <ele>1441</ele>
        <time>2021-02-13T08:30:54Z</time>
      </trkpt>
      <trkpt lat="45.59076" lon="6.7224">
        <ele>1442</ele>
        <time>2021-02-13T08:30:57Z</time>
      </trkpt>
      <trkpt lat="45.59077" lon="6.7224">
        <ele>1442</ele>
        <time>2021-02-13T08:30:58Z</time>
      </trkpt>
      <trkpt lat="45.59079" lon="6.7224">
        <ele>1442</ele>
        <time>2021-02-13T08:31:02Z</time>
      </trkpt>
      <trkpt lat="45.5908" lon="6.7224">
        <ele>1442</ele>
        <time>2021-02-13T08:31:06Z</time>
      </trkpt>
      <trkpt lat="45.59081" lon="6.7224">
        <ele>1442</ele>
        <time>2021-02-13T08:31:07Z</time>
      </trkpt>
      <trkpt lat="45.59083" lon="6.7224">
        <ele>1442</ele>
        <time>2021-02-13T08:31:10Z</time>
      </trkpt>
      <trkpt lat="45.59085" lon="6.72239">
        <ele>1442</ele>
        <time>2021-02-13T08:31:14Z</time>
      </trkpt>
      <trkpt lat="45.59085" lon="6.72239">
        <ele>1444</ele>
        <time>2021-02-13T08:31:17Z</time>
      </trkpt>
      <trkpt lat="45.59087" lon="6.72239">
        <ele>1444</ele>
        <time>2021-02-13T08:31:19Z</time>
      </trkpt>
      <trkpt lat="45.59089" lon="6.72238">
        <ele>1444</ele>
        <time>2021-02-13T08:31:24Z</time>
      </trkpt>
      <trkpt lat="45.59089" lon="6.72238">
        <ele>1446</ele>
        <time>2021-02-13T08:31:27Z</time>
      </trkpt>
      <trkpt lat="45.59091" lon="6.72237">
        <ele>1446</ele>
        <time>2021-02-13T08:31:30Z</time>
      </trkpt>
      <trkpt lat="45.59093" lon="6.72236">
        <ele>1446</ele>
        <time>2021-02-13T08:31:35Z</time>
      </trkpt>
      <trkpt lat="45.59093" lon="6.72236">
        <ele>1446</ele>
        <time>2021-02-13T08:31:37Z</time>
      </trkpt>
      <trkpt lat="45.59095" lon="6.72235">
        <ele>1446</ele>
        <time>2021-02-13T08:31:40Z</time>
      </trkpt>
      <trkpt lat="45.59096" lon="6.72233">
        <ele>1446</ele>
        <time>2021-02-13T08:31:45Z</time>
      </trkpt>
      <trkpt lat="45.59096" lon="6.72233">
        <ele>1447</ele>
        <time>2021-02-13T08:31:47Z</time>
      </trkpt>
      <trkpt lat="45.59097" lon="6.72231">
        <ele>1447</ele>
        <time>2021-02-13T08:31:52Z</time>
      </trkpt>
      <trkpt lat="45.59097" lon="6.72231">
        <ele>1448</ele>
        <time>2021-02-13T08:31:57Z</time>
      </trkpt>
      <trkpt lat="45.59097" lon="6.72228">
        <ele>1448</ele>
        <time>2021-02-13T08:31:58Z</time>
      </trkpt>
      <trkpt lat="45.59097" lon="6.72228">
        <ele>1449</ele>
        <time>2021-02-13T08:32:07Z</time>
      </trkpt>
      <trkpt lat="45.59097" lon="6.72225">
        <ele>1449</ele>
        <time>2021-02-13T08:32:09Z</time>
      </trkpt>
      <trkpt lat="45.59097" lon="6.72222">
        <ele>1449</ele>
        <time>2021-02-13T08:32:15Z</time>
      </trkpt>
      <trkpt lat="45.59097" lon="6.72222">
        <ele>1450</ele>
        <time>2021-02-13T08:32:17Z</time>
      </trkpt>
      <trkpt lat="45.59096" lon="6.72218">
        <ele>1450</ele>
        <time>2021-02-13T08:32:24Z</time>
      </trkpt>
      <trkpt lat="45.59096" lon="6.72217">
        <ele>1451</ele>
        <time>2021-02-13T08:32:28Z</time>
      </trkpt>
      <trkpt lat="45.59096" lon="6.72216">
        <ele>1451</ele>
        <time>2021-02-13T08:32:30Z</time>
      </trkpt>
      <trkpt lat="45.59096" lon="6.72215">
        <ele>1451</ele>
        <time>2021-02-13T08:32:36Z</time>
      </trkpt>
      <trkpt lat="45.59096" lon="6.72214">
        <ele>1452</ele>
        <time>2021-02-13T08:32:37Z</time>
      </trkpt>
      <trkpt lat="45.59096" lon="6.72211">
        <ele>1452</ele>
        <time>2021-02-13T08:32:42Z</time>
      </trkpt>
      <trkpt lat="45.59096" lon="6.72208">
        <ele>1452</ele>
        <time>2021-02-13T08:32:46Z</time>
      </trkpt>
      <trkpt lat="45.59096" lon="6.72208">
        <ele>1453</ele>
        <time>2021-02-13T08:32:47Z</time>
      </trkpt>
      <trkpt lat="45.59095" lon="6.72205">
        <ele>1453</ele>
        <time>2021-02-13T08:32:51Z</time>
      </trkpt>
      <trkpt lat="45.59095" lon="6.72203">
        <ele>1453</ele>
        <time>2021-02-13T08:32:56Z</time>
      </trkpt>
      <trkpt lat="45.59095" lon="6.72203">
        <ele>1454</ele>
        <time>2021-02-13T08:32:57Z</time>
      </trkpt>
      <trkpt lat="45.59095" lon="6.72199">
        <ele>1454</ele>
        <time>2021-02-13T08:33:01Z</time>
      </trkpt>
      <trkpt lat="45.59094" lon="6.72198">
        <ele>1454</ele>
        <time>2021-02-13T08:33:06Z</time>
      </trkpt>
      <trkpt lat="45.59094" lon="6.72197">
        <ele>1455</ele>
        <time>2021-02-13T08:33:07Z</time>
      </trkpt>
      <trkpt lat="45.59093" lon="6.72193">
        <ele>1455</ele>
        <time>2021-02-13T08:33:11Z</time>
      </trkpt>
      <trkpt lat="45.59093" lon="6.72192">
        <ele>1455</ele>
        <time>2021-02-13T08:33:16Z</time>
      </trkpt>
      <trkpt lat="45.59093" lon="6.72191">
        <ele>1456</ele>
        <time>2021-02-13T08:33:17Z</time>
      </trkpt>
      <trkpt lat="45.59092" lon="6.72188">
        <ele>1456</ele>
        <time>2021-02-13T08:33:21Z</time>
      </trkpt>
      <trkpt lat="45.59092" lon="6.72185">
        <ele>1457</ele>
        <time>2021-02-13T08:33:27Z</time>
      </trkpt>
      <trkpt lat="45.59091" lon="6.72183">
        <ele>1457</ele>
        <time>2021-02-13T08:33:33Z</time>
      </trkpt>
      <trkpt lat="45.59091" lon="6.72183">
        <ele>1458</ele>
        <time>2021-02-13T08:33:37Z</time>
      </trkpt>
      <trkpt lat="45.59091" lon="6.7218">
        <ele>1458</ele>
        <time>2021-02-13T08:33:38Z</time>
      </trkpt>
      <trkpt lat="45.5909" lon="6.72177">
        <ele>1458</ele>
        <time>2021-02-13T08:33:43Z</time>
      </trkpt>
      <trkpt lat="45.5909" lon="6.72177">
        <ele>1459</ele>
        <time>2021-02-13T08:33:47Z</time>
      </trkpt>
      <trkpt lat="45.5909" lon="6.72174">
        <ele>1459</ele>
        <time>2021-02-13T08:33:48Z</time>
      </trkpt>
      <trkpt lat="45.5909" lon="6.72172">
        <ele>1459</ele>
        <time>2021-02-13T08:33:53Z</time>
      </trkpt>
      <trkpt lat="45.5909" lon="6.72172">
        <ele>1459</ele>
        <time>2021-02-13T08:33:57Z</time>
      </trkpt>
      <trkpt lat="45.59089" lon="6.72169">
        <ele>1459</ele>
        <time>2021-02-13T08:33:58Z</time>
      </trkpt>
      <trkpt lat="45.59089" lon="6.72166">
        <ele>1459</ele>
        <time>2021-02-13T08:34:03Z</time>
      </trkpt>
      <trkpt lat="45.59089" lon="6.72166">
        <ele>1461</ele>
        <time>2021-02-13T08:34:07Z</time>
      </trkpt>
      <trkpt lat="45.59089" lon="6.72164">
        <ele>1461</ele>
        <time>2021-02-13T08:34:08Z</time>
      </trkpt>
      <trkpt lat="45.59089" lon="6.72161">
        <ele>1461</ele>
        <time>2021-02-13T08:34:13Z</time>
      </trkpt>
      <trkpt lat="45.59089" lon="6.72161">
        <ele>1461</ele>
        <time>2021-02-13T08:34:17Z</time>
      </trkpt>
      <trkpt lat="45.59088" lon="6.72158">
        <ele>1461</ele>
        <time>2021-02-13T08:34:18Z</time>
      </trkpt>
      <trkpt lat="45.59089" lon="6.72156">
        <ele>1461</ele>
        <time>2021-02-13T08:34:24Z</time>
      </trkpt>
      <trkpt lat="45.59089" lon="6.72156">
        <ele>1462</ele>
        <time>2021-02-13T08:34:27Z</time>
      </trkpt>
      <trkpt lat="45.59088" lon="6.72153">
        <ele>1462</ele>
        <time>2021-02-13T08:34:30Z</time>
      </trkpt>
      <trkpt lat="45.59088" lon="6.7215">
        <ele>1462</ele>
        <time>2021-02-13T08:34:36Z</time>
      </trkpt>
      <trkpt lat="45.59088" lon="6.7215">
        <ele>1464</ele>
        <time>2021-02-13T08:34:37Z</time>
      </trkpt>
      <trkpt lat="45.59089" lon="6.72147">
        <ele>1464</ele>
        <time>2021-02-13T08:34:44Z</time>
      </trkpt>
      <trkpt lat="45.59089" lon="6.72147">
        <ele>1464</ele>
        <time>2021-02-13T08:34:47Z</time>
      </trkpt>
      <trkpt lat="45.59089" lon="6.72144">
        <ele>1464</ele>
        <time>2021-02-13T08:34:49Z</time>
      </trkpt>
      <trkpt lat="45.59089" lon="6.72142">
        <ele>1464</ele>
        <time>2021-02-13T08:34:54Z</time>
      </trkpt>
      <trkpt lat="45.59089" lon="6.72142">
        <ele>1466</ele>
        <time>2021-02-13T08:34:57Z</time>
      </trkpt>
      <trkpt lat="45.59089" lon="6.72139">
        <ele>1466</ele>
        <time>2021-02-13T08:34:59Z</time>
      </trkpt>
      <trkpt lat="45.59088" lon="6.72136">
        <ele>1466</ele>
        <time>2021-02-13T08:35:05Z</time>
      </trkpt>
      <trkpt lat="45.59088" lon="6.72136">
        <ele>1467</ele>
        <time>2021-02-13T08:35:07Z</time>
      </trkpt>
      <trkpt lat="45.59089" lon="6.72133">
        <ele>1467</ele>
        <time>2021-02-13T08:35:10Z</time>
      </trkpt>
      <trkpt lat="45.5909" lon="6.72131">
        <ele>1467</ele>
        <time>2021-02-13T08:35:15Z</time>
      </trkpt>
      <trkpt lat="45.5909" lon="6.72131">
        <ele>1468</ele>
        <time>2021-02-13T08:35:17Z</time>
      </trkpt>
      <trkpt lat="45.59092" lon="6.72132">
        <ele>1468</ele>
        <time>2021-02-13T08:35:21Z</time>
      </trkpt>
      <trkpt lat="45.59093" lon="6.72133">
        <ele>1468</ele>
        <time>2021-02-13T08:35:26Z</time>
      </trkpt>
      <trkpt lat="45.59093" lon="6.72133">
        <ele>1470</ele>
        <time>2021-02-13T08:35:27Z</time>
      </trkpt>
      <trkpt lat="45.59096" lon="6.72136">
        <ele>1470</ele>
        <time>2021-02-13T08:35:32Z</time>
      </trkpt>
      <trkpt lat="45.59096" lon="6.72136">
        <ele>1470</ele>
        <time>2021-02-13T08:35:37Z</time>
      </trkpt>
      <trkpt lat="45.59097" lon="6.72137">
        <ele>1470</ele>
        <time>2021-02-13T08:35:38Z</time>
      </trkpt>
      <trkpt lat="45.59098" lon="6.72139">
        <ele>1470</ele>
        <time>2021-02-13T08:35:43Z</time>
      </trkpt>
      <trkpt lat="45.59098" lon="6.72139">
        <ele>1471</ele>
        <time>2021-02-13T08:35:47Z</time>
      </trkpt>
      <trkpt lat="45.591" lon="6.72141">
        <ele>1471</ele>
        <time>2021-02-13T08:35:48Z</time>
      </trkpt>
      <trkpt lat="45.591" lon="6.72141">
        <ele>1473</ele>
        <time>2021-02-13T08:35:57Z</time>
      </trkpt>
      <trkpt lat="45.59099" lon="6.72138">
        <ele>1473</ele>
        <time>2021-02-13T08:36:03Z</time>
      </trkpt>
      <trkpt lat="45.59099" lon="6.72138">
        <ele>1472</ele>
        <time>2021-02-13T08:36:07Z</time>
      </trkpt>
      <trkpt lat="45.59099" lon="6.72135">
        <ele>1472</ele>
        <time>2021-02-13T08:36:09Z</time>
      </trkpt>
      <trkpt lat="45.59098" lon="6.72133">
        <ele>1472</ele>
        <time>2021-02-13T08:36:14Z</time>
      </trkpt>
      <trkpt lat="45.59098" lon="6.72133">
        <ele>1473</ele>
        <time>2021-02-13T08:36:17Z</time>
      </trkpt>
      <trkpt lat="45.59098" lon="6.7213">
        <ele>1473</ele>
        <time>2021-02-13T08:36:22Z</time>
      </trkpt>
      <trkpt lat="45.59098" lon="6.7213">
        <ele>1474</ele>
        <time>2021-02-13T08:36:27Z</time>
      </trkpt>
      <trkpt lat="45.59098" lon="6.72127">
        <ele>1474</ele>
        <time>2021-02-13T08:36:28Z</time>
      </trkpt>
      <trkpt lat="45.59098" lon="6.72124">
        <ele>1474</ele>
        <time>2021-02-13T08:36:35Z</time>
      </trkpt>
      <trkpt lat="45.59098" lon="6.72124">
        <ele>1476</ele>
        <time>2021-02-13T08:36:37Z</time>
      </trkpt>
      <trkpt lat="45.59098" lon="6.72121">
        <ele>1476</ele>
        <time>2021-02-13T08:36:40Z</time>
      </trkpt>
      <trkpt lat="45.59098" lon="6.72119">
        <ele>1476</ele>
        <time>2021-02-13T08:36:45Z</time>
      </trkpt>
      <trkpt lat="45.59098" lon="6.72119">
        <ele>1476</ele>
        <time>2021-02-13T08:36:47Z</time>
      </trkpt>
      <trkpt lat="45.59098" lon="6.72116">
        <ele>1476</ele>
        <time>2021-02-13T08:36:51Z</time>
      </trkpt>
      <trkpt lat="45.59098" lon="6.72116">
        <ele>1477</ele>
        <time>2021-02-13T08:36:57Z</time>
      </trkpt>
      <trkpt lat="45.59098" lon="6.72116">
        <ele>1477</ele>
        <time>2021-02-13T08:37:07Z</time>
      </trkpt>
      <trkpt lat="45.59098" lon="6.72116">
        <ele>1478</ele>
        <time>2021-02-13T08:37:17Z</time>
      </trkpt>
      <trkpt lat="45.59098" lon="6.72116">
        <ele>1478</ele>
        <time>2021-02-13T08:37:27Z</time>
      </trkpt>
      <trkpt lat="45.59098" lon="6.72116">
        <ele>1478</ele>
        <time>2021-02-13T08:37:37Z</time>
      </trkpt>
      <trkpt lat="45.591" lon="6.72115">
        <ele>1478</ele>
        <time>2021-02-13T08:37:44Z</time>
      </trkpt>
      <trkpt lat="45.591" lon="6.72115">
        <ele>1478</ele>
        <time>2021-02-13T08:37:47Z</time>
      </trkpt>
      <trkpt lat="45.591" lon="6.72115">
        <ele>1478</ele>
        <time>2021-02-13T08:37:57Z</time>
      </trkpt>
      <trkpt lat="45.59102" lon="6.72116">
        <ele>1478</ele>
        <time>2021-02-13T08:37:58Z</time>
      </trkpt>
      <trkpt lat="45.59104" lon="6.72117">
        <ele>1478</ele>
        <time>2021-02-13T08:38:06Z</time>
      </trkpt>
      <trkpt lat="45.59104" lon="6.72117">
        <ele>1479</ele>
        <time>2021-02-13T08:38:07Z</time>
      </trkpt>
      <trkpt lat="45.59106" lon="6.72118">
        <ele>1479</ele>
        <time>2021-02-13T08:38:10Z</time>
      </trkpt>
      <trkpt lat="45.59107" lon="6.7212">
        <ele>1479</ele>
        <time>2021-02-13T08:38:14Z</time>
      </trkpt>
      <trkpt lat="45.59107" lon="6.7212">
        <ele>1480</ele>
        <time>2021-02-13T08:38:17Z</time>
      </trkpt>
      <trkpt lat="45.59109" lon="6.72122">
        <ele>1480</ele>
        <time>2021-02-13T08:38:26Z</time>
      </trkpt>
      <trkpt lat="45.59109" lon="6.72122">
        <ele>1480</ele>
        <time>2021-02-13T08:38:27Z</time>
      </trkpt>
      <trkpt lat="45.5911" lon="6.72123">
        <ele>1480</ele>
        <time>2021-02-13T08:38:31Z</time>
      </trkpt>
      <trkpt lat="45.59112" lon="6.72125">
        <ele>1480</ele>
        <time>2021-02-13T08:38:35Z</time>
      </trkpt>
      <trkpt lat="45.59112" lon="6.72125">
        <ele>1481</ele>
        <time>2021-02-13T08:38:37Z</time>
      </trkpt>
      <trkpt lat="45.59113" lon="6.72127">
        <ele>1481</ele>
        <time>2021-02-13T08:38:39Z</time>
      </trkpt>
      <trkpt lat="45.59115" lon="6.72128">
        <ele>1481</ele>
        <time>2021-02-13T08:38:44Z</time>
      </trkpt>
      <trkpt lat="45.59115" lon="6.72128">
        <ele>1482</ele>
        <time>2021-02-13T08:38:48Z</time>
      </trkpt>
      <trkpt lat="45.59117" lon="6.7213">
        <ele>1482</ele>
        <time>2021-02-13T08:38:49Z</time>
      </trkpt>
      <trkpt lat="45.59119" lon="6.72131">
        <ele>1482</ele>
        <time>2021-02-13T08:38:55Z</time>
      </trkpt>
      <trkpt lat="45.59119" lon="6.72131">
        <ele>1484</ele>
        <time>2021-02-13T08:38:57Z</time>
      </trkpt>
      <trkpt lat="45.5912" lon="6.72132">
        <ele>1484</ele>
        <time>2021-02-13T08:39:00Z</time>
      </trkpt>
      <trkpt lat="45.59122" lon="6.72134">
        <ele>1484</ele>
        <time>2021-02-13T08:39:05Z</time>
      </trkpt>
      <trkpt lat="45.59122" lon="6.72134">
        <ele>1485</ele>
        <time>2021-02-13T08:39:07Z</time>
      </trkpt>
      <trkpt lat="45.59124" lon="6.72135">
        <ele>1485</ele>
        <time>2021-02-13T08:39:10Z</time>
      </trkpt>
      <trkpt lat="45.59126" lon="6.72137">
        <ele>1485</ele>
        <time>2021-02-13T08:39:15Z</time>
      </trkpt>
      <trkpt lat="45.59126" lon="6.72137">
        <ele>1487</ele>
        <time>2021-02-13T08:39:17Z</time>
      </trkpt>
      <trkpt lat="45.59128" lon="6.72138">
        <ele>1487</ele>
        <time>2021-02-13T08:39:21Z</time>
      </trkpt>
      <trkpt lat="45.59129" lon="6.72139">
        <ele>1487</ele>
        <time>2021-02-13T08:39:25Z</time>
      </trkpt>
      <trkpt lat="45.59129" lon="6.72139">
        <ele>1487</ele>
        <time>2021-02-13T08:39:27Z</time>
      </trkpt>
      <trkpt lat="45.59132" lon="6.72141">
        <ele>1487</ele>
        <time>2021-02-13T08:39:30Z</time>
      </trkpt>
      <trkpt lat="45.59132" lon="6.72142">
        <ele>1487</ele>
        <time>2021-02-13T08:39:36Z</time>
      </trkpt>
      <trkpt lat="45.59133" lon="6.72142">
        <ele>1487</ele>
        <time>2021-02-13T08:39:37Z</time>
      </trkpt>
      <trkpt lat="45.59136" lon="6.72144">
        <ele>1487</ele>
        <time>2021-02-13T08:39:42Z</time>
      </trkpt>
      <trkpt lat="45.59137" lon="6.72145">
        <ele>1489</ele>
        <time>2021-02-13T08:39:47Z</time>
      </trkpt>
      <trkpt lat="45.59138" lon="6.72145">
        <ele>1489</ele>
        <time>2021-02-13T08:39:53Z</time>
      </trkpt>
      <trkpt lat="45.59139" lon="6.72146">
        <ele>1489</ele>
        <time>2021-02-13T08:39:57Z</time>
      </trkpt>
      <trkpt lat="45.5914" lon="6.72146">
        <ele>1491</ele>
        <time>2021-02-13T08:39:58Z</time>
      </trkpt>
      <trkpt lat="45.59142" lon="6.72147">
        <ele>1491</ele>
        <time>2021-02-13T08:40:01Z</time>
      </trkpt>
      <trkpt lat="45.59144" lon="6.72149">
        <ele>1491</ele>
        <time>2021-02-13T08:40:05Z</time>
      </trkpt>
      <trkpt lat="45.59144" lon="6.72149">
        <ele>1491</ele>
        <time>2021-02-13T08:40:07Z</time>
      </trkpt>
      <trkpt lat="45.59146" lon="6.72149">
        <ele>1491</ele>
        <time>2021-02-13T08:40:10Z</time>
      </trkpt>
      <trkpt lat="45.59148" lon="6.72151">
        <ele>1491</ele>
        <time>2021-02-13T08:40:15Z</time>
      </trkpt>
      <trkpt lat="45.59148" lon="6.72151">
        <ele>1492</ele>
        <time>2021-02-13T08:40:17Z</time>
      </trkpt>
      <trkpt lat="45.59149" lon="6.72152">
        <ele>1492</ele>
        <time>2021-02-13T08:40:19Z</time>
      </trkpt>
      <trkpt lat="45.59151" lon="6.72154">
        <ele>1492</ele>
        <time>2021-02-13T08:40:24Z</time>
      </trkpt>
      <trkpt lat="45.59151" lon="6.72154">
        <ele>1494</ele>
        <time>2021-02-13T08:40:27Z</time>
      </trkpt>
      <trkpt lat="45.59153" lon="6.72156">
        <ele>1494</ele>
        <time>2021-02-13T08:40:29Z</time>
      </trkpt>
      <trkpt lat="45.59154" lon="6.72157">
        <ele>1494</ele>
        <time>2021-02-13T08:40:33Z</time>
      </trkpt>
      <trkpt lat="45.59156" lon="6.72159">
        <ele>1495</ele>
        <time>2021-02-13T08:40:37Z</time>
      </trkpt>
      <trkpt lat="45.59157" lon="6.72161">
        <ele>1495</ele>
        <time>2021-02-13T08:40:42Z</time>
      </trkpt>
      <trkpt lat="45.59157" lon="6.72161">
        <ele>1495</ele>
        <time>2021-02-13T08:40:47Z</time>
      </trkpt>
      <trkpt lat="45.59159" lon="6.72161">
        <ele>1495</ele>
        <time>2021-02-13T08:40:51Z</time>
      </trkpt>
      <trkpt lat="45.59161" lon="6.72162">
        <ele>1495</ele>
        <time>2021-02-13T08:40:56Z</time>
      </trkpt>
      <trkpt lat="45.59161" lon="6.72162">
        <ele>1497</ele>
        <time>2021-02-13T08:40:57Z</time>
      </trkpt>
      <trkpt lat="45.59163" lon="6.72163">
        <ele>1497</ele>
        <time>2021-02-13T08:41:04Z</time>
      </trkpt>
      <trkpt lat="45.59163" lon="6.72163">
        <ele>1498</ele>
        <time>2021-02-13T08:41:07Z</time>
      </trkpt>
      <trkpt lat="45.59165" lon="6.72164">
        <ele>1498</ele>
        <time>2021-02-13T08:41:08Z</time>
      </trkpt>
      <trkpt lat="45.59167" lon="6.72165">
        <ele>1498</ele>
        <time>2021-02-13T08:41:13Z</time>
      </trkpt>
      <trkpt lat="45.59169" lon="6.72166">
        <ele>1498</ele>
        <time>2021-02-13T08:41:17Z</time>
      </trkpt>
      <trkpt lat="45.5917" lon="6.72168">
        <ele>1498</ele>
        <time>2021-02-13T08:41:21Z</time>
      </trkpt>
      <trkpt lat="45.59172" lon="6.72169">
        <ele>1498</ele>
        <time>2021-02-13T08:41:25Z</time>
      </trkpt>
      <trkpt lat="45.59172" lon="6.72169">
        <ele>1499</ele>
        <time>2021-02-13T08:41:27Z</time>
      </trkpt>
      <trkpt lat="45.59174" lon="6.72171">
        <ele>1499</ele>
        <time>2021-02-13T08:41:30Z</time>
      </trkpt>
      <trkpt lat="45.59175" lon="6.72172">
        <ele>1499</ele>
        <time>2021-02-13T08:41:34Z</time>
      </trkpt>
      <trkpt lat="45.59175" lon="6.72172">
        <ele>1499</ele>
        <time>2021-02-13T08:41:37Z</time>
      </trkpt>
      <trkpt lat="45.59177" lon="6.72172">
        <ele>1499</ele>
        <time>2021-02-13T08:41:38Z</time>
      </trkpt>
      <trkpt lat="45.59179" lon="6.72174">
        <ele>1499</ele>
        <time>2021-02-13T08:41:43Z</time>
      </trkpt>
      <trkpt lat="45.59179" lon="6.72174">
        <ele>1501</ele>
        <time>2021-02-13T08:41:47Z</time>
      </trkpt>
      <trkpt lat="45.59181" lon="6.72175">
        <ele>1501</ele>
        <time>2021-02-13T08:41:48Z</time>
      </trkpt>
      <trkpt lat="45.59183" lon="6.72175">
        <ele>1501</ele>
        <time>2021-02-13T08:41:53Z</time>
      </trkpt>
      <trkpt lat="45.59185" lon="6.72176">
        <ele>1501</ele>
        <time>2021-02-13T08:41:58Z</time>
      </trkpt>
      <trkpt lat="45.59187" lon="6.72177">
        <ele>1501</ele>
        <time>2021-02-13T08:42:03Z</time>
      </trkpt>
      <trkpt lat="45.59189" lon="6.72178">
        <ele>1503</ele>
        <time>2021-02-13T08:42:07Z</time>
      </trkpt>
      <trkpt lat="45.59191" lon="6.72178">
        <ele>1503</ele>
        <time>2021-02-13T08:42:12Z</time>
      </trkpt>
      <trkpt lat="45.59191" lon="6.72178">
        <ele>1504</ele>
        <time>2021-02-13T08:42:17Z</time>
      </trkpt>
      <trkpt lat="45.59192" lon="6.72176">
        <ele>1504</ele>
        <time>2021-02-13T08:42:22Z</time>
      </trkpt>
      <trkpt lat="45.59192" lon="6.72176">
        <ele>1504</ele>
        <time>2021-02-13T08:42:27Z</time>
      </trkpt>
      <trkpt lat="45.59192" lon="6.72173">
        <ele>1504</ele>
        <time>2021-02-13T08:42:28Z</time>
      </trkpt>
      <trkpt lat="45.59192" lon="6.7217">
        <ele>1504</ele>
        <time>2021-02-13T08:42:33Z</time>
      </trkpt>
      <trkpt lat="45.59192" lon="6.7217">
        <ele>1505</ele>
        <time>2021-02-13T08:42:37Z</time>
      </trkpt>
      <trkpt lat="45.59192" lon="6.72168">
        <ele>1505</ele>
        <time>2021-02-13T08:42:38Z</time>
      </trkpt>
      <trkpt lat="45.59192" lon="6.72165">
        <ele>1505</ele>
        <time>2021-02-13T08:42:44Z</time>
      </trkpt>
      <trkpt lat="45.59192" lon="6.72165">
        <ele>1506</ele>
        <time>2021-02-13T08:42:47Z</time>
      </trkpt>
      <trkpt lat="45.59191" lon="6.72162">
        <ele>1506</ele>
        <time>2021-02-13T08:42:50Z</time>
      </trkpt>
      <trkpt lat="45.59191" lon="6.72159">
        <ele>1506</ele>
        <time>2021-02-13T08:42:55Z</time>
      </trkpt>
      <trkpt lat="45.59191" lon="6.72159">
        <ele>1507</ele>
        <time>2021-02-13T08:42:57Z</time>
      </trkpt>
      <trkpt lat="45.59191" lon="6.72156">
        <ele>1507</ele>
        <time>2021-02-13T08:43:00Z</time>
      </trkpt>
      <trkpt lat="45.59191" lon="6.72153">
        <ele>1507</ele>
        <time>2021-02-13T08:43:05Z</time>
      </trkpt>
      <trkpt lat="45.59191" lon="6.72153">
        <ele>1509</ele>
        <time>2021-02-13T08:43:07Z</time>
      </trkpt>
      <trkpt lat="45.59191" lon="6.72151">
        <ele>1509</ele>
        <time>2021-02-13T08:43:10Z</time>
      </trkpt>
      <trkpt lat="45.59191" lon="6.72148">
        <ele>1509</ele>
        <time>2021-02-13T08:43:15Z</time>
      </trkpt>
      <trkpt lat="45.59191" lon="6.72148">
        <ele>1510</ele>
        <time>2021-02-13T08:43:17Z</time>
      </trkpt>
      <trkpt lat="45.59192" lon="6.72145">
        <ele>1510</ele>
        <time>2021-02-13T08:43:20Z</time>
      </trkpt>
      <trkpt lat="45.59194" lon="6.72146">
        <ele>1510</ele>
        <time>2021-02-13T08:43:25Z</time>
      </trkpt>
      <trkpt lat="45.59194" lon="6.72146">
        <ele>1512</ele>
        <time>2021-02-13T08:43:27Z</time>
      </trkpt>
      <trkpt lat="45.59196" lon="6.72147">
        <ele>1512</ele>
        <time>2021-02-13T08:43:29Z</time>
      </trkpt>
      <trkpt lat="45.59198" lon="6.72147">
        <ele>1512</ele>
        <time>2021-02-13T08:43:34Z</time>
      </trkpt>
      <trkpt lat="45.59198" lon="6.72147">
        <ele>1513</ele>
        <time>2021-02-13T08:43:37Z</time>
      </trkpt>
      <trkpt lat="45.592" lon="6.72148">
        <ele>1513</ele>
        <time>2021-02-13T08:43:39Z</time>
      </trkpt>
      <trkpt lat="45.59202" lon="6.72149">
        <ele>1513</ele>
        <time>2021-02-13T08:43:44Z</time>
      </trkpt>
      <trkpt lat="45.59202" lon="6.72149">
        <ele>1514</ele>
        <time>2021-02-13T08:43:47Z</time>
      </trkpt>
      <trkpt lat="45.59204" lon="6.7215">
        <ele>1514</ele>
        <time>2021-02-13T08:43:50Z</time>
      </trkpt>
      <trkpt lat="45.59206" lon="6.72151">
        <ele>1514</ele>
        <time>2021-02-13T08:43:55Z</time>
      </trkpt>
      <trkpt lat="45.59206" lon="6.72151">
        <ele>1515</ele>
        <time>2021-02-13T08:43:57Z</time>
      </trkpt>
      <trkpt lat="45.59208" lon="6.72152">
        <ele>1515</ele>
        <time>2021-02-13T08:44:00Z</time>
      </trkpt>
      <trkpt lat="45.5921" lon="6.72153">
        <ele>1515</ele>
        <time>2021-02-13T08:44:05Z</time>
      </trkpt>
      <trkpt lat="45.5921" lon="6.72153">
        <ele>1516</ele>
        <time>2021-02-13T08:44:07Z</time>
      </trkpt>
      <trkpt lat="45.59212" lon="6.72153">
        <ele>1516</ele>
        <time>2021-02-13T08:44:10Z</time>
      </trkpt>
      <trkpt lat="45.59214" lon="6.72154">
        <ele>1516</ele>
        <time>2021-02-13T08:44:15Z</time>
      </trkpt>
      <trkpt lat="45.59214" lon="6.72154">
        <ele>1517</ele>
        <time>2021-02-13T08:44:17Z</time>
      </trkpt>
      <trkpt lat="45.59216" lon="6.72155">
        <ele>1517</ele>
        <time>2021-02-13T08:44:20Z</time>
      </trkpt>
      <trkpt lat="45.59218" lon="6.72155">
        <ele>1517</ele>
        <time>2021-02-13T08:44:25Z</time>
      </trkpt>
      <trkpt lat="45.59218" lon="6.72155">
        <ele>1518</ele>
        <time>2021-02-13T08:44:27Z</time>
      </trkpt>
      <trkpt lat="45.5922" lon="6.72156">
        <ele>1518</ele>
        <time>2021-02-13T08:44:30Z</time>
      </trkpt>
      <trkpt lat="45.59222" lon="6.72157">
        <ele>1518</ele>
        <time>2021-02-13T08:44:34Z</time>
      </trkpt>
      <trkpt lat="45.59222" lon="6.72157">
        <ele>1519</ele>
        <time>2021-02-13T08:44:37Z</time>
      </trkpt>
      <trkpt lat="45.59224" lon="6.72158">
        <ele>1519</ele>
        <time>2021-02-13T08:44:39Z</time>
      </trkpt>
      <trkpt lat="45.59226" lon="6.72158">
        <ele>1519</ele>
        <time>2021-02-13T08:44:43Z</time>
      </trkpt>
      <trkpt lat="45.59228" lon="6.72159">
        <ele>1520</ele>
        <time>2021-02-13T08:44:47Z</time>
      </trkpt>
      <trkpt lat="45.5923" lon="6.7216">
        <ele>1520</ele>
        <time>2021-02-13T08:44:52Z</time>
      </trkpt>
      <trkpt lat="45.59232" lon="6.72161">
        <ele>1520</ele>
        <time>2021-02-13T08:44:56Z</time>
      </trkpt>
      <trkpt lat="45.59232" lon="6.72161">
        <ele>1521</ele>
        <time>2021-02-13T08:44:57Z</time>
      </trkpt>
      <trkpt lat="45.59234" lon="6.72162">
        <ele>1521</ele>
        <time>2021-02-13T08:45:01Z</time>
      </trkpt>
      <trkpt lat="45.59236" lon="6.72162">
        <ele>1521</ele>
        <time>2021-02-13T08:45:06Z</time>
      </trkpt>
      <trkpt lat="45.59236" lon="6.72162">
        <ele>1523</ele>
        <time>2021-02-13T08:45:08Z</time>
      </trkpt>
      <trkpt lat="45.59238" lon="6.72162">
        <ele>1523</ele>
        <time>2021-02-13T08:45:11Z</time>
      </trkpt>
      <trkpt lat="45.5924" lon="6.72162">
        <ele>1523</ele>
        <time>2021-02-13T08:45:16Z</time>
      </trkpt>
      <trkpt lat="45.5924" lon="6.72162">
        <ele>1523</ele>
        <time>2021-02-13T08:45:17Z</time>
      </trkpt>
      <trkpt lat="45.59242" lon="6.72163">
        <ele>1523</ele>
        <time>2021-02-13T08:45:21Z</time>
      </trkpt>
      <trkpt lat="45.59244" lon="6.72164">
        <ele>1525</ele>
        <time>2021-02-13T08:45:27Z</time>
      </trkpt>
      <trkpt lat="45.59245" lon="6.72164">
        <ele>1525</ele>
        <time>2021-02-13T08:45:32Z</time>
      </trkpt>
      <trkpt lat="45.59247" lon="6.72165">
        <ele>1525</ele>
        <time>2021-02-13T08:45:37Z</time>
      </trkpt>
      <trkpt lat="45.59249" lon="6.72166">
        <ele>1525</ele>
        <time>2021-02-13T08:45:42Z</time>
      </trkpt>
      <trkpt lat="45.59251" lon="6.72166">
        <ele>1527</ele>
        <time>2021-02-13T08:45:47Z</time>
      </trkpt>
      <trkpt lat="45.59253" lon="6.72167">
        <ele>1527</ele>
        <time>2021-02-13T08:45:52Z</time>
      </trkpt>
      <trkpt lat="45.59255" lon="6.72168">
        <ele>1528</ele>
        <time>2021-02-13T08:45:57Z</time>
      </trkpt>
      <trkpt lat="45.59257" lon="6.72169">
        <ele>1528</ele>
        <time>2021-02-13T08:46:03Z</time>
      </trkpt>
      <trkpt lat="45.59259" lon="6.7217">
        <ele>1528</ele>
        <time>2021-02-13T08:46:07Z</time>
      </trkpt>
      <trkpt lat="45.5926" lon="6.72172">
        <ele>1528</ele>
        <time>2021-02-13T08:46:12Z</time>
      </trkpt>
      <trkpt lat="45.5926" lon="6.72172">
        <ele>1529</ele>
        <time>2021-02-13T08:46:17Z</time>
      </trkpt>
      <trkpt lat="45.59262" lon="6.72172">
        <ele>1529</ele>
        <time>2021-02-13T08:46:18Z</time>
      </trkpt>
      <trkpt lat="45.59264" lon="6.72173">
        <ele>1529</ele>
        <time>2021-02-13T08:46:24Z</time>
      </trkpt>
      <trkpt lat="45.59264" lon="6.72173">
        <ele>1530</ele>
        <time>2021-02-13T08:46:27Z</time>
      </trkpt>
      <trkpt lat="45.59267" lon="6.72173">
        <ele>1530</ele>
        <time>2021-02-13T08:46:30Z</time>
      </trkpt>
      <trkpt lat="45.59269" lon="6.72173">
        <ele>1530</ele>
        <time>2021-02-13T08:46:35Z</time>
      </trkpt>
      <trkpt lat="45.59269" lon="6.72173">
        <ele>1532</ele>
        <time>2021-02-13T08:46:37Z</time>
      </trkpt>
      <trkpt lat="45.5927" lon="6.72174">
        <ele>1532</ele>
        <time>2021-02-13T08:46:40Z</time>
      </trkpt>
      <trkpt lat="45.59272" lon="6.72174">
        <ele>1532</ele>
        <time>2021-02-13T08:46:45Z</time>
      </trkpt>
      <trkpt lat="45.59272" lon="6.72174">
        <ele>1532</ele>
        <time>2021-02-13T08:46:47Z</time>
      </trkpt>
      <trkpt lat="45.59274" lon="6.72175">
        <ele>1532</ele>
        <time>2021-02-13T08:46:50Z</time>
      </trkpt>
      <trkpt lat="45.59276" lon="6.72175">
        <ele>1532</ele>
        <time>2021-02-13T08:46:55Z</time>
      </trkpt>
      <trkpt lat="45.59276" lon="6.72175">
        <ele>1533</ele>
        <time>2021-02-13T08:46:57Z</time>
      </trkpt>
      <trkpt lat="45.59279" lon="6.72176">
        <ele>1533</ele>
        <time>2021-02-13T08:47:01Z</time>
      </trkpt>
      <trkpt lat="45.5928" lon="6.72176">
        <ele>1533</ele>
        <time>2021-02-13T08:47:06Z</time>
      </trkpt>
      <trkpt lat="45.5928" lon="6.72176">
        <ele>1534</ele>
        <time>2021-02-13T08:47:07Z</time>
      </trkpt>
      <trkpt lat="45.59282" lon="6.72177">
        <ele>1534</ele>
        <time>2021-02-13T08:47:11Z</time>
      </trkpt>
      <trkpt lat="45.59284" lon="6.72177">
        <ele>1534</ele>
        <time>2021-02-13T08:47:16Z</time>
      </trkpt>
      <trkpt lat="45.59284" lon="6.72177">
        <ele>1535</ele>
        <time>2021-02-13T08:47:17Z</time>
      </trkpt>
      <trkpt lat="45.59286" lon="6.72177">
        <ele>1535</ele>
        <time>2021-02-13T08:47:20Z</time>
      </trkpt>
      <trkpt lat="45.59288" lon="6.72177">
        <ele>1535</ele>
        <time>2021-02-13T08:47:25Z</time>
      </trkpt>
      <trkpt lat="45.59288" lon="6.72177">
        <ele>1537</ele>
        <time>2021-02-13T08:47:27Z</time>
      </trkpt>
      <trkpt lat="45.5929" lon="6.72177">
        <ele>1537</ele>
        <time>2021-02-13T08:47:29Z</time>
      </trkpt>
      <trkpt lat="45.59292" lon="6.72177">
        <ele>1537</ele>
        <time>2021-02-13T08:47:35Z</time>
      </trkpt>
      <trkpt lat="45.59292" lon="6.72177">
        <ele>1537</ele>
        <time>2021-02-13T08:47:37Z</time>
      </trkpt>
      <trkpt lat="45.59294" lon="6.72177">
        <ele>1537</ele>
        <time>2021-02-13T08:47:40Z</time>
      </trkpt>
      <trkpt lat="45.59296" lon="6.72177">
        <ele>1539</ele>
        <time>2021-02-13T08:47:47Z</time>
      </trkpt>
      <trkpt lat="45.59297" lon="6.72174">
        <ele>1539</ele>
        <time>2021-02-13T08:47:53Z</time>
      </trkpt>
      <trkpt lat="45.59296" lon="6.72172">
        <ele>1539</ele>
        <time>2021-02-13T08:47:57Z</time>
      </trkpt>
      <trkpt lat="45.59295" lon="6.72169">
        <ele>1539</ele>
        <time>2021-02-13T08:48:05Z</time>
      </trkpt>
      <trkpt lat="45.59295" lon="6.72169">
        <ele>1541</ele>
        <time>2021-02-13T08:48:07Z</time>
      </trkpt>
      <trkpt lat="45.59295" lon="6.72166">
        <ele>1541</ele>
        <time>2021-02-13T08:48:13Z</time>
      </trkpt>
      <trkpt lat="45.59296" lon="6.72163">
        <ele>1541</ele>
        <time>2021-02-13T08:48:18Z</time>
      </trkpt>
      <trkpt lat="45.59297" lon="6.7216">
        <ele>1541</ele>
        <time>2021-02-13T08:48:24Z</time>
      </trkpt>
      <trkpt lat="45.59297" lon="6.7216">
        <ele>1542</ele>
        <time>2021-02-13T08:48:27Z</time>
      </trkpt>
      <trkpt lat="45.59298" lon="6.72158">
        <ele>1542</ele>
        <time>2021-02-13T08:48:29Z</time>
      </trkpt>
      <trkpt lat="45.59299" lon="6.72155">
        <ele>1542</ele>
        <time>2021-02-13T08:48:34Z</time>
      </trkpt>
      <trkpt lat="45.59299" lon="6.72155">
        <ele>1544</ele>
        <time>2021-02-13T08:48:37Z</time>
      </trkpt>
      <trkpt lat="45.593" lon="6.72153">
        <ele>1544</ele>
        <time>2021-02-13T08:48:39Z</time>
      </trkpt>
      <trkpt lat="45.59302" lon="6.72151">
        <ele>1544</ele>
        <time>2021-02-13T08:48:45Z</time>
      </trkpt>
      <trkpt lat="45.59302" lon="6.72151">
        <ele>1545</ele>
        <time>2021-02-13T08:48:47Z</time>
      </trkpt>
      <trkpt lat="45.59305" lon="6.7215">
        <ele>1545</ele>
        <time>2021-02-13T08:48:51Z</time>
      </trkpt>
      <trkpt lat="45.59306" lon="6.72149">
        <ele>1547</ele>
        <time>2021-02-13T08:48:57Z</time>
      </trkpt>
      <trkpt lat="45.59307" lon="6.72149">
        <ele>1547</ele>
        <time>2021-02-13T08:49:03Z</time>
      </trkpt>
      <trkpt lat="45.59308" lon="6.72148">
        <ele>1548</ele>
        <time>2021-02-13T08:49:07Z</time>
      </trkpt>
      <trkpt lat="45.59309" lon="6.72147">
        <ele>1548</ele>
        <time>2021-02-13T08:49:08Z</time>
      </trkpt>
      <trkpt lat="45.5931" lon="6.72146">
        <ele>1548</ele>
        <time>2021-02-13T08:49:14Z</time>
      </trkpt>
      <trkpt lat="45.59311" lon="6.72146">
        <ele>1549</ele>
        <time>2021-02-13T08:49:17Z</time>
      </trkpt>
      <trkpt lat="45.59312" lon="6.72145">
        <ele>1549</ele>
        <time>2021-02-13T08:49:20Z</time>
      </trkpt>
      <trkpt lat="45.59313" lon="6.72144">
        <ele>1549</ele>
        <time>2021-02-13T08:49:26Z</time>
      </trkpt>
      <trkpt lat="45.59314" lon="6.72143">
        <ele>1551</ele>
        <time>2021-02-13T08:49:27Z</time>
      </trkpt>
      <trkpt lat="45.59316" lon="6.72142">
        <ele>1551</ele>
        <time>2021-02-13T08:49:31Z</time>
      </trkpt>
      <trkpt lat="45.59318" lon="6.72141">
        <ele>1551</ele>
        <time>2021-02-13T08:49:36Z</time>
      </trkpt>
      <trkpt lat="45.59318" lon="6.72141">
        <ele>1551</ele>
        <time>2021-02-13T08:49:37Z</time>
      </trkpt>
      <trkpt lat="45.5932" lon="6.7214">
        <ele>1551</ele>
        <time>2021-02-13T08:49:41Z</time>
      </trkpt>
      <trkpt lat="45.59322" lon="6.72139">
        <ele>1552</ele>
        <time>2021-02-13T08:49:47Z</time>
      </trkpt>
      <trkpt lat="45.59324" lon="6.72138">
        <ele>1552</ele>
        <time>2021-02-13T08:49:53Z</time>
      </trkpt>
      <trkpt lat="45.59324" lon="6.72138">
        <ele>1553</ele>
        <time>2021-02-13T08:49:57Z</time>
      </trkpt>
      <trkpt lat="45.59325" lon="6.72137">
        <ele>1553</ele>
        <time>2021-02-13T08:49:58Z</time>
      </trkpt>
      <trkpt lat="45.59327" lon="6.72137">
        <ele>1553</ele>
        <time>2021-02-13T08:50:03Z</time>
      </trkpt>
      <trkpt lat="45.59327" lon="6.72137">
        <ele>1554</ele>
        <time>2021-02-13T08:50:07Z</time>
      </trkpt>
      <trkpt lat="45.59329" lon="6.72136">
        <ele>1554</ele>
        <time>2021-02-13T08:50:10Z</time>
      </trkpt>
      <trkpt lat="45.59331" lon="6.72135">
        <ele>1554</ele>
        <time>2021-02-13T08:50:16Z</time>
      </trkpt>
      <trkpt lat="45.59331" lon="6.72135">
        <ele>1555</ele>
        <time>2021-02-13T08:50:17Z</time>
      </trkpt>
      <trkpt lat="45.59334" lon="6.72134">
        <ele>1555</ele>
        <time>2021-02-13T08:50:22Z</time>
      </trkpt>
      <trkpt lat="45.59335" lon="6.72134">
        <ele>1556</ele>
        <time>2021-02-13T08:50:27Z</time>
      </trkpt>
      <trkpt lat="45.59336" lon="6.72134">
        <ele>1556</ele>
        <time>2021-02-13T08:50:28Z</time>
      </trkpt>
      <trkpt lat="45.59337" lon="6.72134">
        <ele>1556</ele>
        <time>2021-02-13T08:50:34Z</time>
      </trkpt>
      <trkpt lat="45.59338" lon="6.72133">
        <ele>1557</ele>
        <time>2021-02-13T08:50:37Z</time>
      </trkpt>
      <trkpt lat="45.59339" lon="6.72133">
        <ele>1557</ele>
        <time>2021-02-13T08:50:40Z</time>
      </trkpt>
      <trkpt lat="45.5934" lon="6.72133">
        <ele>1557</ele>
        <time>2021-02-13T08:50:46Z</time>
      </trkpt>
      <trkpt lat="45.59341" lon="6.72133">
        <ele>1558</ele>
        <time>2021-02-13T08:50:47Z</time>
      </trkpt>
      <trkpt lat="45.59343" lon="6.72133">
        <ele>1558</ele>
        <time>2021-02-13T08:50:51Z</time>
      </trkpt>
      <trkpt lat="45.59344" lon="6.72133">
        <ele>1558</ele>
        <time>2021-02-13T08:50:56Z</time>
      </trkpt>
      <trkpt lat="45.59344" lon="6.72133">
        <ele>1560</ele>
        <time>2021-02-13T08:50:57Z</time>
      </trkpt>
      <trkpt lat="45.59346" lon="6.72133">
        <ele>1560</ele>
        <time>2021-02-13T08:51:02Z</time>
      </trkpt>
      <trkpt lat="45.59346" lon="6.72133">
        <ele>1561</ele>
        <time>2021-02-13T08:51:07Z</time>
      </trkpt>
      <trkpt lat="45.59348" lon="6.72134">
        <ele>1561</ele>
        <time>2021-02-13T08:51:08Z</time>
      </trkpt>
      <trkpt lat="45.5935" lon="6.72134">
        <ele>1561</ele>
        <time>2021-02-13T08:51:14Z</time>
      </trkpt>
      <trkpt lat="45.5935" lon="6.72134">
        <ele>1562</ele>
        <time>2021-02-13T08:51:17Z</time>
      </trkpt>
      <trkpt lat="45.59352" lon="6.72135">
        <ele>1562</ele>
        <time>2021-02-13T08:51:19Z</time>
      </trkpt>
      <trkpt lat="45.59354" lon="6.72135">
        <ele>1562</ele>
        <time>2021-02-13T08:51:25Z</time>
      </trkpt>
      <trkpt lat="45.59354" lon="6.72135">
        <ele>1563</ele>
        <time>2021-02-13T08:51:28Z</time>
      </trkpt>
      <trkpt lat="45.59356" lon="6.72136">
        <ele>1563</ele>
        <time>2021-02-13T08:51:30Z</time>
      </trkpt>
      <trkpt lat="45.59358" lon="6.72136">
        <ele>1563</ele>
        <time>2021-02-13T08:51:35Z</time>
      </trkpt>
      <trkpt lat="45.59358" lon="6.72136">
        <ele>1564</ele>
        <time>2021-02-13T08:51:37Z</time>
      </trkpt>
      <trkpt lat="45.59361" lon="6.72137">
        <ele>1564</ele>
        <time>2021-02-13T08:51:40Z</time>
      </trkpt>
      <trkpt lat="45.59361" lon="6.72137">
        <ele>1564</ele>
        <time>2021-02-13T08:51:46Z</time>
      </trkpt>
      <trkpt lat="45.59362" lon="6.72137">
        <ele>1564</ele>
        <time>2021-02-13T08:51:47Z</time>
      </trkpt>
      <trkpt lat="45.59364" lon="6.72136">
        <ele>1564</ele>
        <time>2021-02-13T08:51:51Z</time>
      </trkpt>
      <trkpt lat="45.59366" lon="6.72136">
        <ele>1565</ele>
        <time>2021-02-13T08:51:57Z</time>
      </trkpt>
      <trkpt lat="45.59368" lon="6.72136">
        <ele>1565</ele>
        <time>2021-02-13T08:52:03Z</time>
      </trkpt>
      <trkpt lat="45.59368" lon="6.72136">
        <ele>1567</ele>
        <time>2021-02-13T08:52:07Z</time>
      </trkpt>
      <trkpt lat="45.5937" lon="6.72137">
        <ele>1567</ele>
        <time>2021-02-13T08:52:08Z</time>
      </trkpt>
      <trkpt lat="45.59372" lon="6.72137">
        <ele>1567</ele>
        <time>2021-02-13T08:52:14Z</time>
      </trkpt>
      <trkpt lat="45.59372" lon="6.72137">
        <ele>1567</ele>
        <time>2021-02-13T08:52:17Z</time>
      </trkpt>
      <trkpt lat="45.59374" lon="6.72137">
        <ele>1567</ele>
        <time>2021-02-13T08:52:20Z</time>
      </trkpt>
      <trkpt lat="45.59376" lon="6.72137">
        <ele>1567</ele>
        <time>2021-02-13T08:52:25Z</time>
      </trkpt>
      <trkpt lat="45.59376" lon="6.72137">
        <ele>1569</ele>
        <time>2021-02-13T08:52:27Z</time>
      </trkpt>
      <trkpt lat="45.59378" lon="6.72138">
        <ele>1569</ele>
        <time>2021-02-13T08:52:30Z</time>
      </trkpt>
      <trkpt lat="45.5938" lon="6.72138">
        <ele>1569</ele>
        <time>2021-02-13T08:52:35Z</time>
      </trkpt>
      <trkpt lat="45.5938" lon="6.72138">
        <ele>1570</ele>
        <time>2021-02-13T08:52:37Z</time>
      </trkpt>
      <trkpt lat="45.59382" lon="6.72139">
        <ele>1570</ele>
        <time>2021-02-13T08:52:40Z</time>
      </trkpt>
      <trkpt lat="45.59382" lon="6.72139">
        <ele>1571</ele>
        <time>2021-02-13T08:52:47Z</time>
      </trkpt>
      <trkpt lat="45.59384" lon="6.72137">
        <ele>1571</ele>
        <time>2021-02-13T08:52:51Z</time>
      </trkpt>
      <trkpt lat="45.59384" lon="6.72135">
        <ele>1572</ele>
        <time>2021-02-13T08:52:57Z</time>
      </trkpt>
      <trkpt lat="45.59385" lon="6.72133">
        <ele>1572</ele>
        <time>2021-02-13T08:53:03Z</time>
      </trkpt>
      <trkpt lat="45.59385" lon="6.72133">
        <ele>1573</ele>
        <time>2021-02-13T08:53:07Z</time>
      </trkpt>
      <trkpt lat="45.59386" lon="6.7213">
        <ele>1573</ele>
        <time>2021-02-13T08:53:09Z</time>
      </trkpt>
      <trkpt lat="45.59388" lon="6.72129">
        <ele>1573</ele>
        <time>2021-02-13T08:53:15Z</time>
      </trkpt>
      <trkpt lat="45.59388" lon="6.72129">
        <ele>1574</ele>
        <time>2021-02-13T08:53:17Z</time>
      </trkpt>
      <trkpt lat="45.5939" lon="6.72128">
        <ele>1574</ele>
        <time>2021-02-13T08:53:20Z</time>
      </trkpt>
      <trkpt lat="45.59392" lon="6.72128">
        <ele>1574</ele>
        <time>2021-02-13T08:53:25Z</time>
      </trkpt>
      <trkpt lat="45.59392" lon="6.72128">
        <ele>1575</ele>
        <time>2021-02-13T08:53:27Z</time>
      </trkpt>
      <trkpt lat="45.59394" lon="6.72129">
        <ele>1575</ele>
        <time>2021-02-13T08:53:30Z</time>
      </trkpt>
      <trkpt lat="45.59395" lon="6.72129">
        <ele>1575</ele>
        <time>2021-02-13T08:53:36Z</time>
      </trkpt>
      <trkpt lat="45.59396" lon="6.72129">
        <ele>1576</ele>
        <time>2021-02-13T08:53:37Z</time>
      </trkpt>
      <trkpt lat="45.59397" lon="6.72129">
        <ele>1576</ele>
        <time>2021-02-13T08:53:41Z</time>
      </trkpt>
      <trkpt lat="45.59399" lon="6.7213">
        <ele>1577</ele>
        <time>2021-02-13T08:53:47Z</time>
      </trkpt>
      <trkpt lat="45.59401" lon="6.72132">
        <ele>1577</ele>
        <time>2021-02-13T08:53:53Z</time>
      </trkpt>
      <trkpt lat="45.59401" lon="6.72132">
        <ele>1579</ele>
        <time>2021-02-13T08:53:57Z</time>
      </trkpt>
      <trkpt lat="45.59403" lon="6.72133">
        <ele>1579</ele>
        <time>2021-02-13T08:53:59Z</time>
      </trkpt>
      <trkpt lat="45.59405" lon="6.72133">
        <ele>1579</ele>
        <time>2021-02-13T08:54:05Z</time>
      </trkpt>
      <trkpt lat="45.59405" lon="6.72133">
        <ele>1579</ele>
        <time>2021-02-13T08:54:07Z</time>
      </trkpt>
      <trkpt lat="45.59407" lon="6.72133">
        <ele>1579</ele>
        <time>2021-02-13T08:54:10Z</time>
      </trkpt>
      <trkpt lat="45.59409" lon="6.72134">
        <ele>1579</ele>
        <time>2021-02-13T08:54:16Z</time>
      </trkpt>
      <trkpt lat="45.59409" lon="6.72134">
        <ele>1581</ele>
        <time>2021-02-13T08:54:17Z</time>
      </trkpt>
      <trkpt lat="45.59412" lon="6.72134">
        <ele>1581</ele>
        <time>2021-02-13T08:54:21Z</time>
      </trkpt>
      <trkpt lat="45.59413" lon="6.72134">
        <ele>1581</ele>
        <time>2021-02-13T08:54:26Z</time>
      </trkpt>
      <trkpt lat="45.59413" lon="6.72135">
        <ele>1582</ele>
        <time>2021-02-13T08:54:27Z</time>
      </trkpt>
      <trkpt lat="45.59415" lon="6.72134">
        <ele>1582</ele>
        <time>2021-02-13T08:54:31Z</time>
      </trkpt>
      <trkpt lat="45.59417" lon="6.72133">
        <ele>1582</ele>
        <time>2021-02-13T08:54:36Z</time>
      </trkpt>
      <trkpt lat="45.59417" lon="6.72133">
        <ele>1582</ele>
        <time>2021-02-13T08:54:38Z</time>
      </trkpt>
      <trkpt lat="45.5942" lon="6.72132">
        <ele>1582</ele>
        <time>2021-02-13T08:54:41Z</time>
      </trkpt>
      <trkpt lat="45.5942" lon="6.72132">
        <ele>1582</ele>
        <time>2021-02-13T08:54:46Z</time>
      </trkpt>
      <trkpt lat="45.59421" lon="6.72131">
        <ele>1583</ele>
        <time>2021-02-13T08:54:47Z</time>
      </trkpt>
      <trkpt lat="45.59423" lon="6.72131">
        <ele>1583</ele>
        <time>2021-02-13T08:54:51Z</time>
      </trkpt>
      <trkpt lat="45.59425" lon="6.7213">
        <ele>1585</ele>
        <time>2021-02-13T08:54:57Z</time>
      </trkpt>
      <trkpt lat="45.59427" lon="6.7213">
        <ele>1585</ele>
        <time>2021-02-13T08:55:03Z</time>
      </trkpt>
      <trkpt lat="45.59427" lon="6.7213">
        <ele>1586</ele>
        <time>2021-02-13T08:55:07Z</time>
      </trkpt>
      <trkpt lat="45.59429" lon="6.72131">
        <ele>1586</ele>
        <time>2021-02-13T08:55:09Z</time>
      </trkpt>
      <trkpt lat="45.59431" lon="6.72131">
        <ele>1586</ele>
        <time>2021-02-13T08:55:15Z</time>
      </trkpt>
      <trkpt lat="45.59431" lon="6.72131">
        <ele>1587</ele>
        <time>2021-02-13T08:55:17Z</time>
      </trkpt>
      <trkpt lat="45.59433" lon="6.72131">
        <ele>1587</ele>
        <time>2021-02-13T08:55:20Z</time>
      </trkpt>
      <trkpt lat="45.59435" lon="6.7213">
        <ele>1587</ele>
        <time>2021-02-13T08:55:26Z</time>
      </trkpt>
      <trkpt lat="45.59435" lon="6.7213">
        <ele>1588</ele>
        <time>2021-02-13T08:55:27Z</time>
      </trkpt>
      <trkpt lat="45.59438" lon="6.7213">
        <ele>1588</ele>
        <time>2021-02-13T08:55:31Z</time>
      </trkpt>
      <trkpt lat="45.59439" lon="6.7213">
        <ele>1589</ele>
        <time>2021-02-13T08:55:37Z</time>
      </trkpt>
      <trkpt lat="45.5944" lon="6.7213">
        <ele>1589</ele>
        <time>2021-02-13T08:55:43Z</time>
      </trkpt>
      <trkpt lat="45.59442" lon="6.7213">
        <ele>1590</ele>
        <time>2021-02-13T08:55:47Z</time>
      </trkpt>
      <trkpt lat="45.59443" lon="6.7213">
        <ele>1590</ele>
        <time>2021-02-13T08:55:49Z</time>
      </trkpt>
      <trkpt lat="45.59444" lon="6.7213">
        <ele>1590</ele>
        <time>2021-02-13T08:55:54Z</time>
      </trkpt>
      <trkpt lat="45.59445" lon="6.72129">
        <ele>1592</ele>
        <time>2021-02-13T08:55:57Z</time>
      </trkpt>
      <trkpt lat="45.59446" lon="6.72129">
        <ele>1592</ele>
        <time>2021-02-13T08:56:00Z</time>
      </trkpt>
      <trkpt lat="45.59448" lon="6.72129">
        <ele>1592</ele>
        <time>2021-02-13T08:56:06Z</time>
      </trkpt>
      <trkpt lat="45.59449" lon="6.72129">
        <ele>1593</ele>
        <time>2021-02-13T08:56:07Z</time>
      </trkpt>
      <trkpt lat="45.59451" lon="6.72129">
        <ele>1593</ele>
        <time>2021-02-13T08:56:12Z</time>
      </trkpt>
      <trkpt lat="45.59451" lon="6.72129">
        <ele>1593</ele>
        <time>2021-02-13T08:56:17Z</time>
      </trkpt>
      <trkpt lat="45.59453" lon="6.72129">
        <ele>1593</ele>
        <time>2021-02-13T08:56:18Z</time>
      </trkpt>
      <trkpt lat="45.59455" lon="6.72128">
        <ele>1593</ele>
        <time>2021-02-13T08:56:24Z</time>
      </trkpt>
      <trkpt lat="45.59455" lon="6.72128">
        <ele>1595</ele>
        <time>2021-02-13T08:56:27Z</time>
      </trkpt>
      <trkpt lat="45.59457" lon="6.72128">
        <ele>1595</ele>
        <time>2021-02-13T08:56:30Z</time>
      </trkpt>
      <trkpt lat="45.59459" lon="6.72128">
        <ele>1595</ele>
        <time>2021-02-13T08:56:36Z</time>
      </trkpt>
      <trkpt lat="45.59459" lon="6.72128">
        <ele>1595</ele>
        <time>2021-02-13T08:56:37Z</time>
      </trkpt>
      <trkpt lat="45.59461" lon="6.72128">
        <ele>1595</ele>
        <time>2021-02-13T08:56:42Z</time>
      </trkpt>
      <trkpt lat="45.59461" lon="6.72128">
        <ele>1596</ele>
        <time>2021-02-13T08:56:47Z</time>
      </trkpt>
      <trkpt lat="45.59463" lon="6.72127">
        <ele>1596</ele>
        <time>2021-02-13T08:56:48Z</time>
      </trkpt>
      <trkpt lat="45.59465" lon="6.72127">
        <ele>1596</ele>
        <time>2021-02-13T08:56:53Z</time>
      </trkpt>
      <trkpt lat="45.59465" lon="6.72127">
        <ele>1597</ele>
        <time>2021-02-13T08:56:57Z</time>
      </trkpt>
      <trkpt lat="45.59467" lon="6.72127">
        <ele>1597</ele>
        <time>2021-02-13T08:56:58Z</time>
      </trkpt>
      <trkpt lat="45.59469" lon="6.72127">
        <ele>1597</ele>
        <time>2021-02-13T08:57:04Z</time>
      </trkpt>
      <trkpt lat="45.59469" lon="6.72127">
        <ele>1600</ele>
        <time>2021-02-13T08:57:07Z</time>
      </trkpt>
      <trkpt lat="45.59471" lon="6.72127">
        <ele>1600</ele>
        <time>2021-02-13T08:57:09Z</time>
      </trkpt>
      <trkpt lat="45.59473" lon="6.72128">
        <ele>1600</ele>
        <time>2021-02-13T08:57:14Z</time>
      </trkpt>
      <trkpt lat="45.59473" lon="6.72128">
        <ele>1600</ele>
        <time>2021-02-13T08:57:17Z</time>
      </trkpt>
      <trkpt lat="45.59475" lon="6.72129">
        <ele>1600</ele>
        <time>2021-02-13T08:57:19Z</time>
      </trkpt>
      <trkpt lat="45.59477" lon="6.72129">
        <ele>1600</ele>
        <time>2021-02-13T08:57:24Z</time>
      </trkpt>
      <trkpt lat="45.59477" lon="6.72129">
        <ele>1600</ele>
        <time>2021-02-13T08:57:27Z</time>
      </trkpt>
      <trkpt lat="45.59479" lon="6.72128">
        <ele>1600</ele>
        <time>2021-02-13T08:57:29Z</time>
      </trkpt>
      <trkpt lat="45.59481" lon="6.72128">
        <ele>1600</ele>
        <time>2021-02-13T08:57:34Z</time>
      </trkpt>
      <trkpt lat="45.59481" lon="6.72128">
        <ele>1602</ele>
        <time>2021-02-13T08:57:37Z</time>
      </trkpt>
      <trkpt lat="45.59483" lon="6.72127">
        <ele>1602</ele>
        <time>2021-02-13T08:57:39Z</time>
      </trkpt>
      <trkpt lat="45.59485" lon="6.72127">
        <ele>1602</ele>
        <time>2021-02-13T08:57:44Z</time>
      </trkpt>
      <trkpt lat="45.59485" lon="6.72127">
        <ele>1603</ele>
        <time>2021-02-13T08:57:47Z</time>
      </trkpt>
      <trkpt lat="45.59487" lon="6.72126">
        <ele>1603</ele>
        <time>2021-02-13T08:57:49Z</time>
      </trkpt>
      <trkpt lat="45.59489" lon="6.72126">
        <ele>1603</ele>
        <time>2021-02-13T08:57:55Z</time>
      </trkpt>
      <trkpt lat="45.59489" lon="6.72126">
        <ele>1604</ele>
        <time>2021-02-13T08:57:57Z</time>
      </trkpt>
      <trkpt lat="45.59493" lon="6.72126">
        <ele>1604</ele>
        <time>2021-02-13T08:58:01Z</time>
      </trkpt>
      <trkpt lat="45.59494" lon="6.72125">
        <ele>1604</ele>
        <time>2021-02-13T08:58:07Z</time>
      </trkpt>
      <trkpt lat="45.59496" lon="6.72125">
        <ele>1604</ele>
        <time>2021-02-13T08:58:12Z</time>
      </trkpt>
      <trkpt lat="45.59497" lon="6.72124">
        <ele>1605</ele>
        <time>2021-02-13T08:58:17Z</time>
      </trkpt>
      <trkpt lat="45.59499" lon="6.72124">
        <ele>1605</ele>
        <time>2021-02-13T08:58:22Z</time>
      </trkpt>
      <trkpt lat="45.595" lon="6.72123">
        <ele>1607</ele>
        <time>2021-02-13T08:58:27Z</time>
      </trkpt>
      <trkpt lat="45.59502" lon="6.72123">
        <ele>1607</ele>
        <time>2021-02-13T08:58:32Z</time>
      </trkpt>
      <trkpt lat="45.59503" lon="6.72122">
        <ele>1608</ele>
        <time>2021-02-13T08:58:37Z</time>
      </trkpt>
      <trkpt lat="45.59505" lon="6.72122">
        <ele>1608</ele>
        <time>2021-02-13T08:58:42Z</time>
      </trkpt>
      <trkpt lat="45.59506" lon="6.72121">
        <ele>1609</ele>
        <time>2021-02-13T08:58:47Z</time>
      </trkpt>
      <trkpt lat="45.59508" lon="6.72121">
        <ele>1609</ele>
        <time>2021-02-13T08:58:52Z</time>
      </trkpt>
      <trkpt lat="45.59509" lon="6.7212">
        <ele>1610</ele>
        <time>2021-02-13T08:58:57Z</time>
      </trkpt>
      <trkpt lat="45.59511" lon="6.7212">
        <ele>1610</ele>
        <time>2021-02-13T08:59:02Z</time>
      </trkpt>
      <trkpt lat="45.59512" lon="6.72119">
        <ele>1611</ele>
        <time>2021-02-13T08:59:07Z</time>
      </trkpt>
      <trkpt lat="45.59513" lon="6.72119">
        <ele>1611</ele>
        <time>2021-02-13T08:59:11Z</time>
      </trkpt>
      <trkpt lat="45.59515" lon="6.72118">
        <ele>1611</ele>
        <time>2021-02-13T08:59:14Z</time>
      </trkpt>
      <trkpt lat="45.59516" lon="6.72118">
        <ele>1612</ele>
        <time>2021-02-13T08:59:17Z</time>
      </trkpt>
      <trkpt lat="45.59518" lon="6.72117">
        <ele>1612</ele>
        <time>2021-02-13T08:59:18Z</time>
      </trkpt>
      <trkpt lat="45.59519" lon="6.72117">
        <ele>1612</ele>
        <time>2021-02-13T08:59:23Z</time>
      </trkpt>
      <trkpt lat="45.59521" lon="6.72116">
        <ele>1613</ele>
        <time>2021-02-13T08:59:27Z</time>
      </trkpt>
      <trkpt lat="45.59522" lon="6.72116">
        <ele>1613</ele>
        <time>2021-02-13T08:59:28Z</time>
      </trkpt>
      <trkpt lat="45.59524" lon="6.72115">
        <ele>1613</ele>
        <time>2021-02-13T08:59:34Z</time>
      </trkpt>
      <trkpt lat="45.59525" lon="6.72114">
        <ele>1614</ele>
        <time>2021-02-13T08:59:37Z</time>
      </trkpt>
      <trkpt lat="45.59527" lon="6.72114">
        <ele>1614</ele>
        <time>2021-02-13T08:59:40Z</time>
      </trkpt>
      <trkpt lat="45.59528" lon="6.72113">
        <ele>1614</ele>
        <time>2021-02-13T08:59:46Z</time>
      </trkpt>
      <trkpt lat="45.5953" lon="6.72113">
        <ele>1615</ele>
        <time>2021-02-13T08:59:47Z</time>
      </trkpt>
      <trkpt lat="45.59529" lon="6.72109">
        <ele>1615</ele>
        <time>2021-02-13T08:59:50Z</time>
      </trkpt>
      <trkpt lat="45.59529" lon="6.72108">
        <ele>1615</ele>
        <time>2021-02-13T08:59:54Z</time>
      </trkpt>
      <trkpt lat="45.59528" lon="6.72106">
        <ele>1615</ele>
        <time>2021-02-13T08:59:57Z</time>
      </trkpt>
      <trkpt lat="45.59528" lon="6.72105">
        <ele>1615</ele>
        <time>2021-02-13T08:59:58Z</time>
      </trkpt>
      <trkpt lat="45.59527" lon="6.72103">
        <ele>1615</ele>
        <time>2021-02-13T09:00:02Z</time>
      </trkpt>
      <trkpt lat="45.59527" lon="6.72102">
        <ele>1615</ele>
        <time>2021-02-13T09:00:06Z</time>
      </trkpt>
      <trkpt lat="45.59527" lon="6.721">
        <ele>1617</ele>
        <time>2021-02-13T09:00:07Z</time>
      </trkpt>
      <trkpt lat="45.59525" lon="6.72096">
        <ele>1617</ele>
        <time>2021-02-13T09:00:10Z</time>
      </trkpt>
      <trkpt lat="45.59525" lon="6.72093">
        <ele>1617</ele>
        <time>2021-02-13T09:00:14Z</time>
      </trkpt>
      <trkpt lat="45.59524" lon="6.72091">
        <ele>1617</ele>
        <time>2021-02-13T09:00:17Z</time>
      </trkpt>
      <trkpt lat="45.59524" lon="6.72089">
        <ele>1617</ele>
        <time>2021-02-13T09:00:18Z</time>
      </trkpt>
      <trkpt lat="45.59523" lon="6.72087">
        <ele>1617</ele>
        <time>2021-02-13T09:00:22Z</time>
      </trkpt>
      <trkpt lat="45.59522" lon="6.72085">
        <ele>1617</ele>
        <time>2021-02-13T09:00:27Z</time>
      </trkpt>
      <trkpt lat="45.59522" lon="6.72083">
        <ele>1617</ele>
        <time>2021-02-13T09:00:32Z</time>
      </trkpt>
      <trkpt lat="45.59521" lon="6.72081">
        <ele>1619</ele>
        <time>2021-02-13T09:00:37Z</time>
      </trkpt>
      <trkpt lat="45.59521" lon="6.72079">
        <ele>1619</ele>
        <time>2021-02-13T09:00:42Z</time>
      </trkpt>
      <trkpt lat="45.5952" lon="6.72077">
        <ele>1620</ele>
        <time>2021-02-13T09:00:47Z</time>
      </trkpt>
      <trkpt lat="45.5952" lon="6.72075">
        <ele>1620</ele>
        <time>2021-02-13T09:00:52Z</time>
      </trkpt>
      <trkpt lat="45.59519" lon="6.72073">
        <ele>1620</ele>
        <time>2021-02-13T09:00:57Z</time>
      </trkpt>
      <trkpt lat="45.59519" lon="6.72071">
        <ele>1621</ele>
        <time>2021-02-13T09:00:58Z</time>
      </trkpt>
      <trkpt lat="45.59518" lon="6.72068">
        <ele>1621</ele>
        <time>2021-02-13T09:01:03Z</time>
      </trkpt>
      <trkpt lat="45.59518" lon="6.72068">
        <ele>1621</ele>
        <time>2021-02-13T09:01:07Z</time>
      </trkpt>
      <trkpt lat="45.59517" lon="6.72066">
        <ele>1621</ele>
        <time>2021-02-13T09:01:08Z</time>
      </trkpt>
      <trkpt lat="45.59516" lon="6.72063">
        <ele>1621</ele>
        <time>2021-02-13T09:01:14Z</time>
      </trkpt>
      <trkpt lat="45.59516" lon="6.72063">
        <ele>1623</ele>
        <time>2021-02-13T09:01:17Z</time>
      </trkpt>
      <trkpt lat="45.59516" lon="6.7206">
        <ele>1623</ele>
        <time>2021-02-13T09:01:20Z</time>
      </trkpt>
      <trkpt lat="45.59515" lon="6.72058">
        <ele>1623</ele>
        <time>2021-02-13T09:01:25Z</time>
      </trkpt>
      <trkpt lat="45.59515" lon="6.72058">
        <ele>1624</ele>
        <time>2021-02-13T09:01:27Z</time>
      </trkpt>
      <trkpt lat="45.59514" lon="6.72055">
        <ele>1624</ele>
        <time>2021-02-13T09:01:30Z</time>
      </trkpt>
      <trkpt lat="45.59513" lon="6.72053">
        <ele>1624</ele>
        <time>2021-02-13T09:01:35Z</time>
      </trkpt>
      <trkpt lat="45.59513" lon="6.72053">
        <ele>1624</ele>
        <time>2021-02-13T09:01:37Z</time>
      </trkpt>
      <trkpt lat="45.59512" lon="6.7205">
        <ele>1624</ele>
        <time>2021-02-13T09:01:40Z</time>
      </trkpt>
      <trkpt lat="45.59511" lon="6.72048">
        <ele>1624</ele>
        <time>2021-02-13T09:01:45Z</time>
      </trkpt>
      <trkpt lat="45.59511" lon="6.72048">
        <ele>1626</ele>
        <time>2021-02-13T09:01:47Z</time>
      </trkpt>
      <trkpt lat="45.5951" lon="6.72045">
        <ele>1626</ele>
        <time>2021-02-13T09:01:50Z</time>
      </trkpt>
      <trkpt lat="45.59509" lon="6.72043">
        <ele>1626</ele>
        <time>2021-02-13T09:01:55Z</time>
      </trkpt>
      <trkpt lat="45.59509" lon="6.72043">
        <ele>1626</ele>
        <time>2021-02-13T09:01:57Z</time>
      </trkpt>
      <trkpt lat="45.59508" lon="6.7204">
        <ele>1626</ele>
        <time>2021-02-13T09:02:00Z</time>
      </trkpt>
      <trkpt lat="45.59507" lon="6.72038">
        <ele>1626</ele>
        <time>2021-02-13T09:02:05Z</time>
      </trkpt>
      <trkpt lat="45.59507" lon="6.72038">
        <ele>1628</ele>
        <time>2021-02-13T09:02:07Z</time>
      </trkpt>
      <trkpt lat="45.59506" lon="6.72035">
        <ele>1628</ele>
        <time>2021-02-13T09:02:10Z</time>
      </trkpt>
      <trkpt lat="45.59505" lon="6.72032">
        <ele>1628</ele>
        <time>2021-02-13T09:02:15Z</time>
      </trkpt>
      <trkpt lat="45.59505" lon="6.72032">
        <ele>1629</ele>
        <time>2021-02-13T09:02:17Z</time>
      </trkpt>
      <trkpt lat="45.59504" lon="6.7203">
        <ele>1629</ele>
        <time>2021-02-13T09:02:20Z</time>
      </trkpt>
      <trkpt lat="45.59503" lon="6.72027">
        <ele>1629</ele>
        <time>2021-02-13T09:02:25Z</time>
      </trkpt>
      <trkpt lat="45.59503" lon="6.72027">
        <ele>1630</ele>
        <time>2021-02-13T09:02:27Z</time>
      </trkpt>
      <trkpt lat="45.59502" lon="6.72025">
        <ele>1630</ele>
        <time>2021-02-13T09:02:30Z</time>
      </trkpt>
      <trkpt lat="45.59501" lon="6.72022">
        <ele>1630</ele>
        <time>2021-02-13T09:02:35Z</time>
      </trkpt>
      <trkpt lat="45.59501" lon="6.72022">
        <ele>1630</ele>
        <time>2021-02-13T09:02:37Z</time>
      </trkpt>
      <trkpt lat="45.595" lon="6.72019">
        <ele>1630</ele>
        <time>2021-02-13T09:02:40Z</time>
      </trkpt>
      <trkpt lat="45.59501" lon="6.72016">
        <ele>1630</ele>
        <time>2021-02-13T09:02:46Z</time>
      </trkpt>
      <trkpt lat="45.59501" lon="6.72016">
        <ele>1631</ele>
        <time>2021-02-13T09:02:47Z</time>
      </trkpt>
      <trkpt lat="45.59501" lon="6.72016">
        <ele>1632</ele>
        <time>2021-02-13T09:02:57Z</time>
      </trkpt>
      <trkpt lat="45.59501" lon="6.72016">
        <ele>1631</ele>
        <time>2021-02-13T09:03:07Z</time>
      </trkpt>
      <trkpt lat="45.59501" lon="6.72016">
        <ele>1632</ele>
        <time>2021-02-13T09:03:17Z</time>
      </trkpt>
      <trkpt lat="45.59501" lon="6.72016">
        <ele>1632</ele>
        <time>2021-02-13T09:03:27Z</time>
      </trkpt>
      <trkpt lat="45.59501" lon="6.72016">
        <ele>1632</ele>
        <time>2021-02-13T09:03:37Z</time>
      </trkpt>
      <trkpt lat="45.59501" lon="6.72016">
        <ele>1632</ele>
        <time>2021-02-13T09:03:47Z</time>
      </trkpt>
      <trkpt lat="45.59501" lon="6.72016">
        <ele>1632</ele>
        <time>2021-02-13T09:03:57Z</time>
      </trkpt>
      <trkpt lat="45.59501" lon="6.72016">
        <ele>1631</ele>
        <time>2021-02-13T09:04:08Z</time>
      </trkpt>
      <trkpt lat="45.59501" lon="6.72016">
        <ele>1632</ele>
        <time>2021-02-13T09:04:17Z</time>
      </trkpt>
      <trkpt lat="45.59501" lon="6.72016">
        <ele>1631</ele>
        <time>2021-02-13T09:04:27Z</time>
      </trkpt>
      <trkpt lat="45.59501" lon="6.72016">
        <ele>1631</ele>
        <time>2021-02-13T09:04:37Z</time>
      </trkpt>
      <trkpt lat="45.59501" lon="6.72016">
        <ele>1631</ele>
        <time>2021-02-13T09:04:47Z</time>
      </trkpt>
      <trkpt lat="45.59501" lon="6.72016">
        <ele>1631</ele>
        <time>2021-02-13T09:04:57Z</time>
      </trkpt>
      <trkpt lat="45.59501" lon="6.72016">
        <ele>1631</ele>
        <time>2021-02-13T09:05:07Z</time>
      </trkpt>
      <trkpt lat="45.59501" lon="6.72016">
        <ele>1631</ele>
        <time>2021-02-13T09:05:17Z</time>
      </trkpt>
      <trkpt lat="45.59501" lon="6.72016">
        <ele>1631</ele>
        <time>2021-02-13T09:05:27Z</time>
      </trkpt>
      <trkpt lat="45.59501" lon="6.72016">
        <ele>1631</ele>
        <time>2021-02-13T09:05:37Z</time>
      </trkpt>
      <trkpt lat="45.59501" lon="6.72016">
        <ele>1631</ele>
        <time>2021-02-13T09:05:47Z</time>
      </trkpt>
      <trkpt lat="45.59501" lon="6.72016">
        <ele>1631</ele>
        <time>2021-02-13T09:05:57Z</time>
      </trkpt>
      <trkpt lat="45.59501" lon="6.72016">
        <ele>1631</ele>
        <time>2021-02-13T09:06:07Z</time>
      </trkpt>
      <trkpt lat="45.59501" lon="6.72016">
        <ele>1631</ele>
        <time>2021-02-13T09:06:17Z</time>
      </trkpt>
      <trkpt lat="45.59501" lon="6.72016">
        <ele>1631</ele>
        <time>2021-02-13T09:06:27Z</time>
      </trkpt>
      <trkpt lat="45.59501" lon="6.72016">
        <ele>1631</ele>
        <time>2021-02-13T09:06:37Z</time>
      </trkpt>
      <trkpt lat="45.59501" lon="6.72016">
        <ele>1631</ele>
        <time>2021-02-13T09:06:47Z</time>
      </trkpt>
      <trkpt lat="45.59501" lon="6.72016">
        <ele>1631</ele>
        <time>2021-02-13T09:06:57Z</time>
      </trkpt>
      <trkpt lat="45.59501" lon="6.72016">
        <ele>1631</ele>
        <time>2021-02-13T09:07:07Z</time>
      </trkpt>
      <trkpt lat="45.59501" lon="6.72016">
        <ele>1630</ele>
        <time>2021-02-13T09:07:18Z</time>
      </trkpt>
      <trkpt lat="45.59501" lon="6.72016">
        <ele>1630</ele>
        <time>2021-02-13T09:07:27Z</time>
      </trkpt>
      <trkpt lat="45.59501" lon="6.72016">
        <ele>1630</ele>
        <time>2021-02-13T09:07:37Z</time>
      </trkpt>
      <trkpt lat="45.59501" lon="6.72016">
        <ele>1630</ele>
        <time>2021-02-13T09:07:47Z</time>
      </trkpt>
      <trkpt lat="45.59501" lon="6.72016">
        <ele>1630</ele>
        <time>2021-02-13T09:07:57Z</time>
      </trkpt>
      <trkpt lat="45.59501" lon="6.72016">
        <ele>1631</ele>
        <time>2021-02-13T09:08:07Z</time>
      </trkpt>
      <trkpt lat="45.59501" lon="6.72016">
        <ele>1631</ele>
        <time>2021-02-13T09:08:17Z</time>
      </trkpt>
      <trkpt lat="45.59501" lon="6.72014">
        <ele>1631</ele>
        <time>2021-02-13T09:08:23Z</time>
      </trkpt>
      <trkpt lat="45.59501" lon="6.72014">
        <ele>1631</ele>
        <time>2021-02-13T09:08:27Z</time>
      </trkpt>
      <trkpt lat="45.59503" lon="6.72014">
        <ele>1631</ele>
        <time>2021-02-13T09:08:34Z</time>
      </trkpt>
      <trkpt lat="45.59503" lon="6.72014">
        <ele>1631</ele>
        <time>2021-02-13T09:08:37Z</time>
      </trkpt>
      <trkpt lat="45.59505" lon="6.72014">
        <ele>1631</ele>
        <time>2021-02-13T09:08:39Z</time>
      </trkpt>
      <trkpt lat="45.59507" lon="6.72013">
        <ele>1631</ele>
        <time>2021-02-13T09:08:44Z</time>
      </trkpt>
      <trkpt lat="45.59507" lon="6.72013">
        <ele>1632</ele>
        <time>2021-02-13T09:08:47Z</time>
      </trkpt>
      <trkpt lat="45.59509" lon="6.72012">
        <ele>1632</ele>
        <time>2021-02-13T09:08:48Z</time>
      </trkpt>
      <trkpt lat="45.5951" lon="6.72009">
        <ele>1632</ele>
        <time>2021-02-13T09:08:53Z</time>
      </trkpt>
      <trkpt lat="45.5951" lon="6.72009">
        <ele>1633</ele>
        <time>2021-02-13T09:08:57Z</time>
      </trkpt>
      <trkpt lat="45.59511" lon="6.72006">
        <ele>1633</ele>
        <time>2021-02-13T09:08:58Z</time>
      </trkpt>
      <trkpt lat="45.59511" lon="6.72004">
        <ele>1633</ele>
        <time>2021-02-13T09:09:01Z</time>
      </trkpt>
      <trkpt lat="45.59512" lon="6.72001">
        <ele>1633</ele>
        <time>2021-02-13T09:09:04Z</time>
      </trkpt>
      <trkpt lat="45.59513" lon="6.71999">
        <ele>1634</ele>
        <time>2021-02-13T09:09:07Z</time>
      </trkpt>
      <trkpt lat="45.59514" lon="6.71995">
        <ele>1634</ele>
        <time>2021-02-13T09:09:10Z</time>
      </trkpt>
      <trkpt lat="45.59514" lon="6.71993">
        <ele>1634</ele>
        <time>2021-02-13T09:09:13Z</time>
      </trkpt>
      <trkpt lat="45.59514" lon="6.71992">
        <ele>1634</ele>
        <time>2021-02-13T09:09:16Z</time>
      </trkpt>
      <trkpt lat="45.59515" lon="6.71991">
        <ele>1634</ele>
        <time>2021-02-13T09:09:17Z</time>
      </trkpt>
      <trkpt lat="45.59515" lon="6.71986">
        <ele>1634</ele>
        <time>2021-02-13T09:09:20Z</time>
      </trkpt>
      <trkpt lat="45.59516" lon="6.71984">
        <ele>1634</ele>
        <time>2021-02-13T09:09:24Z</time>
      </trkpt>
      <trkpt lat="45.59516" lon="6.71982">
        <ele>1636</ele>
        <time>2021-02-13T09:09:27Z</time>
      </trkpt>
      <trkpt lat="45.59516" lon="6.7198">
        <ele>1636</ele>
        <time>2021-02-13T09:09:28Z</time>
      </trkpt>
      <trkpt lat="45.59516" lon="6.71978">
        <ele>1636</ele>
        <time>2021-02-13T09:09:32Z</time>
      </trkpt>
      <trkpt lat="45.59516" lon="6.71977">
        <ele>1636</ele>
        <time>2021-02-13T09:09:36Z</time>
      </trkpt>
      <trkpt lat="45.59516" lon="6.71975">
        <ele>1636</ele>
        <time>2021-02-13T09:09:37Z</time>
      </trkpt>
      <trkpt lat="45.59516" lon="6.7197">
        <ele>1636</ele>
        <time>2021-02-13T09:09:40Z</time>
      </trkpt>
      <trkpt lat="45.59516" lon="6.71968">
        <ele>1636</ele>
        <time>2021-02-13T09:09:44Z</time>
      </trkpt>
      <trkpt lat="45.59516" lon="6.71966">
        <ele>1637</ele>
        <time>2021-02-13T09:09:47Z</time>
      </trkpt>
      <trkpt lat="45.59516" lon="6.71964">
        <ele>1637</ele>
        <time>2021-02-13T09:09:48Z</time>
      </trkpt>
      <trkpt lat="45.59516" lon="6.71962">
        <ele>1637</ele>
        <time>2021-02-13T09:09:52Z</time>
      </trkpt>
      <trkpt lat="45.59516" lon="6.7196">
        <ele>1637</ele>
        <time>2021-02-13T09:09:56Z</time>
      </trkpt>
      <trkpt lat="45.59516" lon="6.71959">
        <ele>1638</ele>
        <time>2021-02-13T09:09:57Z</time>
      </trkpt>
      <trkpt lat="45.59515" lon="6.71954">
        <ele>1638</ele>
        <time>2021-02-13T09:10:00Z</time>
      </trkpt>
      <trkpt lat="45.59515" lon="6.71952">
        <ele>1638</ele>
        <time>2021-02-13T09:10:04Z</time>
      </trkpt>
      <trkpt lat="45.59515" lon="6.71951">
        <ele>1638</ele>
        <time>2021-02-13T09:10:07Z</time>
      </trkpt>
      <trkpt lat="45.59515" lon="6.71949">
        <ele>1638</ele>
        <time>2021-02-13T09:10:08Z</time>
      </trkpt>
      <trkpt lat="45.59515" lon="6.71947">
        <ele>1638</ele>
        <time>2021-02-13T09:10:12Z</time>
      </trkpt>
      <trkpt lat="45.59515" lon="6.71946">
        <ele>1638</ele>
        <time>2021-02-13T09:10:16Z</time>
      </trkpt>
      <trkpt lat="45.59515" lon="6.71944">
        <ele>1640</ele>
        <time>2021-02-13T09:10:17Z</time>
      </trkpt>
      <trkpt lat="45.59514" lon="6.71941">
        <ele>1640</ele>
        <time>2021-02-13T09:10:20Z</time>
      </trkpt>
      <trkpt lat="45.59514" lon="6.71938">
        <ele>1640</ele>
        <time>2021-02-13T09:10:24Z</time>
      </trkpt>
      <trkpt lat="45.59514" lon="6.71938">
        <ele>1641</ele>
        <time>2021-02-13T09:10:28Z</time>
      </trkpt>
      <trkpt lat="45.59514" lon="6.71935">
        <ele>1641</ele>
        <time>2021-02-13T09:10:29Z</time>
      </trkpt>
      <trkpt lat="45.59514" lon="6.71932">
        <ele>1641</ele>
        <time>2021-02-13T09:10:34Z</time>
      </trkpt>
      <trkpt lat="45.59514" lon="6.71932">
        <ele>1642</ele>
        <time>2021-02-13T09:10:37Z</time>
      </trkpt>
      <trkpt lat="45.59514" lon="6.7193">
        <ele>1642</ele>
        <time>2021-02-13T09:10:39Z</time>
      </trkpt>
      <trkpt lat="45.59513" lon="6.71927">
        <ele>1642</ele>
        <time>2021-02-13T09:10:44Z</time>
      </trkpt>
      <trkpt lat="45.59513" lon="6.71927">
        <ele>1642</ele>
        <time>2021-02-13T09:10:47Z</time>
      </trkpt>
      <trkpt lat="45.59512" lon="6.71924">
        <ele>1642</ele>
        <time>2021-02-13T09:10:49Z</time>
      </trkpt>
      <trkpt lat="45.59512" lon="6.71922">
        <ele>1642</ele>
        <time>2021-02-13T09:10:53Z</time>
      </trkpt>
      <trkpt lat="45.59512" lon="6.71922">
        <ele>1643</ele>
        <time>2021-02-13T09:10:57Z</time>
      </trkpt>
      <trkpt lat="45.59511" lon="6.71919">
        <ele>1643</ele>
        <time>2021-02-13T09:10:58Z</time>
      </trkpt>
      <trkpt lat="45.59511" lon="6.71916">
        <ele>1643</ele>
        <time>2021-02-13T09:11:03Z</time>
      </trkpt>
      <trkpt lat="45.5951" lon="6.71913">
        <ele>1644</ele>
        <time>2021-02-13T09:11:07Z</time>
      </trkpt>
      <trkpt lat="45.59509" lon="6.7191">
        <ele>1644</ele>
        <time>2021-02-13T09:11:12Z</time>
      </trkpt>
      <trkpt lat="45.59509" lon="6.71908">
        <ele>1644</ele>
        <time>2021-02-13T09:11:16Z</time>
      </trkpt>
      <trkpt lat="45.59509" lon="6.71908">
        <ele>1646</ele>
        <time>2021-02-13T09:11:17Z</time>
      </trkpt>
      <trkpt lat="45.59508" lon="6.71905">
        <ele>1646</ele>
        <time>2021-02-13T09:11:20Z</time>
      </trkpt>
      <trkpt lat="45.59507" lon="6.71903">
        <ele>1646</ele>
        <time>2021-02-13T09:11:25Z</time>
      </trkpt>
      <trkpt lat="45.59507" lon="6.71903">
        <ele>1647</ele>
        <time>2021-02-13T09:11:27Z</time>
      </trkpt>
      <trkpt lat="45.59506" lon="6.719">
        <ele>1647</ele>
        <time>2021-02-13T09:11:30Z</time>
      </trkpt>
      <trkpt lat="45.59505" lon="6.71898">
        <ele>1647</ele>
        <time>2021-02-13T09:11:35Z</time>
      </trkpt>
      <trkpt lat="45.59505" lon="6.71898">
        <ele>1647</ele>
        <time>2021-02-13T09:11:37Z</time>
      </trkpt>
      <trkpt lat="45.59503" lon="6.71896">
        <ele>1647</ele>
        <time>2021-02-13T09:11:40Z</time>
      </trkpt>
      <trkpt lat="45.59502" lon="6.71894">
        <ele>1647</ele>
        <time>2021-02-13T09:11:45Z</time>
      </trkpt>
      <trkpt lat="45.59502" lon="6.71894">
        <ele>1648</ele>
        <time>2021-02-13T09:11:47Z</time>
      </trkpt>
      <trkpt lat="45.59501" lon="6.71891">
        <ele>1648</ele>
        <time>2021-02-13T09:11:51Z</time>
      </trkpt>
      <trkpt lat="45.595" lon="6.71889">
        <ele>1650</ele>
        <time>2021-02-13T09:11:57Z</time>
      </trkpt>
      <trkpt lat="45.59499" lon="6.71887">
        <ele>1650</ele>
        <time>2021-02-13T09:12:03Z</time>
      </trkpt>
      <trkpt lat="45.59499" lon="6.71887">
        <ele>1651</ele>
        <time>2021-02-13T09:12:07Z</time>
      </trkpt>
      <trkpt lat="45.59497" lon="6.71884">
        <ele>1651</ele>
        <time>2021-02-13T09:12:09Z</time>
      </trkpt>
      <trkpt lat="45.59496" lon="6.71882">
        <ele>1651</ele>
        <time>2021-02-13T09:12:15Z</time>
      </trkpt>
      <trkpt lat="45.59496" lon="6.71882">
        <ele>1652</ele>
        <time>2021-02-13T09:12:17Z</time>
      </trkpt>
      <trkpt lat="45.59495" lon="6.71879">
        <ele>1652</ele>
        <time>2021-02-13T09:12:21Z</time>
      </trkpt>
      <trkpt lat="45.59494" lon="6.71877">
        <ele>1652</ele>
        <time>2021-02-13T09:12:26Z</time>
      </trkpt>
      <trkpt lat="45.59494" lon="6.71877">
        <ele>1653</ele>
        <time>2021-02-13T09:12:27Z</time>
      </trkpt>
      <trkpt lat="45.59493" lon="6.71875">
        <ele>1653</ele>
        <time>2021-02-13T09:12:31Z</time>
      </trkpt>
      <trkpt lat="45.59493" lon="6.71872">
        <ele>1654</ele>
        <time>2021-02-13T09:12:37Z</time>
      </trkpt>
      <trkpt lat="45.59492" lon="6.71869">
        <ele>1654</ele>
        <time>2021-02-13T09:12:43Z</time>
      </trkpt>
      <trkpt lat="45.59492" lon="6.71869">
        <ele>1656</ele>
        <time>2021-02-13T09:12:47Z</time>
      </trkpt>
      <trkpt lat="45.59491" lon="6.71866">
        <ele>1656</ele>
        <time>2021-02-13T09:12:48Z</time>
      </trkpt>
      <trkpt lat="45.5949" lon="6.71864">
        <ele>1656</ele>
        <time>2021-02-13T09:12:53Z</time>
      </trkpt>
      <trkpt lat="45.5949" lon="6.71864">
        <ele>1657</ele>
        <time>2021-02-13T09:12:57Z</time>
      </trkpt>
      <trkpt lat="45.59489" lon="6.71862">
        <ele>1657</ele>
        <time>2021-02-13T09:12:58Z</time>
      </trkpt>
      <trkpt lat="45.59489" lon="6.71859">
        <ele>1657</ele>
        <time>2021-02-13T09:13:03Z</time>
      </trkpt>
      <trkpt lat="45.59489" lon="6.71859">
        <ele>1658</ele>
        <time>2021-02-13T09:13:07Z</time>
      </trkpt>
      <trkpt lat="45.59488" lon="6.71856">
        <ele>1658</ele>
        <time>2021-02-13T09:13:08Z</time>
      </trkpt>
      <trkpt lat="45.59488" lon="6.71853">
        <ele>1658</ele>
        <time>2021-02-13T09:13:13Z</time>
      </trkpt>
      <trkpt lat="45.59488" lon="6.71851">
        <ele>1658</ele>
        <time>2021-02-13T09:13:17Z</time>
      </trkpt>
      <trkpt lat="45.59487" lon="6.71848">
        <ele>1658</ele>
        <time>2021-02-13T09:13:22Z</time>
      </trkpt>
      <trkpt lat="45.59488" lon="6.71845">
        <ele>1660</ele>
        <time>2021-02-13T09:13:27Z</time>
      </trkpt>
      <trkpt lat="45.59488" lon="6.71842">
        <ele>1660</ele>
        <time>2021-02-13T09:13:32Z</time>
      </trkpt>
      <trkpt lat="45.59489" lon="6.71839">
        <ele>1660</ele>
        <time>2021-02-13T09:13:36Z</time>
      </trkpt>
      <trkpt lat="45.59489" lon="6.71839">
        <ele>1660</ele>
        <time>2021-02-13T09:13:38Z</time>
      </trkpt>
      <trkpt lat="45.59491" lon="6.71836">
        <ele>1660</ele>
        <time>2021-02-13T09:13:41Z</time>
      </trkpt>
      <trkpt lat="45.59491" lon="6.71835">
        <ele>1660</ele>
        <time>2021-02-13T09:13:46Z</time>
      </trkpt>
      <trkpt lat="45.59491" lon="6.71835">
        <ele>1661</ele>
        <time>2021-02-13T09:13:47Z</time>
      </trkpt>
      <trkpt lat="45.59491" lon="6.71832">
        <ele>1661</ele>
        <time>2021-02-13T09:13:51Z</time>
      </trkpt>
      <trkpt lat="45.5949" lon="6.71829">
        <ele>1661</ele>
        <time>2021-02-13T09:13:56Z</time>
      </trkpt>
      <trkpt lat="45.5949" lon="6.71829">
        <ele>1662</ele>
        <time>2021-02-13T09:13:57Z</time>
      </trkpt>
      <trkpt lat="45.59492" lon="6.71826">
        <ele>1662</ele>
        <time>2021-02-13T09:14:01Z</time>
      </trkpt>
      <trkpt lat="45.59492" lon="6.71826">
        <ele>1662</ele>
        <time>2021-02-13T09:14:06Z</time>
      </trkpt>
      <trkpt lat="45.59493" lon="6.71826">
        <ele>1664</ele>
        <time>2021-02-13T09:14:07Z</time>
      </trkpt>
      <trkpt lat="45.59496" lon="6.71826">
        <ele>1664</ele>
        <time>2021-02-13T09:14:10Z</time>
      </trkpt>
      <trkpt lat="45.59497" lon="6.71826">
        <ele>1664</ele>
        <time>2021-02-13T09:14:13Z</time>
      </trkpt>
      <trkpt lat="45.59498" lon="6.71826">
        <ele>1664</ele>
        <time>2021-02-13T09:14:16Z</time>
      </trkpt>
      <trkpt lat="45.59499" lon="6.71826">
        <ele>1664</ele>
        <time>2021-02-13T09:14:17Z</time>
      </trkpt>
      <trkpt lat="45.59502" lon="6.71826">
        <ele>1664</ele>
        <time>2021-02-13T09:14:20Z</time>
      </trkpt>
      <trkpt lat="45.59504" lon="6.71826">
        <ele>1664</ele>
        <time>2021-02-13T09:14:24Z</time>
      </trkpt>
      <trkpt lat="45.59504" lon="6.71826">
        <ele>1665</ele>
        <time>2021-02-13T09:14:27Z</time>
      </trkpt>
      <trkpt lat="45.59506" lon="6.71823">
        <ele>1665</ele>
        <time>2021-02-13T09:14:28Z</time>
      </trkpt>
      <trkpt lat="45.59505" lon="6.71822">
        <ele>1665</ele>
        <time>2021-02-13T09:14:32Z</time>
      </trkpt>
      <trkpt lat="45.59505" lon="6.7182">
        <ele>1666</ele>
        <time>2021-02-13T09:14:37Z</time>
      </trkpt>
      <trkpt lat="45.59505" lon="6.71819">
        <ele>1666</ele>
        <time>2021-02-13T09:14:42Z</time>
      </trkpt>
      <trkpt lat="45.59505" lon="6.71817">
        <ele>1667</ele>
        <time>2021-02-13T09:14:47Z</time>
      </trkpt>
      <trkpt lat="45.59504" lon="6.71815">
        <ele>1667</ele>
        <time>2021-02-13T09:14:52Z</time>
      </trkpt>
      <trkpt lat="45.59504" lon="6.71814">
        <ele>1668</ele>
        <time>2021-02-13T09:14:57Z</time>
      </trkpt>
      <trkpt lat="45.59504" lon="6.71812">
        <ele>1668</ele>
        <time>2021-02-13T09:15:02Z</time>
      </trkpt>
      <trkpt lat="45.59504" lon="6.71811">
        <ele>1668</ele>
        <time>2021-02-13T09:15:07Z</time>
      </trkpt>
      <trkpt lat="45.59503" lon="6.71809">
        <ele>1668</ele>
        <time>2021-02-13T09:15:08Z</time>
      </trkpt>
      <trkpt lat="45.59502" lon="6.71806">
        <ele>1668</ele>
        <time>2021-02-13T09:15:12Z</time>
      </trkpt>
      <trkpt lat="45.59502" lon="6.71803">
        <ele>1669</ele>
        <time>2021-02-13T09:15:17Z</time>
      </trkpt>
      <trkpt lat="45.59503" lon="6.71801">
        <ele>1669</ele>
        <time>2021-02-13T09:15:21Z</time>
      </trkpt>
      <trkpt lat="45.59505" lon="6.71799">
        <ele>1669</ele>
        <time>2021-02-13T09:15:25Z</time>
      </trkpt>
      <trkpt lat="45.59505" lon="6.71799">
        <ele>1671</ele>
        <time>2021-02-13T09:15:27Z</time>
      </trkpt>
      <trkpt lat="45.59506" lon="6.71797">
        <ele>1671</ele>
        <time>2021-02-13T09:15:30Z</time>
      </trkpt>
      <trkpt lat="45.59508" lon="6.71795">
        <ele>1671</ele>
        <time>2021-02-13T09:15:34Z</time>
      </trkpt>
      <trkpt lat="45.59508" lon="6.71795">
        <ele>1671</ele>
        <time>2021-02-13T09:15:37Z</time>
      </trkpt>
      <trkpt lat="45.59509" lon="6.71794">
        <ele>1671</ele>
        <time>2021-02-13T09:15:38Z</time>
      </trkpt>
      <trkpt lat="45.59511" lon="6.71792">
        <ele>1671</ele>
        <time>2021-02-13T09:15:42Z</time>
      </trkpt>
      <trkpt lat="45.59513" lon="6.71791">
        <ele>1673</ele>
        <time>2021-02-13T09:15:47Z</time>
      </trkpt>
      <trkpt lat="45.59514" lon="6.71789">
        <ele>1673</ele>
        <time>2021-02-13T09:15:52Z</time>
      </trkpt>
      <trkpt lat="45.59516" lon="6.71788">
        <ele>1673</ele>
        <time>2021-02-13T09:15:57Z</time>
      </trkpt>
      <trkpt lat="45.59518" lon="6.71787">
        <ele>1673</ele>
        <time>2021-02-13T09:16:02Z</time>
      </trkpt>
      <trkpt lat="45.5952" lon="6.71786">
        <ele>1674</ele>
        <time>2021-02-13T09:16:07Z</time>
      </trkpt>
      <trkpt lat="45.59522" lon="6.71785">
        <ele>1674</ele>
        <time>2021-02-13T09:16:12Z</time>
      </trkpt>
      <trkpt lat="45.59524" lon="6.71785">
        <ele>1675</ele>
        <time>2021-02-13T09:16:17Z</time>
      </trkpt>
      <trkpt lat="45.59526" lon="6.71784">
        <ele>1675</ele>
        <time>2021-02-13T09:16:22Z</time>
      </trkpt>
      <trkpt lat="45.59528" lon="6.71783">
        <ele>1676</ele>
        <time>2021-02-13T09:16:27Z</time>
      </trkpt>
      <trkpt lat="45.5953" lon="6.71782">
        <ele>1676</ele>
        <time>2021-02-13T09:16:32Z</time>
      </trkpt>
      <trkpt lat="45.59532" lon="6.7178">
        <ele>1677</ele>
        <time>2021-02-13T09:16:37Z</time>
      </trkpt>
      <trkpt lat="45.59534" lon="6.71779">
        <ele>1677</ele>
        <time>2021-02-13T09:16:41Z</time>
      </trkpt>
      <trkpt lat="45.59535" lon="6.71779">
        <ele>1677</ele>
        <time>2021-02-13T09:16:46Z</time>
      </trkpt>
      <trkpt lat="45.59535" lon="6.71779">
        <ele>1678</ele>
        <time>2021-02-13T09:16:48Z</time>
      </trkpt>
      <trkpt lat="45.59537" lon="6.71778">
        <ele>1678</ele>
        <time>2021-02-13T09:16:51Z</time>
      </trkpt>
      <trkpt lat="45.59539" lon="6.71777">
        <ele>1678</ele>
        <time>2021-02-13T09:16:55Z</time>
      </trkpt>
      <trkpt lat="45.59539" lon="6.71777">
        <ele>1679</ele>
        <time>2021-02-13T09:16:57Z</time>
      </trkpt>
      <trkpt lat="45.59541" lon="6.71777">
        <ele>1679</ele>
        <time>2021-02-13T09:17:00Z</time>
      </trkpt>
      <trkpt lat="45.59543" lon="6.71776">
        <ele>1679</ele>
        <time>2021-02-13T09:17:05Z</time>
      </trkpt>
      <trkpt lat="45.59543" lon="6.71776">
        <ele>1679</ele>
        <time>2021-02-13T09:17:07Z</time>
      </trkpt>
      <trkpt lat="45.59545" lon="6.71775">
        <ele>1679</ele>
        <time>2021-02-13T09:17:10Z</time>
      </trkpt>
      <trkpt lat="45.59547" lon="6.71774">
        <ele>1679</ele>
        <time>2021-02-13T09:17:15Z</time>
      </trkpt>
      <trkpt lat="45.59547" lon="6.71774">
        <ele>1681</ele>
        <time>2021-02-13T09:17:17Z</time>
      </trkpt>
      <trkpt lat="45.5955" lon="6.71771">
        <ele>1681</ele>
        <time>2021-02-13T09:17:20Z</time>
      </trkpt>
      <trkpt lat="45.59551" lon="6.7177">
        <ele>1681</ele>
        <time>2021-02-13T09:17:24Z</time>
      </trkpt>
      <trkpt lat="45.59552" lon="6.7177">
        <ele>1682</ele>
        <time>2021-02-13T09:17:27Z</time>
      </trkpt>
      <trkpt lat="45.59553" lon="6.71769">
        <ele>1682</ele>
        <time>2021-02-13T09:17:28Z</time>
      </trkpt>
      <trkpt lat="45.59554" lon="6.71768">
        <ele>1682</ele>
        <time>2021-02-13T09:17:32Z</time>
      </trkpt>
      <trkpt lat="45.59555" lon="6.71767">
        <ele>1682</ele>
        <time>2021-02-13T09:17:36Z</time>
      </trkpt>
      <trkpt lat="45.59556" lon="6.71766">
        <ele>1683</ele>
        <time>2021-02-13T09:17:37Z</time>
      </trkpt>
      <trkpt lat="45.59558" lon="6.71766">
        <ele>1683</ele>
        <time>2021-02-13T09:17:41Z</time>
      </trkpt>
      <trkpt lat="45.5956" lon="6.71766">
        <ele>1683</ele>
        <time>2021-02-13T09:17:46Z</time>
      </trkpt>
      <trkpt lat="45.5956" lon="6.71766">
        <ele>1684</ele>
        <time>2021-02-13T09:17:47Z</time>
      </trkpt>
      <trkpt lat="45.59562" lon="6.71764">
        <ele>1684</ele>
        <time>2021-02-13T09:17:51Z</time>
      </trkpt>
      <trkpt lat="45.59563" lon="6.71763">
        <ele>1684</ele>
        <time>2021-02-13T09:17:56Z</time>
      </trkpt>
      <trkpt lat="45.59563" lon="6.71762">
        <ele>1685</ele>
        <time>2021-02-13T09:17:57Z</time>
      </trkpt>
      <trkpt lat="45.59565" lon="6.71761">
        <ele>1685</ele>
        <time>2021-02-13T09:18:01Z</time>
      </trkpt>
      <trkpt lat="45.59565" lon="6.71761">
        <ele>1685</ele>
        <time>2021-02-13T09:18:07Z</time>
      </trkpt>
      <trkpt lat="45.59566" lon="6.71758">
        <ele>1685</ele>
        <time>2021-02-13T09:18:08Z</time>
      </trkpt>
      <trkpt lat="45.59566" lon="6.71756">
        <ele>1685</ele>
        <time>2021-02-13T09:18:14Z</time>
      </trkpt>
      <trkpt lat="45.59566" lon="6.71756">
        <ele>1686</ele>
        <time>2021-02-13T09:18:17Z</time>
      </trkpt>
      <trkpt lat="45.59565" lon="6.71753">
        <ele>1686</ele>
        <time>2021-02-13T09:18:20Z</time>
      </trkpt>
      <trkpt lat="45.59565" lon="6.7175">
        <ele>1686</ele>
        <time>2021-02-13T09:18:25Z</time>
      </trkpt>
      <trkpt lat="45.59565" lon="6.7175">
        <ele>1687</ele>
        <time>2021-02-13T09:18:27Z</time>
      </trkpt>
      <trkpt lat="45.59565" lon="6.71748">
        <ele>1687</ele>
        <time>2021-02-13T09:18:30Z</time>
      </trkpt>
      <trkpt lat="45.59567" lon="6.71747">
        <ele>1687</ele>
        <time>2021-02-13T09:18:35Z</time>
      </trkpt>
      <trkpt lat="45.59567" lon="6.71747">
        <ele>1689</ele>
        <time>2021-02-13T09:18:37Z</time>
      </trkpt>
      <trkpt lat="45.59569" lon="6.71746">
        <ele>1689</ele>
        <time>2021-02-13T09:18:40Z</time>
      </trkpt>
      <trkpt lat="45.59571" lon="6.71746">
        <ele>1689</ele>
        <time>2021-02-13T09:18:45Z</time>
      </trkpt>
      <trkpt lat="45.59571" lon="6.71746">
        <ele>1690</ele>
        <time>2021-02-13T09:18:47Z</time>
      </trkpt>
      <trkpt lat="45.59573" lon="6.71746">
        <ele>1690</ele>
        <time>2021-02-13T09:18:50Z</time>
      </trkpt>
      <trkpt lat="45.59575" lon="6.71746">
        <ele>1690</ele>
        <time>2021-02-13T09:18:56Z</time>
      </trkpt>
      <trkpt lat="45.59575" lon="6.71746">
        <ele>1690</ele>
        <time>2021-02-13T09:18:57Z</time>
      </trkpt>
      <trkpt lat="45.59576" lon="6.71743">
        <ele>1690</ele>
        <time>2021-02-13T09:19:05Z</time>
      </trkpt>
      <trkpt lat="45.59576" lon="6.71743">
        <ele>1691</ele>
        <time>2021-02-13T09:19:07Z</time>
      </trkpt>
      <trkpt lat="45.59575" lon="6.7174">
        <ele>1691</ele>
        <time>2021-02-13T09:19:11Z</time>
      </trkpt>
      <trkpt lat="45.59575" lon="6.71737">
        <ele>1692</ele>
        <time>2021-02-13T09:19:17Z</time>
      </trkpt>
      <trkpt lat="45.59575" lon="6.71734">
        <ele>1692</ele>
        <time>2021-02-13T09:19:23Z</time>
      </trkpt>
      <trkpt lat="45.59575" lon="6.71734">
        <ele>1693</ele>
        <time>2021-02-13T09:19:27Z</time>
      </trkpt>
      <trkpt lat="45.59576" lon="6.71731">
        <ele>1693</ele>
        <time>2021-02-13T09:19:29Z</time>
      </trkpt>
      <trkpt lat="45.59576" lon="6.71728">
        <ele>1693</ele>
        <time>2021-02-13T09:19:35Z</time>
      </trkpt>
      <trkpt lat="45.59576" lon="6.71728">
        <ele>1694</ele>
        <time>2021-02-13T09:19:37Z</time>
      </trkpt>
      <trkpt lat="45.59577" lon="6.71726">
        <ele>1694</ele>
        <time>2021-02-13T09:19:41Z</time>
      </trkpt>
      <trkpt lat="45.59578" lon="6.71723">
        <ele>1696</ele>
        <time>2021-02-13T09:19:47Z</time>
      </trkpt>
      <trkpt lat="45.59578" lon="6.71721">
        <ele>1696</ele>
        <time>2021-02-13T09:19:53Z</time>
      </trkpt>
      <trkpt lat="45.59578" lon="6.71721">
        <ele>1697</ele>
        <time>2021-02-13T09:19:58Z</time>
      </trkpt>
      <trkpt lat="45.59579" lon="6.71718">
        <ele>1697</ele>
        <time>2021-02-13T09:19:59Z</time>
      </trkpt>
      <trkpt lat="45.5958" lon="6.71715">
        <ele>1697</ele>
        <time>2021-02-13T09:20:04Z</time>
      </trkpt>
      <trkpt lat="45.5958" lon="6.71715">
        <ele>1698</ele>
        <time>2021-02-13T09:20:07Z</time>
      </trkpt>
      <trkpt lat="45.5958" lon="6.71713">
        <ele>1698</ele>
        <time>2021-02-13T09:20:09Z</time>
      </trkpt>
      <trkpt lat="45.5958" lon="6.7171">
        <ele>1698</ele>
        <time>2021-02-13T09:20:15Z</time>
      </trkpt>
      <trkpt lat="45.5958" lon="6.7171">
        <ele>1699</ele>
        <time>2021-02-13T09:20:17Z</time>
      </trkpt>
      <trkpt lat="45.5958" lon="6.71707">
        <ele>1699</ele>
        <time>2021-02-13T09:20:21Z</time>
      </trkpt>
      <trkpt lat="45.5958" lon="6.71704">
        <ele>1700</ele>
        <time>2021-02-13T09:20:27Z</time>
      </trkpt>
      <trkpt lat="45.59579" lon="6.71701">
        <ele>1700</ele>
        <time>2021-02-13T09:20:32Z</time>
      </trkpt>
      <trkpt lat="45.59579" lon="6.71701">
        <ele>1701</ele>
        <time>2021-02-13T09:20:37Z</time>
      </trkpt>
      <trkpt lat="45.59579" lon="6.71698">
        <ele>1701</ele>
        <time>2021-02-13T09:20:38Z</time>
      </trkpt>
      <trkpt lat="45.59579" lon="6.71695">
        <ele>1701</ele>
        <time>2021-02-13T09:20:44Z</time>
      </trkpt>
      <trkpt lat="45.59579" lon="6.71695">
        <ele>1702</ele>
        <time>2021-02-13T09:20:47Z</time>
      </trkpt>
      <trkpt lat="45.5958" lon="6.71693">
        <ele>1702</ele>
        <time>2021-02-13T09:20:49Z</time>
      </trkpt>
      <trkpt lat="45.59582" lon="6.71692">
        <ele>1702</ele>
        <time>2021-02-13T09:20:54Z</time>
      </trkpt>
      <trkpt lat="45.59582" lon="6.71692">
        <ele>1703</ele>
        <time>2021-02-13T09:20:57Z</time>
      </trkpt>
      <trkpt lat="45.59584" lon="6.71692">
        <ele>1703</ele>
        <time>2021-02-13T09:21:00Z</time>
      </trkpt>
      <trkpt lat="45.59586" lon="6.71692">
        <ele>1703</ele>
        <time>2021-02-13T09:21:06Z</time>
      </trkpt>
      <trkpt lat="45.59586" lon="6.71692">
        <ele>1704</ele>
        <time>2021-02-13T09:21:07Z</time>
      </trkpt>
      <trkpt lat="45.59588" lon="6.71692">
        <ele>1704</ele>
        <time>2021-02-13T09:21:12Z</time>
      </trkpt>
      <trkpt lat="45.59588" lon="6.71692">
        <ele>1705</ele>
        <time>2021-02-13T09:21:17Z</time>
      </trkpt>
      <trkpt lat="45.5959" lon="6.71692">
        <ele>1705</ele>
        <time>2021-02-13T09:21:18Z</time>
      </trkpt>
      <trkpt lat="45.59592" lon="6.71692">
        <ele>1705</ele>
        <time>2021-02-13T09:21:23Z</time>
      </trkpt>
      <trkpt lat="45.59592" lon="6.71692">
        <ele>1707</ele>
        <time>2021-02-13T09:21:27Z</time>
      </trkpt>
      <trkpt lat="45.59594" lon="6.71691">
        <ele>1707</ele>
        <time>2021-02-13T09:21:28Z</time>
      </trkpt>
      <trkpt lat="45.59596" lon="6.71691">
        <ele>1707</ele>
        <time>2021-02-13T09:21:33Z</time>
      </trkpt>
      <trkpt lat="45.59596" lon="6.71691">
        <ele>1708</ele>
        <time>2021-02-13T09:21:37Z</time>
      </trkpt>
      <trkpt lat="45.59598" lon="6.71691">
        <ele>1708</ele>
        <time>2021-02-13T09:21:38Z</time>
      </trkpt>
      <trkpt lat="45.59599" lon="6.71689">
        <ele>1708</ele>
        <time>2021-02-13T09:21:45Z</time>
      </trkpt>
      <trkpt lat="45.59599" lon="6.71689">
        <ele>1709</ele>
        <time>2021-02-13T09:21:47Z</time>
      </trkpt>
      <trkpt lat="45.596" lon="6.71686">
        <ele>1709</ele>
        <time>2021-02-13T09:21:51Z</time>
      </trkpt>
      <trkpt lat="45.596" lon="6.71683">
        <ele>1710</ele>
        <time>2021-02-13T09:21:57Z</time>
      </trkpt>
      <trkpt lat="45.596" lon="6.7168">
        <ele>1710</ele>
        <time>2021-02-13T09:22:03Z</time>
      </trkpt>
      <trkpt lat="45.596" lon="6.7168">
        <ele>1712</ele>
        <time>2021-02-13T09:22:07Z</time>
      </trkpt>
      <trkpt lat="45.596" lon="6.71678">
        <ele>1712</ele>
        <time>2021-02-13T09:22:08Z</time>
      </trkpt>
      <trkpt lat="45.596" lon="6.71675">
        <ele>1712</ele>
        <time>2021-02-13T09:22:13Z</time>
      </trkpt>
      <trkpt lat="45.596" lon="6.71675">
        <ele>1712</ele>
        <time>2021-02-13T09:22:17Z</time>
      </trkpt>
      <trkpt lat="45.596" lon="6.71672">
        <ele>1712</ele>
        <time>2021-02-13T09:22:18Z</time>
      </trkpt>
      <trkpt lat="45.59601" lon="6.71669">
        <ele>1712</ele>
        <time>2021-02-13T09:22:24Z</time>
      </trkpt>
      <trkpt lat="45.59601" lon="6.71669">
        <ele>1714</ele>
        <time>2021-02-13T09:22:27Z</time>
      </trkpt>
      <trkpt lat="45.59601" lon="6.71667">
        <ele>1714</ele>
        <time>2021-02-13T09:22:30Z</time>
      </trkpt>
      <trkpt lat="45.59602" lon="6.71664">
        <ele>1714</ele>
        <time>2021-02-13T09:22:36Z</time>
      </trkpt>
      <trkpt lat="45.59602" lon="6.71664">
        <ele>1714</ele>
        <time>2021-02-13T09:22:37Z</time>
      </trkpt>
      <trkpt lat="45.59603" lon="6.71661">
        <ele>1714</ele>
        <time>2021-02-13T09:22:42Z</time>
      </trkpt>
      <trkpt lat="45.59603" lon="6.71661">
        <ele>1715</ele>
        <time>2021-02-13T09:22:47Z</time>
      </trkpt>
      <trkpt lat="45.59604" lon="6.71659">
        <ele>1715</ele>
        <time>2021-02-13T09:22:48Z</time>
      </trkpt>
      <trkpt lat="45.59605" lon="6.71657">
        <ele>1715</ele>
        <time>2021-02-13T09:22:54Z</time>
      </trkpt>
      <trkpt lat="45.59605" lon="6.71657">
        <ele>1717</ele>
        <time>2021-02-13T09:22:57Z</time>
      </trkpt>
      <trkpt lat="45.59606" lon="6.71655">
        <ele>1717</ele>
        <time>2021-02-13T09:22:59Z</time>
      </trkpt>
      <trkpt lat="45.59608" lon="6.71655">
        <ele>1717</ele>
        <time>2021-02-13T09:23:04Z</time>
      </trkpt>
      <trkpt lat="45.59608" lon="6.71655">
        <ele>1716</ele>
        <time>2021-02-13T09:23:08Z</time>
      </trkpt>
      <trkpt lat="45.5961" lon="6.71654">
        <ele>1716</ele>
        <time>2021-02-13T09:23:09Z</time>
      </trkpt>
      <trkpt lat="45.59612" lon="6.71653">
        <ele>1716</ele>
        <time>2021-02-13T09:23:14Z</time>
      </trkpt>
      <trkpt lat="45.59612" lon="6.71653">
        <ele>1718</ele>
        <time>2021-02-13T09:23:17Z</time>
      </trkpt>
      <trkpt lat="45.59614" lon="6.71652">
        <ele>1718</ele>
        <time>2021-02-13T09:23:19Z</time>
      </trkpt>
      <trkpt lat="45.59616" lon="6.71651">
        <ele>1718</ele>
        <time>2021-02-13T09:23:24Z</time>
      </trkpt>
      <trkpt lat="45.59616" lon="6.71651">
        <ele>1720</ele>
        <time>2021-02-13T09:23:27Z</time>
      </trkpt>
      <trkpt lat="45.59618" lon="6.7165">
        <ele>1720</ele>
        <time>2021-02-13T09:23:29Z</time>
      </trkpt>
      <trkpt lat="45.5962" lon="6.7165">
        <ele>1720</ele>
        <time>2021-02-13T09:23:34Z</time>
      </trkpt>
      <trkpt lat="45.5962" lon="6.7165">
        <ele>1720</ele>
        <time>2021-02-13T09:23:37Z</time>
      </trkpt>
      <trkpt lat="45.59622" lon="6.71649">
        <ele>1720</ele>
        <time>2021-02-13T09:23:39Z</time>
      </trkpt>
      <trkpt lat="45.59624" lon="6.71649">
        <ele>1720</ele>
        <time>2021-02-13T09:23:44Z</time>
      </trkpt>
      <trkpt lat="45.59624" lon="6.71649">
        <ele>1721</ele>
        <time>2021-02-13T09:23:47Z</time>
      </trkpt>
      <trkpt lat="45.59626" lon="6.71648">
        <ele>1721</ele>
        <time>2021-02-13T09:23:49Z</time>
      </trkpt>
      <trkpt lat="45.59628" lon="6.71648">
        <ele>1721</ele>
        <time>2021-02-13T09:23:54Z</time>
      </trkpt>
      <trkpt lat="45.59628" lon="6.71648">
        <ele>1723</ele>
        <time>2021-02-13T09:23:57Z</time>
      </trkpt>
      <trkpt lat="45.5963" lon="6.71648">
        <ele>1723</ele>
        <time>2021-02-13T09:23:59Z</time>
      </trkpt>
      <trkpt lat="45.59632" lon="6.71647">
        <ele>1723</ele>
        <time>2021-02-13T09:24:05Z</time>
      </trkpt>
      <trkpt lat="45.59632" lon="6.71647">
        <ele>1723</ele>
        <time>2021-02-13T09:24:07Z</time>
      </trkpt>
      <trkpt lat="45.59633" lon="6.71645">
        <ele>1723</ele>
        <time>2021-02-13T09:24:11Z</time>
      </trkpt>
      <trkpt lat="45.59633" lon="6.71642">
        <ele>1723</ele>
        <time>2021-02-13T09:24:16Z</time>
      </trkpt>
      <trkpt lat="45.59633" lon="6.71642">
        <ele>1724</ele>
        <time>2021-02-13T09:24:17Z</time>
      </trkpt>
      <trkpt lat="45.59634" lon="6.71638">
        <ele>1724</ele>
        <time>2021-02-13T09:24:21Z</time>
      </trkpt>
      <trkpt lat="45.59634" lon="6.71637">
        <ele>1724</ele>
        <time>2021-02-13T09:24:26Z</time>
      </trkpt>
      <trkpt lat="45.59634" lon="6.71636">
        <ele>1725</ele>
        <time>2021-02-13T09:24:27Z</time>
      </trkpt>
      <trkpt lat="45.59633" lon="6.71633">
        <ele>1725</ele>
        <time>2021-02-13T09:24:31Z</time>
      </trkpt>
      <trkpt lat="45.59633" lon="6.7163">
        <ele>1725</ele>
        <time>2021-02-13T09:24:36Z</time>
      </trkpt>
      <trkpt lat="45.59633" lon="6.7163">
        <ele>1726</ele>
        <time>2021-02-13T09:24:37Z</time>
      </trkpt>
      <trkpt lat="45.59633" lon="6.71626">
        <ele>1726</ele>
        <time>2021-02-13T09:24:41Z</time>
      </trkpt>
      <trkpt lat="45.59633" lon="6.71625">
        <ele>1726</ele>
        <time>2021-02-13T09:24:46Z</time>
      </trkpt>
      <trkpt lat="45.59633" lon="6.71624">
        <ele>1727</ele>
        <time>2021-02-13T09:24:47Z</time>
      </trkpt>
      <trkpt lat="45.59634" lon="6.7162">
        <ele>1727</ele>
        <time>2021-02-13T09:24:51Z</time>
      </trkpt>
      <trkpt lat="45.59634" lon="6.71619">
        <ele>1727</ele>
        <time>2021-02-13T09:24:56Z</time>
      </trkpt>
      <trkpt lat="45.59634" lon="6.71618">
        <ele>1728</ele>
        <time>2021-02-13T09:24:57Z</time>
      </trkpt>
      <trkpt lat="45.59634" lon="6.71616">
        <ele>1728</ele>
        <time>2021-02-13T09:25:00Z</time>
      </trkpt>
      <trkpt lat="45.59634" lon="6.71612">
        <ele>1728</ele>
        <time>2021-02-13T09:25:05Z</time>
      </trkpt>
      <trkpt lat="45.59634" lon="6.71612">
        <ele>1729</ele>
        <time>2021-02-13T09:25:07Z</time>
      </trkpt>
      <trkpt lat="45.59635" lon="6.71609">
        <ele>1729</ele>
        <time>2021-02-13T09:25:10Z</time>
      </trkpt>
      <trkpt lat="45.59635" lon="6.71606">
        <ele>1729</ele>
        <time>2021-02-13T09:25:15Z</time>
      </trkpt>
      <trkpt lat="45.59635" lon="6.71606">
        <ele>1730</ele>
        <time>2021-02-13T09:25:17Z</time>
      </trkpt>
      <trkpt lat="45.59635" lon="6.71604">
        <ele>1730</ele>
        <time>2021-02-13T09:25:19Z</time>
      </trkpt>
      <trkpt lat="45.59635" lon="6.71601">
        <ele>1730</ele>
        <time>2021-02-13T09:25:24Z</time>
      </trkpt>
      <trkpt lat="45.59635" lon="6.71601">
        <ele>1731</ele>
        <time>2021-02-13T09:25:27Z</time>
      </trkpt>
      <trkpt lat="45.59635" lon="6.71598">
        <ele>1731</ele>
        <time>2021-02-13T09:25:28Z</time>
      </trkpt>
      <trkpt lat="45.59635" lon="6.71595">
        <ele>1731</ele>
        <time>2021-02-13T09:25:33Z</time>
      </trkpt>
      <trkpt lat="45.59634" lon="6.71592">
        <ele>1732</ele>
        <time>2021-02-13T09:25:37Z</time>
      </trkpt>
      <trkpt lat="45.59634" lon="6.71589">
        <ele>1732</ele>
        <time>2021-02-13T09:25:41Z</time>
      </trkpt>
      <trkpt lat="45.59634" lon="6.71586">
        <ele>1732</ele>
        <time>2021-02-13T09:25:45Z</time>
      </trkpt>
      <trkpt lat="45.59634" lon="6.71586">
        <ele>1733</ele>
        <time>2021-02-13T09:25:47Z</time>
      </trkpt>
      <trkpt lat="45.59634" lon="6.71583">
        <ele>1733</ele>
        <time>2021-02-13T09:25:49Z</time>
      </trkpt>
      <trkpt lat="45.59634" lon="6.7158">
        <ele>1733</ele>
        <time>2021-02-13T09:25:53Z</time>
      </trkpt>
      <trkpt lat="45.59635" lon="6.71578">
        <ele>1734</ele>
        <time>2021-02-13T09:25:57Z</time>
      </trkpt>
      <trkpt lat="45.59635" lon="6.71575">
        <ele>1734</ele>
        <time>2021-02-13T09:26:01Z</time>
      </trkpt>
      <trkpt lat="45.59636" lon="6.71572">
        <ele>1734</ele>
        <time>2021-02-13T09:26:05Z</time>
      </trkpt>
      <trkpt lat="45.59636" lon="6.71572">
        <ele>1735</ele>
        <time>2021-02-13T09:26:07Z</time>
      </trkpt>
      <trkpt lat="45.59637" lon="6.71567">
        <ele>1735</ele>
        <time>2021-02-13T09:26:09Z</time>
      </trkpt>
      <trkpt lat="45.59637" lon="6.71566">
        <ele>1735</ele>
        <time>2021-02-13T09:26:13Z</time>
      </trkpt>
      <trkpt lat="45.59637" lon="6.71564">
        <ele>1735</ele>
        <time>2021-02-13T09:26:17Z</time>
      </trkpt>
      <trkpt lat="45.59637" lon="6.71563">
        <ele>1736</ele>
        <time>2021-02-13T09:26:18Z</time>
      </trkpt>
      <trkpt lat="45.59638" lon="6.7156">
        <ele>1736</ele>
        <time>2021-02-13T09:26:21Z</time>
      </trkpt>
      <trkpt lat="45.59638" lon="6.71557">
        <ele>1736</ele>
        <time>2021-02-13T09:26:25Z</time>
      </trkpt>
      <trkpt lat="45.59638" lon="6.71557">
        <ele>1736</ele>
        <time>2021-02-13T09:26:27Z</time>
      </trkpt>
      <trkpt lat="45.59638" lon="6.71554">
        <ele>1736</ele>
        <time>2021-02-13T09:26:29Z</time>
      </trkpt>
      <trkpt lat="45.59639" lon="6.71551">
        <ele>1736</ele>
        <time>2021-02-13T09:26:33Z</time>
      </trkpt>
      <trkpt lat="45.59639" lon="6.71549">
        <ele>1737</ele>
        <time>2021-02-13T09:26:37Z</time>
      </trkpt>
      <trkpt lat="45.59639" lon="6.71546">
        <ele>1737</ele>
        <time>2021-02-13T09:26:41Z</time>
      </trkpt>
      <trkpt lat="45.59639" lon="6.71543">
        <ele>1737</ele>
        <time>2021-02-13T09:26:45Z</time>
      </trkpt>
      <trkpt lat="45.59639" lon="6.71543">
        <ele>1738</ele>
        <time>2021-02-13T09:26:47Z</time>
      </trkpt>
      <trkpt lat="45.59639" lon="6.7154">
        <ele>1738</ele>
        <time>2021-02-13T09:26:49Z</time>
      </trkpt>
      <trkpt lat="45.59639" lon="6.71537">
        <ele>1738</ele>
        <time>2021-02-13T09:26:53Z</time>
      </trkpt>
      <trkpt lat="45.59639" lon="6.71535">
        <ele>1738</ele>
        <time>2021-02-13T09:26:57Z</time>
      </trkpt>
      <trkpt lat="45.59639" lon="6.71532">
        <ele>1738</ele>
        <time>2021-02-13T09:27:01Z</time>
      </trkpt>
      <trkpt lat="45.59639" lon="6.71529">
        <ele>1738</ele>
        <time>2021-02-13T09:27:05Z</time>
      </trkpt>
      <trkpt lat="45.59639" lon="6.71529">
        <ele>1739</ele>
        <time>2021-02-13T09:27:07Z</time>
      </trkpt>
      <trkpt lat="45.59638" lon="6.71526">
        <ele>1739</ele>
        <time>2021-02-13T09:27:09Z</time>
      </trkpt>
      <trkpt lat="45.59638" lon="6.71523">
        <ele>1739</ele>
        <time>2021-02-13T09:27:13Z</time>
      </trkpt>
      <trkpt lat="45.59638" lon="6.71521">
        <ele>1740</ele>
        <time>2021-02-13T09:27:17Z</time>
      </trkpt>
      <trkpt lat="45.59638" lon="6.71518">
        <ele>1740</ele>
        <time>2021-02-13T09:27:21Z</time>
      </trkpt>
      <trkpt lat="45.59637" lon="6.71515">
        <ele>1740</ele>
        <time>2021-02-13T09:27:25Z</time>
      </trkpt>
      <trkpt lat="45.59637" lon="6.71515">
        <ele>1741</ele>
        <time>2021-02-13T09:27:27Z</time>
      </trkpt>
      <trkpt lat="45.59636" lon="6.71513">
        <ele>1741</ele>
        <time>2021-02-13T09:27:29Z</time>
      </trkpt>
      <trkpt lat="45.59635" lon="6.71511">
        <ele>1741</ele>
        <time>2021-02-13T09:27:33Z</time>
      </trkpt>
      <trkpt lat="45.59634" lon="6.71508">
        <ele>1741</ele>
        <time>2021-02-13T09:27:37Z</time>
      </trkpt>
      <trkpt lat="45.59633" lon="6.71505">
        <ele>1741</ele>
        <time>2021-02-13T09:27:42Z</time>
      </trkpt>
      <trkpt lat="45.59633" lon="6.71503">
        <ele>1741</ele>
        <time>2021-02-13T09:27:46Z</time>
      </trkpt>
      <trkpt lat="45.59633" lon="6.71503">
        <ele>1743</ele>
        <time>2021-02-13T09:27:47Z</time>
      </trkpt>
      <trkpt lat="45.59632" lon="6.71501">
        <ele>1743</ele>
        <time>2021-02-13T09:27:50Z</time>
      </trkpt>
      <trkpt lat="45.59631" lon="6.71498">
        <ele>1743</ele>
        <time>2021-02-13T09:27:55Z</time>
      </trkpt>
      <trkpt lat="45.59631" lon="6.71498">
        <ele>1744</ele>
        <time>2021-02-13T09:27:57Z</time>
      </trkpt>
      <trkpt lat="45.5963" lon="6.71495">
        <ele>1744</ele>
        <time>2021-02-13T09:28:00Z</time>
      </trkpt>
      <trkpt lat="45.5963" lon="6.71492">
        <ele>1744</ele>
        <time>2021-02-13T09:28:04Z</time>
      </trkpt>
      <trkpt lat="45.5963" lon="6.71492">
        <ele>1745</ele>
        <time>2021-02-13T09:28:07Z</time>
      </trkpt>
      <trkpt lat="45.5963" lon="6.71489">
        <ele>1745</ele>
        <time>2021-02-13T09:28:09Z</time>
      </trkpt>
      <trkpt lat="45.5963" lon="6.71486">
        <ele>1745</ele>
        <time>2021-02-13T09:28:14Z</time>
      </trkpt>
      <trkpt lat="45.5963" lon="6.71486">
        <ele>1746</ele>
        <time>2021-02-13T09:28:17Z</time>
      </trkpt>
      <trkpt lat="45.5963" lon="6.71483">
        <ele>1746</ele>
        <time>2021-02-13T09:28:19Z</time>
      </trkpt>
      <trkpt lat="45.59631" lon="6.71481">
        <ele>1746</ele>
        <time>2021-02-13T09:28:24Z</time>
      </trkpt>
      <trkpt lat="45.59631" lon="6.71481">
        <ele>1747</ele>
        <time>2021-02-13T09:28:27Z</time>
      </trkpt>
      <trkpt lat="45.59631" lon="6.71478">
        <ele>1747</ele>
        <time>2021-02-13T09:28:29Z</time>
      </trkpt>
      <trkpt lat="45.59632" lon="6.71475">
        <ele>1747</ele>
        <time>2021-02-13T09:28:33Z</time>
      </trkpt>
      <trkpt lat="45.59632" lon="6.71475">
        <ele>1748</ele>
        <time>2021-02-13T09:28:37Z</time>
      </trkpt>
      <trkpt lat="45.59633" lon="6.71473">
        <ele>1748</ele>
        <time>2021-02-13T09:28:38Z</time>
      </trkpt>
      <trkpt lat="45.59634" lon="6.7147">
        <ele>1748</ele>
        <time>2021-02-13T09:28:43Z</time>
      </trkpt>
      <trkpt lat="45.59634" lon="6.7147">
        <ele>1749</ele>
        <time>2021-02-13T09:28:47Z</time>
      </trkpt>
      <trkpt lat="45.59635" lon="6.71468">
        <ele>1749</ele>
        <time>2021-02-13T09:28:48Z</time>
      </trkpt>
      <trkpt lat="45.59637" lon="6.71466">
        <ele>1749</ele>
        <time>2021-02-13T09:28:52Z</time>
      </trkpt>
      <trkpt lat="45.59637" lon="6.71466">
        <ele>1750</ele>
        <time>2021-02-13T09:28:57Z</time>
      </trkpt>
      <trkpt lat="45.59638" lon="6.71464">
        <ele>1750</ele>
        <time>2021-02-13T09:28:58Z</time>
      </trkpt>
      <trkpt lat="45.5964" lon="6.71463">
        <ele>1750</ele>
        <time>2021-02-13T09:29:04Z</time>
      </trkpt>
      <trkpt lat="45.5964" lon="6.71463">
        <ele>1751</ele>
        <time>2021-02-13T09:29:07Z</time>
      </trkpt>
      <trkpt lat="45.59642" lon="6.71462">
        <ele>1751</ele>
        <time>2021-02-13T09:29:09Z</time>
      </trkpt>
      <trkpt lat="45.59644" lon="6.71461">
        <ele>1751</ele>
        <time>2021-02-13T09:29:15Z</time>
      </trkpt>
      <trkpt lat="45.59644" lon="6.71461">
        <ele>1752</ele>
        <time>2021-02-13T09:29:17Z</time>
      </trkpt>
      <trkpt lat="45.59646" lon="6.71461">
        <ele>1752</ele>
        <time>2021-02-13T09:29:20Z</time>
      </trkpt>
      <trkpt lat="45.59647" lon="6.71461">
        <ele>1752</ele>
        <time>2021-02-13T09:29:25Z</time>
      </trkpt>
      <trkpt lat="45.59647" lon="6.71461">
        <ele>1753</ele>
        <time>2021-02-13T09:29:28Z</time>
      </trkpt>
      <trkpt lat="45.59649" lon="6.71461">
        <ele>1753</ele>
        <time>2021-02-13T09:29:30Z</time>
      </trkpt>
      <trkpt lat="45.59651" lon="6.71461">
        <ele>1753</ele>
        <time>2021-02-13T09:29:35Z</time>
      </trkpt>
      <trkpt lat="45.59651" lon="6.71461">
        <ele>1755</ele>
        <time>2021-02-13T09:29:37Z</time>
      </trkpt>
      <trkpt lat="45.59653" lon="6.71461">
        <ele>1755</ele>
        <time>2021-02-13T09:29:40Z</time>
      </trkpt>
      <trkpt lat="45.59655" lon="6.7146">
        <ele>1755</ele>
        <time>2021-02-13T09:29:45Z</time>
      </trkpt>
      <trkpt lat="45.59655" lon="6.7146">
        <ele>1756</ele>
        <time>2021-02-13T09:29:47Z</time>
      </trkpt>
      <trkpt lat="45.59657" lon="6.71459">
        <ele>1756</ele>
        <time>2021-02-13T09:29:50Z</time>
      </trkpt>
      <trkpt lat="45.59659" lon="6.71458">
        <ele>1756</ele>
        <time>2021-02-13T09:29:55Z</time>
      </trkpt>
      <trkpt lat="45.59659" lon="6.71458">
        <ele>1757</ele>
        <time>2021-02-13T09:29:57Z</time>
      </trkpt>
      <trkpt lat="45.59661" lon="6.71457">
        <ele>1757</ele>
        <time>2021-02-13T09:30:00Z</time>
      </trkpt>
      <trkpt lat="45.59663" lon="6.71457">
        <ele>1757</ele>
        <time>2021-02-13T09:30:05Z</time>
      </trkpt>
      <trkpt lat="45.59663" lon="6.71457">
        <ele>1758</ele>
        <time>2021-02-13T09:30:07Z</time>
      </trkpt>
      <trkpt lat="45.59665" lon="6.71455">
        <ele>1758</ele>
        <time>2021-02-13T09:30:09Z</time>
      </trkpt>
      <trkpt lat="45.59666" lon="6.71454">
        <ele>1758</ele>
        <time>2021-02-13T09:30:14Z</time>
      </trkpt>
      <trkpt lat="45.59667" lon="6.71453">
        <ele>1759</ele>
        <time>2021-02-13T09:30:17Z</time>
      </trkpt>
      <trkpt lat="45.59668" lon="6.71452">
        <ele>1759</ele>
        <time>2021-02-13T09:30:19Z</time>
      </trkpt>
      <trkpt lat="45.59669" lon="6.71451">
        <ele>1760</ele>
        <time>2021-02-13T09:30:27Z</time>
      </trkpt>
      <trkpt lat="45.5967" lon="6.71449">
        <ele>1760</ele>
        <time>2021-02-13T09:30:28Z</time>
      </trkpt>
      <trkpt lat="45.59671" lon="6.71448">
        <ele>1760</ele>
        <time>2021-02-13T09:30:33Z</time>
      </trkpt>
      <trkpt lat="45.59672" lon="6.71447">
        <ele>1760</ele>
        <time>2021-02-13T09:30:37Z</time>
      </trkpt>
      <trkpt lat="45.59673" lon="6.71446">
        <ele>1760</ele>
        <time>2021-02-13T09:30:38Z</time>
      </trkpt>
      <trkpt lat="45.59674" lon="6.71445">
        <ele>1760</ele>
        <time>2021-02-13T09:30:43Z</time>
      </trkpt>
      <trkpt lat="45.59675" lon="6.71444">
        <ele>1762</ele>
        <time>2021-02-13T09:30:47Z</time>
      </trkpt>
      <trkpt lat="45.59676" lon="6.71443">
        <ele>1762</ele>
        <time>2021-02-13T09:30:48Z</time>
      </trkpt>
      <trkpt lat="45.59676" lon="6.71442">
        <ele>1762</ele>
        <time>2021-02-13T09:30:54Z</time>
      </trkpt>
      <trkpt lat="45.59677" lon="6.7144">
        <ele>1763</ele>
        <time>2021-02-13T09:30:57Z</time>
      </trkpt>
      <trkpt lat="45.59678" lon="6.71439">
        <ele>1763</ele>
        <time>2021-02-13T09:30:59Z</time>
      </trkpt>
      <trkpt lat="45.59679" lon="6.71438">
        <ele>1763</ele>
        <time>2021-02-13T09:31:04Z</time>
      </trkpt>
      <trkpt lat="45.5968" lon="6.71437">
        <ele>1764</ele>
        <time>2021-02-13T09:31:07Z</time>
      </trkpt>
      <trkpt lat="45.59681" lon="6.71436">
        <ele>1764</ele>
        <time>2021-02-13T09:31:09Z</time>
      </trkpt>
      <trkpt lat="45.59682" lon="6.71435">
        <ele>1764</ele>
        <time>2021-02-13T09:31:14Z</time>
      </trkpt>
      <trkpt lat="45.59683" lon="6.71434">
        <ele>1765</ele>
        <time>2021-02-13T09:31:17Z</time>
      </trkpt>
      <trkpt lat="45.59684" lon="6.71433">
        <ele>1765</ele>
        <time>2021-02-13T09:31:19Z</time>
      </trkpt>
      <trkpt lat="45.59685" lon="6.71431">
        <ele>1765</ele>
        <time>2021-02-13T09:31:24Z</time>
      </trkpt>
      <trkpt lat="45.59686" lon="6.7143">
        <ele>1766</ele>
        <time>2021-02-13T09:31:27Z</time>
      </trkpt>
      <trkpt lat="45.59687" lon="6.71429">
        <ele>1766</ele>
        <time>2021-02-13T09:31:28Z</time>
      </trkpt>
      <trkpt lat="45.59688" lon="6.71428">
        <ele>1766</ele>
        <time>2021-02-13T09:31:32Z</time>
      </trkpt>
      <trkpt lat="45.59689" lon="6.71427">
        <ele>1766</ele>
        <time>2021-02-13T09:31:37Z</time>
      </trkpt>
      <trkpt lat="45.5969" lon="6.71426">
        <ele>1767</ele>
        <time>2021-02-13T09:31:38Z</time>
      </trkpt>
      <trkpt lat="45.59691" lon="6.71424">
        <ele>1767</ele>
        <time>2021-02-13T09:31:42Z</time>
      </trkpt>
      <trkpt lat="45.59693" lon="6.71423">
        <ele>1768</ele>
        <time>2021-02-13T09:31:47Z</time>
      </trkpt>
      <trkpt lat="45.59695" lon="6.71422">
        <ele>1768</ele>
        <time>2021-02-13T09:31:52Z</time>
      </trkpt>
      <trkpt lat="45.59697" lon="6.71421">
        <ele>1769</ele>
        <time>2021-02-13T09:31:57Z</time>
      </trkpt>
      <trkpt lat="45.59699" lon="6.7142">
        <ele>1769</ele>
        <time>2021-02-13T09:32:02Z</time>
      </trkpt>
      <trkpt lat="45.597" lon="6.71419">
        <ele>1769</ele>
        <time>2021-02-13T09:32:07Z</time>
      </trkpt>
      <trkpt lat="45.59702" lon="6.71418">
        <ele>1769</ele>
        <time>2021-02-13T09:32:12Z</time>
      </trkpt>
      <trkpt lat="45.59704" lon="6.71417">
        <ele>1771</ele>
        <time>2021-02-13T09:32:17Z</time>
      </trkpt>
      <trkpt lat="45.59706" lon="6.71416">
        <ele>1771</ele>
        <time>2021-02-13T09:32:23Z</time>
      </trkpt>
      <trkpt lat="45.59706" lon="6.71416">
        <ele>1772</ele>
        <time>2021-02-13T09:32:27Z</time>
      </trkpt>
      <trkpt lat="45.59708" lon="6.71415">
        <ele>1772</ele>
        <time>2021-02-13T09:32:29Z</time>
      </trkpt>
      <trkpt lat="45.5971" lon="6.71414">
        <ele>1772</ele>
        <time>2021-02-13T09:32:35Z</time>
      </trkpt>
      <trkpt lat="45.5971" lon="6.71414">
        <ele>1773</ele>
        <time>2021-02-13T09:32:38Z</time>
      </trkpt>
      <trkpt lat="45.59712" lon="6.71413">
        <ele>1773</ele>
        <time>2021-02-13T09:32:41Z</time>
      </trkpt>
      <trkpt lat="45.59713" lon="6.71413">
        <ele>1773</ele>
        <time>2021-02-13T09:32:46Z</time>
      </trkpt>
      <trkpt lat="45.59713" lon="6.71413">
        <ele>1775</ele>
        <time>2021-02-13T09:32:47Z</time>
      </trkpt>
      <trkpt lat="45.59715" lon="6.71412">
        <ele>1775</ele>
        <time>2021-02-13T09:32:51Z</time>
      </trkpt>
      <trkpt lat="45.59717" lon="6.71411">
        <ele>1775</ele>
        <time>2021-02-13T09:32:55Z</time>
      </trkpt>
      <trkpt lat="45.59717" lon="6.71411">
        <ele>1775</ele>
        <time>2021-02-13T09:32:57Z</time>
      </trkpt>
      <trkpt lat="45.59719" lon="6.71411">
        <ele>1775</ele>
        <time>2021-02-13T09:32:59Z</time>
      </trkpt>
      <trkpt lat="45.59721" lon="6.71411">
        <ele>1775</ele>
        <time>2021-02-13T09:33:03Z</time>
      </trkpt>
      <trkpt lat="45.59721" lon="6.71411">
        <ele>1775</ele>
        <time>2021-02-13T09:33:07Z</time>
      </trkpt>
      <trkpt lat="45.59723" lon="6.7141">
        <ele>1775</ele>
        <time>2021-02-13T09:33:08Z</time>
      </trkpt>
      <trkpt lat="45.59725" lon="6.71408">
        <ele>1775</ele>
        <time>2021-02-13T09:33:13Z</time>
      </trkpt>
      <trkpt lat="45.59725" lon="6.71408">
        <ele>1777</ele>
        <time>2021-02-13T09:33:17Z</time>
      </trkpt>
      <trkpt lat="45.59726" lon="6.71406">
        <ele>1777</ele>
        <time>2021-02-13T09:33:19Z</time>
      </trkpt>
      <trkpt lat="45.59728" lon="6.71405">
        <ele>1777</ele>
        <time>2021-02-13T09:33:24Z</time>
      </trkpt>
      <trkpt lat="45.59728" lon="6.71405">
        <ele>1778</ele>
        <time>2021-02-13T09:33:27Z</time>
      </trkpt>
      <trkpt lat="45.59729" lon="6.71402">
        <ele>1778</ele>
        <time>2021-02-13T09:33:30Z</time>
      </trkpt>
      <trkpt lat="45.59731" lon="6.714">
        <ele>1778</ele>
        <time>2021-02-13T09:33:35Z</time>
      </trkpt>
      <trkpt lat="45.59731" lon="6.714">
        <ele>1779</ele>
        <time>2021-02-13T09:33:37Z</time>
      </trkpt>
      <trkpt lat="45.59732" lon="6.71398">
        <ele>1779</ele>
        <time>2021-02-13T09:33:40Z</time>
      </trkpt>
      <trkpt lat="45.59733" lon="6.71395">
        <ele>1779</ele>
        <time>2021-02-13T09:33:45Z</time>
      </trkpt>
      <trkpt lat="45.59733" lon="6.71395">
        <ele>1780</ele>
        <time>2021-02-13T09:33:47Z</time>
      </trkpt>
      <trkpt lat="45.59734" lon="6.71393">
        <ele>1780</ele>
        <time>2021-02-13T09:33:51Z</time>
      </trkpt>
      <trkpt lat="45.59736" lon="6.71391">
        <ele>1781</ele>
        <time>2021-02-13T09:33:57Z</time>
      </trkpt>
      <trkpt lat="45.59737" lon="6.7139">
        <ele>1781</ele>
        <time>2021-02-13T09:34:02Z</time>
      </trkpt>
      <trkpt lat="45.59737" lon="6.7139">
        <ele>1782</ele>
        <time>2021-02-13T09:34:07Z</time>
      </trkpt>
      <trkpt lat="45.59738" lon="6.71387">
        <ele>1782</ele>
        <time>2021-02-13T09:34:08Z</time>
      </trkpt>
      <trkpt lat="45.59739" lon="6.71384">
        <ele>1782</ele>
        <time>2021-02-13T09:34:13Z</time>
      </trkpt>
      <trkpt lat="45.59739" lon="6.71384">
        <ele>1783</ele>
        <time>2021-02-13T09:34:17Z</time>
      </trkpt>
      <trkpt lat="45.59741" lon="6.71382">
        <ele>1783</ele>
        <time>2021-02-13T09:34:18Z</time>
      </trkpt>
      <trkpt lat="45.59742" lon="6.71381">
        <ele>1783</ele>
        <time>2021-02-13T09:34:22Z</time>
      </trkpt>
      <trkpt lat="45.59742" lon="6.71381">
        <ele>1784</ele>
        <time>2021-02-13T09:34:27Z</time>
      </trkpt>
      <trkpt lat="45.59744" lon="6.71378">
        <ele>1784</ele>
        <time>2021-02-13T09:34:29Z</time>
      </trkpt>
      <trkpt lat="45.59744" lon="6.71375">
        <ele>1784</ele>
        <time>2021-02-13T09:34:36Z</time>
      </trkpt>
      <trkpt lat="45.59744" lon="6.71375">
        <ele>1784</ele>
        <time>2021-02-13T09:34:37Z</time>
      </trkpt>
      <trkpt lat="45.59745" lon="6.71373">
        <ele>1784</ele>
        <time>2021-02-13T09:34:41Z</time>
      </trkpt>
      <trkpt lat="45.59745" lon="6.71373">
        <ele>1786</ele>
        <time>2021-02-13T09:34:47Z</time>
      </trkpt>
      <trkpt lat="45.59747" lon="6.71371">
        <ele>1786</ele>
        <time>2021-02-13T09:34:48Z</time>
      </trkpt>
      <trkpt lat="45.59749" lon="6.71371">
        <ele>1786</ele>
        <time>2021-02-13T09:34:53Z</time>
      </trkpt>
      <trkpt lat="45.59749" lon="6.71371">
        <ele>1788</ele>
        <time>2021-02-13T09:34:57Z</time>
      </trkpt>
      <trkpt lat="45.59751" lon="6.71371">
        <ele>1788</ele>
        <time>2021-02-13T09:34:59Z</time>
      </trkpt>
      <trkpt lat="45.59752" lon="6.7137">
        <ele>1788</ele>
        <time>2021-02-13T09:35:04Z</time>
      </trkpt>
      <trkpt lat="45.59752" lon="6.7137">
        <ele>1789</ele>
        <time>2021-02-13T09:35:07Z</time>
      </trkpt>
      <trkpt lat="45.59754" lon="6.71368">
        <ele>1789</ele>
        <time>2021-02-13T09:35:10Z</time>
      </trkpt>
      <trkpt lat="45.59755" lon="6.71366">
        <ele>1789</ele>
        <time>2021-02-13T09:35:15Z</time>
      </trkpt>
      <trkpt lat="45.59755" lon="6.71366">
        <ele>1789</ele>
        <time>2021-02-13T09:35:17Z</time>
      </trkpt>
      <trkpt lat="45.59757" lon="6.71363">
        <ele>1789</ele>
        <time>2021-02-13T09:35:20Z</time>
      </trkpt>
      <trkpt lat="45.59757" lon="6.71362">
        <ele>1789</ele>
        <time>2021-02-13T09:35:26Z</time>
      </trkpt>
      <trkpt lat="45.59758" lon="6.71362">
        <ele>1790</ele>
        <time>2021-02-13T09:35:27Z</time>
      </trkpt>
      <trkpt lat="45.59759" lon="6.71359">
        <ele>1790</ele>
        <time>2021-02-13T09:35:31Z</time>
      </trkpt>
      <trkpt lat="45.5976" lon="6.71357">
        <ele>1790</ele>
        <time>2021-02-13T09:35:36Z</time>
      </trkpt>
      <trkpt lat="45.5976" lon="6.71357">
        <ele>1791</ele>
        <time>2021-02-13T09:35:37Z</time>
      </trkpt>
      <trkpt lat="45.59762" lon="6.71353">
        <ele>1791</ele>
        <time>2021-02-13T09:35:40Z</time>
      </trkpt>
      <trkpt lat="45.59762" lon="6.71352">
        <ele>1791</ele>
        <time>2021-02-13T09:35:44Z</time>
      </trkpt>
      <trkpt lat="45.59763" lon="6.7135">
        <ele>1791</ele>
        <time>2021-02-13T09:35:48Z</time>
      </trkpt>
      <trkpt lat="45.59764" lon="6.71349">
        <ele>1791</ele>
        <time>2021-02-13T09:35:52Z</time>
      </trkpt>
      <trkpt lat="45.59765" lon="6.71347">
        <ele>1791</ele>
        <time>2021-02-13T09:35:56Z</time>
      </trkpt>
      <trkpt lat="45.59766" lon="6.71346">
        <ele>1793</ele>
        <time>2021-02-13T09:35:57Z</time>
      </trkpt>
      <trkpt lat="45.59767" lon="6.71341">
        <ele>1793</ele>
        <time>2021-02-13T09:36:01Z</time>
      </trkpt>
      <trkpt lat="45.59768" lon="6.7134">
        <ele>1794</ele>
        <time>2021-02-13T09:36:07Z</time>
      </trkpt>
      <trkpt lat="45.59768" lon="6.71339">
        <ele>1794</ele>
        <time>2021-02-13T09:36:12Z</time>
      </trkpt>
      <trkpt lat="45.59769" lon="6.71337">
        <ele>1794</ele>
        <time>2021-02-13T09:36:16Z</time>
      </trkpt>
      <trkpt lat="45.59769" lon="6.71336">
        <ele>1795</ele>
        <time>2021-02-13T09:36:17Z</time>
      </trkpt>
      <trkpt lat="45.5977" lon="6.71333">
        <ele>1795</ele>
        <time>2021-02-13T09:36:21Z</time>
      </trkpt>
      <trkpt lat="45.59771" lon="6.7133">
        <ele>1795</ele>
        <time>2021-02-13T09:36:25Z</time>
      </trkpt>
      <trkpt lat="45.59771" lon="6.7133">
        <ele>1796</ele>
        <time>2021-02-13T09:36:27Z</time>
      </trkpt>
      <trkpt lat="45.59772" lon="6.71326">
        <ele>1796</ele>
        <time>2021-02-13T09:36:29Z</time>
      </trkpt>
      <trkpt lat="45.59772" lon="6.71325">
        <ele>1796</ele>
        <time>2021-02-13T09:36:34Z</time>
      </trkpt>
      <trkpt lat="45.59773" lon="6.71323">
        <ele>1797</ele>
        <time>2021-02-13T09:36:37Z</time>
      </trkpt>
      <trkpt lat="45.59773" lon="6.71321">
        <ele>1797</ele>
        <time>2021-02-13T09:36:39Z</time>
      </trkpt>
      <trkpt lat="45.59774" lon="6.71319">
        <ele>1797</ele>
        <time>2021-02-13T09:36:43Z</time>
      </trkpt>
      <trkpt lat="45.59774" lon="6.71318">
        <ele>1798</ele>
        <time>2021-02-13T09:36:47Z</time>
      </trkpt>
      <trkpt lat="45.59775" lon="6.71316">
        <ele>1798</ele>
        <time>2021-02-13T09:36:48Z</time>
      </trkpt>
      <trkpt lat="45.59775" lon="6.71314">
        <ele>1798</ele>
        <time>2021-02-13T09:36:52Z</time>
      </trkpt>
      <trkpt lat="45.59776" lon="6.71312">
        <ele>1799</ele>
        <time>2021-02-13T09:36:57Z</time>
      </trkpt>
      <trkpt lat="45.59776" lon="6.71311">
        <ele>1799</ele>
        <time>2021-02-13T09:37:02Z</time>
      </trkpt>
      <trkpt lat="45.59777" lon="6.71309">
        <ele>1799</ele>
        <time>2021-02-13T09:37:06Z</time>
      </trkpt>
      <trkpt lat="45.59777" lon="6.71307">
        <ele>1801</ele>
        <time>2021-02-13T09:37:07Z</time>
      </trkpt>
      <trkpt lat="45.59778" lon="6.71304">
        <ele>1801</ele>
        <time>2021-02-13T09:37:10Z</time>
      </trkpt>
      <trkpt lat="45.59777" lon="6.71302">
        <ele>1801</ele>
        <time>2021-02-13T09:37:13Z</time>
      </trkpt>
      <trkpt lat="45.59777" lon="6.71299">
        <ele>1801</ele>
        <time>2021-02-13T09:37:17Z</time>
      </trkpt>
      <trkpt lat="45.59777" lon="6.71296">
        <ele>1801</ele>
        <time>2021-02-13T09:37:22Z</time>
      </trkpt>
      <trkpt lat="45.59777" lon="6.71293">
        <ele>1803</ele>
        <time>2021-02-13T09:37:27Z</time>
      </trkpt>
      <trkpt lat="45.59777" lon="6.71291">
        <ele>1803</ele>
        <time>2021-02-13T09:37:32Z</time>
      </trkpt>
      <trkpt lat="45.59777" lon="6.71291">
        <ele>1803</ele>
        <time>2021-02-13T09:37:37Z</time>
      </trkpt>
      <trkpt lat="45.59779" lon="6.71288">
        <ele>1803</ele>
        <time>2021-02-13T09:37:38Z</time>
      </trkpt>
      <trkpt lat="45.59779" lon="6.71288">
        <ele>1805</ele>
        <time>2021-02-13T09:37:47Z</time>
      </trkpt>
      <trkpt lat="45.59779" lon="6.71286">
        <ele>1805</ele>
        <time>2021-02-13T09:37:49Z</time>
      </trkpt>
      <trkpt lat="45.5978" lon="6.71283">
        <ele>1805</ele>
        <time>2021-02-13T09:37:53Z</time>
      </trkpt>
      <trkpt lat="45.5978" lon="6.71283">
        <ele>1805</ele>
        <time>2021-02-13T09:37:57Z</time>
      </trkpt>
      <trkpt lat="45.59779" lon="6.71281">
        <ele>1805</ele>
        <time>2021-02-13T09:37:58Z</time>
      </trkpt>
      <trkpt lat="45.59778" lon="6.71278">
        <ele>1805</ele>
        <time>2021-02-13T09:38:04Z</time>
      </trkpt>
      <trkpt lat="45.59778" lon="6.71278">
        <ele>1806</ele>
        <time>2021-02-13T09:38:07Z</time>
      </trkpt>
      <trkpt lat="45.59778" lon="6.71278">
        <ele>1807</ele>
        <time>2021-02-13T09:38:17Z</time>
      </trkpt>
      <trkpt lat="45.5978" lon="6.71277">
        <ele>1807</ele>
        <time>2021-02-13T09:38:24Z</time>
      </trkpt>
      <trkpt lat="45.5978" lon="6.71277">
        <ele>1808</ele>
        <time>2021-02-13T09:38:27Z</time>
      </trkpt>
      <trkpt lat="45.59782" lon="6.71277">
        <ele>1808</ele>
        <time>2021-02-13T09:38:29Z</time>
      </trkpt>
      <trkpt lat="45.59785" lon="6.71278">
        <ele>1808</ele>
        <time>2021-02-13T09:38:32Z</time>
      </trkpt>
      <trkpt lat="45.59787" lon="6.71278">
        <ele>1809</ele>
        <time>2021-02-13T09:38:37Z</time>
      </trkpt>
      <trkpt lat="45.59789" lon="6.71279">
        <ele>1809</ele>
        <time>2021-02-13T09:38:42Z</time>
      </trkpt>
      <trkpt lat="45.59791" lon="6.71279">
        <ele>1810</ele>
        <time>2021-02-13T09:38:47Z</time>
      </trkpt>
      <trkpt lat="45.59792" lon="6.7128">
        <ele>1810</ele>
        <time>2021-02-13T09:38:52Z</time>
      </trkpt>
      <trkpt lat="45.59794" lon="6.71281">
        <ele>1812</ele>
        <time>2021-02-13T09:38:58Z</time>
      </trkpt>
      <trkpt lat="45.59796" lon="6.71282">
        <ele>1812</ele>
        <time>2021-02-13T09:39:04Z</time>
      </trkpt>
      <trkpt lat="45.59796" lon="6.71282">
        <ele>1812</ele>
        <time>2021-02-13T09:39:07Z</time>
      </trkpt>
      <trkpt lat="45.59798" lon="6.71282">
        <ele>1812</ele>
        <time>2021-02-13T09:39:10Z</time>
      </trkpt>
      <trkpt lat="45.59798" lon="6.71282">
        <ele>1813</ele>
        <time>2021-02-13T09:39:17Z</time>
      </trkpt>
      <trkpt lat="45.598" lon="6.71282">
        <ele>1813</ele>
        <time>2021-02-13T09:39:19Z</time>
      </trkpt>
      <trkpt lat="45.598" lon="6.71282">
        <ele>1814</ele>
        <time>2021-02-13T09:39:27Z</time>
      </trkpt>
      <trkpt lat="45.59802" lon="6.71283">
        <ele>1815</ele>
        <time>2021-02-13T09:39:37Z</time>
      </trkpt>
      <trkpt lat="45.59804" lon="6.71283">
        <ele>1815</ele>
        <time>2021-02-13T09:39:43Z</time>
      </trkpt>
      <trkpt lat="45.59804" lon="6.71283">
        <ele>1816</ele>
        <time>2021-02-13T09:39:47Z</time>
      </trkpt>
      <trkpt lat="45.59804" lon="6.71283">
        <ele>1816</ele>
        <time>2021-02-13T09:39:57Z</time>
      </trkpt>
      <trkpt lat="45.59804" lon="6.71283">
        <ele>1815</ele>
        <time>2021-02-13T09:40:07Z</time>
      </trkpt>
      <trkpt lat="45.59805" lon="6.71286">
        <ele>1815</ele>
        <time>2021-02-13T09:40:14Z</time>
      </trkpt>
      <trkpt lat="45.59805" lon="6.71286">
        <ele>1815</ele>
        <time>2021-02-13T09:40:17Z</time>
      </trkpt>
      <trkpt lat="45.59804" lon="6.71291">
        <ele>1815</ele>
        <time>2021-02-13T09:40:23Z</time>
      </trkpt>
      <trkpt lat="45.59802" lon="6.71292">
        <ele>1815</ele>
        <time>2021-02-13T09:40:27Z</time>
      </trkpt>
      <trkpt lat="45.59802" lon="6.71292">
        <ele>1815</ele>
        <time>2021-02-13T09:40:37Z</time>
      </trkpt>
      <trkpt lat="45.59801" lon="6.71294">
        <ele>1815</ele>
        <time>2021-02-13T09:40:46Z</time>
      </trkpt>
      <trkpt lat="45.59801" lon="6.71294">
        <ele>1816</ele>
        <time>2021-02-13T09:40:47Z</time>
      </trkpt>
      <trkpt lat="45.59801" lon="6.71292">
        <ele>1816</ele>
        <time>2021-02-13T09:40:55Z</time>
      </trkpt>
      <trkpt lat="45.59801" lon="6.71292">
        <ele>1816</ele>
        <time>2021-02-13T09:40:57Z</time>
      </trkpt>
      <trkpt lat="45.59802" lon="6.7129">
        <ele>1816</ele>
        <time>2021-02-13T09:41:02Z</time>
      </trkpt>
      <trkpt lat="45.59803" lon="6.71287">
        <ele>1816</ele>
        <time>2021-02-13T09:41:05Z</time>
      </trkpt>
      <trkpt lat="45.59803" lon="6.71287">
        <ele>1815</ele>
        <time>2021-02-13T09:41:07Z</time>
      </trkpt>
      <trkpt lat="45.59804" lon="6.71285">
        <ele>1815</ele>
        <time>2021-02-13T09:41:12Z</time>
      </trkpt>
      <trkpt lat="45.59804" lon="6.71285">
        <ele>1815</ele>
        <time>2021-02-13T09:41:17Z</time>
      </trkpt>
      <trkpt lat="45.59804" lon="6.71285">
        <ele>1816</ele>
        <time>2021-02-13T09:41:27Z</time>
      </trkpt>
      <trkpt lat="45.59806" lon="6.71284">
        <ele>1816</ele>
        <time>2021-02-13T09:41:31Z</time>
      </trkpt>
      <trkpt lat="45.59806" lon="6.71284">
        <ele>1817</ele>
        <time>2021-02-13T09:41:37Z</time>
      </trkpt>
      <trkpt lat="45.59807" lon="6.71285">
        <ele>1817</ele>
        <time>2021-02-13T09:41:40Z</time>
      </trkpt>
      <trkpt lat="45.59807" lon="6.71285">
        <ele>1818</ele>
        <time>2021-02-13T09:41:47Z</time>
      </trkpt>
      <trkpt lat="45.59807" lon="6.71285">
        <ele>1818</ele>
        <time>2021-02-13T09:41:57Z</time>
      </trkpt>
      <trkpt lat="45.59809" lon="6.71286">
        <ele>1818</ele>
        <time>2021-02-13T09:42:07Z</time>
      </trkpt>
      <trkpt lat="45.59809" lon="6.71286">
        <ele>1816</ele>
        <time>2021-02-13T09:42:08Z</time>
      </trkpt>
      <trkpt lat="45.59811" lon="6.71287">
        <ele>1816</ele>
        <time>2021-02-13T09:42:11Z</time>
      </trkpt>
      <trkpt lat="45.59813" lon="6.71288">
        <ele>1816</ele>
        <time>2021-02-13T09:42:15Z</time>
      </trkpt>
      <trkpt lat="45.59813" lon="6.71288">
        <ele>1817</ele>
        <time>2021-02-13T09:42:17Z</time>
      </trkpt>
      <trkpt lat="45.59816" lon="6.71289">
        <ele>1817</ele>
        <time>2021-02-13T09:42:19Z</time>
      </trkpt>
      <trkpt lat="45.59817" lon="6.71289">
        <ele>1817</ele>
        <time>2021-02-13T09:42:24Z</time>
      </trkpt>
      <trkpt lat="45.59818" lon="6.7129">
        <ele>1819</ele>
        <time>2021-02-13T09:42:27Z</time>
      </trkpt>
      <trkpt lat="45.59819" lon="6.7129">
        <ele>1819</ele>
        <time>2021-02-13T09:42:28Z</time>
      </trkpt>
      <trkpt lat="45.5982" lon="6.7129">
        <ele>1819</ele>
        <time>2021-02-13T09:42:32Z</time>
      </trkpt>
      <trkpt lat="45.59821" lon="6.71291">
        <ele>1819</ele>
        <time>2021-02-13T09:42:36Z</time>
      </trkpt>
      <trkpt lat="45.59822" lon="6.71291">
        <ele>1819</ele>
        <time>2021-02-13T09:42:37Z</time>
      </trkpt>
      <trkpt lat="45.59824" lon="6.71291">
        <ele>1819</ele>
        <time>2021-02-13T09:42:40Z</time>
      </trkpt>
      <trkpt lat="45.59826" lon="6.71292">
        <ele>1819</ele>
        <time>2021-02-13T09:42:44Z</time>
      </trkpt>
      <trkpt lat="45.59826" lon="6.71292">
        <ele>1821</ele>
        <time>2021-02-13T09:42:47Z</time>
      </trkpt>
      <trkpt lat="45.59829" lon="6.71292">
        <ele>1821</ele>
        <time>2021-02-13T09:42:49Z</time>
      </trkpt>
      <trkpt lat="45.59831" lon="6.71293">
        <ele>1821</ele>
        <time>2021-02-13T09:42:53Z</time>
      </trkpt>
      <trkpt lat="45.59833" lon="6.71294">
        <ele>1822</ele>
        <time>2021-02-13T09:42:57Z</time>
      </trkpt>
      <trkpt lat="45.59835" lon="6.71295">
        <ele>1822</ele>
        <time>2021-02-13T09:43:01Z</time>
      </trkpt>
      <trkpt lat="45.59837" lon="6.71296">
        <ele>1822</ele>
        <time>2021-02-13T09:43:05Z</time>
      </trkpt>
      <trkpt lat="45.59837" lon="6.71296">
        <ele>1822</ele>
        <time>2021-02-13T09:43:07Z</time>
      </trkpt>
      <trkpt lat="45.59839" lon="6.71296">
        <ele>1822</ele>
        <time>2021-02-13T09:43:10Z</time>
      </trkpt>
      <trkpt lat="45.5984" lon="6.71297">
        <ele>1822</ele>
        <time>2021-02-13T09:43:14Z</time>
      </trkpt>
      <trkpt lat="45.5984" lon="6.71297">
        <ele>1824</ele>
        <time>2021-02-13T09:43:17Z</time>
      </trkpt>
      <trkpt lat="45.59843" lon="6.71298">
        <ele>1824</ele>
        <time>2021-02-13T09:43:19Z</time>
      </trkpt>
      <trkpt lat="45.59844" lon="6.71299">
        <ele>1824</ele>
        <time>2021-02-13T09:43:23Z</time>
      </trkpt>
      <trkpt lat="45.59846" lon="6.71299">
        <ele>1824</ele>
        <time>2021-02-13T09:43:27Z</time>
      </trkpt>
      <trkpt lat="45.59848" lon="6.713">
        <ele>1824</ele>
        <time>2021-02-13T09:43:31Z</time>
      </trkpt>
      <trkpt lat="45.5985" lon="6.713">
        <ele>1824</ele>
        <time>2021-02-13T09:43:35Z</time>
      </trkpt>
      <trkpt lat="45.5985" lon="6.713">
        <ele>1826</ele>
        <time>2021-02-13T09:43:37Z</time>
      </trkpt>
      <trkpt lat="45.59852" lon="6.71301">
        <ele>1826</ele>
        <time>2021-02-13T09:43:39Z</time>
      </trkpt>
      <trkpt lat="45.59854" lon="6.71302">
        <ele>1826</ele>
        <time>2021-02-13T09:43:43Z</time>
      </trkpt>
      <trkpt lat="45.59856" lon="6.71303">
        <ele>1826</ele>
        <time>2021-02-13T09:43:47Z</time>
      </trkpt>
      <trkpt lat="45.59857" lon="6.71304">
        <ele>1826</ele>
        <time>2021-02-13T09:43:51Z</time>
      </trkpt>
      <trkpt lat="45.59859" lon="6.71305">
        <ele>1826</ele>
        <time>2021-02-13T09:43:55Z</time>
      </trkpt>
      <trkpt lat="45.59859" lon="6.71305">
        <ele>1827</ele>
        <time>2021-02-13T09:43:57Z</time>
      </trkpt>
      <trkpt lat="45.59863" lon="6.71306">
        <ele>1827</ele>
        <time>2021-02-13T09:43:59Z</time>
      </trkpt>
      <trkpt lat="45.59864" lon="6.71307">
        <ele>1827</ele>
        <time>2021-02-13T09:44:03Z</time>
      </trkpt>
      <trkpt lat="45.59865" lon="6.71307">
        <ele>1827</ele>
        <time>2021-02-13T09:44:07Z</time>
      </trkpt>
      <trkpt lat="45.59867" lon="6.71307">
        <ele>1827</ele>
        <time>2021-02-13T09:44:12Z</time>
      </trkpt>
      <trkpt lat="45.59868" lon="6.71308">
        <ele>1827</ele>
        <time>2021-02-13T09:44:16Z</time>
      </trkpt>
      <trkpt lat="45.59869" lon="6.71308">
        <ele>1828</ele>
        <time>2021-02-13T09:44:17Z</time>
      </trkpt>
      <trkpt lat="45.59871" lon="6.71309">
        <ele>1828</ele>
        <time>2021-02-13T09:44:20Z</time>
      </trkpt>
      <trkpt lat="45.59873" lon="6.71309">
        <ele>1828</ele>
        <time>2021-02-13T09:44:24Z</time>
      </trkpt>
      <trkpt lat="45.59873" lon="6.71309">
        <ele>1830</ele>
        <time>2021-02-13T09:44:27Z</time>
      </trkpt>
      <trkpt lat="45.59875" lon="6.71309">
        <ele>1830</ele>
        <time>2021-02-13T09:44:29Z</time>
      </trkpt>
      <trkpt lat="45.59876" lon="6.71307">
        <ele>1830</ele>
        <time>2021-02-13T09:44:36Z</time>
      </trkpt>
      <trkpt lat="45.59876" lon="6.71307">
        <ele>1831</ele>
        <time>2021-02-13T09:44:37Z</time>
      </trkpt>
      <trkpt lat="45.59876" lon="6.71304">
        <ele>1831</ele>
        <time>2021-02-13T09:44:41Z</time>
      </trkpt>
      <trkpt lat="45.59875" lon="6.71302">
        <ele>1831</ele>
        <time>2021-02-13T09:44:45Z</time>
      </trkpt>
      <trkpt lat="45.59875" lon="6.71302">
        <ele>1832</ele>
        <time>2021-02-13T09:44:47Z</time>
      </trkpt>
      <trkpt lat="45.59875" lon="6.71299">
        <ele>1832</ele>
        <time>2021-02-13T09:44:50Z</time>
      </trkpt>
      <trkpt lat="45.59874" lon="6.71296">
        <ele>1832</ele>
        <time>2021-02-13T09:44:55Z</time>
      </trkpt>
      <trkpt lat="45.59874" lon="6.71296">
        <ele>1833</ele>
        <time>2021-02-13T09:44:57Z</time>
      </trkpt>
      <trkpt lat="45.59874" lon="6.71293">
        <ele>1833</ele>
        <time>2021-02-13T09:45:00Z</time>
      </trkpt>
      <trkpt lat="45.59873" lon="6.7129">
        <ele>1833</ele>
        <time>2021-02-13T09:45:05Z</time>
      </trkpt>
      <trkpt lat="45.59873" lon="6.7129">
        <ele>1834</ele>
        <time>2021-02-13T09:45:07Z</time>
      </trkpt>
      <trkpt lat="45.59873" lon="6.71288">
        <ele>1834</ele>
        <time>2021-02-13T09:45:10Z</time>
      </trkpt>
      <trkpt lat="45.59872" lon="6.71285">
        <ele>1834</ele>
        <time>2021-02-13T09:45:15Z</time>
      </trkpt>
      <trkpt lat="45.59872" lon="6.71285">
        <ele>1835</ele>
        <time>2021-02-13T09:45:18Z</time>
      </trkpt>
      <trkpt lat="45.59872" lon="6.71282">
        <ele>1835</ele>
        <time>2021-02-13T09:45:20Z</time>
      </trkpt>
      <trkpt lat="45.59871" lon="6.71279">
        <ele>1835</ele>
        <time>2021-02-13T09:45:25Z</time>
      </trkpt>
      <trkpt lat="45.59871" lon="6.71279">
        <ele>1836</ele>
        <time>2021-02-13T09:45:27Z</time>
      </trkpt>
      <trkpt lat="45.59871" lon="6.71277">
        <ele>1836</ele>
        <time>2021-02-13T09:45:30Z</time>
      </trkpt>
      <trkpt lat="45.5987" lon="6.71274">
        <ele>1836</ele>
        <time>2021-02-13T09:45:35Z</time>
      </trkpt>
      <trkpt lat="45.5987" lon="6.71274">
        <ele>1837</ele>
        <time>2021-02-13T09:45:37Z</time>
      </trkpt>
      <trkpt lat="45.5987" lon="6.71271">
        <ele>1837</ele>
        <time>2021-02-13T09:45:40Z</time>
      </trkpt>
      <trkpt lat="45.5987" lon="6.71268">
        <ele>1837</ele>
        <time>2021-02-13T09:45:45Z</time>
      </trkpt>
      <trkpt lat="45.5987" lon="6.71268">
        <ele>1837</ele>
        <time>2021-02-13T09:45:47Z</time>
      </trkpt>
      <trkpt lat="45.5987" lon="6.71265">
        <ele>1837</ele>
        <time>2021-02-13T09:45:50Z</time>
      </trkpt>
      <trkpt lat="45.59869" lon="6.71262">
        <ele>1837</ele>
        <time>2021-02-13T09:45:55Z</time>
      </trkpt>
      <trkpt lat="45.59869" lon="6.71262">
        <ele>1838</ele>
        <time>2021-02-13T09:45:57Z</time>
      </trkpt>
      <trkpt lat="45.59869" lon="6.71259">
        <ele>1838</ele>
        <time>2021-02-13T09:46:00Z</time>
      </trkpt>
      <trkpt lat="45.59869" lon="6.71256">
        <ele>1838</ele>
        <time>2021-02-13T09:46:05Z</time>
      </trkpt>
      <trkpt lat="45.59869" lon="6.71256">
        <ele>1840</ele>
        <time>2021-02-13T09:46:07Z</time>
      </trkpt>
      <trkpt lat="45.59869" lon="6.71254">
        <ele>1840</ele>
        <time>2021-02-13T09:46:10Z</time>
      </trkpt>
      <trkpt lat="45.59869" lon="6.71251">
        <ele>1840</ele>
        <time>2021-02-13T09:46:15Z</time>
      </trkpt>
      <trkpt lat="45.59869" lon="6.71251">
        <ele>1841</ele>
        <time>2021-02-13T09:46:17Z</time>
      </trkpt>
      <trkpt lat="45.59868" lon="6.71248">
        <ele>1841</ele>
        <time>2021-02-13T09:46:20Z</time>
      </trkpt>
      <trkpt lat="45.59868" lon="6.71245">
        <ele>1841</ele>
        <time>2021-02-13T09:46:25Z</time>
      </trkpt>
      <trkpt lat="45.59868" lon="6.71245">
        <ele>1841</ele>
        <time>2021-02-13T09:46:27Z</time>
      </trkpt>
      <trkpt lat="45.59868" lon="6.71242">
        <ele>1841</ele>
        <time>2021-02-13T09:46:30Z</time>
      </trkpt>
      <trkpt lat="45.59867" lon="6.71239">
        <ele>1841</ele>
        <time>2021-02-13T09:46:34Z</time>
      </trkpt>
      <trkpt lat="45.59867" lon="6.71239">
        <ele>1842</ele>
        <time>2021-02-13T09:46:37Z</time>
      </trkpt>
      <trkpt lat="45.59867" lon="6.71236">
        <ele>1842</ele>
        <time>2021-02-13T09:46:39Z</time>
      </trkpt>
      <trkpt lat="45.59867" lon="6.71233">
        <ele>1842</ele>
        <time>2021-02-13T09:46:44Z</time>
      </trkpt>
      <trkpt lat="45.59867" lon="6.71233">
        <ele>1843</ele>
        <time>2021-02-13T09:46:47Z</time>
      </trkpt>
      <trkpt lat="45.59867" lon="6.7123">
        <ele>1843</ele>
        <time>2021-02-13T09:46:49Z</time>
      </trkpt>
      <trkpt lat="45.59868" lon="6.71228">
        <ele>1843</ele>
        <time>2021-02-13T09:46:54Z</time>
      </trkpt>
      <trkpt lat="45.59868" lon="6.71228">
        <ele>1844</ele>
        <time>2021-02-13T09:46:57Z</time>
      </trkpt>
      <trkpt lat="45.59868" lon="6.71225">
        <ele>1844</ele>
        <time>2021-02-13T09:46:59Z</time>
      </trkpt>
      <trkpt lat="45.59869" lon="6.71222">
        <ele>1844</ele>
        <time>2021-02-13T09:47:05Z</time>
      </trkpt>
      <trkpt lat="45.59869" lon="6.71222">
        <ele>1845</ele>
        <time>2021-02-13T09:47:07Z</time>
      </trkpt>
      <trkpt lat="45.59869" lon="6.7122">
        <ele>1845</ele>
        <time>2021-02-13T09:47:10Z</time>
      </trkpt>
      <trkpt lat="45.59869" lon="6.71217">
        <ele>1845</ele>
        <time>2021-02-13T09:47:15Z</time>
      </trkpt>
      <trkpt lat="45.59869" lon="6.71217">
        <ele>1846</ele>
        <time>2021-02-13T09:47:17Z</time>
      </trkpt>
      <trkpt lat="45.5987" lon="6.71214">
        <ele>1846</ele>
        <time>2021-02-13T09:47:20Z</time>
      </trkpt>
      <trkpt lat="45.5987" lon="6.71211">
        <ele>1846</ele>
        <time>2021-02-13T09:47:25Z</time>
      </trkpt>
      <trkpt lat="45.5987" lon="6.71211">
        <ele>1847</ele>
        <time>2021-02-13T09:47:27Z</time>
      </trkpt>
      <trkpt lat="45.59871" lon="6.71209">
        <ele>1847</ele>
        <time>2021-02-13T09:47:30Z</time>
      </trkpt>
      <trkpt lat="45.59872" lon="6.71207">
        <ele>1847</ele>
        <time>2021-02-13T09:47:35Z</time>
      </trkpt>
      <trkpt lat="45.59872" lon="6.71207">
        <ele>1848</ele>
        <time>2021-02-13T09:47:37Z</time>
      </trkpt>
      <trkpt lat="45.59874" lon="6.71205">
        <ele>1848</ele>
        <time>2021-02-13T09:47:41Z</time>
      </trkpt>
      <trkpt lat="45.59875" lon="6.71203">
        <ele>1849</ele>
        <time>2021-02-13T09:47:47Z</time>
      </trkpt>
      <trkpt lat="45.59877" lon="6.71202">
        <ele>1849</ele>
        <time>2021-02-13T09:47:52Z</time>
      </trkpt>
      <trkpt lat="45.59879" lon="6.71201">
        <ele>1849</ele>
        <time>2021-02-13T09:47:57Z</time>
      </trkpt>
      <trkpt lat="45.59879" lon="6.71201">
        <ele>1851</ele>
        <time>2021-02-13T09:47:58Z</time>
      </trkpt>
      <trkpt lat="45.5988" lon="6.71199">
        <ele>1851</ele>
        <time>2021-02-13T09:48:02Z</time>
      </trkpt>
      <trkpt lat="45.59882" lon="6.71197">
        <ele>1851</ele>
        <time>2021-02-13T09:48:07Z</time>
      </trkpt>
      <trkpt lat="45.59883" lon="6.71196">
        <ele>1851</ele>
        <time>2021-02-13T09:48:12Z</time>
      </trkpt>
      <trkpt lat="45.59883" lon="6.71196">
        <ele>1852</ele>
        <time>2021-02-13T09:48:17Z</time>
      </trkpt>
      <trkpt lat="45.59885" lon="6.71194">
        <ele>1852</ele>
        <time>2021-02-13T09:48:18Z</time>
      </trkpt>
      <trkpt lat="45.59887" lon="6.71193">
        <ele>1852</ele>
        <time>2021-02-13T09:48:23Z</time>
      </trkpt>
      <trkpt lat="45.59889" lon="6.71192">
        <ele>1854</ele>
        <time>2021-02-13T09:48:28Z</time>
      </trkpt>
      <trkpt lat="45.59891" lon="6.71192">
        <ele>1854</ele>
        <time>2021-02-13T09:48:34Z</time>
      </trkpt>
      <trkpt lat="45.59891" lon="6.71192">
        <ele>1854</ele>
        <time>2021-02-13T09:48:37Z</time>
      </trkpt>
      <trkpt lat="45.59891" lon="6.71192">
        <ele>1855</ele>
        <time>2021-02-13T09:48:47Z</time>
      </trkpt>
      <trkpt lat="45.59891" lon="6.71192">
        <ele>1855</ele>
        <time>2021-02-13T09:48:57Z</time>
      </trkpt>
      <trkpt lat="45.59891" lon="6.71192">
        <ele>1854</ele>
        <time>2021-02-13T09:49:07Z</time>
      </trkpt>
      <trkpt lat="45.59891" lon="6.71192">
        <ele>1854</ele>
        <time>2021-02-13T09:49:17Z</time>
      </trkpt>
      <trkpt lat="45.59891" lon="6.71192">
        <ele>1855</ele>
        <time>2021-02-13T09:49:27Z</time>
      </trkpt>
      <trkpt lat="45.59891" lon="6.71192">
        <ele>1855</ele>
        <time>2021-02-13T09:49:37Z</time>
      </trkpt>
      <trkpt lat="45.59891" lon="6.71192">
        <ele>1854</ele>
        <time>2021-02-13T09:49:47Z</time>
      </trkpt>
      <trkpt lat="45.59891" lon="6.71192">
        <ele>1855</ele>
        <time>2021-02-13T09:49:57Z</time>
      </trkpt>
      <trkpt lat="45.59891" lon="6.71192">
        <ele>1855</ele>
        <time>2021-02-13T09:50:07Z</time>
      </trkpt>
      <trkpt lat="45.59891" lon="6.71192">
        <ele>1855</ele>
        <time>2021-02-13T09:50:17Z</time>
      </trkpt>
      <trkpt lat="45.59891" lon="6.71192">
        <ele>1856</ele>
        <time>2021-02-13T09:50:27Z</time>
      </trkpt>
      <trkpt lat="45.59891" lon="6.71192">
        <ele>1856</ele>
        <time>2021-02-13T09:50:37Z</time>
      </trkpt>
      <trkpt lat="45.59891" lon="6.71192">
        <ele>1856</ele>
        <time>2021-02-13T09:50:47Z</time>
      </trkpt>
      <trkpt lat="45.59891" lon="6.71192">
        <ele>1856</ele>
        <time>2021-02-13T09:50:57Z</time>
      </trkpt>
      <trkpt lat="45.59891" lon="6.71192">
        <ele>1855</ele>
        <time>2021-02-13T09:51:07Z</time>
      </trkpt>
      <trkpt lat="45.59891" lon="6.71192">
        <ele>1855</ele>
        <time>2021-02-13T09:51:17Z</time>
      </trkpt>
      <trkpt lat="45.59891" lon="6.71192">
        <ele>1855</ele>
        <time>2021-02-13T09:51:27Z</time>
      </trkpt>
      <trkpt lat="45.59891" lon="6.71192">
        <ele>1855</ele>
        <time>2021-02-13T09:51:38Z</time>
      </trkpt>
      <trkpt lat="45.59891" lon="6.71192">
        <ele>1855</ele>
        <time>2021-02-13T09:51:47Z</time>
      </trkpt>
      <trkpt lat="45.59891" lon="6.71192">
        <ele>1855</ele>
        <time>2021-02-13T09:51:57Z</time>
      </trkpt>
      <trkpt lat="45.59891" lon="6.71192">
        <ele>1854</ele>
        <time>2021-02-13T09:52:07Z</time>
      </trkpt>
      <trkpt lat="45.59891" lon="6.71192">
        <ele>1854</ele>
        <time>2021-02-13T09:52:17Z</time>
      </trkpt>
      <trkpt lat="45.59891" lon="6.71192">
        <ele>1854</ele>
        <time>2021-02-13T09:52:27Z</time>
      </trkpt>
      <trkpt lat="45.59891" lon="6.71192">
        <ele>1855</ele>
        <time>2021-02-13T09:52:37Z</time>
      </trkpt>
      <trkpt lat="45.59891" lon="6.71192">
        <ele>1855</ele>
        <time>2021-02-13T09:52:47Z</time>
      </trkpt>
      <trkpt lat="45.59891" lon="6.71192">
        <ele>1855</ele>
        <time>2021-02-13T09:52:57Z</time>
      </trkpt>
      <trkpt lat="45.59891" lon="6.71192">
        <ele>1855</ele>
        <time>2021-02-13T09:53:07Z</time>
      </trkpt>
      <trkpt lat="45.59891" lon="6.71192">
        <ele>1855</ele>
        <time>2021-02-13T09:53:17Z</time>
      </trkpt>
      <trkpt lat="45.59891" lon="6.71192">
        <ele>1854</ele>
        <time>2021-02-13T09:53:27Z</time>
      </trkpt>
      <trkpt lat="45.59891" lon="6.71192">
        <ele>1854</ele>
        <time>2021-02-13T09:53:37Z</time>
      </trkpt>
      <trkpt lat="45.59891" lon="6.71192">
        <ele>1854</ele>
        <time>2021-02-13T09:53:47Z</time>
      </trkpt>
      <trkpt lat="45.59891" lon="6.71192">
        <ele>1854</ele>
        <time>2021-02-13T09:53:57Z</time>
      </trkpt>
      <trkpt lat="45.59891" lon="6.71192">
        <ele>1854</ele>
        <time>2021-02-13T09:54:07Z</time>
      </trkpt>
      <trkpt lat="45.59891" lon="6.71192">
        <ele>1854</ele>
        <time>2021-02-13T09:54:17Z</time>
      </trkpt>
      <trkpt lat="45.59891" lon="6.71192">
        <ele>1854</ele>
        <time>2021-02-13T09:54:27Z</time>
      </trkpt>
      <trkpt lat="45.59891" lon="6.71192">
        <ele>1854</ele>
        <time>2021-02-13T09:54:37Z</time>
      </trkpt>
      <trkpt lat="45.59891" lon="6.71192">
        <ele>1855</ele>
        <time>2021-02-13T09:54:48Z</time>
      </trkpt>
      <trkpt lat="45.59891" lon="6.71192">
        <ele>1855</ele>
        <time>2021-02-13T09:54:57Z</time>
      </trkpt>
      <trkpt lat="45.59891" lon="6.71192">
        <ele>1854</ele>
        <time>2021-02-13T09:55:07Z</time>
      </trkpt>
      <trkpt lat="45.59891" lon="6.71192">
        <ele>1854</ele>
        <time>2021-02-13T09:55:17Z</time>
      </trkpt>
      <trkpt lat="45.59891" lon="6.7119">
        <ele>1854</ele>
        <time>2021-02-13T09:55:25Z</time>
      </trkpt>
      <trkpt lat="45.59891" lon="6.7119">
        <ele>1854</ele>
        <time>2021-02-13T09:55:27Z</time>
      </trkpt>
      <trkpt lat="45.59893" lon="6.71188">
        <ele>1854</ele>
        <time>2021-02-13T09:55:29Z</time>
      </trkpt>
      <trkpt lat="45.59894" lon="6.71186">
        <ele>1854</ele>
        <time>2021-02-13T09:55:33Z</time>
      </trkpt>
      <trkpt lat="45.59894" lon="6.71186">
        <ele>1855</ele>
        <time>2021-02-13T09:55:37Z</time>
      </trkpt>
      <trkpt lat="45.59896" lon="6.71184">
        <ele>1855</ele>
        <time>2021-02-13T09:55:38Z</time>
      </trkpt>
      <trkpt lat="45.59897" lon="6.71182">
        <ele>1855</ele>
        <time>2021-02-13T09:55:43Z</time>
      </trkpt>
      <trkpt lat="45.59897" lon="6.71182">
        <ele>1856</ele>
        <time>2021-02-13T09:55:47Z</time>
      </trkpt>
      <trkpt lat="45.59899" lon="6.7118">
        <ele>1856</ele>
        <time>2021-02-13T09:55:48Z</time>
      </trkpt>
      <trkpt lat="45.599" lon="6.71178">
        <ele>1856</ele>
        <time>2021-02-13T09:55:53Z</time>
      </trkpt>
      <trkpt lat="45.599" lon="6.71178">
        <ele>1857</ele>
        <time>2021-02-13T09:55:57Z</time>
      </trkpt>
      <trkpt lat="45.59902" lon="6.71176">
        <ele>1857</ele>
        <time>2021-02-13T09:56:01Z</time>
      </trkpt>
      <trkpt lat="45.59903" lon="6.71174">
        <ele>1857</ele>
        <time>2021-02-13T09:56:05Z</time>
      </trkpt>
      <trkpt lat="45.59903" lon="6.71174">
        <ele>1857</ele>
        <time>2021-02-13T09:56:07Z</time>
      </trkpt>
      <trkpt lat="45.59905" lon="6.71171">
        <ele>1857</ele>
        <time>2021-02-13T09:56:10Z</time>
      </trkpt>
      <trkpt lat="45.59906" lon="6.71169">
        <ele>1857</ele>
        <time>2021-02-13T09:56:15Z</time>
      </trkpt>
      <trkpt lat="45.59906" lon="6.71169">
        <ele>1858</ele>
        <time>2021-02-13T09:56:17Z</time>
      </trkpt>
      <trkpt lat="45.59908" lon="6.71168">
        <ele>1858</ele>
        <time>2021-02-13T09:56:19Z</time>
      </trkpt>
      <trkpt lat="45.5991" lon="6.71167">
        <ele>1858</ele>
        <time>2021-02-13T09:56:24Z</time>
      </trkpt>
      <trkpt lat="45.5991" lon="6.71167">
        <ele>1858</ele>
        <time>2021-02-13T09:56:27Z</time>
      </trkpt>
      <trkpt lat="45.59912" lon="6.71165">
        <ele>1858</ele>
        <time>2021-02-13T09:56:28Z</time>
      </trkpt>
      <trkpt lat="45.59913" lon="6.71164">
        <ele>1858</ele>
        <time>2021-02-13T09:56:32Z</time>
      </trkpt>
      <trkpt lat="45.59915" lon="6.71163">
        <ele>1860</ele>
        <time>2021-02-13T09:56:37Z</time>
      </trkpt>
      <trkpt lat="45.59917" lon="6.71162">
        <ele>1860</ele>
        <time>2021-02-13T09:56:41Z</time>
      </trkpt>
      <trkpt lat="45.59919" lon="6.7116">
        <ele>1860</ele>
        <time>2021-02-13T09:56:46Z</time>
      </trkpt>
      <trkpt lat="45.59919" lon="6.7116">
        <ele>1860</ele>
        <time>2021-02-13T09:56:47Z</time>
      </trkpt>
      <trkpt lat="45.59921" lon="6.71159">
        <ele>1860</ele>
        <time>2021-02-13T09:56:52Z</time>
      </trkpt>
      <trkpt lat="45.59922" lon="6.71158">
        <ele>1861</ele>
        <time>2021-02-13T09:56:57Z</time>
      </trkpt>
      <trkpt lat="45.59924" lon="6.71156">
        <ele>1861</ele>
        <time>2021-02-13T09:57:02Z</time>
      </trkpt>
      <trkpt lat="45.59925" lon="6.71155">
        <ele>1863</ele>
        <time>2021-02-13T09:57:07Z</time>
      </trkpt>
      <trkpt lat="45.59927" lon="6.71153">
        <ele>1863</ele>
        <time>2021-02-13T09:57:12Z</time>
      </trkpt>
      <trkpt lat="45.59928" lon="6.71151">
        <ele>1864</ele>
        <time>2021-02-13T09:57:17Z</time>
      </trkpt>
      <trkpt lat="45.59929" lon="6.71148">
        <ele>1864</ele>
        <time>2021-02-13T09:57:23Z</time>
      </trkpt>
      <trkpt lat="45.59929" lon="6.71148">
        <ele>1864</ele>
        <time>2021-02-13T09:57:27Z</time>
      </trkpt>
      <trkpt lat="45.5993" lon="6.71146">
        <ele>1864</ele>
        <time>2021-02-13T09:57:29Z</time>
      </trkpt>
      <trkpt lat="45.59931" lon="6.71144">
        <ele>1864</ele>
        <time>2021-02-13T09:57:34Z</time>
      </trkpt>
      <trkpt lat="45.59931" lon="6.71144">
        <ele>1864</ele>
        <time>2021-02-13T09:57:37Z</time>
      </trkpt>
      <trkpt lat="45.59933" lon="6.71142">
        <ele>1864</ele>
        <time>2021-02-13T09:57:39Z</time>
      </trkpt>
      <trkpt lat="45.59934" lon="6.71141">
        <ele>1864</ele>
        <time>2021-02-13T09:57:46Z</time>
      </trkpt>
      <trkpt lat="45.59934" lon="6.71141">
        <ele>1866</ele>
        <time>2021-02-13T09:57:47Z</time>
      </trkpt>
      <trkpt lat="45.59936" lon="6.71139">
        <ele>1866</ele>
        <time>2021-02-13T09:57:53Z</time>
      </trkpt>
      <trkpt lat="45.59936" lon="6.71139">
        <ele>1867</ele>
        <time>2021-02-13T09:57:58Z</time>
      </trkpt>
      <trkpt lat="45.59938" lon="6.71138">
        <ele>1867</ele>
        <time>2021-02-13T09:58:03Z</time>
      </trkpt>
      <trkpt lat="45.59938" lon="6.71138">
        <ele>1868</ele>
        <time>2021-02-13T09:58:07Z</time>
      </trkpt>
      <trkpt lat="45.5994" lon="6.71137">
        <ele>1868</ele>
        <time>2021-02-13T09:58:09Z</time>
      </trkpt>
      <trkpt lat="45.59941" lon="6.71135">
        <ele>1868</ele>
        <time>2021-02-13T09:58:17Z</time>
      </trkpt>
      <trkpt lat="45.59943" lon="6.71134">
        <ele>1868</ele>
        <time>2021-02-13T09:58:23Z</time>
      </trkpt>
      <trkpt lat="45.59943" lon="6.71134">
        <ele>1869</ele>
        <time>2021-02-13T09:58:27Z</time>
      </trkpt>
      <trkpt lat="45.59945" lon="6.71132">
        <ele>1869</ele>
        <time>2021-02-13T09:58:29Z</time>
      </trkpt>
      <trkpt lat="45.59946" lon="6.71131">
        <ele>1869</ele>
        <time>2021-02-13T09:58:35Z</time>
      </trkpt>
      <trkpt lat="45.59946" lon="6.71131">
        <ele>1871</ele>
        <time>2021-02-13T09:58:37Z</time>
      </trkpt>
      <trkpt lat="45.59948" lon="6.71129">
        <ele>1871</ele>
        <time>2021-02-13T09:58:41Z</time>
      </trkpt>
      <trkpt lat="45.5995" lon="6.71127">
        <ele>1872</ele>
        <time>2021-02-13T09:58:47Z</time>
      </trkpt>
      <trkpt lat="45.59951" lon="6.71125">
        <ele>1872</ele>
        <time>2021-02-13T09:58:52Z</time>
      </trkpt>
      <trkpt lat="45.59952" lon="6.71123">
        <ele>1872</ele>
        <time>2021-02-13T09:58:56Z</time>
      </trkpt>
      <trkpt lat="45.59952" lon="6.71123">
        <ele>1873</ele>
        <time>2021-02-13T09:58:57Z</time>
      </trkpt>
      <trkpt lat="45.59954" lon="6.71119">
        <ele>1873</ele>
        <time>2021-02-13T09:59:01Z</time>
      </trkpt>
      <trkpt lat="45.59954" lon="6.71117">
        <ele>1873</ele>
        <time>2021-02-13T09:59:07Z</time>
      </trkpt>
      <trkpt lat="45.59955" lon="6.71115">
        <ele>1873</ele>
        <time>2021-02-13T09:59:12Z</time>
      </trkpt>
      <trkpt lat="45.59955" lon="6.71114">
        <ele>1873</ele>
        <time>2021-02-13T09:59:16Z</time>
      </trkpt>
      <trkpt lat="45.59955" lon="6.71112">
        <ele>1873</ele>
        <time>2021-02-13T09:59:17Z</time>
      </trkpt>
      <trkpt lat="45.59956" lon="6.71107">
        <ele>1873</ele>
        <time>2021-02-13T09:59:19Z</time>
      </trkpt>
      <trkpt lat="45.59956" lon="6.71105">
        <ele>1873</ele>
        <time>2021-02-13T09:59:23Z</time>
      </trkpt>
      <trkpt lat="45.59956" lon="6.71103">
        <ele>1873</ele>
        <time>2021-02-13T09:59:27Z</time>
      </trkpt>
      <trkpt lat="45.59956" lon="6.71102">
        <ele>1873</ele>
        <time>2021-02-13T09:59:31Z</time>
      </trkpt>
      <trkpt lat="45.59956" lon="6.711">
        <ele>1873</ele>
        <time>2021-02-13T09:59:36Z</time>
      </trkpt>
      <trkpt lat="45.59956" lon="6.71098">
        <ele>1873</ele>
        <time>2021-02-13T09:59:37Z</time>
      </trkpt>
      <trkpt lat="45.59957" lon="6.71095">
        <ele>1873</ele>
        <time>2021-02-13T09:59:41Z</time>
      </trkpt>
      <trkpt lat="45.59957" lon="6.71092">
        <ele>1873</ele>
        <time>2021-02-13T09:59:45Z</time>
      </trkpt>
      <trkpt lat="45.59957" lon="6.71092">
        <ele>1875</ele>
        <time>2021-02-13T09:59:47Z</time>
      </trkpt>
      <trkpt lat="45.59958" lon="6.71089">
        <ele>1875</ele>
        <time>2021-02-13T09:59:50Z</time>
      </trkpt>
      <trkpt lat="45.59958" lon="6.71087">
        <ele>1875</ele>
        <time>2021-02-13T09:59:54Z</time>
      </trkpt>
      <trkpt lat="45.59958" lon="6.71086">
        <ele>1876</ele>
        <time>2021-02-13T09:59:57Z</time>
      </trkpt>
      <trkpt lat="45.59959" lon="6.71085">
        <ele>1876</ele>
        <time>2021-02-13T10:00:00Z</time>
      </trkpt>
      <trkpt lat="45.59959" lon="6.71083">
        <ele>1876</ele>
        <time>2021-02-13T10:00:06Z</time>
      </trkpt>
      <trkpt lat="45.59959" lon="6.71082">
        <ele>1877</ele>
        <time>2021-02-13T10:00:07Z</time>
      </trkpt>
      <trkpt lat="45.5996" lon="6.71078">
        <ele>1877</ele>
        <time>2021-02-13T10:00:12Z</time>
      </trkpt>
      <trkpt lat="45.5996" lon="6.71076">
        <ele>1878</ele>
        <time>2021-02-13T10:00:17Z</time>
      </trkpt>
      <trkpt lat="45.5996" lon="6.71075">
        <ele>1878</ele>
        <time>2021-02-13T10:00:18Z</time>
      </trkpt>
      <trkpt lat="45.5996" lon="6.71074">
        <ele>1878</ele>
        <time>2021-02-13T10:00:24Z</time>
      </trkpt>
      <trkpt lat="45.5996" lon="6.71072">
        <ele>1879</ele>
        <time>2021-02-13T10:00:27Z</time>
      </trkpt>
      <trkpt lat="45.5996" lon="6.71071">
        <ele>1879</ele>
        <time>2021-02-13T10:00:30Z</time>
      </trkpt>
      <trkpt lat="45.59961" lon="6.7107">
        <ele>1879</ele>
        <time>2021-02-13T10:00:36Z</time>
      </trkpt>
      <trkpt lat="45.59961" lon="6.71068">
        <ele>1880</ele>
        <time>2021-02-13T10:00:37Z</time>
      </trkpt>
      <trkpt lat="45.59961" lon="6.71066">
        <ele>1880</ele>
        <time>2021-02-13T10:00:42Z</time>
      </trkpt>
      <trkpt lat="45.59961" lon="6.71066">
        <ele>1881</ele>
        <time>2021-02-13T10:00:47Z</time>
      </trkpt>
      <trkpt lat="45.59961" lon="6.71063">
        <ele>1881</ele>
        <time>2021-02-13T10:00:49Z</time>
      </trkpt>
      <trkpt lat="45.59962" lon="6.7106">
        <ele>1881</ele>
        <time>2021-02-13T10:00:55Z</time>
      </trkpt>
      <trkpt lat="45.59962" lon="6.7106">
        <ele>1883</ele>
        <time>2021-02-13T10:00:57Z</time>
      </trkpt>
      <trkpt lat="45.59962" lon="6.71057">
        <ele>1883</ele>
        <time>2021-02-13T10:01:00Z</time>
      </trkpt>
      <trkpt lat="45.59962" lon="6.71055">
        <ele>1883</ele>
        <time>2021-02-13T10:01:06Z</time>
      </trkpt>
      <trkpt lat="45.59962" lon="6.71055">
        <ele>1883</ele>
        <time>2021-02-13T10:01:08Z</time>
      </trkpt>
      <trkpt lat="45.59964" lon="6.71053">
        <ele>1883</ele>
        <time>2021-02-13T10:01:13Z</time>
      </trkpt>
      <trkpt lat="45.59964" lon="6.71053">
        <ele>1885</ele>
        <time>2021-02-13T10:01:17Z</time>
      </trkpt>
      <trkpt lat="45.59966" lon="6.71053">
        <ele>1885</ele>
        <time>2021-02-13T10:01:18Z</time>
      </trkpt>
      <trkpt lat="45.59968" lon="6.71052">
        <ele>1885</ele>
        <time>2021-02-13T10:01:23Z</time>
      </trkpt>
      <trkpt lat="45.59968" lon="6.71052">
        <ele>1886</ele>
        <time>2021-02-13T10:01:27Z</time>
      </trkpt>
      <trkpt lat="45.5997" lon="6.71051">
        <ele>1886</ele>
        <time>2021-02-13T10:01:28Z</time>
      </trkpt>
      <trkpt lat="45.59972" lon="6.7105">
        <ele>1886</ele>
        <time>2021-02-13T10:01:33Z</time>
      </trkpt>
      <trkpt lat="45.59972" lon="6.7105">
        <ele>1888</ele>
        <time>2021-02-13T10:01:37Z</time>
      </trkpt>
      <trkpt lat="45.59973" lon="6.71049">
        <ele>1888</ele>
        <time>2021-02-13T10:01:39Z</time>
      </trkpt>
      <trkpt lat="45.59975" lon="6.71047">
        <ele>1888</ele>
        <time>2021-02-13T10:01:44Z</time>
      </trkpt>
      <trkpt lat="45.59975" lon="6.71047">
        <ele>1888</ele>
        <time>2021-02-13T10:01:47Z</time>
      </trkpt>
      <trkpt lat="45.59976" lon="6.71045">
        <ele>1888</ele>
        <time>2021-02-13T10:01:49Z</time>
      </trkpt>
      <trkpt lat="45.59977" lon="6.71042">
        <ele>1888</ele>
        <time>2021-02-13T10:01:56Z</time>
      </trkpt>
      <trkpt lat="45.59977" lon="6.71042">
        <ele>1889</ele>
        <time>2021-02-13T10:01:57Z</time>
      </trkpt>
      <trkpt lat="45.59976" lon="6.71039">
        <ele>1889</ele>
        <time>2021-02-13T10:02:01Z</time>
      </trkpt>
      <trkpt lat="45.59976" lon="6.71036">
        <ele>1889</ele>
        <time>2021-02-13T10:02:06Z</time>
      </trkpt>
      <trkpt lat="45.59976" lon="6.71036">
        <ele>1890</ele>
        <time>2021-02-13T10:02:07Z</time>
      </trkpt>
      <trkpt lat="45.59976" lon="6.71032">
        <ele>1890</ele>
        <time>2021-02-13T10:02:11Z</time>
      </trkpt>
      <trkpt lat="45.59975" lon="6.71032">
        <ele>1890</ele>
        <time>2021-02-13T10:02:16Z</time>
      </trkpt>
      <trkpt lat="45.59975" lon="6.71031">
        <ele>1891</ele>
        <time>2021-02-13T10:02:17Z</time>
      </trkpt>
      <trkpt lat="45.59975" lon="6.71028">
        <ele>1891</ele>
        <time>2021-02-13T10:02:21Z</time>
      </trkpt>
      <trkpt lat="45.59975" lon="6.71025">
        <ele>1891</ele>
        <time>2021-02-13T10:02:26Z</time>
      </trkpt>
      <trkpt lat="45.59975" lon="6.71025">
        <ele>1892</ele>
        <time>2021-02-13T10:02:27Z</time>
      </trkpt>
      <trkpt lat="45.59974" lon="6.71021">
        <ele>1892</ele>
        <time>2021-02-13T10:02:31Z</time>
      </trkpt>
      <trkpt lat="45.59974" lon="6.7102">
        <ele>1892</ele>
        <time>2021-02-13T10:02:36Z</time>
      </trkpt>
      <trkpt lat="45.59974" lon="6.71019">
        <ele>1893</ele>
        <time>2021-02-13T10:02:37Z</time>
      </trkpt>
      <trkpt lat="45.59974" lon="6.71015">
        <ele>1893</ele>
        <time>2021-02-13T10:02:41Z</time>
      </trkpt>
      <trkpt lat="45.59974" lon="6.71014">
        <ele>1893</ele>
        <time>2021-02-13T10:02:46Z</time>
      </trkpt>
      <trkpt lat="45.59973" lon="6.71013">
        <ele>1894</ele>
        <time>2021-02-13T10:02:47Z</time>
      </trkpt>
      <trkpt lat="45.59973" lon="6.71009">
        <ele>1894</ele>
        <time>2021-02-13T10:02:51Z</time>
      </trkpt>
      <trkpt lat="45.59973" lon="6.71008">
        <ele>1894</ele>
        <time>2021-02-13T10:02:56Z</time>
      </trkpt>
      <trkpt lat="45.59973" lon="6.71007">
        <ele>1894</ele>
        <time>2021-02-13T10:02:57Z</time>
      </trkpt>
      <trkpt lat="45.59973" lon="6.71004">
        <ele>1894</ele>
        <time>2021-02-13T10:03:01Z</time>
      </trkpt>
      <trkpt lat="45.59973" lon="6.71001">
        <ele>1894</ele>
        <time>2021-02-13T10:03:06Z</time>
      </trkpt>
      <trkpt lat="45.59973" lon="6.71001">
        <ele>1895</ele>
        <time>2021-02-13T10:03:07Z</time>
      </trkpt>
      <trkpt lat="45.59974" lon="6.70997">
        <ele>1895</ele>
        <time>2021-02-13T10:03:11Z</time>
      </trkpt>
      <trkpt lat="45.59974" lon="6.70996">
        <ele>1895</ele>
        <time>2021-02-13T10:03:16Z</time>
      </trkpt>
      <trkpt lat="45.59974" lon="6.70995">
        <ele>1896</ele>
        <time>2021-02-13T10:03:17Z</time>
      </trkpt>
      <trkpt lat="45.59974" lon="6.70993">
        <ele>1896</ele>
        <time>2021-02-13T10:03:21Z</time>
      </trkpt>
      <trkpt lat="45.59974" lon="6.7099">
        <ele>1896</ele>
        <time>2021-02-13T10:03:26Z</time>
      </trkpt>
      <trkpt lat="45.59974" lon="6.7099">
        <ele>1898</ele>
        <time>2021-02-13T10:03:27Z</time>
      </trkpt>
      <trkpt lat="45.59974" lon="6.70987">
        <ele>1898</ele>
        <time>2021-02-13T10:03:31Z</time>
      </trkpt>
      <trkpt lat="45.59975" lon="6.70984">
        <ele>1898</ele>
        <time>2021-02-13T10:03:36Z</time>
      </trkpt>
      <trkpt lat="45.59975" lon="6.70984">
        <ele>1898</ele>
        <time>2021-02-13T10:03:37Z</time>
      </trkpt>
      <trkpt lat="45.59975" lon="6.70981">
        <ele>1898</ele>
        <time>2021-02-13T10:03:41Z</time>
      </trkpt>
      <trkpt lat="45.59976" lon="6.7098">
        <ele>1898</ele>
        <time>2021-02-13T10:03:46Z</time>
      </trkpt>
      <trkpt lat="45.59976" lon="6.70979">
        <ele>1899</ele>
        <time>2021-02-13T10:03:47Z</time>
      </trkpt>
      <trkpt lat="45.59976" lon="6.70976">
        <ele>1899</ele>
        <time>2021-02-13T10:03:51Z</time>
      </trkpt>
      <trkpt lat="45.59977" lon="6.70974">
        <ele>1899</ele>
        <time>2021-02-13T10:03:56Z</time>
      </trkpt>
      <trkpt lat="45.59977" lon="6.70974">
        <ele>1900</ele>
        <time>2021-02-13T10:03:57Z</time>
      </trkpt>
      <trkpt lat="45.59978" lon="6.7097">
        <ele>1900</ele>
        <time>2021-02-13T10:04:01Z</time>
      </trkpt>
      <trkpt lat="45.59979" lon="6.70969">
        <ele>1900</ele>
        <time>2021-02-13T10:04:06Z</time>
      </trkpt>
      <trkpt lat="45.59979" lon="6.70968">
        <ele>1902</ele>
        <time>2021-02-13T10:04:07Z</time>
      </trkpt>
      <trkpt lat="45.59981" lon="6.70967">
        <ele>1902</ele>
        <time>2021-02-13T10:04:12Z</time>
      </trkpt>
      <trkpt lat="45.59983" lon="6.70966">
        <ele>1902</ele>
        <time>2021-02-13T10:04:17Z</time>
      </trkpt>
      <trkpt lat="45.59983" lon="6.70966">
        <ele>1902</ele>
        <time>2021-02-13T10:04:18Z</time>
      </trkpt>
      <trkpt lat="45.59985" lon="6.70966">
        <ele>1902</ele>
        <time>2021-02-13T10:04:22Z</time>
      </trkpt>
      <trkpt lat="45.59987" lon="6.70967">
        <ele>1904</ele>
        <time>2021-02-13T10:04:27Z</time>
      </trkpt>
      <trkpt lat="45.59989" lon="6.70968">
        <ele>1904</ele>
        <time>2021-02-13T10:04:32Z</time>
      </trkpt>
      <trkpt lat="45.5999" lon="6.70969">
        <ele>1905</ele>
        <time>2021-02-13T10:04:37Z</time>
      </trkpt>
      <trkpt lat="45.59992" lon="6.70971">
        <ele>1905</ele>
        <time>2021-02-13T10:04:43Z</time>
      </trkpt>
      <trkpt lat="45.59992" lon="6.70971">
        <ele>1906</ele>
        <time>2021-02-13T10:04:47Z</time>
      </trkpt>
      <trkpt lat="45.59994" lon="6.70972">
        <ele>1906</ele>
        <time>2021-02-13T10:04:49Z</time>
      </trkpt>
      <trkpt lat="45.59996" lon="6.70973">
        <ele>1906</ele>
        <time>2021-02-13T10:04:54Z</time>
      </trkpt>
      <trkpt lat="45.59996" lon="6.70973">
        <ele>1907</ele>
        <time>2021-02-13T10:04:57Z</time>
      </trkpt>
      <trkpt lat="45.59998" lon="6.70974">
        <ele>1907</ele>
        <time>2021-02-13T10:05:00Z</time>
      </trkpt>
      <trkpt lat="45.59999" lon="6.70976">
        <ele>1907</ele>
        <time>2021-02-13T10:05:06Z</time>
      </trkpt>
      <trkpt lat="45.59999" lon="6.70976">
        <ele>1909</ele>
        <time>2021-02-13T10:05:07Z</time>
      </trkpt>
      <trkpt lat="45.60001" lon="6.70977">
        <ele>1909</ele>
        <time>2021-02-13T10:05:12Z</time>
      </trkpt>
      <trkpt lat="45.60001" lon="6.70977">
        <ele>1909</ele>
        <time>2021-02-13T10:05:17Z</time>
      </trkpt>
      <trkpt lat="45.60003" lon="6.70978">
        <ele>1909</ele>
        <time>2021-02-13T10:05:18Z</time>
      </trkpt>
      <trkpt lat="45.60005" lon="6.70979">
        <ele>1909</ele>
        <time>2021-02-13T10:05:23Z</time>
      </trkpt>
      <trkpt lat="45.60005" lon="6.70979">
        <ele>1910</ele>
        <time>2021-02-13T10:05:27Z</time>
      </trkpt>
      <trkpt lat="45.60006" lon="6.7098">
        <ele>1910</ele>
        <time>2021-02-13T10:05:28Z</time>
      </trkpt>
      <trkpt lat="45.60008" lon="6.70981">
        <ele>1910</ele>
        <time>2021-02-13T10:05:33Z</time>
      </trkpt>
      <trkpt lat="45.60008" lon="6.70981">
        <ele>1912</ele>
        <time>2021-02-13T10:05:37Z</time>
      </trkpt>
      <trkpt lat="45.6001" lon="6.70982">
        <ele>1912</ele>
        <time>2021-02-13T10:05:39Z</time>
      </trkpt>
      <trkpt lat="45.60012" lon="6.70983">
        <ele>1912</ele>
        <time>2021-02-13T10:05:44Z</time>
      </trkpt>
      <trkpt lat="45.60012" lon="6.70983">
        <ele>1913</ele>
        <time>2021-02-13T10:05:47Z</time>
      </trkpt>
      <trkpt lat="45.60014" lon="6.70983">
        <ele>1913</ele>
        <time>2021-02-13T10:05:50Z</time>
      </trkpt>
      <trkpt lat="45.60016" lon="6.70983">
        <ele>1913</ele>
        <time>2021-02-13T10:05:55Z</time>
      </trkpt>
      <trkpt lat="45.60016" lon="6.70983">
        <ele>1914</ele>
        <time>2021-02-13T10:05:57Z</time>
      </trkpt>
      <trkpt lat="45.60017" lon="6.70981">
        <ele>1914</ele>
        <time>2021-02-13T10:06:02Z</time>
      </trkpt>
      <trkpt lat="45.60018" lon="6.70979">
        <ele>1915</ele>
        <time>2021-02-13T10:06:07Z</time>
      </trkpt>
      <trkpt lat="45.60019" lon="6.70976">
        <ele>1915</ele>
        <time>2021-02-13T10:06:12Z</time>
      </trkpt>
      <trkpt lat="45.60019" lon="6.70973">
        <ele>1916</ele>
        <time>2021-02-13T10:06:17Z</time>
      </trkpt>
      <trkpt lat="45.6002" lon="6.70971">
        <ele>1916</ele>
        <time>2021-02-13T10:06:22Z</time>
      </trkpt>
      <trkpt lat="45.60021" lon="6.70968">
        <ele>1917</ele>
        <time>2021-02-13T10:06:27Z</time>
      </trkpt>
      <trkpt lat="45.60022" lon="6.70966">
        <ele>1917</ele>
        <time>2021-02-13T10:06:32Z</time>
      </trkpt>
      <trkpt lat="45.60023" lon="6.70963">
        <ele>1918</ele>
        <time>2021-02-13T10:06:37Z</time>
      </trkpt>
      <trkpt lat="45.60024" lon="6.7096">
        <ele>1918</ele>
        <time>2021-02-13T10:06:42Z</time>
      </trkpt>
      <trkpt lat="45.60025" lon="6.70958">
        <ele>1918</ele>
        <time>2021-02-13T10:06:46Z</time>
      </trkpt>
      <trkpt lat="45.60025" lon="6.70958">
        <ele>1919</ele>
        <time>2021-02-13T10:06:47Z</time>
      </trkpt>
      <trkpt lat="45.60025" lon="6.70955">
        <ele>1919</ele>
        <time>2021-02-13T10:06:50Z</time>
      </trkpt>
      <trkpt lat="45.60026" lon="6.70953">
        <ele>1919</ele>
        <time>2021-02-13T10:06:55Z</time>
      </trkpt>
      <trkpt lat="45.60026" lon="6.70953">
        <ele>1920</ele>
        <time>2021-02-13T10:06:57Z</time>
      </trkpt>
      <trkpt lat="45.60027" lon="6.7095">
        <ele>1920</ele>
        <time>2021-02-13T10:07:00Z</time>
      </trkpt>
      <trkpt lat="45.60027" lon="6.70947">
        <ele>1920</ele>
        <time>2021-02-13T10:07:05Z</time>
      </trkpt>
      <trkpt lat="45.60027" lon="6.70947">
        <ele>1920</ele>
        <time>2021-02-13T10:07:07Z</time>
      </trkpt>
      <trkpt lat="45.60028" lon="6.70944">
        <ele>1920</ele>
        <time>2021-02-13T10:07:10Z</time>
      </trkpt>
      <trkpt lat="45.60028" lon="6.70941">
        <ele>1920</ele>
        <time>2021-02-13T10:07:15Z</time>
      </trkpt>
      <trkpt lat="45.60028" lon="6.70941">
        <ele>1922</ele>
        <time>2021-02-13T10:07:17Z</time>
      </trkpt>
      <trkpt lat="45.60029" lon="6.70938">
        <ele>1922</ele>
        <time>2021-02-13T10:07:21Z</time>
      </trkpt>
      <trkpt lat="45.60029" lon="6.70936">
        <ele>1922</ele>
        <time>2021-02-13T10:07:26Z</time>
      </trkpt>
      <trkpt lat="45.60029" lon="6.70936">
        <ele>1923</ele>
        <time>2021-02-13T10:07:28Z</time>
      </trkpt>
      <trkpt lat="45.60029" lon="6.70933">
        <ele>1923</ele>
        <time>2021-02-13T10:07:32Z</time>
      </trkpt>
      <trkpt lat="45.6003" lon="6.7093">
        <ele>1924</ele>
        <time>2021-02-13T10:07:37Z</time>
      </trkpt>
      <trkpt lat="45.6003" lon="6.70927">
        <ele>1924</ele>
        <time>2021-02-13T10:07:42Z</time>
      </trkpt>
      <trkpt lat="45.6003" lon="6.70924">
        <ele>1926</ele>
        <time>2021-02-13T10:07:47Z</time>
      </trkpt>
      <trkpt lat="45.6003" lon="6.70921">
        <ele>1926</ele>
        <time>2021-02-13T10:07:52Z</time>
      </trkpt>
      <trkpt lat="45.60031" lon="6.70919">
        <ele>1926</ele>
        <time>2021-02-13T10:07:57Z</time>
      </trkpt>
      <trkpt lat="45.60031" lon="6.70916">
        <ele>1926</ele>
        <time>2021-02-13T10:08:01Z</time>
      </trkpt>
      <trkpt lat="45.60032" lon="6.70913">
        <ele>1926</ele>
        <time>2021-02-13T10:08:06Z</time>
      </trkpt>
      <trkpt lat="45.60032" lon="6.70913">
        <ele>1928</ele>
        <time>2021-02-13T10:08:07Z</time>
      </trkpt>
      <trkpt lat="45.60033" lon="6.70911">
        <ele>1928</ele>
        <time>2021-02-13T10:08:11Z</time>
      </trkpt>
      <trkpt lat="45.60035" lon="6.70909">
        <ele>1928</ele>
        <time>2021-02-13T10:08:15Z</time>
      </trkpt>
      <trkpt lat="45.60035" lon="6.70909">
        <ele>1928</ele>
        <time>2021-02-13T10:08:17Z</time>
      </trkpt>
      <trkpt lat="45.60036" lon="6.70908">
        <ele>1928</ele>
        <time>2021-02-13T10:08:19Z</time>
      </trkpt>
      <trkpt lat="45.60038" lon="6.70907">
        <ele>1928</ele>
        <time>2021-02-13T10:08:23Z</time>
      </trkpt>
      <trkpt lat="45.6004" lon="6.70907">
        <ele>1929</ele>
        <time>2021-02-13T10:08:27Z</time>
      </trkpt>
      <trkpt lat="45.60042" lon="6.70906">
        <ele>1929</ele>
        <time>2021-02-13T10:08:31Z</time>
      </trkpt>
      <trkpt lat="45.60044" lon="6.70906">
        <ele>1929</ele>
        <time>2021-02-13T10:08:35Z</time>
      </trkpt>
      <trkpt lat="45.60044" lon="6.70906">
        <ele>1930</ele>
        <time>2021-02-13T10:08:37Z</time>
      </trkpt>
      <trkpt lat="45.60046" lon="6.70906">
        <ele>1930</ele>
        <time>2021-02-13T10:08:39Z</time>
      </trkpt>
      <trkpt lat="45.60048" lon="6.70905">
        <ele>1930</ele>
        <time>2021-02-13T10:08:43Z</time>
      </trkpt>
      <trkpt lat="45.6005" lon="6.70905">
        <ele>1931</ele>
        <time>2021-02-13T10:08:47Z</time>
      </trkpt>
      <trkpt lat="45.60052" lon="6.70904">
        <ele>1931</ele>
        <time>2021-02-13T10:08:51Z</time>
      </trkpt>
      <trkpt lat="45.60054" lon="6.70904">
        <ele>1931</ele>
        <time>2021-02-13T10:08:55Z</time>
      </trkpt>
      <trkpt lat="45.60054" lon="6.70904">
        <ele>1933</ele>
        <time>2021-02-13T10:08:57Z</time>
      </trkpt>
      <trkpt lat="45.60056" lon="6.70903">
        <ele>1933</ele>
        <time>2021-02-13T10:08:59Z</time>
      </trkpt>
      <trkpt lat="45.60058" lon="6.70902">
        <ele>1933</ele>
        <time>2021-02-13T10:09:03Z</time>
      </trkpt>
      <trkpt lat="45.6006" lon="6.70901">
        <ele>1933</ele>
        <time>2021-02-13T10:09:07Z</time>
      </trkpt>
      <trkpt lat="45.60062" lon="6.709">
        <ele>1933</ele>
        <time>2021-02-13T10:09:11Z</time>
      </trkpt>
      <trkpt lat="45.60064" lon="6.709">
        <ele>1933</ele>
        <time>2021-02-13T10:09:15Z</time>
      </trkpt>
      <trkpt lat="45.60064" lon="6.709">
        <ele>1934</ele>
        <time>2021-02-13T10:09:17Z</time>
      </trkpt>
      <trkpt lat="45.60066" lon="6.70899">
        <ele>1934</ele>
        <time>2021-02-13T10:09:19Z</time>
      </trkpt>
      <trkpt lat="45.60068" lon="6.70899">
        <ele>1934</ele>
        <time>2021-02-13T10:09:24Z</time>
      </trkpt>
      <trkpt lat="45.60068" lon="6.70899">
        <ele>1935</ele>
        <time>2021-02-13T10:09:27Z</time>
      </trkpt>
      <trkpt lat="45.6007" lon="6.70899">
        <ele>1935</ele>
        <time>2021-02-13T10:09:29Z</time>
      </trkpt>
      <trkpt lat="45.60072" lon="6.709">
        <ele>1935</ele>
        <time>2021-02-13T10:09:35Z</time>
      </trkpt>
      <trkpt lat="45.60072" lon="6.709">
        <ele>1936</ele>
        <time>2021-02-13T10:09:37Z</time>
      </trkpt>
      <trkpt lat="45.60074" lon="6.70899">
        <ele>1936</ele>
        <time>2021-02-13T10:09:41Z</time>
      </trkpt>
      <trkpt lat="45.60076" lon="6.70898">
        <ele>1936</ele>
        <time>2021-02-13T10:09:46Z</time>
      </trkpt>
      <trkpt lat="45.60076" lon="6.70898">
        <ele>1937</ele>
        <time>2021-02-13T10:09:47Z</time>
      </trkpt>
      <trkpt lat="45.60078" lon="6.70897">
        <ele>1937</ele>
        <time>2021-02-13T10:09:50Z</time>
      </trkpt>
      <trkpt lat="45.6008" lon="6.70896">
        <ele>1937</ele>
        <time>2021-02-13T10:09:54Z</time>
      </trkpt>
      <trkpt lat="45.6008" lon="6.70896">
        <ele>1938</ele>
        <time>2021-02-13T10:09:57Z</time>
      </trkpt>
      <trkpt lat="45.60082" lon="6.70897">
        <ele>1938</ele>
        <time>2021-02-13T10:09:58Z</time>
      </trkpt>
      <trkpt lat="45.60083" lon="6.70899">
        <ele>1938</ele>
        <time>2021-02-13T10:10:02Z</time>
      </trkpt>
      <trkpt lat="45.60085" lon="6.70901">
        <ele>1938</ele>
        <time>2021-02-13T10:10:07Z</time>
      </trkpt>
      <trkpt lat="45.60086" lon="6.70903">
        <ele>1938</ele>
        <time>2021-02-13T10:10:13Z</time>
      </trkpt>
      <trkpt lat="45.60086" lon="6.70903">
        <ele>1939</ele>
        <time>2021-02-13T10:10:17Z</time>
      </trkpt>
      <trkpt lat="45.60087" lon="6.70905">
        <ele>1939</ele>
        <time>2021-02-13T10:10:18Z</time>
      </trkpt>
      <trkpt lat="45.60089" lon="6.70907">
        <ele>1939</ele>
        <time>2021-02-13T10:10:23Z</time>
      </trkpt>
      <trkpt lat="45.60089" lon="6.70907">
        <ele>1940</ele>
        <time>2021-02-13T10:10:27Z</time>
      </trkpt>
      <trkpt lat="45.6009" lon="6.70909">
        <ele>1940</ele>
        <time>2021-02-13T10:10:28Z</time>
      </trkpt>
      <trkpt lat="45.60091" lon="6.70911">
        <ele>1940</ele>
        <time>2021-02-13T10:10:33Z</time>
      </trkpt>
      <trkpt lat="45.60093" lon="6.70914">
        <ele>1941</ele>
        <time>2021-02-13T10:10:38Z</time>
      </trkpt>
      <trkpt lat="45.60094" lon="6.70916">
        <ele>1941</ele>
        <time>2021-02-13T10:10:44Z</time>
      </trkpt>
      <trkpt lat="45.60094" lon="6.70916">
        <ele>1943</ele>
        <time>2021-02-13T10:10:47Z</time>
      </trkpt>
      <trkpt lat="45.60096" lon="6.70918">
        <ele>1943</ele>
        <time>2021-02-13T10:10:49Z</time>
      </trkpt>
      <trkpt lat="45.60097" lon="6.7092">
        <ele>1943</ele>
        <time>2021-02-13T10:10:54Z</time>
      </trkpt>
      <trkpt lat="45.60097" lon="6.7092">
        <ele>1943</ele>
        <time>2021-02-13T10:10:57Z</time>
      </trkpt>
      <trkpt lat="45.60098" lon="6.70922">
        <ele>1943</ele>
        <time>2021-02-13T10:11:00Z</time>
      </trkpt>
      <trkpt lat="45.601" lon="6.70925">
        <ele>1943</ele>
        <time>2021-02-13T10:11:05Z</time>
      </trkpt>
      <trkpt lat="45.601" lon="6.70925">
        <ele>1944</ele>
        <time>2021-02-13T10:11:07Z</time>
      </trkpt>
      <trkpt lat="45.60102" lon="6.70928">
        <ele>1944</ele>
        <time>2021-02-13T10:11:09Z</time>
      </trkpt>
      <trkpt lat="45.60104" lon="6.70928">
        <ele>1944</ele>
        <time>2021-02-13T10:11:13Z</time>
      </trkpt>
      <trkpt lat="45.60105" lon="6.70929">
        <ele>1945</ele>
        <time>2021-02-13T10:11:17Z</time>
      </trkpt>
      <trkpt lat="45.60106" lon="6.7093">
        <ele>1945</ele>
        <time>2021-02-13T10:11:18Z</time>
      </trkpt>
      <trkpt lat="45.60107" lon="6.7093">
        <ele>1945</ele>
        <time>2021-02-13T10:11:23Z</time>
      </trkpt>
      <trkpt lat="45.60109" lon="6.70931">
        <ele>1946</ele>
        <time>2021-02-13T10:11:27Z</time>
      </trkpt>
      <trkpt lat="45.6011" lon="6.70932">
        <ele>1946</ele>
        <time>2021-02-13T10:11:32Z</time>
      </trkpt>
      <trkpt lat="45.60111" lon="6.70932">
        <ele>1946</ele>
        <time>2021-02-13T10:11:36Z</time>
      </trkpt>
      <trkpt lat="45.60112" lon="6.70933">
        <ele>1947</ele>
        <time>2021-02-13T10:11:37Z</time>
      </trkpt>
      <trkpt lat="45.60114" lon="6.70935">
        <ele>1947</ele>
        <time>2021-02-13T10:11:40Z</time>
      </trkpt>
      <trkpt lat="45.60116" lon="6.70936">
        <ele>1947</ele>
        <time>2021-02-13T10:11:45Z</time>
      </trkpt>
      <trkpt lat="45.60116" lon="6.70936">
        <ele>1948</ele>
        <time>2021-02-13T10:11:47Z</time>
      </trkpt>
      <trkpt lat="45.60117" lon="6.70938">
        <ele>1948</ele>
        <time>2021-02-13T10:11:50Z</time>
      </trkpt>
      <trkpt lat="45.60119" lon="6.7094">
        <ele>1948</ele>
        <time>2021-02-13T10:11:55Z</time>
      </trkpt>
      <trkpt lat="45.60119" lon="6.7094">
        <ele>1949</ele>
        <time>2021-02-13T10:11:57Z</time>
      </trkpt>
      <trkpt lat="45.6012" lon="6.70942">
        <ele>1949</ele>
        <time>2021-02-13T10:11:59Z</time>
      </trkpt>
      <trkpt lat="45.60122" lon="6.70944">
        <ele>1949</ele>
        <time>2021-02-13T10:12:04Z</time>
      </trkpt>
      <trkpt lat="45.60122" lon="6.70944">
        <ele>1950</ele>
        <time>2021-02-13T10:12:07Z</time>
      </trkpt>
      <trkpt lat="45.60123" lon="6.70946">
        <ele>1950</ele>
        <time>2021-02-13T10:12:09Z</time>
      </trkpt>
      <trkpt lat="45.60125" lon="6.70948">
        <ele>1950</ele>
        <time>2021-02-13T10:12:15Z</time>
      </trkpt>
      <trkpt lat="45.60125" lon="6.70948">
        <ele>1951</ele>
        <time>2021-02-13T10:12:17Z</time>
      </trkpt>
      <trkpt lat="45.60127" lon="6.70951">
        <ele>1951</ele>
        <time>2021-02-13T10:12:21Z</time>
      </trkpt>
      <trkpt lat="45.60128" lon="6.70951">
        <ele>1951</ele>
        <time>2021-02-13T10:12:26Z</time>
      </trkpt>
      <trkpt lat="45.60128" lon="6.70952">
        <ele>1952</ele>
        <time>2021-02-13T10:12:27Z</time>
      </trkpt>
      <trkpt lat="45.6013" lon="6.70954">
        <ele>1952</ele>
        <time>2021-02-13T10:12:31Z</time>
      </trkpt>
      <trkpt lat="45.60132" lon="6.70955">
        <ele>1952</ele>
        <time>2021-02-13T10:12:36Z</time>
      </trkpt>
      <trkpt lat="45.60132" lon="6.70955">
        <ele>1953</ele>
        <time>2021-02-13T10:12:37Z</time>
      </trkpt>
      <trkpt lat="45.60134" lon="6.70957">
        <ele>1953</ele>
        <time>2021-02-13T10:12:42Z</time>
      </trkpt>
      <trkpt lat="45.60135" lon="6.70958">
        <ele>1954</ele>
        <time>2021-02-13T10:12:47Z</time>
      </trkpt>
      <trkpt lat="45.60137" lon="6.7096">
        <ele>1954</ele>
        <time>2021-02-13T10:12:53Z</time>
      </trkpt>
      <trkpt lat="45.60137" lon="6.7096">
        <ele>1955</ele>
        <time>2021-02-13T10:12:57Z</time>
      </trkpt>
      <trkpt lat="45.60139" lon="6.70961">
        <ele>1955</ele>
        <time>2021-02-13T10:12:58Z</time>
      </trkpt>
      <trkpt lat="45.60141" lon="6.70963">
        <ele>1955</ele>
        <time>2021-02-13T10:13:04Z</time>
      </trkpt>
      <trkpt lat="45.60141" lon="6.70963">
        <ele>1956</ele>
        <time>2021-02-13T10:13:07Z</time>
      </trkpt>
      <trkpt lat="45.60142" lon="6.70964">
        <ele>1956</ele>
        <time>2021-02-13T10:13:09Z</time>
      </trkpt>
      <trkpt lat="45.60144" lon="6.70965">
        <ele>1956</ele>
        <time>2021-02-13T10:13:14Z</time>
      </trkpt>
      <trkpt lat="45.60144" lon="6.70965">
        <ele>1957</ele>
        <time>2021-02-13T10:13:17Z</time>
      </trkpt>
      <trkpt lat="45.60145" lon="6.70966">
        <ele>1957</ele>
        <time>2021-02-13T10:13:19Z</time>
      </trkpt>
      <trkpt lat="45.60147" lon="6.70968">
        <ele>1957</ele>
        <time>2021-02-13T10:13:24Z</time>
      </trkpt>
      <trkpt lat="45.60147" lon="6.70968">
        <ele>1959</ele>
        <time>2021-02-13T10:13:27Z</time>
      </trkpt>
      <trkpt lat="45.60149" lon="6.70969">
        <ele>1959</ele>
        <time>2021-02-13T10:13:28Z</time>
      </trkpt>
      <trkpt lat="45.60151" lon="6.70971">
        <ele>1959</ele>
        <time>2021-02-13T10:13:33Z</time>
      </trkpt>
      <trkpt lat="45.60151" lon="6.70971">
        <ele>1960</ele>
        <time>2021-02-13T10:13:37Z</time>
      </trkpt>
      <trkpt lat="45.60153" lon="6.70972">
        <ele>1960</ele>
        <time>2021-02-13T10:13:38Z</time>
      </trkpt>
      <trkpt lat="45.60154" lon="6.70973">
        <ele>1960</ele>
        <time>2021-02-13T10:13:43Z</time>
      </trkpt>
      <trkpt lat="45.60154" lon="6.70973">
        <ele>1960</ele>
        <time>2021-02-13T10:13:47Z</time>
      </trkpt>
      <trkpt lat="45.60156" lon="6.70975">
        <ele>1960</ele>
        <time>2021-02-13T10:13:49Z</time>
      </trkpt>
      <trkpt lat="45.60158" lon="6.70976">
        <ele>1960</ele>
        <time>2021-02-13T10:13:55Z</time>
      </trkpt>
      <trkpt lat="45.60158" lon="6.70976">
        <ele>1963</ele>
        <time>2021-02-13T10:13:57Z</time>
      </trkpt>
      <trkpt lat="45.6016" lon="6.70977">
        <ele>1963</ele>
        <time>2021-02-13T10:14:00Z</time>
      </trkpt>
      <trkpt lat="45.60162" lon="6.70978">
        <ele>1963</ele>
        <time>2021-02-13T10:14:05Z</time>
      </trkpt>
      <trkpt lat="45.60162" lon="6.70978">
        <ele>1963</ele>
        <time>2021-02-13T10:14:07Z</time>
      </trkpt>
      <trkpt lat="45.60163" lon="6.70979">
        <ele>1963</ele>
        <time>2021-02-13T10:14:10Z</time>
      </trkpt>
      <trkpt lat="45.60166" lon="6.70979">
        <ele>1963</ele>
        <time>2021-02-13T10:14:15Z</time>
      </trkpt>
      <trkpt lat="45.60166" lon="6.70979">
        <ele>1964</ele>
        <time>2021-02-13T10:14:17Z</time>
      </trkpt>
      <trkpt lat="45.60168" lon="6.7098">
        <ele>1964</ele>
        <time>2021-02-13T10:14:20Z</time>
      </trkpt>
      <trkpt lat="45.6017" lon="6.7098">
        <ele>1964</ele>
        <time>2021-02-13T10:14:25Z</time>
      </trkpt>
      <trkpt lat="45.6017" lon="6.7098">
        <ele>1965</ele>
        <time>2021-02-13T10:14:27Z</time>
      </trkpt>
      <trkpt lat="45.60172" lon="6.7098">
        <ele>1965</ele>
        <time>2021-02-13T10:14:30Z</time>
      </trkpt>
      <trkpt lat="45.60174" lon="6.7098">
        <ele>1965</ele>
        <time>2021-02-13T10:14:35Z</time>
      </trkpt>
      <trkpt lat="45.60174" lon="6.7098">
        <ele>1967</ele>
        <time>2021-02-13T10:14:37Z</time>
      </trkpt>
      <trkpt lat="45.60176" lon="6.7098">
        <ele>1967</ele>
        <time>2021-02-13T10:14:40Z</time>
      </trkpt>
      <trkpt lat="45.60178" lon="6.70979">
        <ele>1967</ele>
        <time>2021-02-13T10:14:45Z</time>
      </trkpt>
      <trkpt lat="45.60178" lon="6.70979">
        <ele>1968</ele>
        <time>2021-02-13T10:14:47Z</time>
      </trkpt>
      <trkpt lat="45.6018" lon="6.70979">
        <ele>1968</ele>
        <time>2021-02-13T10:14:50Z</time>
      </trkpt>
      <trkpt lat="45.60182" lon="6.70978">
        <ele>1968</ele>
        <time>2021-02-13T10:14:55Z</time>
      </trkpt>
      <trkpt lat="45.60182" lon="6.70978">
        <ele>1968</ele>
        <time>2021-02-13T10:14:57Z</time>
      </trkpt>
      <trkpt lat="45.60185" lon="6.70977">
        <ele>1968</ele>
        <time>2021-02-13T10:15:00Z</time>
      </trkpt>
      <trkpt lat="45.60186" lon="6.70977">
        <ele>1968</ele>
        <time>2021-02-13T10:15:04Z</time>
      </trkpt>
      <trkpt lat="45.60187" lon="6.70977">
        <ele>1969</ele>
        <time>2021-02-13T10:15:07Z</time>
      </trkpt>
      <trkpt lat="45.60189" lon="6.70976">
        <ele>1969</ele>
        <time>2021-02-13T10:15:08Z</time>
      </trkpt>
      <trkpt lat="45.6019" lon="6.70976">
        <ele>1969</ele>
        <time>2021-02-13T10:15:13Z</time>
      </trkpt>
      <trkpt lat="45.60191" lon="6.70976">
        <ele>1969</ele>
        <time>2021-02-13T10:15:17Z</time>
      </trkpt>
      <trkpt lat="45.60192" lon="6.70976">
        <ele>1969</ele>
        <time>2021-02-13T10:15:18Z</time>
      </trkpt>
      <trkpt lat="45.60194" lon="6.70976">
        <ele>1969</ele>
        <time>2021-02-13T10:15:23Z</time>
      </trkpt>
      <trkpt lat="45.60195" lon="6.70976">
        <ele>1971</ele>
        <time>2021-02-13T10:15:27Z</time>
      </trkpt>
      <trkpt lat="45.60196" lon="6.70975">
        <ele>1971</ele>
        <time>2021-02-13T10:15:28Z</time>
      </trkpt>
      <trkpt lat="45.60197" lon="6.70975">
        <ele>1971</ele>
        <time>2021-02-13T10:15:32Z</time>
      </trkpt>
      <trkpt lat="45.60199" lon="6.70975">
        <ele>1971</ele>
        <time>2021-02-13T10:15:36Z</time>
      </trkpt>
      <trkpt lat="45.602" lon="6.70975">
        <ele>1972</ele>
        <time>2021-02-13T10:15:37Z</time>
      </trkpt>
      <trkpt lat="45.60203" lon="6.70975">
        <ele>1972</ele>
        <time>2021-02-13T10:15:41Z</time>
      </trkpt>
      <trkpt lat="45.60203" lon="6.70976">
        <ele>1972</ele>
        <time>2021-02-13T10:15:46Z</time>
      </trkpt>
      <trkpt lat="45.60204" lon="6.70976">
        <ele>1973</ele>
        <time>2021-02-13T10:15:47Z</time>
      </trkpt>
      <trkpt lat="45.60206" lon="6.70977">
        <ele>1973</ele>
        <time>2021-02-13T10:15:51Z</time>
      </trkpt>
      <trkpt lat="45.60208" lon="6.70978">
        <ele>1973</ele>
        <time>2021-02-13T10:15:56Z</time>
      </trkpt>
      <trkpt lat="45.60208" lon="6.70978">
        <ele>1974</ele>
        <time>2021-02-13T10:15:57Z</time>
      </trkpt>
      <trkpt lat="45.6021" lon="6.70978">
        <ele>1974</ele>
        <time>2021-02-13T10:16:01Z</time>
      </trkpt>
      <trkpt lat="45.60212" lon="6.70979">
        <ele>1974</ele>
        <time>2021-02-13T10:16:05Z</time>
      </trkpt>
      <trkpt lat="45.60212" lon="6.70979">
        <ele>1975</ele>
        <time>2021-02-13T10:16:07Z</time>
      </trkpt>
      <trkpt lat="45.60214" lon="6.70979">
        <ele>1975</ele>
        <time>2021-02-13T10:16:10Z</time>
      </trkpt>
      <trkpt lat="45.60216" lon="6.70978">
        <ele>1975</ele>
        <time>2021-02-13T10:16:15Z</time>
      </trkpt>
      <trkpt lat="45.60216" lon="6.70978">
        <ele>1978</ele>
        <time>2021-02-13T10:16:17Z</time>
      </trkpt>
      <trkpt lat="45.60218" lon="6.70977">
        <ele>1978</ele>
        <time>2021-02-13T10:16:19Z</time>
      </trkpt>
      <trkpt lat="45.60219" lon="6.70976">
        <ele>1978</ele>
        <time>2021-02-13T10:16:23Z</time>
      </trkpt>
      <trkpt lat="45.60221" lon="6.70974">
        <ele>1978</ele>
        <time>2021-02-13T10:16:27Z</time>
      </trkpt>
      <trkpt lat="45.60223" lon="6.70972">
        <ele>1978</ele>
        <time>2021-02-13T10:16:31Z</time>
      </trkpt>
      <trkpt lat="45.60224" lon="6.70971">
        <ele>1978</ele>
        <time>2021-02-13T10:16:35Z</time>
      </trkpt>
      <trkpt lat="45.60224" lon="6.70971">
        <ele>1978</ele>
        <time>2021-02-13T10:16:37Z</time>
      </trkpt>
      <trkpt lat="45.60226" lon="6.7097">
        <ele>1978</ele>
        <time>2021-02-13T10:16:39Z</time>
      </trkpt>
      <trkpt lat="45.60228" lon="6.70968">
        <ele>1978</ele>
        <time>2021-02-13T10:16:43Z</time>
      </trkpt>
      <trkpt lat="45.60228" lon="6.70968">
        <ele>1979</ele>
        <time>2021-02-13T10:16:47Z</time>
      </trkpt>
      <trkpt lat="45.60229" lon="6.70967">
        <ele>1979</ele>
        <time>2021-02-13T10:16:48Z</time>
      </trkpt>
      <trkpt lat="45.60231" lon="6.70965">
        <ele>1979</ele>
        <time>2021-02-13T10:16:53Z</time>
      </trkpt>
      <trkpt lat="45.60233" lon="6.70964">
        <ele>1980</ele>
        <time>2021-02-13T10:16:58Z</time>
      </trkpt>
      <trkpt lat="45.60235" lon="6.70962">
        <ele>1980</ele>
        <time>2021-02-13T10:17:03Z</time>
      </trkpt>
      <trkpt lat="45.60235" lon="6.70962">
        <ele>1983</ele>
        <time>2021-02-13T10:17:07Z</time>
      </trkpt>
      <trkpt lat="45.60237" lon="6.70961">
        <ele>1983</ele>
        <time>2021-02-13T10:17:08Z</time>
      </trkpt>
      <trkpt lat="45.60238" lon="6.70959">
        <ele>1983</ele>
        <time>2021-02-13T10:17:13Z</time>
      </trkpt>
      <trkpt lat="45.60238" lon="6.70959">
        <ele>1983</ele>
        <time>2021-02-13T10:17:17Z</time>
      </trkpt>
      <trkpt lat="45.6024" lon="6.70957">
        <ele>1983</ele>
        <time>2021-02-13T10:17:18Z</time>
      </trkpt>
      <trkpt lat="45.60242" lon="6.70956">
        <ele>1983</ele>
        <time>2021-02-13T10:17:23Z</time>
      </trkpt>
      <trkpt lat="45.60243" lon="6.70954">
        <ele>1984</ele>
        <time>2021-02-13T10:17:27Z</time>
      </trkpt>
      <trkpt lat="45.60245" lon="6.70953">
        <ele>1984</ele>
        <time>2021-02-13T10:17:31Z</time>
      </trkpt>
      <trkpt lat="45.60246" lon="6.70951">
        <ele>1984</ele>
        <time>2021-02-13T10:17:35Z</time>
      </trkpt>
      <trkpt lat="45.60246" lon="6.70951">
        <ele>1984</ele>
        <time>2021-02-13T10:17:37Z</time>
      </trkpt>
      <trkpt lat="45.60249" lon="6.70948">
        <ele>1984</ele>
        <time>2021-02-13T10:17:39Z</time>
      </trkpt>
      <trkpt lat="45.6025" lon="6.70947">
        <ele>1984</ele>
        <time>2021-02-13T10:17:42Z</time>
      </trkpt>
      <trkpt lat="45.6025" lon="6.70946">
        <ele>1984</ele>
        <time>2021-02-13T10:17:46Z</time>
      </trkpt>
      <trkpt lat="45.60251" lon="6.70946">
        <ele>1985</ele>
        <time>2021-02-13T10:17:47Z</time>
      </trkpt>
      <trkpt lat="45.60253" lon="6.70944">
        <ele>1985</ele>
        <time>2021-02-13T10:17:50Z</time>
      </trkpt>
      <trkpt lat="45.60255" lon="6.70942">
        <ele>1985</ele>
        <time>2021-02-13T10:17:54Z</time>
      </trkpt>
      <trkpt lat="45.60255" lon="6.70942">
        <ele>1987</ele>
        <time>2021-02-13T10:17:57Z</time>
      </trkpt>
      <trkpt lat="45.60256" lon="6.70941">
        <ele>1987</ele>
        <time>2021-02-13T10:17:59Z</time>
      </trkpt>
      <trkpt lat="45.60258" lon="6.70939">
        <ele>1987</ele>
        <time>2021-02-13T10:18:04Z</time>
      </trkpt>
      <trkpt lat="45.60258" lon="6.70939">
        <ele>1988</ele>
        <time>2021-02-13T10:18:07Z</time>
      </trkpt>
      <trkpt lat="45.6026" lon="6.70937">
        <ele>1988</ele>
        <time>2021-02-13T10:18:09Z</time>
      </trkpt>
      <trkpt lat="45.60261" lon="6.70936">
        <ele>1988</ele>
        <time>2021-02-13T10:18:14Z</time>
      </trkpt>
      <trkpt lat="45.60261" lon="6.70936">
        <ele>1990</ele>
        <time>2021-02-13T10:18:17Z</time>
      </trkpt>
      <trkpt lat="45.60263" lon="6.70934">
        <ele>1990</ele>
        <time>2021-02-13T10:18:19Z</time>
      </trkpt>
      <trkpt lat="45.60265" lon="6.70933">
        <ele>1990</ele>
        <time>2021-02-13T10:18:24Z</time>
      </trkpt>
      <trkpt lat="45.60265" lon="6.70933">
        <ele>1990</ele>
        <time>2021-02-13T10:18:27Z</time>
      </trkpt>
      <trkpt lat="45.60267" lon="6.70931">
        <ele>1990</ele>
        <time>2021-02-13T10:18:28Z</time>
      </trkpt>
      <trkpt lat="45.60269" lon="6.7093">
        <ele>1990</ele>
        <time>2021-02-13T10:18:33Z</time>
      </trkpt>
      <trkpt lat="45.6027" lon="6.70928">
        <ele>1991</ele>
        <time>2021-02-13T10:18:37Z</time>
      </trkpt>
      <trkpt lat="45.60272" lon="6.70927">
        <ele>1991</ele>
        <time>2021-02-13T10:18:42Z</time>
      </trkpt>
      <trkpt lat="45.60273" lon="6.70925">
        <ele>1991</ele>
        <time>2021-02-13T10:18:46Z</time>
      </trkpt>
      <trkpt lat="45.60273" lon="6.70925">
        <ele>1993</ele>
        <time>2021-02-13T10:18:47Z</time>
      </trkpt>
      <trkpt lat="45.60276" lon="6.70923">
        <ele>1993</ele>
        <time>2021-02-13T10:18:51Z</time>
      </trkpt>
      <trkpt lat="45.60276" lon="6.70923">
        <ele>1993</ele>
        <time>2021-02-13T10:18:56Z</time>
      </trkpt>
      <trkpt lat="45.60277" lon="6.70922">
        <ele>1995</ele>
        <time>2021-02-13T10:18:57Z</time>
      </trkpt>
      <trkpt lat="45.60278" lon="6.7092">
        <ele>1995</ele>
        <time>2021-02-13T10:19:01Z</time>
      </trkpt>
      <trkpt lat="45.6028" lon="6.70919">
        <ele>1995</ele>
        <time>2021-02-13T10:19:05Z</time>
      </trkpt>
      <trkpt lat="45.6028" lon="6.70919">
        <ele>1995</ele>
        <time>2021-02-13T10:19:07Z</time>
      </trkpt>
      <trkpt lat="45.60282" lon="6.70918">
        <ele>1995</ele>
        <time>2021-02-13T10:19:09Z</time>
      </trkpt>
      <trkpt lat="45.60284" lon="6.70917">
        <ele>1995</ele>
        <time>2021-02-13T10:19:13Z</time>
      </trkpt>
      <trkpt lat="45.60285" lon="6.70915">
        <ele>1996</ele>
        <time>2021-02-13T10:19:17Z</time>
      </trkpt>
      <trkpt lat="45.60287" lon="6.70914">
        <ele>1996</ele>
        <time>2021-02-13T10:19:21Z</time>
      </trkpt>
      <trkpt lat="45.60288" lon="6.70912">
        <ele>1996</ele>
        <time>2021-02-13T10:19:25Z</time>
      </trkpt>
      <trkpt lat="45.60288" lon="6.70912">
        <ele>1996</ele>
        <time>2021-02-13T10:19:27Z</time>
      </trkpt>
      <trkpt lat="45.6029" lon="6.70911">
        <ele>1996</ele>
        <time>2021-02-13T10:19:30Z</time>
      </trkpt>
      <trkpt lat="45.60292" lon="6.70909">
        <ele>1996</ele>
        <time>2021-02-13T10:19:35Z</time>
      </trkpt>
      <trkpt lat="45.60292" lon="6.70909">
        <ele>1997</ele>
        <time>2021-02-13T10:19:37Z</time>
      </trkpt>
      <trkpt lat="45.60294" lon="6.70906">
        <ele>1997</ele>
        <time>2021-02-13T10:19:39Z</time>
      </trkpt>
      <trkpt lat="45.60295" lon="6.70905">
        <ele>1997</ele>
        <time>2021-02-13T10:19:43Z</time>
      </trkpt>
      <trkpt lat="45.60296" lon="6.70904">
        <ele>1998</ele>
        <time>2021-02-13T10:19:47Z</time>
      </trkpt>
      <trkpt lat="45.60297" lon="6.70903">
        <ele>1998</ele>
        <time>2021-02-13T10:19:48Z</time>
      </trkpt>
      <trkpt lat="45.60298" lon="6.70902">
        <ele>1998</ele>
        <time>2021-02-13T10:19:52Z</time>
      </trkpt>
      <trkpt lat="45.60299" lon="6.70901">
        <ele>1998</ele>
        <time>2021-02-13T10:19:56Z</time>
      </trkpt>
      <trkpt lat="45.603" lon="6.709">
        <ele>1999</ele>
        <time>2021-02-13T10:19:57Z</time>
      </trkpt>
      <trkpt lat="45.60302" lon="6.70899">
        <ele>1999</ele>
        <time>2021-02-13T10:20:00Z</time>
      </trkpt>
      <trkpt lat="45.60303" lon="6.70897">
        <ele>1999</ele>
        <time>2021-02-13T10:20:05Z</time>
      </trkpt>
      <trkpt lat="45.60303" lon="6.70897">
        <ele>2000</ele>
        <time>2021-02-13T10:20:08Z</time>
      </trkpt>
      <trkpt lat="45.60305" lon="6.70895">
        <ele>2000</ele>
        <time>2021-02-13T10:20:10Z</time>
      </trkpt>
      <trkpt lat="45.60306" lon="6.70894">
        <ele>2000</ele>
        <time>2021-02-13T10:20:15Z</time>
      </trkpt>
      <trkpt lat="45.60306" lon="6.70894">
        <ele>2002</ele>
        <time>2021-02-13T10:20:17Z</time>
      </trkpt>
      <trkpt lat="45.60308" lon="6.70892">
        <ele>2002</ele>
        <time>2021-02-13T10:20:20Z</time>
      </trkpt>
      <trkpt lat="45.6031" lon="6.7089">
        <ele>2002</ele>
        <time>2021-02-13T10:20:25Z</time>
      </trkpt>
      <trkpt lat="45.6031" lon="6.7089">
        <ele>2002</ele>
        <time>2021-02-13T10:20:27Z</time>
      </trkpt>
      <trkpt lat="45.60311" lon="6.70888">
        <ele>2002</ele>
        <time>2021-02-13T10:20:30Z</time>
      </trkpt>
      <trkpt lat="45.60312" lon="6.70886">
        <ele>2002</ele>
        <time>2021-02-13T10:20:35Z</time>
      </trkpt>
      <trkpt lat="45.60312" lon="6.70886">
        <ele>2004</ele>
        <time>2021-02-13T10:20:37Z</time>
      </trkpt>
      <trkpt lat="45.60314" lon="6.70884">
        <ele>2004</ele>
        <time>2021-02-13T10:20:41Z</time>
      </trkpt>
      <trkpt lat="45.60316" lon="6.70882">
        <ele>2004</ele>
        <time>2021-02-13T10:20:47Z</time>
      </trkpt>
      <trkpt lat="45.60316" lon="6.70882">
        <ele>2005</ele>
        <time>2021-02-13T10:20:48Z</time>
      </trkpt>
      <trkpt lat="45.60317" lon="6.7088">
        <ele>2005</ele>
        <time>2021-02-13T10:20:52Z</time>
      </trkpt>
      <trkpt lat="45.60319" lon="6.7088">
        <ele>2005</ele>
        <time>2021-02-13T10:20:57Z</time>
      </trkpt>
      <trkpt lat="45.60319" lon="6.7088">
        <ele>2007</ele>
        <time>2021-02-13T10:21:07Z</time>
      </trkpt>
      <trkpt lat="45.60321" lon="6.70881">
        <ele>2007</ele>
        <time>2021-02-13T10:21:12Z</time>
      </trkpt>
      <trkpt lat="45.60321" lon="6.70881">
        <ele>2007</ele>
        <time>2021-02-13T10:21:17Z</time>
      </trkpt>
      <trkpt lat="45.60321" lon="6.70881">
        <ele>2007</ele>
        <time>2021-02-13T10:21:27Z</time>
      </trkpt>
      <trkpt lat="45.60321" lon="6.70881">
        <ele>2006</ele>
        <time>2021-02-13T10:21:37Z</time>
      </trkpt>
      <trkpt lat="45.60321" lon="6.70881">
        <ele>2006</ele>
        <time>2021-02-13T10:21:47Z</time>
      </trkpt>
      <trkpt lat="45.60321" lon="6.70881">
        <ele>2006</ele>
        <time>2021-02-13T10:21:57Z</time>
      </trkpt>
      <trkpt lat="45.60321" lon="6.70881">
        <ele>2005</ele>
        <time>2021-02-13T10:22:07Z</time>
      </trkpt>
      <trkpt lat="45.60321" lon="6.70881">
        <ele>2005</ele>
        <time>2021-02-13T10:22:17Z</time>
      </trkpt>
      <trkpt lat="45.60321" lon="6.70881">
        <ele>2006</ele>
        <time>2021-02-13T10:22:27Z</time>
      </trkpt>
      <trkpt lat="45.60321" lon="6.70881">
        <ele>2006</ele>
        <time>2021-02-13T10:22:37Z</time>
      </trkpt>
      <trkpt lat="45.60321" lon="6.70881">
        <ele>2005</ele>
        <time>2021-02-13T10:22:47Z</time>
      </trkpt>
      <trkpt lat="45.60321" lon="6.70881">
        <ele>2005</ele>
        <time>2021-02-13T10:22:57Z</time>
      </trkpt>
      <trkpt lat="45.60321" lon="6.70881">
        <ele>2006</ele>
        <time>2021-02-13T10:23:07Z</time>
      </trkpt>
      <trkpt lat="45.60321" lon="6.70881">
        <ele>2007</ele>
        <time>2021-02-13T10:23:18Z</time>
      </trkpt>
      <trkpt lat="45.60321" lon="6.70881">
        <ele>2007</ele>
        <time>2021-02-13T10:23:27Z</time>
      </trkpt>
      <trkpt lat="45.60323" lon="6.70881">
        <ele>2007</ele>
        <time>2021-02-13T10:23:36Z</time>
      </trkpt>
      <trkpt lat="45.60323" lon="6.70881">
        <ele>2006</ele>
        <time>2021-02-13T10:23:37Z</time>
      </trkpt>
      <trkpt lat="45.60325" lon="6.7088">
        <ele>2006</ele>
        <time>2021-02-13T10:23:44Z</time>
      </trkpt>
      <trkpt lat="45.60325" lon="6.7088">
        <ele>2007</ele>
        <time>2021-02-13T10:23:47Z</time>
      </trkpt>
      <trkpt lat="45.60325" lon="6.7088">
        <ele>2007</ele>
        <time>2021-02-13T10:23:57Z</time>
      </trkpt>
      <trkpt lat="45.60327" lon="6.7088">
        <ele>2007</ele>
        <time>2021-02-13T10:23:59Z</time>
      </trkpt>
      <trkpt lat="45.60329" lon="6.70881">
        <ele>2007</ele>
        <time>2021-02-13T10:24:05Z</time>
      </trkpt>
      <trkpt lat="45.60329" lon="6.70881">
        <ele>2008</ele>
        <time>2021-02-13T10:24:07Z</time>
      </trkpt>
      <trkpt lat="45.60332" lon="6.70881">
        <ele>2008</ele>
        <time>2021-02-13T10:24:10Z</time>
      </trkpt>
      <trkpt lat="45.60332" lon="6.70881">
        <ele>2008</ele>
        <time>2021-02-13T10:24:16Z</time>
      </trkpt>
      <trkpt lat="45.60333" lon="6.70881">
        <ele>2008</ele>
        <time>2021-02-13T10:24:17Z</time>
      </trkpt>
      <trkpt lat="45.60335" lon="6.70881">
        <ele>2008</ele>
        <time>2021-02-13T10:24:21Z</time>
      </trkpt>
      <trkpt lat="45.60337" lon="6.70882">
        <ele>2009</ele>
        <time>2021-02-13T10:24:27Z</time>
      </trkpt>
      <trkpt lat="45.60339" lon="6.70882">
        <ele>2009</ele>
        <time>2021-02-13T10:24:33Z</time>
      </trkpt>
      <trkpt lat="45.60339" lon="6.70882">
        <ele>2011</ele>
        <time>2021-02-13T10:24:37Z</time>
      </trkpt>
      <trkpt lat="45.60341" lon="6.70883">
        <ele>2011</ele>
        <time>2021-02-13T10:24:38Z</time>
      </trkpt>
      <trkpt lat="45.60343" lon="6.70884">
        <ele>2011</ele>
        <time>2021-02-13T10:24:44Z</time>
      </trkpt>
      <trkpt lat="45.60343" lon="6.70884">
        <ele>2012</ele>
        <time>2021-02-13T10:24:47Z</time>
      </trkpt>
      <trkpt lat="45.60345" lon="6.70885">
        <ele>2012</ele>
        <time>2021-02-13T10:24:50Z</time>
      </trkpt>
      <trkpt lat="45.60347" lon="6.70885">
        <ele>2012</ele>
        <time>2021-02-13T10:24:55Z</time>
      </trkpt>
      <trkpt lat="45.60347" lon="6.70885">
        <ele>2013</ele>
        <time>2021-02-13T10:24:57Z</time>
      </trkpt>
      <trkpt lat="45.60348" lon="6.70886">
        <ele>2013</ele>
        <time>2021-02-13T10:25:00Z</time>
      </trkpt>
      <trkpt lat="45.6035" lon="6.70887">
        <ele>2013</ele>
        <time>2021-02-13T10:25:05Z</time>
      </trkpt>
      <trkpt lat="45.6035" lon="6.70887">
        <ele>2013</ele>
        <time>2021-02-13T10:25:07Z</time>
      </trkpt>
      <trkpt lat="45.60352" lon="6.70887">
        <ele>2013</ele>
        <time>2021-02-13T10:25:10Z</time>
      </trkpt>
      <trkpt lat="45.60354" lon="6.70888">
        <ele>2013</ele>
        <time>2021-02-13T10:25:15Z</time>
      </trkpt>
      <trkpt lat="45.60354" lon="6.70888">
        <ele>2015</ele>
        <time>2021-02-13T10:25:17Z</time>
      </trkpt>
      <trkpt lat="45.60356" lon="6.70888">
        <ele>2015</ele>
        <time>2021-02-13T10:25:20Z</time>
      </trkpt>
      <trkpt lat="45.60358" lon="6.70888">
        <ele>2015</ele>
        <time>2021-02-13T10:25:25Z</time>
      </trkpt>
      <trkpt lat="45.60358" lon="6.70888">
        <ele>2016</ele>
        <time>2021-02-13T10:25:27Z</time>
      </trkpt>
      <trkpt lat="45.6036" lon="6.70888">
        <ele>2016</ele>
        <time>2021-02-13T10:25:30Z</time>
      </trkpt>
      <trkpt lat="45.60362" lon="6.70887">
        <ele>2016</ele>
        <time>2021-02-13T10:25:35Z</time>
      </trkpt>
      <trkpt lat="45.60362" lon="6.70887">
        <ele>2017</ele>
        <time>2021-02-13T10:25:37Z</time>
      </trkpt>
      <trkpt lat="45.60364" lon="6.70886">
        <ele>2017</ele>
        <time>2021-02-13T10:25:40Z</time>
      </trkpt>
      <trkpt lat="45.60366" lon="6.70885">
        <ele>2017</ele>
        <time>2021-02-13T10:25:45Z</time>
      </trkpt>
      <trkpt lat="45.60366" lon="6.70885">
        <ele>2018</ele>
        <time>2021-02-13T10:25:47Z</time>
      </trkpt>
      <trkpt lat="45.60368" lon="6.70885">
        <ele>2018</ele>
        <time>2021-02-13T10:25:50Z</time>
      </trkpt>
      <trkpt lat="45.6037" lon="6.70884">
        <ele>2018</ele>
        <time>2021-02-13T10:25:55Z</time>
      </trkpt>
      <trkpt lat="45.6037" lon="6.70884">
        <ele>2018</ele>
        <time>2021-02-13T10:25:57Z</time>
      </trkpt>
      <trkpt lat="45.60372" lon="6.70884">
        <ele>2018</ele>
        <time>2021-02-13T10:26:00Z</time>
      </trkpt>
      <trkpt lat="45.60374" lon="6.70883">
        <ele>2018</ele>
        <time>2021-02-13T10:26:05Z</time>
      </trkpt>
      <trkpt lat="45.60374" lon="6.70883">
        <ele>2019</ele>
        <time>2021-02-13T10:26:07Z</time>
      </trkpt>
      <trkpt lat="45.60376" lon="6.70882">
        <ele>2019</ele>
        <time>2021-02-13T10:26:10Z</time>
      </trkpt>
      <trkpt lat="45.60378" lon="6.70881">
        <ele>2019</ele>
        <time>2021-02-13T10:26:15Z</time>
      </trkpt>
      <trkpt lat="45.60378" lon="6.70881">
        <ele>2021</ele>
        <time>2021-02-13T10:26:17Z</time>
      </trkpt>
      <trkpt lat="45.6038" lon="6.70881">
        <ele>2021</ele>
        <time>2021-02-13T10:26:19Z</time>
      </trkpt>
      <trkpt lat="45.60382" lon="6.7088">
        <ele>2021</ele>
        <time>2021-02-13T10:26:24Z</time>
      </trkpt>
      <trkpt lat="45.60382" lon="6.7088">
        <ele>2022</ele>
        <time>2021-02-13T10:26:28Z</time>
      </trkpt>
      <trkpt lat="45.60384" lon="6.7088">
        <ele>2022</ele>
        <time>2021-02-13T10:26:29Z</time>
      </trkpt>
      <trkpt lat="45.60386" lon="6.70879">
        <ele>2022</ele>
        <time>2021-02-13T10:26:34Z</time>
      </trkpt>
      <trkpt lat="45.60386" lon="6.70879">
        <ele>2022</ele>
        <time>2021-02-13T10:26:37Z</time>
      </trkpt>
      <trkpt lat="45.60388" lon="6.70878">
        <ele>2022</ele>
        <time>2021-02-13T10:26:38Z</time>
      </trkpt>
      <trkpt lat="45.6039" lon="6.70878">
        <ele>2022</ele>
        <time>2021-02-13T10:26:43Z</time>
      </trkpt>
      <trkpt lat="45.6039" lon="6.70878">
        <ele>2024</ele>
        <time>2021-02-13T10:26:47Z</time>
      </trkpt>
      <trkpt lat="45.60392" lon="6.70877">
        <ele>2024</ele>
        <time>2021-02-13T10:26:48Z</time>
      </trkpt>
      <trkpt lat="45.60394" lon="6.70877">
        <ele>2024</ele>
        <time>2021-02-13T10:26:53Z</time>
      </trkpt>
      <trkpt lat="45.60394" lon="6.70877">
        <ele>2025</ele>
        <time>2021-02-13T10:26:57Z</time>
      </trkpt>
      <trkpt lat="45.60396" lon="6.70876">
        <ele>2025</ele>
        <time>2021-02-13T10:26:58Z</time>
      </trkpt>
      <trkpt lat="45.60398" lon="6.70875">
        <ele>2025</ele>
        <time>2021-02-13T10:27:03Z</time>
      </trkpt>
      <trkpt lat="45.60398" lon="6.70875">
        <ele>2026</ele>
        <time>2021-02-13T10:27:07Z</time>
      </trkpt>
      <trkpt lat="45.604" lon="6.70874">
        <ele>2026</ele>
        <time>2021-02-13T10:27:08Z</time>
      </trkpt>
      <trkpt lat="45.60402" lon="6.70873">
        <ele>2026</ele>
        <time>2021-02-13T10:27:13Z</time>
      </trkpt>
      <trkpt lat="45.60402" lon="6.70873">
        <ele>2027</ele>
        <time>2021-02-13T10:27:17Z</time>
      </trkpt>
      <trkpt lat="45.60404" lon="6.70872">
        <ele>2027</ele>
        <time>2021-02-13T10:27:18Z</time>
      </trkpt>
      <trkpt lat="45.60406" lon="6.70871">
        <ele>2027</ele>
        <time>2021-02-13T10:27:23Z</time>
      </trkpt>
      <trkpt lat="45.60406" lon="6.70871">
        <ele>2028</ele>
        <time>2021-02-13T10:27:27Z</time>
      </trkpt>
      <trkpt lat="45.60408" lon="6.7087">
        <ele>2028</ele>
        <time>2021-02-13T10:27:28Z</time>
      </trkpt>
      <trkpt lat="45.6041" lon="6.7087">
        <ele>2028</ele>
        <time>2021-02-13T10:27:33Z</time>
      </trkpt>
      <trkpt lat="45.60412" lon="6.7087">
        <ele>2029</ele>
        <time>2021-02-13T10:27:37Z</time>
      </trkpt>
      <trkpt lat="45.60414" lon="6.70869">
        <ele>2029</ele>
        <time>2021-02-13T10:27:41Z</time>
      </trkpt>
      <trkpt lat="45.60416" lon="6.70869">
        <ele>2029</ele>
        <time>2021-02-13T10:27:46Z</time>
      </trkpt>
      <trkpt lat="45.60416" lon="6.70869">
        <ele>2030</ele>
        <time>2021-02-13T10:27:47Z</time>
      </trkpt>
      <trkpt lat="45.60418" lon="6.70869">
        <ele>2030</ele>
        <time>2021-02-13T10:27:50Z</time>
      </trkpt>
      <trkpt lat="45.6042" lon="6.7087">
        <ele>2030</ele>
        <time>2021-02-13T10:27:55Z</time>
      </trkpt>
      <trkpt lat="45.6042" lon="6.7087">
        <ele>2030</ele>
        <time>2021-02-13T10:27:57Z</time>
      </trkpt>
      <trkpt lat="45.60422" lon="6.7087">
        <ele>2030</ele>
        <time>2021-02-13T10:27:59Z</time>
      </trkpt>
      <trkpt lat="45.60424" lon="6.70871">
        <ele>2030</ele>
        <time>2021-02-13T10:28:03Z</time>
      </trkpt>
      <trkpt lat="45.60426" lon="6.70871">
        <ele>2033</ele>
        <time>2021-02-13T10:28:07Z</time>
      </trkpt>
      <trkpt lat="45.60428" lon="6.70872">
        <ele>2033</ele>
        <time>2021-02-13T10:28:11Z</time>
      </trkpt>
      <trkpt lat="45.6043" lon="6.70873">
        <ele>2033</ele>
        <time>2021-02-13T10:28:15Z</time>
      </trkpt>
      <trkpt lat="45.6043" lon="6.70873">
        <ele>2033</ele>
        <time>2021-02-13T10:28:17Z</time>
      </trkpt>
      <trkpt lat="45.60432" lon="6.70874">
        <ele>2033</ele>
        <time>2021-02-13T10:28:19Z</time>
      </trkpt>
      <trkpt lat="45.60434" lon="6.70875">
        <ele>2033</ele>
        <time>2021-02-13T10:28:22Z</time>
      </trkpt>
      <trkpt lat="45.60435" lon="6.70876">
        <ele>2033</ele>
        <time>2021-02-13T10:28:25Z</time>
      </trkpt>
      <trkpt lat="45.60435" lon="6.70876">
        <ele>2033</ele>
        <time>2021-02-13T10:28:27Z</time>
      </trkpt>
      <trkpt lat="45.60437" lon="6.70877">
        <ele>2033</ele>
        <time>2021-02-13T10:28:28Z</time>
      </trkpt>
      <trkpt lat="45.60439" lon="6.70879">
        <ele>2033</ele>
        <time>2021-02-13T10:28:31Z</time>
      </trkpt>
      <trkpt lat="45.60441" lon="6.70881">
        <ele>2033</ele>
        <time>2021-02-13T10:28:34Z</time>
      </trkpt>
      <trkpt lat="45.60442" lon="6.70882">
        <ele>2034</ele>
        <time>2021-02-13T10:28:37Z</time>
      </trkpt>
      <trkpt lat="45.60445" lon="6.70884">
        <ele>2034</ele>
        <time>2021-02-13T10:28:40Z</time>
      </trkpt>
      <trkpt lat="45.60446" lon="6.70884">
        <ele>2034</ele>
        <time>2021-02-13T10:28:43Z</time>
      </trkpt>
      <trkpt lat="45.60447" lon="6.70885">
        <ele>2034</ele>
        <time>2021-02-13T10:28:46Z</time>
      </trkpt>
      <trkpt lat="45.60448" lon="6.70886">
        <ele>2034</ele>
        <time>2021-02-13T10:28:47Z</time>
      </trkpt>
      <trkpt lat="45.6045" lon="6.70887">
        <ele>2034</ele>
        <time>2021-02-13T10:28:49Z</time>
      </trkpt>
      <trkpt lat="45.60452" lon="6.70888">
        <ele>2034</ele>
        <time>2021-02-13T10:28:53Z</time>
      </trkpt>
      <trkpt lat="45.60454" lon="6.7089">
        <ele>2035</ele>
        <time>2021-02-13T10:28:57Z</time>
      </trkpt>
      <trkpt lat="45.60456" lon="6.70891">
        <ele>2035</ele>
        <time>2021-02-13T10:29:01Z</time>
      </trkpt>
      <trkpt lat="45.60458" lon="6.70893">
        <ele>2035</ele>
        <time>2021-02-13T10:29:05Z</time>
      </trkpt>
      <trkpt lat="45.60458" lon="6.70893">
        <ele>2035</ele>
        <time>2021-02-13T10:29:07Z</time>
      </trkpt>
      <trkpt lat="45.6046" lon="6.70894">
        <ele>2035</ele>
        <time>2021-02-13T10:29:09Z</time>
      </trkpt>
      <trkpt lat="45.60462" lon="6.70895">
        <ele>2035</ele>
        <time>2021-02-13T10:29:13Z</time>
      </trkpt>
      <trkpt lat="45.60464" lon="6.70895">
        <ele>2037</ele>
        <time>2021-02-13T10:29:17Z</time>
      </trkpt>
      <trkpt lat="45.60466" lon="6.70896">
        <ele>2037</ele>
        <time>2021-02-13T10:29:21Z</time>
      </trkpt>
      <trkpt lat="45.60468" lon="6.70897">
        <ele>2037</ele>
        <time>2021-02-13T10:29:25Z</time>
      </trkpt>
      <trkpt lat="45.60468" lon="6.70897">
        <ele>2038</ele>
        <time>2021-02-13T10:29:27Z</time>
      </trkpt>
      <trkpt lat="45.60469" lon="6.70897">
        <ele>2038</ele>
        <time>2021-02-13T10:29:29Z</time>
      </trkpt>
      <trkpt lat="45.60471" lon="6.70896">
        <ele>2038</ele>
        <time>2021-02-13T10:29:35Z</time>
      </trkpt>
      <trkpt lat="45.60471" lon="6.70896">
        <ele>2038</ele>
        <time>2021-02-13T10:29:38Z</time>
      </trkpt>
      <trkpt lat="45.60472" lon="6.70893">
        <ele>2038</ele>
        <time>2021-02-13T10:29:40Z</time>
      </trkpt>
      <trkpt lat="45.60472" lon="6.7089">
        <ele>2038</ele>
        <time>2021-02-13T10:29:44Z</time>
      </trkpt>
      <trkpt lat="45.60472" lon="6.7089">
        <ele>2039</ele>
        <time>2021-02-13T10:29:47Z</time>
      </trkpt>
      <trkpt lat="45.60472" lon="6.7089">
        <ele>2041</ele>
        <time>2021-02-13T10:29:57Z</time>
      </trkpt>
      <trkpt lat="45.60473" lon="6.70887">
        <ele>2041</ele>
        <time>2021-02-13T10:30:03Z</time>
      </trkpt>
      <trkpt lat="45.60473" lon="6.70887">
        <ele>2041</ele>
        <time>2021-02-13T10:30:07Z</time>
      </trkpt>
      <trkpt lat="45.60473" lon="6.70884">
        <ele>2041</ele>
        <time>2021-02-13T10:30:10Z</time>
      </trkpt>
      <trkpt lat="45.60474" lon="6.70882">
        <ele>2041</ele>
        <time>2021-02-13T10:30:15Z</time>
      </trkpt>
      <trkpt lat="45.60474" lon="6.70882">
        <ele>2042</ele>
        <time>2021-02-13T10:30:17Z</time>
      </trkpt>
      <trkpt lat="45.60475" lon="6.70877">
        <ele>2042</ele>
        <time>2021-02-13T10:30:20Z</time>
      </trkpt>
      <trkpt lat="45.60475" lon="6.70875">
        <ele>2042</ele>
        <time>2021-02-13T10:30:24Z</time>
      </trkpt>
      <trkpt lat="45.60476" lon="6.70874">
        <ele>2042</ele>
        <time>2021-02-13T10:30:27Z</time>
      </trkpt>
      <trkpt lat="45.60476" lon="6.70872">
        <ele>2042</ele>
        <time>2021-02-13T10:30:29Z</time>
      </trkpt>
      <trkpt lat="45.60477" lon="6.7087">
        <ele>2042</ele>
        <time>2021-02-13T10:30:34Z</time>
      </trkpt>
      <trkpt lat="45.60478" lon="6.70869">
        <ele>2044</ele>
        <time>2021-02-13T10:30:37Z</time>
      </trkpt>
      <trkpt lat="45.60478" lon="6.70867">
        <ele>2044</ele>
        <time>2021-02-13T10:30:39Z</time>
      </trkpt>
      <trkpt lat="45.60479" lon="6.70866">
        <ele>2044</ele>
        <time>2021-02-13T10:30:44Z</time>
      </trkpt>
      <trkpt lat="45.60479" lon="6.70864">
        <ele>2044</ele>
        <time>2021-02-13T10:30:47Z</time>
      </trkpt>
      <trkpt lat="45.6048" lon="6.70862">
        <ele>2044</ele>
        <time>2021-02-13T10:30:49Z</time>
      </trkpt>
      <trkpt lat="45.6048" lon="6.70861">
        <ele>2044</ele>
        <time>2021-02-13T10:30:53Z</time>
      </trkpt>
      <trkpt lat="45.60481" lon="6.70859">
        <ele>2046</ele>
        <time>2021-02-13T10:30:57Z</time>
      </trkpt>
      <trkpt lat="45.60482" lon="6.70858">
        <ele>2046</ele>
        <time>2021-02-13T10:30:58Z</time>
      </trkpt>
      <trkpt lat="45.60482" lon="6.70856">
        <ele>2046</ele>
        <time>2021-02-13T10:31:02Z</time>
      </trkpt>
      <trkpt lat="45.60483" lon="6.70854">
        <ele>2046</ele>
        <time>2021-02-13T10:31:06Z</time>
      </trkpt>
      <trkpt lat="45.60483" lon="6.70853">
        <ele>2046</ele>
        <time>2021-02-13T10:31:07Z</time>
      </trkpt>
      <trkpt lat="45.60485" lon="6.70852">
        <ele>2046</ele>
        <time>2021-02-13T10:31:10Z</time>
      </trkpt>
      <trkpt lat="45.60487" lon="6.70851">
        <ele>2046</ele>
        <time>2021-02-13T10:31:14Z</time>
      </trkpt>
      <trkpt lat="45.60487" lon="6.70851">
        <ele>2048</ele>
        <time>2021-02-13T10:31:17Z</time>
      </trkpt>
      <trkpt lat="45.60489" lon="6.70851">
        <ele>2048</ele>
        <time>2021-02-13T10:31:18Z</time>
      </trkpt>
      <trkpt lat="45.60491" lon="6.70852">
        <ele>2048</ele>
        <time>2021-02-13T10:31:22Z</time>
      </trkpt>
      <trkpt lat="45.60493" lon="6.70853">
        <ele>2048</ele>
        <time>2021-02-13T10:31:25Z</time>
      </trkpt>
      <trkpt lat="45.60493" lon="6.70853">
        <ele>2048</ele>
        <time>2021-02-13T10:31:27Z</time>
      </trkpt>
      <trkpt lat="45.60496" lon="6.70854">
        <ele>2048</ele>
        <time>2021-02-13T10:31:29Z</time>
      </trkpt>
      <trkpt lat="45.60497" lon="6.70855">
        <ele>2048</ele>
        <time>2021-02-13T10:31:33Z</time>
      </trkpt>
      <trkpt lat="45.60498" lon="6.70855">
        <ele>2049</ele>
        <time>2021-02-13T10:31:37Z</time>
      </trkpt>
      <trkpt lat="45.605" lon="6.70856">
        <ele>2049</ele>
        <time>2021-02-13T10:31:42Z</time>
      </trkpt>
      <trkpt lat="45.60501" lon="6.70856">
        <ele>2049</ele>
        <time>2021-02-13T10:31:47Z</time>
      </trkpt>
      <trkpt lat="45.60502" lon="6.70857">
        <ele>2050</ele>
        <time>2021-02-13T10:31:48Z</time>
      </trkpt>
      <trkpt lat="45.60504" lon="6.70857">
        <ele>2050</ele>
        <time>2021-02-13T10:31:51Z</time>
      </trkpt>
      <trkpt lat="45.60506" lon="6.70858">
        <ele>2050</ele>
        <time>2021-02-13T10:31:55Z</time>
      </trkpt>
      <trkpt lat="45.60506" lon="6.70858">
        <ele>2052</ele>
        <time>2021-02-13T10:31:57Z</time>
      </trkpt>
      <trkpt lat="45.60508" lon="6.70859">
        <ele>2052</ele>
        <time>2021-02-13T10:32:00Z</time>
      </trkpt>
      <trkpt lat="45.6051" lon="6.70859">
        <ele>2052</ele>
        <time>2021-02-13T10:32:05Z</time>
      </trkpt>
      <trkpt lat="45.6051" lon="6.70859">
        <ele>2054</ele>
        <time>2021-02-13T10:32:07Z</time>
      </trkpt>
      <trkpt lat="45.60513" lon="6.7086">
        <ele>2054</ele>
        <time>2021-02-13T10:32:10Z</time>
      </trkpt>
      <trkpt lat="45.60515" lon="6.70861">
        <ele>2055</ele>
        <time>2021-02-13T10:32:17Z</time>
      </trkpt>
      <trkpt lat="45.60516" lon="6.70861">
        <ele>2055</ele>
        <time>2021-02-13T10:32:21Z</time>
      </trkpt>
      <trkpt lat="45.60517" lon="6.70861">
        <ele>2055</ele>
        <time>2021-02-13T10:32:26Z</time>
      </trkpt>
      <trkpt lat="45.60518" lon="6.70861">
        <ele>2054</ele>
        <time>2021-02-13T10:32:27Z</time>
      </trkpt>
      <trkpt lat="45.6052" lon="6.70862">
        <ele>2054</ele>
        <time>2021-02-13T10:32:30Z</time>
      </trkpt>
      <trkpt lat="45.60522" lon="6.70862">
        <ele>2054</ele>
        <time>2021-02-13T10:32:35Z</time>
      </trkpt>
      <trkpt lat="45.60522" lon="6.70862">
        <ele>2055</ele>
        <time>2021-02-13T10:32:37Z</time>
      </trkpt>
      <trkpt lat="45.60525" lon="6.70863">
        <ele>2055</ele>
        <time>2021-02-13T10:32:39Z</time>
      </trkpt>
      <trkpt lat="45.60527" lon="6.70863">
        <ele>2055</ele>
        <time>2021-02-13T10:32:44Z</time>
      </trkpt>
      <trkpt lat="45.60528" lon="6.70864">
        <ele>2056</ele>
        <time>2021-02-13T10:32:48Z</time>
      </trkpt>
      <trkpt lat="45.60529" lon="6.70864">
        <ele>2056</ele>
        <time>2021-02-13T10:32:49Z</time>
      </trkpt>
      <trkpt lat="45.60531" lon="6.70864">
        <ele>2056</ele>
        <time>2021-02-13T10:32:54Z</time>
      </trkpt>
      <trkpt lat="45.60532" lon="6.70865">
        <ele>2058</ele>
        <time>2021-02-13T10:32:57Z</time>
      </trkpt>
      <trkpt lat="45.60533" lon="6.70865">
        <ele>2058</ele>
        <time>2021-02-13T10:32:58Z</time>
      </trkpt>
      <trkpt lat="45.60535" lon="6.70865">
        <ele>2058</ele>
        <time>2021-02-13T10:33:03Z</time>
      </trkpt>
      <trkpt lat="45.60536" lon="6.70866">
        <ele>2059</ele>
        <time>2021-02-13T10:33:07Z</time>
      </trkpt>
      <trkpt lat="45.60538" lon="6.70866">
        <ele>2059</ele>
        <time>2021-02-13T10:33:08Z</time>
      </trkpt>
      <trkpt lat="45.60539" lon="6.70866">
        <ele>2059</ele>
        <time>2021-02-13T10:33:13Z</time>
      </trkpt>
      <trkpt lat="45.6054" lon="6.70867">
        <ele>2060</ele>
        <time>2021-02-13T10:33:17Z</time>
      </trkpt>
      <trkpt lat="45.60542" lon="6.70867">
        <ele>2060</ele>
        <time>2021-02-13T10:33:18Z</time>
      </trkpt>
      <trkpt lat="45.60543" lon="6.70867">
        <ele>2060</ele>
        <time>2021-02-13T10:33:23Z</time>
      </trkpt>
      <trkpt lat="45.60544" lon="6.70868">
        <ele>2061</ele>
        <time>2021-02-13T10:33:27Z</time>
      </trkpt>
      <trkpt lat="45.60546" lon="6.70868">
        <ele>2061</ele>
        <time>2021-02-13T10:33:32Z</time>
      </trkpt>
      <trkpt lat="45.60547" lon="6.70868">
        <ele>2061</ele>
        <time>2021-02-13T10:33:36Z</time>
      </trkpt>
      <trkpt lat="45.60548" lon="6.70869">
        <ele>2063</ele>
        <time>2021-02-13T10:33:37Z</time>
      </trkpt>
      <trkpt lat="45.6055" lon="6.7087">
        <ele>2063</ele>
        <time>2021-02-13T10:33:40Z</time>
      </trkpt>
      <trkpt lat="45.60552" lon="6.70871">
        <ele>2063</ele>
        <time>2021-02-13T10:33:45Z</time>
      </trkpt>
      <trkpt lat="45.60552" lon="6.70871">
        <ele>2063</ele>
        <time>2021-02-13T10:33:47Z</time>
      </trkpt>
      <trkpt lat="45.60554" lon="6.70873">
        <ele>2063</ele>
        <time>2021-02-13T10:33:50Z</time>
      </trkpt>
      <trkpt lat="45.60555" lon="6.70875">
        <ele>2063</ele>
        <time>2021-02-13T10:33:55Z</time>
      </trkpt>
      <trkpt lat="45.60555" lon="6.70875">
        <ele>2064</ele>
        <time>2021-02-13T10:33:57Z</time>
      </trkpt>
      <trkpt lat="45.60557" lon="6.70876">
        <ele>2064</ele>
        <time>2021-02-13T10:34:00Z</time>
      </trkpt>
      <trkpt lat="45.60559" lon="6.70878">
        <ele>2064</ele>
        <time>2021-02-13T10:34:05Z</time>
      </trkpt>
      <trkpt lat="45.60559" lon="6.70878">
        <ele>2067</ele>
        <time>2021-02-13T10:34:07Z</time>
      </trkpt>
      <trkpt lat="45.6056" lon="6.70879">
        <ele>2067</ele>
        <time>2021-02-13T10:34:10Z</time>
      </trkpt>
      <trkpt lat="45.60562" lon="6.70881">
        <ele>2067</ele>
        <time>2021-02-13T10:34:15Z</time>
      </trkpt>
      <trkpt lat="45.60562" lon="6.70881">
        <ele>2069</ele>
        <time>2021-02-13T10:34:17Z</time>
      </trkpt>
      <trkpt lat="45.60564" lon="6.70882">
        <ele>2069</ele>
        <time>2021-02-13T10:34:21Z</time>
      </trkpt>
      <trkpt lat="45.60566" lon="6.70884">
        <ele>2069</ele>
        <time>2021-02-13T10:34:27Z</time>
      </trkpt>
      <trkpt lat="45.60567" lon="6.70885">
        <ele>2069</ele>
        <time>2021-02-13T10:34:33Z</time>
      </trkpt>
      <trkpt lat="45.60567" lon="6.70885">
        <ele>2070</ele>
        <time>2021-02-13T10:34:37Z</time>
      </trkpt>
      <trkpt lat="45.60569" lon="6.70886">
        <ele>2070</ele>
        <time>2021-02-13T10:34:38Z</time>
      </trkpt>
      <trkpt lat="45.60571" lon="6.70887">
        <ele>2070</ele>
        <time>2021-02-13T10:34:43Z</time>
      </trkpt>
      <trkpt lat="45.60571" lon="6.70887">
        <ele>2070</ele>
        <time>2021-02-13T10:34:47Z</time>
      </trkpt>
      <trkpt lat="45.60573" lon="6.70888">
        <ele>2070</ele>
        <time>2021-02-13T10:34:48Z</time>
      </trkpt>
      <trkpt lat="45.60575" lon="6.70889">
        <ele>2070</ele>
        <time>2021-02-13T10:34:53Z</time>
      </trkpt>
      <trkpt lat="45.60575" lon="6.70889">
        <ele>2073</ele>
        <time>2021-02-13T10:34:57Z</time>
      </trkpt>
      <trkpt lat="45.60577" lon="6.7089">
        <ele>2073</ele>
        <time>2021-02-13T10:34:58Z</time>
      </trkpt>
      <trkpt lat="45.60578" lon="6.7089">
        <ele>2073</ele>
        <time>2021-02-13T10:35:03Z</time>
      </trkpt>
      <trkpt lat="45.60578" lon="6.7089">
        <ele>2073</ele>
        <time>2021-02-13T10:35:07Z</time>
      </trkpt>
      <trkpt lat="45.6058" lon="6.70891">
        <ele>2073</ele>
        <time>2021-02-13T10:35:09Z</time>
      </trkpt>
      <trkpt lat="45.60582" lon="6.70889">
        <ele>2073</ele>
        <time>2021-02-13T10:35:15Z</time>
      </trkpt>
      <trkpt lat="45.60582" lon="6.70889">
        <ele>2074</ele>
        <time>2021-02-13T10:35:17Z</time>
      </trkpt>
      <trkpt lat="45.60582" lon="6.70886">
        <ele>2074</ele>
        <time>2021-02-13T10:35:20Z</time>
      </trkpt>
      <trkpt lat="45.60583" lon="6.70884">
        <ele>2074</ele>
        <time>2021-02-13T10:35:25Z</time>
      </trkpt>
      <trkpt lat="45.60583" lon="6.70884">
        <ele>2075</ele>
        <time>2021-02-13T10:35:27Z</time>
      </trkpt>
      <trkpt lat="45.60584" lon="6.70881">
        <ele>2075</ele>
        <time>2021-02-13T10:35:29Z</time>
      </trkpt>
      <trkpt lat="45.60585" lon="6.70878">
        <ele>2075</ele>
        <time>2021-02-13T10:35:34Z</time>
      </trkpt>
      <trkpt lat="45.60585" lon="6.70878">
        <ele>2077</ele>
        <time>2021-02-13T10:35:37Z</time>
      </trkpt>
      <trkpt lat="45.60586" lon="6.70876">
        <ele>2077</ele>
        <time>2021-02-13T10:35:39Z</time>
      </trkpt>
      <trkpt lat="45.60587" lon="6.70873">
        <ele>2077</ele>
        <time>2021-02-13T10:35:44Z</time>
      </trkpt>
      <trkpt lat="45.60587" lon="6.70873">
        <ele>2078</ele>
        <time>2021-02-13T10:35:47Z</time>
      </trkpt>
      <trkpt lat="45.60588" lon="6.70871">
        <ele>2078</ele>
        <time>2021-02-13T10:35:48Z</time>
      </trkpt>
      <trkpt lat="45.6059" lon="6.7087">
        <ele>2078</ele>
        <time>2021-02-13T10:35:52Z</time>
      </trkpt>
      <trkpt lat="45.60592" lon="6.70868">
        <ele>2078</ele>
        <time>2021-02-13T10:35:55Z</time>
      </trkpt>
      <trkpt lat="45.60592" lon="6.70868">
        <ele>2079</ele>
        <time>2021-02-13T10:35:58Z</time>
      </trkpt>
      <trkpt lat="45.60593" lon="6.70866">
        <ele>2079</ele>
        <time>2021-02-13T10:35:59Z</time>
      </trkpt>
      <trkpt lat="45.60595" lon="6.70864">
        <ele>2079</ele>
        <time>2021-02-13T10:36:03Z</time>
      </trkpt>
      <trkpt lat="45.60596" lon="6.70862">
        <ele>2079</ele>
        <time>2021-02-13T10:36:07Z</time>
      </trkpt>
      <trkpt lat="45.60598" lon="6.7086">
        <ele>2079</ele>
        <time>2021-02-13T10:36:11Z</time>
      </trkpt>
      <trkpt lat="45.606" lon="6.70859">
        <ele>2079</ele>
        <time>2021-02-13T10:36:14Z</time>
      </trkpt>
      <trkpt lat="45.606" lon="6.70859">
        <ele>2080</ele>
        <time>2021-02-13T10:36:17Z</time>
      </trkpt>
      <trkpt lat="45.60601" lon="6.70857">
        <ele>2080</ele>
        <time>2021-02-13T10:36:18Z</time>
      </trkpt>
      <trkpt lat="45.60603" lon="6.70855">
        <ele>2080</ele>
        <time>2021-02-13T10:36:22Z</time>
      </trkpt>
      <trkpt lat="45.60605" lon="6.70853">
        <ele>2080</ele>
        <time>2021-02-13T10:36:25Z</time>
      </trkpt>
      <trkpt lat="45.60605" lon="6.70853">
        <ele>2081</ele>
        <time>2021-02-13T10:36:27Z</time>
      </trkpt>
      <trkpt lat="45.60607" lon="6.70851">
        <ele>2081</ele>
        <time>2021-02-13T10:36:29Z</time>
      </trkpt>
      <trkpt lat="45.60608" lon="6.70849">
        <ele>2081</ele>
        <time>2021-02-13T10:36:33Z</time>
      </trkpt>
      <trkpt lat="45.6061" lon="6.70847">
        <ele>2082</ele>
        <time>2021-02-13T10:36:37Z</time>
      </trkpt>
      <trkpt lat="45.60612" lon="6.70845">
        <ele>2082</ele>
        <time>2021-02-13T10:36:41Z</time>
      </trkpt>
      <trkpt lat="45.60613" lon="6.70844">
        <ele>2082</ele>
        <time>2021-02-13T10:36:45Z</time>
      </trkpt>
      <trkpt lat="45.60613" lon="6.70844">
        <ele>2082</ele>
        <time>2021-02-13T10:36:47Z</time>
      </trkpt>
      <trkpt lat="45.60616" lon="6.70841">
        <ele>2082</ele>
        <time>2021-02-13T10:36:49Z</time>
      </trkpt>
      <trkpt lat="45.60617" lon="6.7084">
        <ele>2082</ele>
        <time>2021-02-13T10:36:54Z</time>
      </trkpt>
      <trkpt lat="45.60618" lon="6.70839">
        <ele>2084</ele>
        <time>2021-02-13T10:36:57Z</time>
      </trkpt>
      <trkpt lat="45.60619" lon="6.70838">
        <ele>2084</ele>
        <time>2021-02-13T10:36:58Z</time>
      </trkpt>
      <trkpt lat="45.60619" lon="6.70838">
        <ele>2084</ele>
        <time>2021-02-13T10:37:02Z</time>
      </trkpt>
      <trkpt lat="45.6062" lon="6.70837">
        <ele>2084</ele>
        <time>2021-02-13T10:37:06Z</time>
      </trkpt>
      <trkpt lat="45.60621" lon="6.70836">
        <ele>2084</ele>
        <time>2021-02-13T10:37:07Z</time>
      </trkpt>
      <trkpt lat="45.60624" lon="6.70833">
        <ele>2084</ele>
        <time>2021-02-13T10:37:10Z</time>
      </trkpt>
      <trkpt lat="45.60625" lon="6.70832">
        <ele>2084</ele>
        <time>2021-02-13T10:37:14Z</time>
      </trkpt>
      <trkpt lat="45.60626" lon="6.70832">
        <ele>2085</ele>
        <time>2021-02-13T10:37:17Z</time>
      </trkpt>
      <trkpt lat="45.60627" lon="6.70831">
        <ele>2085</ele>
        <time>2021-02-13T10:37:18Z</time>
      </trkpt>
      <trkpt lat="45.60628" lon="6.7083">
        <ele>2085</ele>
        <time>2021-02-13T10:37:22Z</time>
      </trkpt>
      <trkpt lat="45.60629" lon="6.70829">
        <ele>2085</ele>
        <time>2021-02-13T10:37:26Z</time>
      </trkpt>
      <trkpt lat="45.6063" lon="6.70828">
        <ele>2086</ele>
        <time>2021-02-13T10:37:27Z</time>
      </trkpt>
      <trkpt lat="45.60632" lon="6.70826">
        <ele>2086</ele>
        <time>2021-02-13T10:37:30Z</time>
      </trkpt>
      <trkpt lat="45.60633" lon="6.70825">
        <ele>2086</ele>
        <time>2021-02-13T10:37:34Z</time>
      </trkpt>
      <trkpt lat="45.60634" lon="6.70825">
        <ele>2087</ele>
        <time>2021-02-13T10:37:37Z</time>
      </trkpt>
      <trkpt lat="45.60635" lon="6.70824">
        <ele>2087</ele>
        <time>2021-02-13T10:37:38Z</time>
      </trkpt>
      <trkpt lat="45.60636" lon="6.70823">
        <ele>2087</ele>
        <time>2021-02-13T10:37:42Z</time>
      </trkpt>
      <trkpt lat="45.60637" lon="6.70822">
        <ele>2087</ele>
        <time>2021-02-13T10:37:46Z</time>
      </trkpt>
      <trkpt lat="45.60638" lon="6.70822">
        <ele>2089</ele>
        <time>2021-02-13T10:37:47Z</time>
      </trkpt>
      <trkpt lat="45.60641" lon="6.7082">
        <ele>2089</ele>
        <time>2021-02-13T10:37:50Z</time>
      </trkpt>
      <trkpt lat="45.60642" lon="6.70819">
        <ele>2089</ele>
        <time>2021-02-13T10:37:54Z</time>
      </trkpt>
      <trkpt lat="45.60643" lon="6.70818">
        <ele>2089</ele>
        <time>2021-02-13T10:37:57Z</time>
      </trkpt>
      <trkpt lat="45.60644" lon="6.70818">
        <ele>2089</ele>
        <time>2021-02-13T10:37:58Z</time>
      </trkpt>
      <trkpt lat="45.60645" lon="6.70817">
        <ele>2089</ele>
        <time>2021-02-13T10:38:03Z</time>
      </trkpt>
      <trkpt lat="45.60646" lon="6.70816">
        <ele>2089</ele>
        <time>2021-02-13T10:38:07Z</time>
      </trkpt>
      <trkpt lat="45.60647" lon="6.70815">
        <ele>2089</ele>
        <time>2021-02-13T10:38:08Z</time>
      </trkpt>
      <trkpt lat="45.60649" lon="6.70815">
        <ele>2089</ele>
        <time>2021-02-13T10:38:12Z</time>
      </trkpt>
      <trkpt lat="45.6065" lon="6.70814">
        <ele>2089</ele>
        <time>2021-02-13T10:38:16Z</time>
      </trkpt>
      <trkpt lat="45.60651" lon="6.70813">
        <ele>2092</ele>
        <time>2021-02-13T10:38:17Z</time>
      </trkpt>
      <trkpt lat="45.60653" lon="6.70812">
        <ele>2092</ele>
        <time>2021-02-13T10:38:20Z</time>
      </trkpt>
      <trkpt lat="45.60655" lon="6.70811">
        <ele>2092</ele>
        <time>2021-02-13T10:38:24Z</time>
      </trkpt>
      <trkpt lat="45.60656" lon="6.7081">
        <ele>2092</ele>
        <time>2021-02-13T10:38:27Z</time>
      </trkpt>
      <trkpt lat="45.60657" lon="6.7081">
        <ele>2092</ele>
        <time>2021-02-13T10:38:28Z</time>
      </trkpt>
      <trkpt lat="45.60658" lon="6.70809">
        <ele>2092</ele>
        <time>2021-02-13T10:38:32Z</time>
      </trkpt>
      <trkpt lat="45.60659" lon="6.70808">
        <ele>2092</ele>
        <time>2021-02-13T10:38:36Z</time>
      </trkpt>
      <trkpt lat="45.6066" lon="6.70808">
        <ele>2093</ele>
        <time>2021-02-13T10:38:37Z</time>
      </trkpt>
      <trkpt lat="45.60662" lon="6.70807">
        <ele>2093</ele>
        <time>2021-02-13T10:38:40Z</time>
      </trkpt>
      <trkpt lat="45.60665" lon="6.70805">
        <ele>2093</ele>
        <time>2021-02-13T10:38:44Z</time>
      </trkpt>
      <trkpt lat="45.60665" lon="6.70805">
        <ele>2094</ele>
        <time>2021-02-13T10:38:47Z</time>
      </trkpt>
      <trkpt lat="45.60667" lon="6.70804">
        <ele>2094</ele>
        <time>2021-02-13T10:38:48Z</time>
      </trkpt>
      <trkpt lat="45.60669" lon="6.70803">
        <ele>2094</ele>
        <time>2021-02-13T10:38:52Z</time>
      </trkpt>
      <trkpt lat="45.60671" lon="6.70802">
        <ele>2094</ele>
        <time>2021-02-13T10:38:55Z</time>
      </trkpt>
      <trkpt lat="45.60671" lon="6.70802">
        <ele>2095</ele>
        <time>2021-02-13T10:38:57Z</time>
      </trkpt>
      <trkpt lat="45.60673" lon="6.708">
        <ele>2095</ele>
        <time>2021-02-13T10:38:58Z</time>
      </trkpt>
      <trkpt lat="45.60675" lon="6.708">
        <ele>2095</ele>
        <time>2021-02-13T10:39:01Z</time>
      </trkpt>
      <trkpt lat="45.60676" lon="6.70799">
        <ele>2095</ele>
        <time>2021-02-13T10:39:04Z</time>
      </trkpt>
      <trkpt lat="45.60677" lon="6.70798">
        <ele>2095</ele>
        <time>2021-02-13T10:39:07Z</time>
      </trkpt>
      <trkpt lat="45.60678" lon="6.70797">
        <ele>2095</ele>
        <time>2021-02-13T10:39:08Z</time>
      </trkpt>
      <trkpt lat="45.60681" lon="6.70795">
        <ele>2095</ele>
        <time>2021-02-13T10:39:10Z</time>
      </trkpt>
      <trkpt lat="45.60682" lon="6.70795">
        <ele>2095</ele>
        <time>2021-02-13T10:39:13Z</time>
      </trkpt>
      <trkpt lat="45.60683" lon="6.70794">
        <ele>2095</ele>
        <time>2021-02-13T10:39:16Z</time>
      </trkpt>
      <trkpt lat="45.60684" lon="6.70793">
        <ele>2096</ele>
        <time>2021-02-13T10:39:17Z</time>
      </trkpt>
      <trkpt lat="45.60686" lon="6.70792">
        <ele>2096</ele>
        <time>2021-02-13T10:39:19Z</time>
      </trkpt>
      <trkpt lat="45.60688" lon="6.7079">
        <ele>2096</ele>
        <time>2021-02-13T10:39:22Z</time>
      </trkpt>
      <trkpt lat="45.6069" lon="6.70789">
        <ele>2096</ele>
        <time>2021-02-13T10:39:25Z</time>
      </trkpt>
      <trkpt lat="45.6069" lon="6.70789">
        <ele>2096</ele>
        <time>2021-02-13T10:39:27Z</time>
      </trkpt>
      <trkpt lat="45.60692" lon="6.70788">
        <ele>2096</ele>
        <time>2021-02-13T10:39:28Z</time>
      </trkpt>
      <trkpt lat="45.60694" lon="6.70786">
        <ele>2096</ele>
        <time>2021-02-13T10:39:31Z</time>
      </trkpt>
      <trkpt lat="45.60696" lon="6.70785">
        <ele>2096</ele>
        <time>2021-02-13T10:39:34Z</time>
      </trkpt>
      <trkpt lat="45.60698" lon="6.70784">
        <ele>2097</ele>
        <time>2021-02-13T10:39:37Z</time>
      </trkpt>
      <trkpt lat="45.60701" lon="6.70782">
        <ele>2097</ele>
        <time>2021-02-13T10:39:40Z</time>
      </trkpt>
      <trkpt lat="45.60702" lon="6.70782">
        <ele>2097</ele>
        <time>2021-02-13T10:39:43Z</time>
      </trkpt>
      <trkpt lat="45.60703" lon="6.70781">
        <ele>2097</ele>
        <time>2021-02-13T10:39:46Z</time>
      </trkpt>
      <trkpt lat="45.60704" lon="6.70781">
        <ele>2097</ele>
        <time>2021-02-13T10:39:47Z</time>
      </trkpt>
      <trkpt lat="45.60707" lon="6.70779">
        <ele>2097</ele>
        <time>2021-02-13T10:39:49Z</time>
      </trkpt>
      <trkpt lat="45.60708" lon="6.70778">
        <ele>2097</ele>
        <time>2021-02-13T10:39:52Z</time>
      </trkpt>
      <trkpt lat="45.60709" lon="6.70778">
        <ele>2097</ele>
        <time>2021-02-13T10:39:56Z</time>
      </trkpt>
      <trkpt lat="45.6071" lon="6.70777">
        <ele>2098</ele>
        <time>2021-02-13T10:39:57Z</time>
      </trkpt>
      <trkpt lat="45.60713" lon="6.70775">
        <ele>2098</ele>
        <time>2021-02-13T10:40:00Z</time>
      </trkpt>
      <trkpt lat="45.60714" lon="6.70774">
        <ele>2098</ele>
        <time>2021-02-13T10:40:04Z</time>
      </trkpt>
      <trkpt lat="45.60715" lon="6.70773">
        <ele>2099</ele>
        <time>2021-02-13T10:40:07Z</time>
      </trkpt>
      <trkpt lat="45.60716" lon="6.70772">
        <ele>2099</ele>
        <time>2021-02-13T10:40:08Z</time>
      </trkpt>
      <trkpt lat="45.60717" lon="6.70772">
        <ele>2099</ele>
        <time>2021-02-13T10:40:12Z</time>
      </trkpt>
      <trkpt lat="45.60718" lon="6.70771">
        <ele>2099</ele>
        <time>2021-02-13T10:40:16Z</time>
      </trkpt>
      <trkpt lat="45.60719" lon="6.7077">
        <ele>2099</ele>
        <time>2021-02-13T10:40:17Z</time>
      </trkpt>
      <trkpt lat="45.60722" lon="6.70768">
        <ele>2099</ele>
        <time>2021-02-13T10:40:20Z</time>
      </trkpt>
      <trkpt lat="45.60723" lon="6.70767">
        <ele>2099</ele>
        <time>2021-02-13T10:40:24Z</time>
      </trkpt>
      <trkpt lat="45.60724" lon="6.70766">
        <ele>2100</ele>
        <time>2021-02-13T10:40:27Z</time>
      </trkpt>
      <trkpt lat="45.60725" lon="6.70765">
        <ele>2100</ele>
        <time>2021-02-13T10:40:28Z</time>
      </trkpt>
      <trkpt lat="45.60726" lon="6.70764">
        <ele>2100</ele>
        <time>2021-02-13T10:40:32Z</time>
      </trkpt>
      <trkpt lat="45.60727" lon="6.70763">
        <ele>2100</ele>
        <time>2021-02-13T10:40:36Z</time>
      </trkpt>
      <trkpt lat="45.60728" lon="6.70762">
        <ele>2102</ele>
        <time>2021-02-13T10:40:37Z</time>
      </trkpt>
      <trkpt lat="45.60731" lon="6.7076">
        <ele>2102</ele>
        <time>2021-02-13T10:40:40Z</time>
      </trkpt>
      <trkpt lat="45.60732" lon="6.70759">
        <ele>2102</ele>
        <time>2021-02-13T10:40:44Z</time>
      </trkpt>
      <trkpt lat="45.60733" lon="6.70758">
        <ele>2102</ele>
        <time>2021-02-13T10:40:47Z</time>
      </trkpt>
      <trkpt lat="45.60734" lon="6.70757">
        <ele>2102</ele>
        <time>2021-02-13T10:40:48Z</time>
      </trkpt>
      <trkpt lat="45.60735" lon="6.70756">
        <ele>2102</ele>
        <time>2021-02-13T10:40:52Z</time>
      </trkpt>
      <trkpt lat="45.60736" lon="6.70756">
        <ele>2102</ele>
        <time>2021-02-13T10:40:56Z</time>
      </trkpt>
      <trkpt lat="45.60737" lon="6.70755">
        <ele>2104</ele>
        <time>2021-02-13T10:40:57Z</time>
      </trkpt>
      <trkpt lat="45.60739" lon="6.70753">
        <ele>2104</ele>
        <time>2021-02-13T10:41:00Z</time>
      </trkpt>
      <trkpt lat="45.6074" lon="6.70752">
        <ele>2104</ele>
        <time>2021-02-13T10:41:04Z</time>
      </trkpt>
      <trkpt lat="45.60741" lon="6.70751">
        <ele>2105</ele>
        <time>2021-02-13T10:41:07Z</time>
      </trkpt>
      <trkpt lat="45.60742" lon="6.7075">
        <ele>2105</ele>
        <time>2021-02-13T10:41:09Z</time>
      </trkpt>
      <trkpt lat="45.60744" lon="6.70749">
        <ele>2105</ele>
        <time>2021-02-13T10:41:14Z</time>
      </trkpt>
      <trkpt lat="45.60745" lon="6.70748">
        <ele>2106</ele>
        <time>2021-02-13T10:41:17Z</time>
      </trkpt>
      <trkpt lat="45.60746" lon="6.70747">
        <ele>2106</ele>
        <time>2021-02-13T10:41:18Z</time>
      </trkpt>
      <trkpt lat="45.60747" lon="6.70746">
        <ele>2106</ele>
        <time>2021-02-13T10:41:22Z</time>
      </trkpt>
      <trkpt lat="45.60748" lon="6.70745">
        <ele>2106</ele>
        <time>2021-02-13T10:41:26Z</time>
      </trkpt>
      <trkpt lat="45.60749" lon="6.70745">
        <ele>2106</ele>
        <time>2021-02-13T10:41:27Z</time>
      </trkpt>
      <trkpt lat="45.60751" lon="6.70742">
        <ele>2106</ele>
        <time>2021-02-13T10:41:30Z</time>
      </trkpt>
      <trkpt lat="45.60752" lon="6.70741">
        <ele>2106</ele>
        <time>2021-02-13T10:41:34Z</time>
      </trkpt>
      <trkpt lat="45.60753" lon="6.70741">
        <ele>2108</ele>
        <time>2021-02-13T10:41:37Z</time>
      </trkpt>
      <trkpt lat="45.60754" lon="6.7074">
        <ele>2108</ele>
        <time>2021-02-13T10:41:38Z</time>
      </trkpt>
      <trkpt lat="45.60755" lon="6.70739">
        <ele>2108</ele>
        <time>2021-02-13T10:41:42Z</time>
      </trkpt>
      <trkpt lat="45.60757" lon="6.70738">
        <ele>2108</ele>
        <time>2021-02-13T10:41:46Z</time>
      </trkpt>
      <trkpt lat="45.60758" lon="6.70738">
        <ele>2109</ele>
        <time>2021-02-13T10:41:47Z</time>
      </trkpt>
      <trkpt lat="45.6076" lon="6.70736">
        <ele>2109</ele>
        <time>2021-02-13T10:41:50Z</time>
      </trkpt>
      <trkpt lat="45.60761" lon="6.70734">
        <ele>2109</ele>
        <time>2021-02-13T10:41:54Z</time>
      </trkpt>
      <trkpt lat="45.60761" lon="6.70734">
        <ele>2109</ele>
        <time>2021-02-13T10:41:57Z</time>
      </trkpt>
      <trkpt lat="45.60763" lon="6.70733">
        <ele>2109</ele>
        <time>2021-02-13T10:41:58Z</time>
      </trkpt>
      <trkpt lat="45.60765" lon="6.70731">
        <ele>2109</ele>
        <time>2021-02-13T10:42:01Z</time>
      </trkpt>
      <trkpt lat="45.60767" lon="6.70729">
        <ele>2109</ele>
        <time>2021-02-13T10:42:05Z</time>
      </trkpt>
      <trkpt lat="45.60767" lon="6.70729">
        <ele>2109</ele>
        <time>2021-02-13T10:42:07Z</time>
      </trkpt>
      <trkpt lat="45.6077" lon="6.70727">
        <ele>2109</ele>
        <time>2021-02-13T10:42:09Z</time>
      </trkpt>
      <trkpt lat="45.60771" lon="6.70726">
        <ele>2109</ele>
        <time>2021-02-13T10:42:13Z</time>
      </trkpt>
      <trkpt lat="45.60772" lon="6.70725">
        <ele>2109</ele>
        <time>2021-02-13T10:42:17Z</time>
      </trkpt>
      <trkpt lat="45.60772" lon="6.70724">
        <ele>2109</ele>
        <time>2021-02-13T10:42:18Z</time>
      </trkpt>
      <trkpt lat="45.60774" lon="6.70722">
        <ele>2111</ele>
        <time>2021-02-13T10:42:27Z</time>
      </trkpt>
      <trkpt lat="45.60774" lon="6.70722">
        <ele>2111</ele>
        <time>2021-02-13T10:42:37Z</time>
      </trkpt>
      <trkpt lat="45.60774" lon="6.70722">
        <ele>2111</ele>
        <time>2021-02-13T10:42:47Z</time>
      </trkpt>
      <trkpt lat="45.60774" lon="6.70722">
        <ele>2112</ele>
        <time>2021-02-13T10:42:57Z</time>
      </trkpt>
      <trkpt lat="45.60774" lon="6.70722">
        <ele>2110</ele>
        <time>2021-02-13T10:43:07Z</time>
      </trkpt>
      <trkpt lat="45.60774" lon="6.70722">
        <ele>2110</ele>
        <time>2021-02-13T10:43:17Z</time>
      </trkpt>
      <trkpt lat="45.60774" lon="6.70722">
        <ele>2111</ele>
        <time>2021-02-13T10:43:27Z</time>
      </trkpt>
      <trkpt lat="45.60774" lon="6.70722">
        <ele>2111</ele>
        <time>2021-02-13T10:43:37Z</time>
      </trkpt>
      <trkpt lat="45.60776" lon="6.70721">
        <ele>2111</ele>
        <time>2021-02-13T10:43:40Z</time>
      </trkpt>
      <trkpt lat="45.60776" lon="6.70721">
        <ele>2112</ele>
        <time>2021-02-13T10:43:47Z</time>
      </trkpt>
      <trkpt lat="45.60776" lon="6.70721">
        <ele>2112</ele>
        <time>2021-02-13T10:43:57Z</time>
      </trkpt>
      <trkpt lat="45.60777" lon="6.70719">
        <ele>2112</ele>
        <time>2021-02-13T10:44:05Z</time>
      </trkpt>
      <trkpt lat="45.60777" lon="6.70719">
        <ele>2112</ele>
        <time>2021-02-13T10:44:07Z</time>
      </trkpt>
      <trkpt lat="45.60779" lon="6.70718">
        <ele>2112</ele>
        <time>2021-02-13T10:44:09Z</time>
      </trkpt>
      <trkpt lat="45.60781" lon="6.70716">
        <ele>2112</ele>
        <time>2021-02-13T10:44:13Z</time>
      </trkpt>
      <trkpt lat="45.60783" lon="6.70714">
        <ele>2112</ele>
        <time>2021-02-13T10:44:17Z</time>
      </trkpt>
      <trkpt lat="45.60785" lon="6.70713">
        <ele>2112</ele>
        <time>2021-02-13T10:44:21Z</time>
      </trkpt>
      <trkpt lat="45.60787" lon="6.70711">
        <ele>2112</ele>
        <time>2021-02-13T10:44:25Z</time>
      </trkpt>
      <trkpt lat="45.60787" lon="6.70711">
        <ele>2111</ele>
        <time>2021-02-13T10:44:27Z</time>
      </trkpt>
      <trkpt lat="45.6079" lon="6.70708">
        <ele>2111</ele>
        <time>2021-02-13T10:44:29Z</time>
      </trkpt>
      <trkpt lat="45.60791" lon="6.70707">
        <ele>2111</ele>
        <time>2021-02-13T10:44:32Z</time>
      </trkpt>
      <trkpt lat="45.60791" lon="6.70706">
        <ele>2111</ele>
        <time>2021-02-13T10:44:36Z</time>
      </trkpt>
      <trkpt lat="45.60792" lon="6.70705">
        <ele>2111</ele>
        <time>2021-02-13T10:44:37Z</time>
      </trkpt>
      <trkpt lat="45.60794" lon="6.70704">
        <ele>2111</ele>
        <time>2021-02-13T10:44:39Z</time>
      </trkpt>
      <trkpt lat="45.60796" lon="6.70702">
        <ele>2111</ele>
        <time>2021-02-13T10:44:42Z</time>
      </trkpt>
      <trkpt lat="45.60797" lon="6.70701">
        <ele>2111</ele>
        <time>2021-02-13T10:44:45Z</time>
      </trkpt>
      <trkpt lat="45.60797" lon="6.70701">
        <ele>2112</ele>
        <time>2021-02-13T10:44:47Z</time>
      </trkpt>
      <trkpt lat="45.60799" lon="6.70699">
        <ele>2112</ele>
        <time>2021-02-13T10:44:48Z</time>
      </trkpt>
      <trkpt lat="45.608" lon="6.70697">
        <ele>2112</ele>
        <time>2021-02-13T10:44:51Z</time>
      </trkpt>
      <trkpt lat="45.60802" lon="6.70695">
        <ele>2112</ele>
        <time>2021-02-13T10:44:55Z</time>
      </trkpt>
      <trkpt lat="45.60802" lon="6.70695">
        <ele>2112</ele>
        <time>2021-02-13T10:44:57Z</time>
      </trkpt>
      <trkpt lat="45.60805" lon="6.70692">
        <ele>2112</ele>
        <time>2021-02-13T10:44:59Z</time>
      </trkpt>
      <trkpt lat="45.60806" lon="6.70691">
        <ele>2112</ele>
        <time>2021-02-13T10:45:03Z</time>
      </trkpt>
      <trkpt lat="45.60807" lon="6.7069">
        <ele>2112</ele>
        <time>2021-02-13T10:45:07Z</time>
      </trkpt>
      <trkpt lat="45.60808" lon="6.70689">
        <ele>2112</ele>
        <time>2021-02-13T10:45:12Z</time>
      </trkpt>
      <trkpt lat="45.60809" lon="6.70687">
        <ele>2113</ele>
        <time>2021-02-13T10:45:17Z</time>
      </trkpt>
      <trkpt lat="45.6081" lon="6.70686">
        <ele>2113</ele>
        <time>2021-02-13T10:45:22Z</time>
      </trkpt>
      <trkpt lat="45.60812" lon="6.70685">
        <ele>2113</ele>
        <time>2021-02-13T10:45:27Z</time>
      </trkpt>
      <trkpt lat="45.60813" lon="6.70684">
        <ele>2114</ele>
        <time>2021-02-13T10:45:28Z</time>
      </trkpt>
      <trkpt lat="45.60814" lon="6.70682">
        <ele>2114</ele>
        <time>2021-02-13T10:45:31Z</time>
      </trkpt>
      <trkpt lat="45.60816" lon="6.7068">
        <ele>2114</ele>
        <time>2021-02-13T10:45:35Z</time>
      </trkpt>
      <trkpt lat="45.60816" lon="6.7068">
        <ele>2116</ele>
        <time>2021-02-13T10:45:37Z</time>
      </trkpt>
      <trkpt lat="45.60818" lon="6.70678">
        <ele>2116</ele>
        <time>2021-02-13T10:45:39Z</time>
      </trkpt>
      <trkpt lat="45.60819" lon="6.70676">
        <ele>2116</ele>
        <time>2021-02-13T10:45:43Z</time>
      </trkpt>
      <trkpt lat="45.60821" lon="6.70674">
        <ele>2117</ele>
        <time>2021-02-13T10:45:47Z</time>
      </trkpt>
      <trkpt lat="45.60822" lon="6.70673">
        <ele>2117</ele>
        <time>2021-02-13T10:45:50Z</time>
      </trkpt>
      <trkpt lat="45.60824" lon="6.70672">
        <ele>2117</ele>
        <time>2021-02-13T10:45:53Z</time>
      </trkpt>
      <trkpt lat="45.60826" lon="6.7067">
        <ele>2117</ele>
        <time>2021-02-13T10:45:57Z</time>
      </trkpt>
      <trkpt lat="45.60827" lon="6.70668">
        <ele>2117</ele>
        <time>2021-02-13T10:46:01Z</time>
      </trkpt>
      <trkpt lat="45.60829" lon="6.70665">
        <ele>2117</ele>
        <time>2021-02-13T10:46:05Z</time>
      </trkpt>
      <trkpt lat="45.60829" lon="6.70665">
        <ele>2118</ele>
        <time>2021-02-13T10:46:07Z</time>
      </trkpt>
      <trkpt lat="45.6083" lon="6.70663">
        <ele>2118</ele>
        <time>2021-02-13T10:46:09Z</time>
      </trkpt>
      <trkpt lat="45.60831" lon="6.7066">
        <ele>2118</ele>
        <time>2021-02-13T10:46:13Z</time>
      </trkpt>
      <trkpt lat="45.60832" lon="6.70658">
        <ele>2118</ele>
        <time>2021-02-13T10:46:17Z</time>
      </trkpt>
      <trkpt lat="45.60833" lon="6.70655">
        <ele>2118</ele>
        <time>2021-02-13T10:46:21Z</time>
      </trkpt>
      <trkpt lat="45.60834" lon="6.70653">
        <ele>2118</ele>
        <time>2021-02-13T10:46:25Z</time>
      </trkpt>
      <trkpt lat="45.60834" lon="6.70653">
        <ele>2119</ele>
        <time>2021-02-13T10:46:27Z</time>
      </trkpt>
      <trkpt lat="45.60835" lon="6.7065">
        <ele>2119</ele>
        <time>2021-02-13T10:46:30Z</time>
      </trkpt>
      <trkpt lat="45.60837" lon="6.70648">
        <ele>2119</ele>
        <time>2021-02-13T10:46:35Z</time>
      </trkpt>
      <trkpt lat="45.60837" lon="6.70648">
        <ele>2120</ele>
        <time>2021-02-13T10:46:37Z</time>
      </trkpt>
      <trkpt lat="45.60838" lon="6.70645">
        <ele>2120</ele>
        <time>2021-02-13T10:46:40Z</time>
      </trkpt>
      <trkpt lat="45.60839" lon="6.70643">
        <ele>2120</ele>
        <time>2021-02-13T10:46:45Z</time>
      </trkpt>
      <trkpt lat="45.60839" lon="6.70643">
        <ele>2121</ele>
        <time>2021-02-13T10:46:47Z</time>
      </trkpt>
      <trkpt lat="45.6084" lon="6.70641">
        <ele>2121</ele>
        <time>2021-02-13T10:46:50Z</time>
      </trkpt>
      <trkpt lat="45.60841" lon="6.70639">
        <ele>2121</ele>
        <time>2021-02-13T10:46:55Z</time>
      </trkpt>
      <trkpt lat="45.60841" lon="6.70639">
        <ele>2123</ele>
        <time>2021-02-13T10:46:57Z</time>
      </trkpt>
      <trkpt lat="45.60843" lon="6.70637">
        <ele>2123</ele>
        <time>2021-02-13T10:47:01Z</time>
      </trkpt>
      <trkpt lat="45.60845" lon="6.70635">
        <ele>2123</ele>
        <time>2021-02-13T10:47:06Z</time>
      </trkpt>
      <trkpt lat="45.60845" lon="6.70635">
        <ele>2123</ele>
        <time>2021-02-13T10:47:07Z</time>
      </trkpt>
      <trkpt lat="45.60846" lon="6.70634">
        <ele>2123</ele>
        <time>2021-02-13T10:47:11Z</time>
      </trkpt>
      <trkpt lat="45.60848" lon="6.70633">
        <ele>2123</ele>
        <time>2021-02-13T10:47:16Z</time>
      </trkpt>
      <trkpt lat="45.60848" lon="6.70633">
        <ele>2124</ele>
        <time>2021-02-13T10:47:17Z</time>
      </trkpt>
      <trkpt lat="45.60851" lon="6.70631">
        <ele>2124</ele>
        <time>2021-02-13T10:47:21Z</time>
      </trkpt>
      <trkpt lat="45.60851" lon="6.70631">
        <ele>2124</ele>
        <time>2021-02-13T10:47:26Z</time>
      </trkpt>
      <trkpt lat="45.60852" lon="6.7063">
        <ele>2125</ele>
        <time>2021-02-13T10:47:27Z</time>
      </trkpt>
      <trkpt lat="45.60854" lon="6.70629">
        <ele>2125</ele>
        <time>2021-02-13T10:47:31Z</time>
      </trkpt>
      <trkpt lat="45.60855" lon="6.70628">
        <ele>2125</ele>
        <time>2021-02-13T10:47:36Z</time>
      </trkpt>
      <trkpt lat="45.60856" lon="6.70628">
        <ele>2125</ele>
        <time>2021-02-13T10:47:37Z</time>
      </trkpt>
      <trkpt lat="45.60857" lon="6.70626">
        <ele>2125</ele>
        <time>2021-02-13T10:47:40Z</time>
      </trkpt>
      <trkpt lat="45.60859" lon="6.70625">
        <ele>2125</ele>
        <time>2021-02-13T10:47:45Z</time>
      </trkpt>
      <trkpt lat="45.60859" lon="6.70625">
        <ele>2127</ele>
        <time>2021-02-13T10:47:47Z</time>
      </trkpt>
      <trkpt lat="45.60861" lon="6.70624">
        <ele>2127</ele>
        <time>2021-02-13T10:47:50Z</time>
      </trkpt>
      <trkpt lat="45.60863" lon="6.70623">
        <ele>2127</ele>
        <time>2021-02-13T10:47:55Z</time>
      </trkpt>
      <trkpt lat="45.60863" lon="6.70623">
        <ele>2128</ele>
        <time>2021-02-13T10:47:57Z</time>
      </trkpt>
      <trkpt lat="45.60865" lon="6.70621">
        <ele>2128</ele>
        <time>2021-02-13T10:48:01Z</time>
      </trkpt>
      <trkpt lat="45.60865" lon="6.70618">
        <ele>2129</ele>
        <time>2021-02-13T10:48:07Z</time>
      </trkpt>
      <trkpt lat="45.60865" lon="6.70616">
        <ele>2129</ele>
        <time>2021-02-13T10:48:13Z</time>
      </trkpt>
      <trkpt lat="45.60865" lon="6.70616">
        <ele>2131</ele>
        <time>2021-02-13T10:48:17Z</time>
      </trkpt>
      <trkpt lat="45.60865" lon="6.70613">
        <ele>2131</ele>
        <time>2021-02-13T10:48:19Z</time>
      </trkpt>
      <trkpt lat="45.60866" lon="6.7061">
        <ele>2131</ele>
        <time>2021-02-13T10:48:25Z</time>
      </trkpt>
      <trkpt lat="45.60866" lon="6.7061">
        <ele>2131</ele>
        <time>2021-02-13T10:48:27Z</time>
      </trkpt>
      <trkpt lat="45.60866" lon="6.70608">
        <ele>2131</ele>
        <time>2021-02-13T10:48:30Z</time>
      </trkpt>
      <trkpt lat="45.60867" lon="6.70605">
        <ele>2131</ele>
        <time>2021-02-13T10:48:36Z</time>
      </trkpt>
      <trkpt lat="45.60867" lon="6.70605">
        <ele>2133</ele>
        <time>2021-02-13T10:48:38Z</time>
      </trkpt>
      <trkpt lat="45.60868" lon="6.70602">
        <ele>2133</ele>
        <time>2021-02-13T10:48:42Z</time>
      </trkpt>
      <trkpt lat="45.60868" lon="6.70602">
        <ele>2133</ele>
        <time>2021-02-13T10:48:47Z</time>
      </trkpt>
      <trkpt lat="45.60868" lon="6.706">
        <ele>2133</ele>
        <time>2021-02-13T10:48:48Z</time>
      </trkpt>
      <trkpt lat="45.60868" lon="6.70597">
        <ele>2133</ele>
        <time>2021-02-13T10:48:54Z</time>
      </trkpt>
      <trkpt lat="45.60868" lon="6.70597">
        <ele>2135</ele>
        <time>2021-02-13T10:48:57Z</time>
      </trkpt>
      <trkpt lat="45.60868" lon="6.70594">
        <ele>2135</ele>
        <time>2021-02-13T10:48:59Z</time>
      </trkpt>
      <trkpt lat="45.60868" lon="6.70591">
        <ele>2135</ele>
        <time>2021-02-13T10:49:04Z</time>
      </trkpt>
      <trkpt lat="45.60868" lon="6.70591">
        <ele>2136</ele>
        <time>2021-02-13T10:49:07Z</time>
      </trkpt>
      <trkpt lat="45.60867" lon="6.70589">
        <ele>2136</ele>
        <time>2021-02-13T10:49:09Z</time>
      </trkpt>
      <trkpt lat="45.60867" lon="6.70586">
        <ele>2136</ele>
        <time>2021-02-13T10:49:14Z</time>
      </trkpt>
      <trkpt lat="45.60867" lon="6.70586">
        <ele>2137</ele>
        <time>2021-02-13T10:49:17Z</time>
      </trkpt>
      <trkpt lat="45.60868" lon="6.70583">
        <ele>2137</ele>
        <time>2021-02-13T10:49:19Z</time>
      </trkpt>
      <trkpt lat="45.60868" lon="6.7058">
        <ele>2137</ele>
        <time>2021-02-13T10:49:25Z</time>
      </trkpt>
      <trkpt lat="45.60868" lon="6.7058">
        <ele>2137</ele>
        <time>2021-02-13T10:49:27Z</time>
      </trkpt>
      <trkpt lat="45.60868" lon="6.70577">
        <ele>2137</ele>
        <time>2021-02-13T10:49:30Z</time>
      </trkpt>
      <trkpt lat="45.60868" lon="6.70574">
        <ele>2137</ele>
        <time>2021-02-13T10:49:35Z</time>
      </trkpt>
      <trkpt lat="45.60868" lon="6.70574">
        <ele>2138</ele>
        <time>2021-02-13T10:49:37Z</time>
      </trkpt>
      <trkpt lat="45.60868" lon="6.7057">
        <ele>2138</ele>
        <time>2021-02-13T10:49:40Z</time>
      </trkpt>
      <trkpt lat="45.60868" lon="6.70568">
        <ele>2138</ele>
        <time>2021-02-13T10:49:44Z</time>
      </trkpt>
      <trkpt lat="45.60869" lon="6.70566">
        <ele>2139</ele>
        <time>2021-02-13T10:49:47Z</time>
      </trkpt>
      <trkpt lat="45.60869" lon="6.70565">
        <ele>2139</ele>
        <time>2021-02-13T10:49:49Z</time>
      </trkpt>
      <trkpt lat="45.60869" lon="6.70563">
        <ele>2139</ele>
        <time>2021-02-13T10:49:54Z</time>
      </trkpt>
      <trkpt lat="45.6087" lon="6.70561">
        <ele>2139</ele>
        <time>2021-02-13T10:49:57Z</time>
      </trkpt>
      <trkpt lat="45.6087" lon="6.7056">
        <ele>2139</ele>
        <time>2021-02-13T10:49:58Z</time>
      </trkpt>
      <trkpt lat="45.6087" lon="6.70558">
        <ele>2139</ele>
        <time>2021-02-13T10:50:02Z</time>
      </trkpt>
      <trkpt lat="45.6087" lon="6.70556">
        <ele>2139</ele>
        <time>2021-02-13T10:50:06Z</time>
      </trkpt>
      <trkpt lat="45.60871" lon="6.70555">
        <ele>2141</ele>
        <time>2021-02-13T10:50:07Z</time>
      </trkpt>
      <trkpt lat="45.60872" lon="6.7055">
        <ele>2141</ele>
        <time>2021-02-13T10:50:10Z</time>
      </trkpt>
      <trkpt lat="45.60872" lon="6.70549">
        <ele>2141</ele>
        <time>2021-02-13T10:50:14Z</time>
      </trkpt>
      <trkpt lat="45.60872" lon="6.70547">
        <ele>2142</ele>
        <time>2021-02-13T10:50:17Z</time>
      </trkpt>
      <trkpt lat="45.60873" lon="6.70545">
        <ele>2142</ele>
        <time>2021-02-13T10:50:18Z</time>
      </trkpt>
      <trkpt lat="45.60873" lon="6.70543">
        <ele>2142</ele>
        <time>2021-02-13T10:50:22Z</time>
      </trkpt>
      <trkpt lat="45.60873" lon="6.70542">
        <ele>2142</ele>
        <time>2021-02-13T10:50:26Z</time>
      </trkpt>
      <trkpt lat="45.60873" lon="6.7054">
        <ele>2142</ele>
        <time>2021-02-13T10:50:27Z</time>
      </trkpt>
      <trkpt lat="45.60874" lon="6.70537">
        <ele>2142</ele>
        <time>2021-02-13T10:50:30Z</time>
      </trkpt>
      <trkpt lat="45.60874" lon="6.70534">
        <ele>2142</ele>
        <time>2021-02-13T10:50:34Z</time>
      </trkpt>
      <trkpt lat="45.60874" lon="6.70534">
        <ele>2143</ele>
        <time>2021-02-13T10:50:37Z</time>
      </trkpt>
      <trkpt lat="45.60875" lon="6.70531">
        <ele>2143</ele>
        <time>2021-02-13T10:50:38Z</time>
      </trkpt>
      <trkpt lat="45.60875" lon="6.70528">
        <ele>2143</ele>
        <time>2021-02-13T10:50:42Z</time>
      </trkpt>
      <trkpt lat="45.60875" lon="6.70525">
        <ele>2143</ele>
        <time>2021-02-13T10:50:45Z</time>
      </trkpt>
      <trkpt lat="45.60875" lon="6.70525">
        <ele>2144</ele>
        <time>2021-02-13T10:50:47Z</time>
      </trkpt>
      <trkpt lat="45.60876" lon="6.7052">
        <ele>2144</ele>
        <time>2021-02-13T10:50:49Z</time>
      </trkpt>
      <trkpt lat="45.60877" lon="6.70519">
        <ele>2144</ele>
        <time>2021-02-13T10:50:53Z</time>
      </trkpt>
      <trkpt lat="45.60878" lon="6.70517">
        <ele>2144</ele>
        <time>2021-02-13T10:50:57Z</time>
      </trkpt>
      <trkpt lat="45.60878" lon="6.70515">
        <ele>2144</ele>
        <time>2021-02-13T10:51:01Z</time>
      </trkpt>
      <trkpt lat="45.60879" lon="6.70513">
        <ele>2144</ele>
        <time>2021-02-13T10:51:04Z</time>
      </trkpt>
      <trkpt lat="45.6088" lon="6.70511">
        <ele>2145</ele>
        <time>2021-02-13T10:51:07Z</time>
      </trkpt>
      <trkpt lat="45.6088" lon="6.7051">
        <ele>2145</ele>
        <time>2021-02-13T10:51:08Z</time>
      </trkpt>
      <trkpt lat="45.60881" lon="6.70508">
        <ele>2145</ele>
        <time>2021-02-13T10:51:12Z</time>
      </trkpt>
      <trkpt lat="45.60882" lon="6.70506">
        <ele>2145</ele>
        <time>2021-02-13T10:51:16Z</time>
      </trkpt>
      <trkpt lat="45.60882" lon="6.70504">
        <ele>2146</ele>
        <time>2021-02-13T10:51:17Z</time>
      </trkpt>
      <trkpt lat="45.60885" lon="6.70502">
        <ele>2146</ele>
        <time>2021-02-13T10:51:21Z</time>
      </trkpt>
      <trkpt lat="45.60885" lon="6.70502">
        <ele>2146</ele>
        <time>2021-02-13T10:51:26Z</time>
      </trkpt>
      <trkpt lat="45.60886" lon="6.70501">
        <ele>2147</ele>
        <time>2021-02-13T10:51:27Z</time>
      </trkpt>
      <trkpt lat="45.60888" lon="6.70499">
        <ele>2147</ele>
        <time>2021-02-13T10:51:31Z</time>
      </trkpt>
      <trkpt lat="45.6089" lon="6.70498">
        <ele>2147</ele>
        <time>2021-02-13T10:51:36Z</time>
      </trkpt>
      <trkpt lat="45.6089" lon="6.70498">
        <ele>2148</ele>
        <time>2021-02-13T10:51:37Z</time>
      </trkpt>
      <trkpt lat="45.60891" lon="6.70495">
        <ele>2148</ele>
        <time>2021-02-13T10:51:41Z</time>
      </trkpt>
      <trkpt lat="45.60892" lon="6.70493">
        <ele>2148</ele>
        <time>2021-02-13T10:51:45Z</time>
      </trkpt>
      <trkpt lat="45.60892" lon="6.70493">
        <ele>2149</ele>
        <time>2021-02-13T10:51:48Z</time>
      </trkpt>
      <trkpt lat="45.60893" lon="6.70491">
        <ele>2149</ele>
        <time>2021-02-13T10:51:49Z</time>
      </trkpt>
      <trkpt lat="45.60893" lon="6.70488">
        <ele>2149</ele>
        <time>2021-02-13T10:51:54Z</time>
      </trkpt>
      <trkpt lat="45.60893" lon="6.70488">
        <ele>2150</ele>
        <time>2021-02-13T10:51:57Z</time>
      </trkpt>
      <trkpt lat="45.60892" lon="6.70485">
        <ele>2150</ele>
        <time>2021-02-13T10:52:00Z</time>
      </trkpt>
      <trkpt lat="45.60892" lon="6.70482">
        <ele>2150</ele>
        <time>2021-02-13T10:52:05Z</time>
      </trkpt>
      <trkpt lat="45.60892" lon="6.70482">
        <ele>2151</ele>
        <time>2021-02-13T10:52:07Z</time>
      </trkpt>
      <trkpt lat="45.60891" lon="6.7048">
        <ele>2151</ele>
        <time>2021-02-13T10:52:10Z</time>
      </trkpt>
      <trkpt lat="45.6089" lon="6.70477">
        <ele>2151</ele>
        <time>2021-02-13T10:52:15Z</time>
      </trkpt>
      <trkpt lat="45.6089" lon="6.70477">
        <ele>2151</ele>
        <time>2021-02-13T10:52:17Z</time>
      </trkpt>
      <trkpt lat="45.6089" lon="6.70474">
        <ele>2151</ele>
        <time>2021-02-13T10:52:20Z</time>
      </trkpt>
      <trkpt lat="45.60889" lon="6.70472">
        <ele>2151</ele>
        <time>2021-02-13T10:52:25Z</time>
      </trkpt>
      <trkpt lat="45.60889" lon="6.70472">
        <ele>2153</ele>
        <time>2021-02-13T10:52:27Z</time>
      </trkpt>
      <trkpt lat="45.60888" lon="6.70469">
        <ele>2153</ele>
        <time>2021-02-13T10:52:30Z</time>
      </trkpt>
      <trkpt lat="45.60888" lon="6.70466">
        <ele>2153</ele>
        <time>2021-02-13T10:52:35Z</time>
      </trkpt>
      <trkpt lat="45.60888" lon="6.70466">
        <ele>2154</ele>
        <time>2021-02-13T10:52:37Z</time>
      </trkpt>
      <trkpt lat="45.60888" lon="6.70463">
        <ele>2154</ele>
        <time>2021-02-13T10:52:40Z</time>
      </trkpt>
      <trkpt lat="45.60887" lon="6.7046">
        <ele>2154</ele>
        <time>2021-02-13T10:52:45Z</time>
      </trkpt>
      <trkpt lat="45.60887" lon="6.7046">
        <ele>2156</ele>
        <time>2021-02-13T10:52:47Z</time>
      </trkpt>
      <trkpt lat="45.60887" lon="6.70455">
        <ele>2156</ele>
        <time>2021-02-13T10:52:50Z</time>
      </trkpt>
      <trkpt lat="45.60887" lon="6.70453">
        <ele>2156</ele>
        <time>2021-02-13T10:52:54Z</time>
      </trkpt>
      <trkpt lat="45.60887" lon="6.70451">
        <ele>2156</ele>
        <time>2021-02-13T10:52:57Z</time>
      </trkpt>
      <trkpt lat="45.60888" lon="6.70449">
        <ele>2156</ele>
        <time>2021-02-13T10:52:59Z</time>
      </trkpt>
      <trkpt lat="45.60888" lon="6.70447">
        <ele>2156</ele>
        <time>2021-02-13T10:53:04Z</time>
      </trkpt>
      <trkpt lat="45.60888" lon="6.70445">
        <ele>2157</ele>
        <time>2021-02-13T10:53:07Z</time>
      </trkpt>
      <trkpt lat="45.60888" lon="6.70443">
        <ele>2157</ele>
        <time>2021-02-13T10:53:08Z</time>
      </trkpt>
      <trkpt lat="45.60888" lon="6.70441">
        <ele>2157</ele>
        <time>2021-02-13T10:53:12Z</time>
      </trkpt>
      <trkpt lat="45.60888" lon="6.70439">
        <ele>2158</ele>
        <time>2021-02-13T10:53:17Z</time>
      </trkpt>
      <trkpt lat="45.60888" lon="6.70437">
        <ele>2158</ele>
        <time>2021-02-13T10:53:22Z</time>
      </trkpt>
      <trkpt lat="45.60888" lon="6.70435">
        <ele>2159</ele>
        <time>2021-02-13T10:53:27Z</time>
      </trkpt>
      <trkpt lat="45.60888" lon="6.70433">
        <ele>2159</ele>
        <time>2021-02-13T10:53:31Z</time>
      </trkpt>
      <trkpt lat="45.60888" lon="6.70431">
        <ele>2159</ele>
        <time>2021-02-13T10:53:36Z</time>
      </trkpt>
      <trkpt lat="45.60888" lon="6.70429">
        <ele>2160</ele>
        <time>2021-02-13T10:53:37Z</time>
      </trkpt>
      <trkpt lat="45.60888" lon="6.70425">
        <ele>2160</ele>
        <time>2021-02-13T10:53:41Z</time>
      </trkpt>
      <trkpt lat="45.60888" lon="6.70423">
        <ele>2160</ele>
        <time>2021-02-13T10:53:45Z</time>
      </trkpt>
      <trkpt lat="45.60888" lon="6.70423">
        <ele>2161</ele>
        <time>2021-02-13T10:53:47Z</time>
      </trkpt>
      <trkpt lat="45.60887" lon="6.7042">
        <ele>2161</ele>
        <time>2021-02-13T10:53:49Z</time>
      </trkpt>
      <trkpt lat="45.60887" lon="6.70417">
        <ele>2161</ele>
        <time>2021-02-13T10:53:54Z</time>
      </trkpt>
      <trkpt lat="45.60887" lon="6.70417">
        <ele>2161</ele>
        <time>2021-02-13T10:53:57Z</time>
      </trkpt>
      <trkpt lat="45.60886" lon="6.70414">
        <ele>2161</ele>
        <time>2021-02-13T10:53:59Z</time>
      </trkpt>
      <trkpt lat="45.60886" lon="6.70412">
        <ele>2161</ele>
        <time>2021-02-13T10:54:04Z</time>
      </trkpt>
      <trkpt lat="45.60886" lon="6.70412">
        <ele>2162</ele>
        <time>2021-02-13T10:54:07Z</time>
      </trkpt>
      <trkpt lat="45.60885" lon="6.70409">
        <ele>2162</ele>
        <time>2021-02-13T10:54:09Z</time>
      </trkpt>
      <trkpt lat="45.60885" lon="6.70406">
        <ele>2162</ele>
        <time>2021-02-13T10:54:14Z</time>
      </trkpt>
      <trkpt lat="45.60885" lon="6.70406">
        <ele>2163</ele>
        <time>2021-02-13T10:54:17Z</time>
      </trkpt>
      <trkpt lat="45.60885" lon="6.70403">
        <ele>2163</ele>
        <time>2021-02-13T10:54:19Z</time>
      </trkpt>
      <trkpt lat="45.60884" lon="6.704">
        <ele>2163</ele>
        <time>2021-02-13T10:54:25Z</time>
      </trkpt>
      <trkpt lat="45.60884" lon="6.704">
        <ele>2165</ele>
        <time>2021-02-13T10:54:27Z</time>
      </trkpt>
      <trkpt lat="45.60884" lon="6.70397">
        <ele>2165</ele>
        <time>2021-02-13T10:54:30Z</time>
      </trkpt>
      <trkpt lat="45.60884" lon="6.70395">
        <ele>2165</ele>
        <time>2021-02-13T10:54:35Z</time>
      </trkpt>
      <trkpt lat="45.60884" lon="6.70395">
        <ele>2165</ele>
        <time>2021-02-13T10:54:37Z</time>
      </trkpt>
      <trkpt lat="45.60884" lon="6.70392">
        <ele>2165</ele>
        <time>2021-02-13T10:54:40Z</time>
      </trkpt>
      <trkpt lat="45.60884" lon="6.70389">
        <ele>2165</ele>
        <time>2021-02-13T10:54:45Z</time>
      </trkpt>
      <trkpt lat="45.60884" lon="6.70389">
        <ele>2168</ele>
        <time>2021-02-13T10:54:47Z</time>
      </trkpt>
      <trkpt lat="45.60884" lon="6.70386">
        <ele>2168</ele>
        <time>2021-02-13T10:54:50Z</time>
      </trkpt>
      <trkpt lat="45.60885" lon="6.70384">
        <ele>2168</ele>
        <time>2021-02-13T10:54:55Z</time>
      </trkpt>
      <trkpt lat="45.60885" lon="6.70384">
        <ele>2168</ele>
        <time>2021-02-13T10:54:58Z</time>
      </trkpt>
      <trkpt lat="45.60886" lon="6.70381">
        <ele>2168</ele>
        <time>2021-02-13T10:55:00Z</time>
      </trkpt>
      <trkpt lat="45.60888" lon="6.70379">
        <ele>2168</ele>
        <time>2021-02-13T10:55:05Z</time>
      </trkpt>
      <trkpt lat="45.60888" lon="6.70379">
        <ele>2168</ele>
        <time>2021-02-13T10:55:07Z</time>
      </trkpt>
      <trkpt lat="45.6089" lon="6.70376">
        <ele>2168</ele>
        <time>2021-02-13T10:55:10Z</time>
      </trkpt>
      <trkpt lat="45.60891" lon="6.70375">
        <ele>2168</ele>
        <time>2021-02-13T10:55:14Z</time>
      </trkpt>
      <trkpt lat="45.60892" lon="6.70374">
        <ele>2170</ele>
        <time>2021-02-13T10:55:17Z</time>
      </trkpt>
      <trkpt lat="45.60892" lon="6.70373">
        <ele>2170</ele>
        <time>2021-02-13T10:55:18Z</time>
      </trkpt>
      <trkpt lat="45.60893" lon="6.70372">
        <ele>2170</ele>
        <time>2021-02-13T10:55:22Z</time>
      </trkpt>
      <trkpt lat="45.60894" lon="6.70371">
        <ele>2170</ele>
        <time>2021-02-13T10:55:26Z</time>
      </trkpt>
      <trkpt lat="45.60895" lon="6.7037">
        <ele>2170</ele>
        <time>2021-02-13T10:55:27Z</time>
      </trkpt>
      <trkpt lat="45.60897" lon="6.70367">
        <ele>2170</ele>
        <time>2021-02-13T10:55:30Z</time>
      </trkpt>
      <trkpt lat="45.60898" lon="6.70366">
        <ele>2170</ele>
        <time>2021-02-13T10:55:34Z</time>
      </trkpt>
      <trkpt lat="45.60899" lon="6.70365">
        <ele>2173</ele>
        <time>2021-02-13T10:55:37Z</time>
      </trkpt>
      <trkpt lat="45.609" lon="6.70364">
        <ele>2173</ele>
        <time>2021-02-13T10:55:38Z</time>
      </trkpt>
      <trkpt lat="45.60901" lon="6.70363">
        <ele>2173</ele>
        <time>2021-02-13T10:55:42Z</time>
      </trkpt>
      <trkpt lat="45.60902" lon="6.70362">
        <ele>2173</ele>
        <time>2021-02-13T10:55:46Z</time>
      </trkpt>
      <trkpt lat="45.60903" lon="6.70361">
        <ele>2173</ele>
        <time>2021-02-13T10:55:47Z</time>
      </trkpt>
      <trkpt lat="45.60904" lon="6.70359">
        <ele>2173</ele>
        <time>2021-02-13T10:55:50Z</time>
      </trkpt>
      <trkpt lat="45.60906" lon="6.70358">
        <ele>2173</ele>
        <time>2021-02-13T10:55:54Z</time>
      </trkpt>
      <trkpt lat="45.60906" lon="6.70358">
        <ele>2174</ele>
        <time>2021-02-13T10:55:57Z</time>
      </trkpt>
      <trkpt lat="45.60908" lon="6.70356">
        <ele>2174</ele>
        <time>2021-02-13T10:55:58Z</time>
      </trkpt>
      <trkpt lat="45.6091" lon="6.70354">
        <ele>2174</ele>
        <time>2021-02-13T10:56:01Z</time>
      </trkpt>
      <trkpt lat="45.60911" lon="6.70353">
        <ele>2174</ele>
        <time>2021-02-13T10:56:04Z</time>
      </trkpt>
      <trkpt lat="45.60913" lon="6.70351">
        <ele>2174</ele>
        <time>2021-02-13T10:56:07Z</time>
      </trkpt>
      <trkpt lat="45.60915" lon="6.70349">
        <ele>2174</ele>
        <time>2021-02-13T10:56:10Z</time>
      </trkpt>
      <trkpt lat="45.60916" lon="6.70349">
        <ele>2174</ele>
        <time>2021-02-13T10:56:13Z</time>
      </trkpt>
      <trkpt lat="45.60917" lon="6.70348">
        <ele>2174</ele>
        <time>2021-02-13T10:56:16Z</time>
      </trkpt>
      <trkpt lat="45.60918" lon="6.70347">
        <ele>2174</ele>
        <time>2021-02-13T10:56:17Z</time>
      </trkpt>
      <trkpt lat="45.6092" lon="6.70346">
        <ele>2174</ele>
        <time>2021-02-13T10:56:19Z</time>
      </trkpt>
      <trkpt lat="45.60921" lon="6.70345">
        <ele>2174</ele>
        <time>2021-02-13T10:56:22Z</time>
      </trkpt>
      <trkpt lat="45.60923" lon="6.70344">
        <ele>2174</ele>
        <time>2021-02-13T10:56:25Z</time>
      </trkpt>
      <trkpt lat="45.60923" lon="6.70344">
        <ele>2174</ele>
        <time>2021-02-13T10:56:27Z</time>
      </trkpt>
      <trkpt lat="45.60926" lon="6.70343">
        <ele>2174</ele>
        <time>2021-02-13T10:56:28Z</time>
      </trkpt>
      <trkpt lat="45.60927" lon="6.70343">
        <ele>2174</ele>
        <time>2021-02-13T10:56:32Z</time>
      </trkpt>
      <trkpt lat="45.60928" lon="6.70343">
        <ele>2174</ele>
        <time>2021-02-13T10:56:36Z</time>
      </trkpt>
      <trkpt lat="45.60929" lon="6.70342">
        <ele>2174</ele>
        <time>2021-02-13T10:56:37Z</time>
      </trkpt>
      <trkpt lat="45.60929" lon="6.70342">
        <ele>2176</ele>
        <time>2021-02-13T10:56:47Z</time>
      </trkpt>
      <trkpt lat="45.60931" lon="6.70341">
        <ele>2176</ele>
        <time>2021-02-13T10:56:53Z</time>
      </trkpt>
      <trkpt lat="45.60931" lon="6.70341">
        <ele>2175</ele>
        <time>2021-02-13T10:56:57Z</time>
      </trkpt>
      <trkpt lat="45.60931" lon="6.70341">
        <ele>2174</ele>
        <time>2021-02-13T10:57:07Z</time>
      </trkpt>
      <trkpt lat="45.60931" lon="6.70341">
        <ele>2176</ele>
        <time>2021-02-13T10:57:17Z</time>
      </trkpt>
      <trkpt lat="45.60931" lon="6.70341">
        <ele>2175</ele>
        <time>2021-02-13T10:57:27Z</time>
      </trkpt>
      <trkpt lat="45.60931" lon="6.70341">
        <ele>2175</ele>
        <time>2021-02-13T10:57:37Z</time>
      </trkpt>
      <trkpt lat="45.60931" lon="6.70341">
        <ele>2176</ele>
        <time>2021-02-13T10:57:47Z</time>
      </trkpt>
      <trkpt lat="45.60931" lon="6.70341">
        <ele>2176</ele>
        <time>2021-02-13T10:57:57Z</time>
      </trkpt>
      <trkpt lat="45.60931" lon="6.70341">
        <ele>2175</ele>
        <time>2021-02-13T10:58:08Z</time>
      </trkpt>
      <trkpt lat="45.60931" lon="6.70341">
        <ele>2175</ele>
        <time>2021-02-13T10:58:17Z</time>
      </trkpt>
      <trkpt lat="45.60931" lon="6.70341">
        <ele>2175</ele>
        <time>2021-02-13T10:58:27Z</time>
      </trkpt>
      <trkpt lat="45.60931" lon="6.70341">
        <ele>2175</ele>
        <time>2021-02-13T10:58:37Z</time>
      </trkpt>
      <trkpt lat="45.60931" lon="6.70341">
        <ele>2175</ele>
        <time>2021-02-13T10:58:47Z</time>
      </trkpt>
      <trkpt lat="45.60931" lon="6.70341">
        <ele>2175</ele>
        <time>2021-02-13T10:58:57Z</time>
      </trkpt>
      <trkpt lat="45.60931" lon="6.70341">
        <ele>2176</ele>
        <time>2021-02-13T10:59:07Z</time>
      </trkpt>
      <trkpt lat="45.60931" lon="6.70341">
        <ele>2175</ele>
        <time>2021-02-13T10:59:17Z</time>
      </trkpt>
      <trkpt lat="45.60931" lon="6.70341">
        <ele>2175</ele>
        <time>2021-02-13T10:59:27Z</time>
      </trkpt>
      <trkpt lat="45.60931" lon="6.70341">
        <ele>2176</ele>
        <time>2021-02-13T10:59:37Z</time>
      </trkpt>
      <trkpt lat="45.60931" lon="6.70341">
        <ele>2176</ele>
        <time>2021-02-13T10:59:47Z</time>
      </trkpt>
      <trkpt lat="45.60931" lon="6.70341">
        <ele>2175</ele>
        <time>2021-02-13T10:59:57Z</time>
      </trkpt>
      <trkpt lat="45.60931" lon="6.70341">
        <ele>2175</ele>
        <time>2021-02-13T11:00:07Z</time>
      </trkpt>
      <trkpt lat="45.60931" lon="6.70341">
        <ele>2175</ele>
        <time>2021-02-13T11:00:17Z</time>
      </trkpt>
      <trkpt lat="45.60931" lon="6.70341">
        <ele>2175</ele>
        <time>2021-02-13T11:00:27Z</time>
      </trkpt>
      <trkpt lat="45.60931" lon="6.70341">
        <ele>2175</ele>
        <time>2021-02-13T11:00:37Z</time>
      </trkpt>
      <trkpt lat="45.60931" lon="6.70341">
        <ele>2175</ele>
        <time>2021-02-13T11:00:47Z</time>
      </trkpt>
      <trkpt lat="45.60931" lon="6.70341">
        <ele>2176</ele>
        <time>2021-02-13T11:00:57Z</time>
      </trkpt>
      <trkpt lat="45.60931" lon="6.70341">
        <ele>2174</ele>
        <time>2021-02-13T11:01:07Z</time>
      </trkpt>
      <trkpt lat="45.60931" lon="6.70341">
        <ele>2175</ele>
        <time>2021-02-13T11:01:18Z</time>
      </trkpt>
      <trkpt lat="45.60931" lon="6.70341">
        <ele>2175</ele>
        <time>2021-02-13T11:01:27Z</time>
      </trkpt>
      <trkpt lat="45.60931" lon="6.70341">
        <ele>2176</ele>
        <time>2021-02-13T11:01:37Z</time>
      </trkpt>
      <trkpt lat="45.60931" lon="6.70341">
        <ele>2175</ele>
        <time>2021-02-13T11:01:47Z</time>
      </trkpt>
      <trkpt lat="45.60931" lon="6.70341">
        <ele>2175</ele>
        <time>2021-02-13T11:01:57Z</time>
      </trkpt>
      <trkpt lat="45.60931" lon="6.70341">
        <ele>2174</ele>
        <time>2021-02-13T11:02:07Z</time>
      </trkpt>
      <trkpt lat="45.60931" lon="6.70341">
        <ele>2174</ele>
        <time>2021-02-13T11:02:17Z</time>
      </trkpt>
      <trkpt lat="45.60931" lon="6.70341">
        <ele>2174</ele>
        <time>2021-02-13T11:02:27Z</time>
      </trkpt>
      <trkpt lat="45.60931" lon="6.70341">
        <ele>2174</ele>
        <time>2021-02-13T11:02:37Z</time>
      </trkpt>
      <trkpt lat="45.60931" lon="6.70341">
        <ele>2174</ele>
        <time>2021-02-13T11:02:47Z</time>
      </trkpt>
      <trkpt lat="45.60931" lon="6.70341">
        <ele>2174</ele>
        <time>2021-02-13T11:02:57Z</time>
      </trkpt>
      <trkpt lat="45.60931" lon="6.70341">
        <ele>2174</ele>
        <time>2021-02-13T11:03:07Z</time>
      </trkpt>
      <trkpt lat="45.60931" lon="6.70341">
        <ele>2174</ele>
        <time>2021-02-13T11:03:17Z</time>
      </trkpt>
      <trkpt lat="45.60931" lon="6.70341">
        <ele>2174</ele>
        <time>2021-02-13T11:03:27Z</time>
      </trkpt>
      <trkpt lat="45.60931" lon="6.70341">
        <ele>2174</ele>
        <time>2021-02-13T11:03:37Z</time>
      </trkpt>
      <trkpt lat="45.60931" lon="6.70341">
        <ele>2174</ele>
        <time>2021-02-13T11:03:47Z</time>
      </trkpt>
      <trkpt lat="45.60931" lon="6.70341">
        <ele>2174</ele>
        <time>2021-02-13T11:03:57Z</time>
      </trkpt>
      <trkpt lat="45.60931" lon="6.70341">
        <ele>2174</ele>
        <time>2021-02-13T11:04:07Z</time>
      </trkpt>
      <trkpt lat="45.60931" lon="6.70341">
        <ele>2174</ele>
        <time>2021-02-13T11:04:17Z</time>
      </trkpt>
      <trkpt lat="45.60931" lon="6.70341">
        <ele>2174</ele>
        <time>2021-02-13T11:04:28Z</time>
      </trkpt>
      <trkpt lat="45.60931" lon="6.70341">
        <ele>2175</ele>
        <time>2021-02-13T11:04:37Z</time>
      </trkpt>
      <trkpt lat="45.60931" lon="6.70341">
        <ele>2175</ele>
        <time>2021-02-13T11:04:47Z</time>
      </trkpt>
      <trkpt lat="45.60931" lon="6.70341">
        <ele>2174</ele>
        <time>2021-02-13T11:04:57Z</time>
      </trkpt>
      <trkpt lat="45.60932" lon="6.70339">
        <ele>2174</ele>
        <time>2021-02-13T11:05:02Z</time>
      </trkpt>
      <trkpt lat="45.60932" lon="6.70339">
        <ele>2174</ele>
        <time>2021-02-13T11:05:07Z</time>
      </trkpt>
      <trkpt lat="45.60932" lon="6.70336">
        <ele>2174</ele>
        <time>2021-02-13T11:05:11Z</time>
      </trkpt>
      <trkpt lat="45.60933" lon="6.70334">
        <ele>2174</ele>
        <time>2021-02-13T11:05:14Z</time>
      </trkpt>
      <trkpt lat="45.60934" lon="6.70331">
        <ele>2174</ele>
        <time>2021-02-13T11:05:17Z</time>
      </trkpt>
      <trkpt lat="45.60936" lon="6.70327">
        <ele>2174</ele>
        <time>2021-02-13T11:05:20Z</time>
      </trkpt>
      <trkpt lat="45.60937" lon="6.70326">
        <ele>2174</ele>
        <time>2021-02-13T11:05:23Z</time>
      </trkpt>
      <trkpt lat="45.60937" lon="6.70325">
        <ele>2174</ele>
        <time>2021-02-13T11:05:26Z</time>
      </trkpt>
      <trkpt lat="45.60938" lon="6.70323">
        <ele>2175</ele>
        <time>2021-02-13T11:05:27Z</time>
      </trkpt>
      <trkpt lat="45.6094" lon="6.7032">
        <ele>2175</ele>
        <time>2021-02-13T11:05:29Z</time>
      </trkpt>
      <trkpt lat="45.6094" lon="6.70318">
        <ele>2175</ele>
        <time>2021-02-13T11:05:32Z</time>
      </trkpt>
      <trkpt lat="45.60941" lon="6.70317">
        <ele>2175</ele>
        <time>2021-02-13T11:05:36Z</time>
      </trkpt>
      <trkpt lat="45.60941" lon="6.70316">
        <ele>2175</ele>
        <time>2021-02-13T11:05:37Z</time>
      </trkpt>
      <trkpt lat="45.60943" lon="6.70312">
        <ele>2175</ele>
        <time>2021-02-13T11:05:40Z</time>
      </trkpt>
      <trkpt lat="45.60943" lon="6.70311">
        <ele>2175</ele>
        <time>2021-02-13T11:05:44Z</time>
      </trkpt>
      <trkpt lat="45.60944" lon="6.70309">
        <ele>2175</ele>
        <time>2021-02-13T11:05:47Z</time>
      </trkpt>
      <trkpt lat="45.60945" lon="6.70308">
        <ele>2175</ele>
        <time>2021-02-13T11:05:48Z</time>
      </trkpt>
      <trkpt lat="45.60945" lon="6.70306">
        <ele>2175</ele>
        <time>2021-02-13T11:05:52Z</time>
      </trkpt>
      <trkpt lat="45.60946" lon="6.70305">
        <ele>2175</ele>
        <time>2021-02-13T11:05:56Z</time>
      </trkpt>
      <trkpt lat="45.60946" lon="6.70303">
        <ele>2176</ele>
        <time>2021-02-13T11:05:57Z</time>
      </trkpt>
      <trkpt lat="45.60947" lon="6.70301">
        <ele>2176</ele>
        <time>2021-02-13T11:06:00Z</time>
      </trkpt>
      <trkpt lat="45.60948" lon="6.70298">
        <ele>2176</ele>
        <time>2021-02-13T11:06:04Z</time>
      </trkpt>
      <trkpt lat="45.60948" lon="6.70298">
        <ele>2176</ele>
        <time>2021-02-13T11:06:07Z</time>
      </trkpt>
      <trkpt lat="45.60949" lon="6.70295">
        <ele>2176</ele>
        <time>2021-02-13T11:06:09Z</time>
      </trkpt>
      <trkpt lat="45.6095" lon="6.70293">
        <ele>2176</ele>
        <time>2021-02-13T11:06:13Z</time>
      </trkpt>
      <trkpt lat="45.6095" lon="6.70293">
        <ele>2177</ele>
        <time>2021-02-13T11:06:17Z</time>
      </trkpt>
      <trkpt lat="45.60951" lon="6.7029">
        <ele>2177</ele>
        <time>2021-02-13T11:06:18Z</time>
      </trkpt>
      <trkpt lat="45.60952" lon="6.70288">
        <ele>2177</ele>
        <time>2021-02-13T11:06:22Z</time>
      </trkpt>
      <trkpt lat="45.60953" lon="6.70285">
        <ele>2177</ele>
        <time>2021-02-13T11:06:27Z</time>
      </trkpt>
      <trkpt lat="45.60954" lon="6.70283">
        <ele>2177</ele>
        <time>2021-02-13T11:06:32Z</time>
      </trkpt>
      <trkpt lat="45.60954" lon="6.70283">
        <ele>2181</ele>
        <time>2021-02-13T11:06:37Z</time>
      </trkpt>
      <trkpt lat="45.60955" lon="6.7028">
        <ele>2181</ele>
        <time>2021-02-13T11:06:38Z</time>
      </trkpt>
      <trkpt lat="45.60956" lon="6.70278">
        <ele>2181</ele>
        <time>2021-02-13T11:06:44Z</time>
      </trkpt>
      <trkpt lat="45.60956" lon="6.70278">
        <ele>2181</ele>
        <time>2021-02-13T11:06:47Z</time>
      </trkpt>
      <trkpt lat="45.60957" lon="6.70275">
        <ele>2181</ele>
        <time>2021-02-13T11:06:51Z</time>
      </trkpt>
      <trkpt lat="45.60957" lon="6.70275">
        <ele>2181</ele>
        <time>2021-02-13T11:06:57Z</time>
      </trkpt>
      <trkpt lat="45.60957" lon="6.70272">
        <ele>2181</ele>
        <time>2021-02-13T11:06:58Z</time>
      </trkpt>
      <trkpt lat="45.60958" lon="6.70269">
        <ele>2181</ele>
        <time>2021-02-13T11:07:05Z</time>
      </trkpt>
      <trkpt lat="45.60958" lon="6.70269">
        <ele>2184</ele>
        <time>2021-02-13T11:07:07Z</time>
      </trkpt>
      <trkpt lat="45.60959" lon="6.70266">
        <ele>2184</ele>
        <time>2021-02-13T11:07:12Z</time>
      </trkpt>
      <trkpt lat="45.60959" lon="6.70265">
        <ele>2184</ele>
        <time>2021-02-13T11:07:17Z</time>
      </trkpt>
      <trkpt lat="45.6096" lon="6.70263">
        <ele>2184</ele>
        <time>2021-02-13T11:07:19Z</time>
      </trkpt>
      <trkpt lat="45.6096" lon="6.70262">
        <ele>2184</ele>
        <time>2021-02-13T11:07:26Z</time>
      </trkpt>
      <trkpt lat="45.60961" lon="6.70261">
        <ele>2184</ele>
        <time>2021-02-13T11:07:27Z</time>
      </trkpt>
      <trkpt lat="45.60961" lon="6.70259">
        <ele>2184</ele>
        <time>2021-02-13T11:07:33Z</time>
      </trkpt>
      <trkpt lat="45.60961" lon="6.70259">
        <ele>2186</ele>
        <time>2021-02-13T11:07:38Z</time>
      </trkpt>
      <trkpt lat="45.60962" lon="6.70256">
        <ele>2186</ele>
        <time>2021-02-13T11:07:39Z</time>
      </trkpt>
      <trkpt lat="45.60963" lon="6.70253">
        <ele>2186</ele>
        <time>2021-02-13T11:07:45Z</time>
      </trkpt>
      <trkpt lat="45.60963" lon="6.70253">
        <ele>2185</ele>
        <time>2021-02-13T11:07:47Z</time>
      </trkpt>
      <trkpt lat="45.60963" lon="6.70251">
        <ele>2185</ele>
        <time>2021-02-13T11:07:51Z</time>
      </trkpt>
      <trkpt lat="45.60964" lon="6.70248">
        <ele>2187</ele>
        <time>2021-02-13T11:07:57Z</time>
      </trkpt>
      <trkpt lat="45.60965" lon="6.70245">
        <ele>2187</ele>
        <time>2021-02-13T11:08:03Z</time>
      </trkpt>
      <trkpt lat="45.60965" lon="6.70245">
        <ele>2187</ele>
        <time>2021-02-13T11:08:07Z</time>
      </trkpt>
      <trkpt lat="45.60965" lon="6.70242">
        <ele>2187</ele>
        <time>2021-02-13T11:08:09Z</time>
      </trkpt>
      <trkpt lat="45.60966" lon="6.7024">
        <ele>2187</ele>
        <time>2021-02-13T11:08:15Z</time>
      </trkpt>
      <trkpt lat="45.60966" lon="6.7024">
        <ele>2187</ele>
        <time>2021-02-13T11:08:17Z</time>
      </trkpt>
      <trkpt lat="45.60967" lon="6.70237">
        <ele>2187</ele>
        <time>2021-02-13T11:08:21Z</time>
      </trkpt>
      <trkpt lat="45.60967" lon="6.70235">
        <ele>2187</ele>
        <time>2021-02-13T11:08:26Z</time>
      </trkpt>
      <trkpt lat="45.60967" lon="6.70235">
        <ele>2189</ele>
        <time>2021-02-13T11:08:27Z</time>
      </trkpt>
      <trkpt lat="45.60968" lon="6.70232">
        <ele>2189</ele>
        <time>2021-02-13T11:08:31Z</time>
      </trkpt>
      <trkpt lat="45.60969" lon="6.7023">
        <ele>2189</ele>
        <time>2021-02-13T11:08:36Z</time>
      </trkpt>
      <trkpt lat="45.60969" lon="6.7023">
        <ele>2190</ele>
        <time>2021-02-13T11:08:37Z</time>
      </trkpt>
      <trkpt lat="45.6097" lon="6.70226">
        <ele>2190</ele>
        <time>2021-02-13T11:08:41Z</time>
      </trkpt>
      <trkpt lat="45.60971" lon="6.70226">
        <ele>2190</ele>
        <time>2021-02-13T11:08:46Z</time>
      </trkpt>
      <trkpt lat="45.60971" lon="6.70225">
        <ele>2190</ele>
        <time>2021-02-13T11:08:47Z</time>
      </trkpt>
      <trkpt lat="45.60972" lon="6.70223">
        <ele>2190</ele>
        <time>2021-02-13T11:08:51Z</time>
      </trkpt>
      <trkpt lat="45.60974" lon="6.70221">
        <ele>2192</ele>
        <time>2021-02-13T11:08:57Z</time>
      </trkpt>
      <trkpt lat="45.60975" lon="6.70219">
        <ele>2192</ele>
        <time>2021-02-13T11:09:02Z</time>
      </trkpt>
      <trkpt lat="45.60975" lon="6.70219">
        <ele>2192</ele>
        <time>2021-02-13T11:09:07Z</time>
      </trkpt>
      <trkpt lat="45.60976" lon="6.70216">
        <ele>2192</ele>
        <time>2021-02-13T11:09:08Z</time>
      </trkpt>
      <trkpt lat="45.60978" lon="6.70214">
        <ele>2192</ele>
        <time>2021-02-13T11:09:14Z</time>
      </trkpt>
      <trkpt lat="45.60978" lon="6.70214">
        <ele>2193</ele>
        <time>2021-02-13T11:09:17Z</time>
      </trkpt>
      <trkpt lat="45.60979" lon="6.70212">
        <ele>2193</ele>
        <time>2021-02-13T11:09:20Z</time>
      </trkpt>
      <trkpt lat="45.6098" lon="6.70209">
        <ele>2193</ele>
        <time>2021-02-13T11:09:26Z</time>
      </trkpt>
      <trkpt lat="45.6098" lon="6.70209">
        <ele>2194</ele>
        <time>2021-02-13T11:09:27Z</time>
      </trkpt>
      <trkpt lat="45.60981" lon="6.70205">
        <ele>2194</ele>
        <time>2021-02-13T11:09:31Z</time>
      </trkpt>
      <trkpt lat="45.60982" lon="6.70204">
        <ele>2195</ele>
        <time>2021-02-13T11:09:37Z</time>
      </trkpt>
      <trkpt lat="45.60983" lon="6.70202">
        <ele>2195</ele>
        <time>2021-02-13T11:09:42Z</time>
      </trkpt>
      <trkpt lat="45.60983" lon="6.70201">
        <ele>2197</ele>
        <time>2021-02-13T11:09:47Z</time>
      </trkpt>
      <trkpt lat="45.60984" lon="6.70199">
        <ele>2197</ele>
        <time>2021-02-13T11:09:53Z</time>
      </trkpt>
      <trkpt lat="45.60985" lon="6.70198">
        <ele>2197</ele>
        <time>2021-02-13T11:09:57Z</time>
      </trkpt>
      <trkpt lat="45.60986" lon="6.70196">
        <ele>2197</ele>
        <time>2021-02-13T11:09:58Z</time>
      </trkpt>
      <trkpt lat="45.60987" lon="6.70195">
        <ele>2197</ele>
        <time>2021-02-13T11:10:04Z</time>
      </trkpt>
      <trkpt lat="45.60987" lon="6.70193">
        <ele>2198</ele>
        <time>2021-02-13T11:10:07Z</time>
      </trkpt>
      <trkpt lat="45.60988" lon="6.70192">
        <ele>2198</ele>
        <time>2021-02-13T11:10:10Z</time>
      </trkpt>
      <trkpt lat="45.60989" lon="6.7019">
        <ele>2198</ele>
        <time>2021-02-13T11:10:16Z</time>
      </trkpt>
      <trkpt lat="45.6099" lon="6.70189">
        <ele>2198</ele>
        <time>2021-02-13T11:10:17Z</time>
      </trkpt>
      <trkpt lat="45.60991" lon="6.70186">
        <ele>2198</ele>
        <time>2021-02-13T11:10:23Z</time>
      </trkpt>
      <trkpt lat="45.60991" lon="6.70186">
        <ele>2199</ele>
        <time>2021-02-13T11:10:27Z</time>
      </trkpt>
      <trkpt lat="45.60992" lon="6.70184">
        <ele>2199</ele>
        <time>2021-02-13T11:10:30Z</time>
      </trkpt>
      <trkpt lat="45.60993" lon="6.70182">
        <ele>2199</ele>
        <time>2021-02-13T11:10:36Z</time>
      </trkpt>
      <trkpt lat="45.60993" lon="6.70182">
        <ele>2202</ele>
        <time>2021-02-13T11:10:37Z</time>
      </trkpt>
      <trkpt lat="45.60994" lon="6.70179">
        <ele>2202</ele>
        <time>2021-02-13T11:10:43Z</time>
      </trkpt>
      <trkpt lat="45.60994" lon="6.70179">
        <ele>2202</ele>
        <time>2021-02-13T11:10:48Z</time>
      </trkpt>
      <trkpt lat="45.60995" lon="6.70177">
        <ele>2202</ele>
        <time>2021-02-13T11:10:49Z</time>
      </trkpt>
      <trkpt lat="45.60995" lon="6.70174">
        <ele>2202</ele>
        <time>2021-02-13T11:10:55Z</time>
      </trkpt>
      <trkpt lat="45.60995" lon="6.70174">
        <ele>2202</ele>
        <time>2021-02-13T11:10:57Z</time>
      </trkpt>
      <trkpt lat="45.60997" lon="6.70172">
        <ele>2202</ele>
        <time>2021-02-13T11:11:01Z</time>
      </trkpt>
      <trkpt lat="45.60997" lon="6.70172">
        <ele>2204</ele>
        <time>2021-02-13T11:11:07Z</time>
      </trkpt>
      <trkpt lat="45.60998" lon="6.7017">
        <ele>2204</ele>
        <time>2021-02-13T11:11:08Z</time>
      </trkpt>
      <trkpt lat="45.60999" lon="6.70168">
        <ele>2204</ele>
        <time>2021-02-13T11:11:14Z</time>
      </trkpt>
      <trkpt lat="45.60999" lon="6.70168">
        <ele>2205</ele>
        <time>2021-02-13T11:11:17Z</time>
      </trkpt>
      <trkpt lat="45.61001" lon="6.70166">
        <ele>2205</ele>
        <time>2021-02-13T11:11:21Z</time>
      </trkpt>
      <trkpt lat="45.61001" lon="6.70166">
        <ele>2205</ele>
        <time>2021-02-13T11:11:27Z</time>
      </trkpt>
      <trkpt lat="45.61003" lon="6.70165">
        <ele>2205</ele>
        <time>2021-02-13T11:11:28Z</time>
      </trkpt>
      <trkpt lat="45.61004" lon="6.70163">
        <ele>2205</ele>
        <time>2021-02-13T11:11:35Z</time>
      </trkpt>
      <trkpt lat="45.61004" lon="6.70163">
        <ele>2206</ele>
        <time>2021-02-13T11:11:37Z</time>
      </trkpt>
      <trkpt lat="45.61006" lon="6.70162">
        <ele>2206</ele>
        <time>2021-02-13T11:11:42Z</time>
      </trkpt>
      <trkpt lat="45.61006" lon="6.70162">
        <ele>2208</ele>
        <time>2021-02-13T11:11:47Z</time>
      </trkpt>
      <trkpt lat="45.61008" lon="6.7016">
        <ele>2208</ele>
        <time>2021-02-13T11:11:48Z</time>
      </trkpt>
      <trkpt lat="45.61009" lon="6.70159">
        <ele>2208</ele>
        <time>2021-02-13T11:11:54Z</time>
      </trkpt>
      <trkpt lat="45.61009" lon="6.70159">
        <ele>2208</ele>
        <time>2021-02-13T11:11:57Z</time>
      </trkpt>
      <trkpt lat="45.61011" lon="6.70158">
        <ele>2208</ele>
        <time>2021-02-13T11:12:01Z</time>
      </trkpt>
      <trkpt lat="45.61011" lon="6.70158">
        <ele>2209</ele>
        <time>2021-02-13T11:12:07Z</time>
      </trkpt>
      <trkpt lat="45.61013" lon="6.70156">
        <ele>2209</ele>
        <time>2021-02-13T11:12:08Z</time>
      </trkpt>
      <trkpt lat="45.61014" lon="6.70154">
        <ele>2209</ele>
        <time>2021-02-13T11:12:14Z</time>
      </trkpt>
      <trkpt lat="45.61014" lon="6.70154">
        <ele>2210</ele>
        <time>2021-02-13T11:12:17Z</time>
      </trkpt>
      <trkpt lat="45.61015" lon="6.70152">
        <ele>2210</ele>
        <time>2021-02-13T11:12:21Z</time>
      </trkpt>
      <trkpt lat="45.61015" lon="6.70152">
        <ele>2212</ele>
        <time>2021-02-13T11:12:27Z</time>
      </trkpt>
      <trkpt lat="45.61017" lon="6.7015">
        <ele>2212</ele>
        <time>2021-02-13T11:12:28Z</time>
      </trkpt>
      <trkpt lat="45.61018" lon="6.70148">
        <ele>2212</ele>
        <time>2021-02-13T11:12:35Z</time>
      </trkpt>
      <trkpt lat="45.61018" lon="6.70148">
        <ele>2212</ele>
        <time>2021-02-13T11:12:37Z</time>
      </trkpt>
      <trkpt lat="45.61019" lon="6.70146">
        <ele>2212</ele>
        <time>2021-02-13T11:12:42Z</time>
      </trkpt>
      <trkpt lat="45.61019" lon="6.70146">
        <ele>2213</ele>
        <time>2021-02-13T11:12:47Z</time>
      </trkpt>
      <trkpt lat="45.6102" lon="6.70143">
        <ele>2213</ele>
        <time>2021-02-13T11:12:48Z</time>
      </trkpt>
      <trkpt lat="45.61021" lon="6.70141">
        <ele>2213</ele>
        <time>2021-02-13T11:12:54Z</time>
      </trkpt>
      <trkpt lat="45.61021" lon="6.70141">
        <ele>2215</ele>
        <time>2021-02-13T11:12:57Z</time>
      </trkpt>
      <trkpt lat="45.61022" lon="6.70139">
        <ele>2215</ele>
        <time>2021-02-13T11:13:01Z</time>
      </trkpt>
      <trkpt lat="45.61024" lon="6.70137">
        <ele>2216</ele>
        <time>2021-02-13T11:13:07Z</time>
      </trkpt>
      <trkpt lat="45.61025" lon="6.70135">
        <ele>2216</ele>
        <time>2021-02-13T11:13:13Z</time>
      </trkpt>
      <trkpt lat="45.61025" lon="6.70135">
        <ele>2216</ele>
        <time>2021-02-13T11:13:17Z</time>
      </trkpt>
      <trkpt lat="45.61026" lon="6.70133">
        <ele>2216</ele>
        <time>2021-02-13T11:13:19Z</time>
      </trkpt>
      <trkpt lat="45.61028" lon="6.70131">
        <ele>2216</ele>
        <time>2021-02-13T11:13:25Z</time>
      </trkpt>
      <trkpt lat="45.61028" lon="6.70131">
        <ele>2217</ele>
        <time>2021-02-13T11:13:27Z</time>
      </trkpt>
      <trkpt lat="45.61029" lon="6.70129">
        <ele>2217</ele>
        <time>2021-02-13T11:13:30Z</time>
      </trkpt>
      <trkpt lat="45.61031" lon="6.70128">
        <ele>2217</ele>
        <time>2021-02-13T11:13:35Z</time>
      </trkpt>
      <trkpt lat="45.61031" lon="6.70128">
        <ele>2217</ele>
        <time>2021-02-13T11:13:37Z</time>
      </trkpt>
      <trkpt lat="45.61032" lon="6.70125">
        <ele>2217</ele>
        <time>2021-02-13T11:13:41Z</time>
      </trkpt>
      <trkpt lat="45.61034" lon="6.70124">
        <ele>2217</ele>
        <time>2021-02-13T11:13:46Z</time>
      </trkpt>
      <trkpt lat="45.61034" lon="6.70124">
        <ele>2218</ele>
        <time>2021-02-13T11:13:47Z</time>
      </trkpt>
      <trkpt lat="45.61036" lon="6.70121">
        <ele>2218</ele>
        <time>2021-02-13T11:13:51Z</time>
      </trkpt>
      <trkpt lat="45.61036" lon="6.70121">
        <ele>2218</ele>
        <time>2021-02-13T11:13:57Z</time>
      </trkpt>
      <trkpt lat="45.61037" lon="6.7012">
        <ele>2220</ele>
        <time>2021-02-13T11:13:58Z</time>
      </trkpt>
      <trkpt lat="45.61038" lon="6.70118">
        <ele>2220</ele>
        <time>2021-02-13T11:14:03Z</time>
      </trkpt>
      <trkpt lat="45.61038" lon="6.70118">
        <ele>2221</ele>
        <time>2021-02-13T11:14:07Z</time>
      </trkpt>
      <trkpt lat="45.6104" lon="6.70116">
        <ele>2221</ele>
        <time>2021-02-13T11:14:09Z</time>
      </trkpt>
      <trkpt lat="45.61041" lon="6.70114">
        <ele>2221</ele>
        <time>2021-02-13T11:14:14Z</time>
      </trkpt>
      <trkpt lat="45.61041" lon="6.70114">
        <ele>2222</ele>
        <time>2021-02-13T11:14:17Z</time>
      </trkpt>
      <trkpt lat="45.61043" lon="6.70112">
        <ele>2222</ele>
        <time>2021-02-13T11:14:20Z</time>
      </trkpt>
      <trkpt lat="45.61044" lon="6.7011">
        <ele>2222</ele>
        <time>2021-02-13T11:14:25Z</time>
      </trkpt>
      <trkpt lat="45.61044" lon="6.7011">
        <ele>2222</ele>
        <time>2021-02-13T11:14:27Z</time>
      </trkpt>
      <trkpt lat="45.61045" lon="6.70108">
        <ele>2222</ele>
        <time>2021-02-13T11:14:30Z</time>
      </trkpt>
      <trkpt lat="45.61047" lon="6.70106">
        <ele>2222</ele>
        <time>2021-02-13T11:14:35Z</time>
      </trkpt>
      <trkpt lat="45.61047" lon="6.70106">
        <ele>2223</ele>
        <time>2021-02-13T11:14:37Z</time>
      </trkpt>
      <trkpt lat="45.61048" lon="6.70104">
        <ele>2223</ele>
        <time>2021-02-13T11:14:40Z</time>
      </trkpt>
      <trkpt lat="45.6105" lon="6.70102">
        <ele>2223</ele>
        <time>2021-02-13T11:14:45Z</time>
      </trkpt>
      <trkpt lat="45.6105" lon="6.70102">
        <ele>2224</ele>
        <time>2021-02-13T11:14:47Z</time>
      </trkpt>
      <trkpt lat="45.61052" lon="6.70101">
        <ele>2224</ele>
        <time>2021-02-13T11:14:50Z</time>
      </trkpt>
      <trkpt lat="45.61053" lon="6.70099">
        <ele>2224</ele>
        <time>2021-02-13T11:14:55Z</time>
      </trkpt>
      <trkpt lat="45.61053" lon="6.70099">
        <ele>2225</ele>
        <time>2021-02-13T11:14:57Z</time>
      </trkpt>
      <trkpt lat="45.61054" lon="6.70097">
        <ele>2225</ele>
        <time>2021-02-13T11:15:00Z</time>
      </trkpt>
      <trkpt lat="45.61056" lon="6.70095">
        <ele>2225</ele>
        <time>2021-02-13T11:15:05Z</time>
      </trkpt>
      <trkpt lat="45.61056" lon="6.70095">
        <ele>2226</ele>
        <time>2021-02-13T11:15:07Z</time>
      </trkpt>
      <trkpt lat="45.61057" lon="6.70093">
        <ele>2226</ele>
        <time>2021-02-13T11:15:10Z</time>
      </trkpt>
      <trkpt lat="45.61059" lon="6.70092">
        <ele>2226</ele>
        <time>2021-02-13T11:15:15Z</time>
      </trkpt>
      <trkpt lat="45.61059" lon="6.70092">
        <ele>2227</ele>
        <time>2021-02-13T11:15:17Z</time>
      </trkpt>
      <trkpt lat="45.6106" lon="6.7009">
        <ele>2227</ele>
        <time>2021-02-13T11:15:20Z</time>
      </trkpt>
      <trkpt lat="45.61062" lon="6.70088">
        <ele>2227</ele>
        <time>2021-02-13T11:15:24Z</time>
      </trkpt>
      <trkpt lat="45.61062" lon="6.70088">
        <ele>2227</ele>
        <time>2021-02-13T11:15:27Z</time>
      </trkpt>
      <trkpt lat="45.61063" lon="6.70086">
        <ele>2227</ele>
        <time>2021-02-13T11:15:28Z</time>
      </trkpt>
      <trkpt lat="45.61064" lon="6.70084">
        <ele>2227</ele>
        <time>2021-02-13T11:15:32Z</time>
      </trkpt>
      <trkpt lat="45.61065" lon="6.70081">
        <ele>2228</ele>
        <time>2021-02-13T11:15:37Z</time>
      </trkpt>
      <trkpt lat="45.61065" lon="6.70081">
        <ele>2229</ele>
        <time>2021-02-13T11:15:47Z</time>
      </trkpt>
      <trkpt lat="45.61065" lon="6.70081">
        <ele>2229</ele>
        <time>2021-02-13T11:15:57Z</time>
      </trkpt>
      <trkpt lat="45.61065" lon="6.70081">
        <ele>2228</ele>
        <time>2021-02-13T11:16:07Z</time>
      </trkpt>
      <trkpt lat="45.61065" lon="6.70081">
        <ele>2228</ele>
        <time>2021-02-13T11:16:17Z</time>
      </trkpt>
      <trkpt lat="45.61065" lon="6.70081">
        <ele>2228</ele>
        <time>2021-02-13T11:16:27Z</time>
      </trkpt>
      <trkpt lat="45.61065" lon="6.70081">
        <ele>2228</ele>
        <time>2021-02-13T11:16:37Z</time>
      </trkpt>
      <trkpt lat="45.61064" lon="6.70078">
        <ele>2228</ele>
        <time>2021-02-13T11:16:45Z</time>
      </trkpt>
      <trkpt lat="45.61064" lon="6.70078">
        <ele>2229</ele>
        <time>2021-02-13T11:16:47Z</time>
      </trkpt>
      <trkpt lat="45.61064" lon="6.70078">
        <ele>2229</ele>
        <time>2021-02-13T11:16:57Z</time>
      </trkpt>
      <trkpt lat="45.61064" lon="6.70078">
        <ele>2228</ele>
        <time>2021-02-13T11:17:08Z</time>
      </trkpt>
      <trkpt lat="45.61064" lon="6.70078">
        <ele>2228</ele>
        <time>2021-02-13T11:17:17Z</time>
      </trkpt>
      <trkpt lat="45.61064" lon="6.70078">
        <ele>2227</ele>
        <time>2021-02-13T11:17:27Z</time>
      </trkpt>
      <trkpt lat="45.61064" lon="6.70078">
        <ele>2228</ele>
        <time>2021-02-13T11:17:37Z</time>
      </trkpt>
      <trkpt lat="45.61064" lon="6.70076">
        <ele>2228</ele>
        <time>2021-02-13T11:17:38Z</time>
      </trkpt>
      <trkpt lat="45.61064" lon="6.70076">
        <ele>2228</ele>
        <time>2021-02-13T11:17:47Z</time>
      </trkpt>
      <trkpt lat="45.61064" lon="6.70076">
        <ele>2228</ele>
        <time>2021-02-13T11:17:57Z</time>
      </trkpt>
      <trkpt lat="45.61064" lon="6.70076">
        <ele>2228</ele>
        <time>2021-02-13T11:18:07Z</time>
      </trkpt>
      <trkpt lat="45.61063" lon="6.70073">
        <ele>2228</ele>
        <time>2021-02-13T11:18:12Z</time>
      </trkpt>
      <trkpt lat="45.61063" lon="6.70073">
        <ele>2228</ele>
        <time>2021-02-13T11:18:17Z</time>
      </trkpt>
      <trkpt lat="45.61063" lon="6.70073">
        <ele>2228</ele>
        <time>2021-02-13T11:18:27Z</time>
      </trkpt>
      <trkpt lat="45.61063" lon="6.70073">
        <ele>2228</ele>
        <time>2021-02-13T11:18:37Z</time>
      </trkpt>
      <trkpt lat="45.61063" lon="6.70073">
        <ele>2228</ele>
        <time>2021-02-13T11:18:47Z</time>
      </trkpt>
      <trkpt lat="45.61063" lon="6.70073">
        <ele>2227</ele>
        <time>2021-02-13T11:18:57Z</time>
      </trkpt>
      <trkpt lat="45.61063" lon="6.70073">
        <ele>2227</ele>
        <time>2021-02-13T11:19:07Z</time>
      </trkpt>
      <trkpt lat="45.61063" lon="6.70073">
        <ele>2229</ele>
        <time>2021-02-13T11:19:17Z</time>
      </trkpt>
      <trkpt lat="45.61063" lon="6.70073">
        <ele>2228</ele>
        <time>2021-02-13T11:19:27Z</time>
      </trkpt>
      <trkpt lat="45.61063" lon="6.70073">
        <ele>2227</ele>
        <time>2021-02-13T11:19:37Z</time>
      </trkpt>
      <trkpt lat="45.61063" lon="6.70073">
        <ele>2227</ele>
        <time>2021-02-13T11:19:47Z</time>
      </trkpt>
      <trkpt lat="45.61063" lon="6.70073">
        <ele>2227</ele>
        <time>2021-02-13T11:19:57Z</time>
      </trkpt>
      <trkpt lat="45.61062" lon="6.70071">
        <ele>2227</ele>
        <time>2021-02-13T11:20:01Z</time>
      </trkpt>
      <trkpt lat="45.61062" lon="6.70071">
        <ele>2228</ele>
        <time>2021-02-13T11:20:07Z</time>
      </trkpt>
      <trkpt lat="45.61062" lon="6.70071">
        <ele>2229</ele>
        <time>2021-02-13T11:20:18Z</time>
      </trkpt>
      <trkpt lat="45.61062" lon="6.70071">
        <ele>2229</ele>
        <time>2021-02-13T11:20:27Z</time>
      </trkpt>
      <trkpt lat="45.61062" lon="6.70071">
        <ele>2229</ele>
        <time>2021-02-13T11:20:37Z</time>
      </trkpt>
      <trkpt lat="45.61062" lon="6.70071">
        <ele>2229</ele>
        <time>2021-02-13T11:20:47Z</time>
      </trkpt>
      <trkpt lat="45.61062" lon="6.70071">
        <ele>2229</ele>
        <time>2021-02-13T11:20:57Z</time>
      </trkpt>
      <trkpt lat="45.61062" lon="6.70071">
        <ele>2227</ele>
        <time>2021-02-13T11:21:07Z</time>
      </trkpt>
      <trkpt lat="45.61062" lon="6.70071">
        <ele>2227</ele>
        <time>2021-02-13T11:21:17Z</time>
      </trkpt>
      <trkpt lat="45.61062" lon="6.70071">
        <ele>2227</ele>
        <time>2021-02-13T11:21:27Z</time>
      </trkpt>
      <trkpt lat="45.61062" lon="6.70071">
        <ele>2227</ele>
        <time>2021-02-13T11:21:37Z</time>
      </trkpt>
      <trkpt lat="45.61062" lon="6.70071">
        <ele>2227</ele>
        <time>2021-02-13T11:21:47Z</time>
      </trkpt>
      <trkpt lat="45.61062" lon="6.70071">
        <ele>2227</ele>
        <time>2021-02-13T11:21:57Z</time>
      </trkpt>
      <trkpt lat="45.61062" lon="6.70071">
        <ele>2227</ele>
        <time>2021-02-13T11:22:07Z</time>
      </trkpt>
      <trkpt lat="45.61062" lon="6.70071">
        <ele>2227</ele>
        <time>2021-02-13T11:22:17Z</time>
      </trkpt>
      <trkpt lat="45.61062" lon="6.70071">
        <ele>2228</ele>
        <time>2021-02-13T11:22:27Z</time>
      </trkpt>
      <trkpt lat="45.61062" lon="6.70071">
        <ele>2228</ele>
        <time>2021-02-13T11:22:37Z</time>
      </trkpt>
      <trkpt lat="45.61062" lon="6.70071">
        <ele>2229</ele>
        <time>2021-02-13T11:22:47Z</time>
      </trkpt>
      <trkpt lat="45.61063" lon="6.70074">
        <ele>2227</ele>
        <time>2021-02-13T11:22:57Z</time>
      </trkpt>
      <trkpt lat="45.61064" lon="6.70076">
        <ele>2227</ele>
        <time>2021-02-13T11:23:00Z</time>
      </trkpt>
      <trkpt lat="45.61065" lon="6.70079">
        <ele>2227</ele>
        <time>2021-02-13T11:23:04Z</time>
      </trkpt>
      <trkpt lat="45.61065" lon="6.70079">
        <ele>2227</ele>
        <time>2021-02-13T11:23:07Z</time>
      </trkpt>
      <trkpt lat="45.61065" lon="6.70079">
        <ele>2226</ele>
        <time>2021-02-13T11:23:17Z</time>
      </trkpt>
      <trkpt lat="45.61065" lon="6.70079">
        <ele>2227</ele>
        <time>2021-02-13T11:23:28Z</time>
      </trkpt>
      <trkpt lat="45.61065" lon="6.70079">
        <ele>2227</ele>
        <time>2021-02-13T11:23:37Z</time>
      </trkpt>
      <trkpt lat="45.61065" lon="6.70079">
        <ele>2227</ele>
        <time>2021-02-13T11:23:47Z</time>
      </trkpt>
      <trkpt lat="45.61065" lon="6.70079">
        <ele>2227</ele>
        <time>2021-02-13T11:23:57Z</time>
      </trkpt>
      <trkpt lat="45.61065" lon="6.70079">
        <ele>2227</ele>
        <time>2021-02-13T11:24:07Z</time>
      </trkpt>
      <trkpt lat="45.61065" lon="6.70079">
        <ele>2227</ele>
        <time>2021-02-13T11:24:17Z</time>
      </trkpt>
      <trkpt lat="45.61065" lon="6.70079">
        <ele>2227</ele>
        <time>2021-02-13T11:24:27Z</time>
      </trkpt>
      <trkpt lat="45.61065" lon="6.70079">
        <ele>2227</ele>
        <time>2021-02-13T11:24:37Z</time>
      </trkpt>
      <trkpt lat="45.61065" lon="6.70079">
        <ele>2227</ele>
        <time>2021-02-13T11:24:47Z</time>
      </trkpt>
      <trkpt lat="45.61065" lon="6.70079">
        <ele>2226</ele>
        <time>2021-02-13T11:24:57Z</time>
      </trkpt>
      <trkpt lat="45.61065" lon="6.70079">
        <ele>2226</ele>
        <time>2021-02-13T11:25:07Z</time>
      </trkpt>
      <trkpt lat="45.61065" lon="6.70079">
        <ele>2227</ele>
        <time>2021-02-13T11:25:17Z</time>
      </trkpt>
      <trkpt lat="45.61065" lon="6.70079">
        <ele>2227</ele>
        <time>2021-02-13T11:25:27Z</time>
      </trkpt>
      <trkpt lat="45.61065" lon="6.70079">
        <ele>2227</ele>
        <time>2021-02-13T11:25:37Z</time>
      </trkpt>
      <trkpt lat="45.61065" lon="6.70079">
        <ele>2227</ele>
        <time>2021-02-13T11:25:47Z</time>
      </trkpt>
      <trkpt lat="45.61065" lon="6.70079">
        <ele>2227</ele>
        <time>2021-02-13T11:25:57Z</time>
      </trkpt>
      <trkpt lat="45.61065" lon="6.70079">
        <ele>2229</ele>
        <time>2021-02-13T11:26:07Z</time>
      </trkpt>
      <trkpt lat="45.61065" lon="6.70079">
        <ele>2229</ele>
        <time>2021-02-13T11:26:17Z</time>
      </trkpt>
      <trkpt lat="45.61065" lon="6.70079">
        <ele>2229</ele>
        <time>2021-02-13T11:26:27Z</time>
      </trkpt>
      <trkpt lat="45.61065" lon="6.70079">
        <ele>2229</ele>
        <time>2021-02-13T11:26:38Z</time>
      </trkpt>
      <trkpt lat="45.61065" lon="6.70079">
        <ele>2229</ele>
        <time>2021-02-13T11:26:47Z</time>
      </trkpt>
      <trkpt lat="45.61065" lon="6.70079">
        <ele>2229</ele>
        <time>2021-02-13T11:26:57Z</time>
      </trkpt>
      <trkpt lat="45.61065" lon="6.70079">
        <ele>2227</ele>
        <time>2021-02-13T11:27:07Z</time>
      </trkpt>
      <trkpt lat="45.61065" lon="6.70079">
        <ele>2227</ele>
        <time>2021-02-13T11:27:17Z</time>
      </trkpt>
      <trkpt lat="45.61065" lon="6.70079">
        <ele>2227</ele>
        <time>2021-02-13T11:27:27Z</time>
      </trkpt>
      <trkpt lat="45.61065" lon="6.70079">
        <ele>2226</ele>
        <time>2021-02-13T11:27:37Z</time>
      </trkpt>
      <trkpt lat="45.61065" lon="6.70079">
        <ele>2227</ele>
        <time>2021-02-13T11:27:47Z</time>
      </trkpt>
      <trkpt lat="45.61065" lon="6.70079">
        <ele>2227</ele>
        <time>2021-02-13T11:27:57Z</time>
      </trkpt>
      <trkpt lat="45.61065" lon="6.70079">
        <ele>2226</ele>
        <time>2021-02-13T11:28:07Z</time>
      </trkpt>
      <trkpt lat="45.61065" lon="6.70079">
        <ele>2226</ele>
        <time>2021-02-13T11:28:17Z</time>
      </trkpt>
      <trkpt lat="45.61065" lon="6.70079">
        <ele>2229</ele>
        <time>2021-02-13T11:28:27Z</time>
      </trkpt>
      <trkpt lat="45.61065" lon="6.70079">
        <ele>2227</ele>
        <time>2021-02-13T11:28:37Z</time>
      </trkpt>
      <trkpt lat="45.61065" lon="6.70079">
        <ele>2227</ele>
        <time>2021-02-13T11:28:47Z</time>
      </trkpt>
      <trkpt lat="45.61065" lon="6.70079">
        <ele>2229</ele>
        <time>2021-02-13T11:28:57Z</time>
      </trkpt>
      <trkpt lat="45.61065" lon="6.70079">
        <ele>2227</ele>
        <time>2021-02-13T11:29:07Z</time>
      </trkpt>
      <trkpt lat="45.61065" lon="6.70079">
        <ele>2227</ele>
        <time>2021-02-13T11:29:17Z</time>
      </trkpt>
      <trkpt lat="45.61065" lon="6.70079">
        <ele>2227</ele>
        <time>2021-02-13T11:29:27Z</time>
      </trkpt>
      <trkpt lat="45.61065" lon="6.70079">
        <ele>2226</ele>
        <time>2021-02-13T11:29:37Z</time>
      </trkpt>
      <trkpt lat="45.61065" lon="6.70079">
        <ele>2226</ele>
        <time>2021-02-13T11:29:48Z</time>
      </trkpt>
      <trkpt lat="45.61065" lon="6.70079">
        <ele>2227</ele>
        <time>2021-02-13T11:29:57Z</time>
      </trkpt>
      <trkpt lat="45.61064" lon="6.70077">
        <ele>2227</ele>
        <time>2021-02-13T11:30:00Z</time>
      </trkpt>
      <trkpt lat="45.61064" lon="6.70077">
        <ele>2227</ele>
        <time>2021-02-13T11:30:07Z</time>
      </trkpt>
      <trkpt lat="45.61064" lon="6.70077">
        <ele>2227</ele>
        <time>2021-02-13T11:30:17Z</time>
      </trkpt>
      <trkpt lat="45.61064" lon="6.70077">
        <ele>2227</ele>
        <time>2021-02-13T11:30:27Z</time>
      </trkpt>
      <trkpt lat="45.61064" lon="6.70077">
        <ele>2227</ele>
        <time>2021-02-13T11:30:37Z</time>
      </trkpt>
      <trkpt lat="45.61064" lon="6.70077">
        <ele>2229</ele>
        <time>2021-02-13T11:30:47Z</time>
      </trkpt>
      <trkpt lat="45.61064" lon="6.70077">
        <ele>2229</ele>
        <time>2021-02-13T11:30:57Z</time>
      </trkpt>
      <trkpt lat="45.61064" lon="6.70077">
        <ele>2227</ele>
        <time>2021-02-13T11:31:07Z</time>
      </trkpt>
      <trkpt lat="45.61064" lon="6.70077">
        <ele>2229</ele>
        <time>2021-02-13T11:31:17Z</time>
      </trkpt>
      <trkpt lat="45.61064" lon="6.70077">
        <ele>2229</ele>
        <time>2021-02-13T11:31:27Z</time>
      </trkpt>
      <trkpt lat="45.61064" lon="6.70077">
        <ele>2229</ele>
        <time>2021-02-13T11:31:37Z</time>
      </trkpt>
      <trkpt lat="45.61064" lon="6.70077">
        <ele>2229</ele>
        <time>2021-02-13T11:31:47Z</time>
      </trkpt>
      <trkpt lat="45.61064" lon="6.70077">
        <ele>2229</ele>
        <time>2021-02-13T11:31:57Z</time>
      </trkpt>
      <trkpt lat="45.61064" lon="6.70077">
        <ele>2227</ele>
        <time>2021-02-13T11:32:07Z</time>
      </trkpt>
      <trkpt lat="45.61064" lon="6.70077">
        <ele>2227</ele>
        <time>2021-02-13T11:32:17Z</time>
      </trkpt>
      <trkpt lat="45.61064" lon="6.70077">
        <ele>2229</ele>
        <time>2021-02-13T11:32:27Z</time>
      </trkpt>
      <trkpt lat="45.61064" lon="6.70077">
        <ele>2229</ele>
        <time>2021-02-13T11:32:37Z</time>
      </trkpt>
      <trkpt lat="45.61064" lon="6.70077">
        <ele>2229</ele>
        <time>2021-02-13T11:32:47Z</time>
      </trkpt>
      <trkpt lat="45.61064" lon="6.70077">
        <ele>2227</ele>
        <time>2021-02-13T11:32:58Z</time>
      </trkpt>
      <trkpt lat="45.61064" lon="6.70077">
        <ele>2227</ele>
        <time>2021-02-13T11:33:07Z</time>
      </trkpt>
      <trkpt lat="45.61064" lon="6.70077">
        <ele>2229</ele>
        <time>2021-02-13T11:33:17Z</time>
      </trkpt>
      <trkpt lat="45.61064" lon="6.70077">
        <ele>2229</ele>
        <time>2021-02-13T11:33:27Z</time>
      </trkpt>
      <trkpt lat="45.61064" lon="6.70077">
        <ele>2227</ele>
        <time>2021-02-13T11:33:37Z</time>
      </trkpt>
      <trkpt lat="45.61064" lon="6.70077">
        <ele>2227</ele>
        <time>2021-02-13T11:33:47Z</time>
      </trkpt>
      <trkpt lat="45.61064" lon="6.70077">
        <ele>2229</ele>
        <time>2021-02-13T11:33:57Z</time>
      </trkpt>
      <trkpt lat="45.61064" lon="6.70077">
        <ele>2229</ele>
        <time>2021-02-13T11:34:07Z</time>
      </trkpt>
      <trkpt lat="45.61064" lon="6.70077">
        <ele>2229</ele>
        <time>2021-02-13T11:34:17Z</time>
      </trkpt>
      <trkpt lat="45.61064" lon="6.70077">
        <ele>2229</ele>
        <time>2021-02-13T11:34:27Z</time>
      </trkpt>
      <trkpt lat="45.61064" lon="6.70077">
        <ele>2229</ele>
        <time>2021-02-13T11:34:37Z</time>
      </trkpt>
      <trkpt lat="45.61064" lon="6.70077">
        <ele>2229</ele>
        <time>2021-02-13T11:34:47Z</time>
      </trkpt>
      <trkpt lat="45.61064" lon="6.70077">
        <ele>2229</ele>
        <time>2021-02-13T11:34:57Z</time>
      </trkpt>
      <trkpt lat="45.61064" lon="6.70077">
        <ele>2227</ele>
        <time>2021-02-13T11:35:07Z</time>
      </trkpt>
      <trkpt lat="45.61064" lon="6.70077">
        <ele>2229</ele>
        <time>2021-02-13T11:35:17Z</time>
      </trkpt>
      <trkpt lat="45.61064" lon="6.70077">
        <ele>2229</ele>
        <time>2021-02-13T11:35:27Z</time>
      </trkpt>
      <trkpt lat="45.61064" lon="6.70077">
        <ele>2229</ele>
        <time>2021-02-13T11:35:37Z</time>
      </trkpt>
      <trkpt lat="45.61064" lon="6.70077">
        <ele>2229</ele>
        <time>2021-02-13T11:35:47Z</time>
      </trkpt>
      <trkpt lat="45.61064" lon="6.70077">
        <ele>2229</ele>
        <time>2021-02-13T11:35:57Z</time>
      </trkpt>
      <trkpt lat="45.61064" lon="6.70077">
        <ele>2229</ele>
        <time>2021-02-13T11:36:07Z</time>
      </trkpt>
      <trkpt lat="45.61064" lon="6.70077">
        <ele>2229</ele>
        <time>2021-02-13T11:36:17Z</time>
      </trkpt>
      <trkpt lat="45.61064" lon="6.70077">
        <ele>2229</ele>
        <time>2021-02-13T11:36:27Z</time>
      </trkpt>
      <trkpt lat="45.61064" lon="6.70077">
        <ele>2229</ele>
        <time>2021-02-13T11:36:37Z</time>
      </trkpt>
      <trkpt lat="45.61064" lon="6.70077">
        <ele>2229</ele>
        <time>2021-02-13T11:36:47Z</time>
      </trkpt>
      <trkpt lat="45.61064" lon="6.70077">
        <ele>2229</ele>
        <time>2021-02-13T11:36:57Z</time>
      </trkpt>
      <trkpt lat="45.61064" lon="6.70077">
        <ele>2229</ele>
        <time>2021-02-13T11:37:07Z</time>
      </trkpt>
      <trkpt lat="45.61064" lon="6.70077">
        <ele>2229</ele>
        <time>2021-02-13T11:37:17Z</time>
      </trkpt>
      <trkpt lat="45.61064" lon="6.70077">
        <ele>2229</ele>
        <time>2021-02-13T11:37:27Z</time>
      </trkpt>
      <trkpt lat="45.61064" lon="6.70077">
        <ele>2229</ele>
        <time>2021-02-13T11:37:37Z</time>
      </trkpt>
      <trkpt lat="45.61064" lon="6.70077">
        <ele>2229</ele>
        <time>2021-02-13T11:37:47Z</time>
      </trkpt>
      <trkpt lat="45.61064" lon="6.70077">
        <ele>2229</ele>
        <time>2021-02-13T11:37:57Z</time>
      </trkpt>
      <trkpt lat="45.61064" lon="6.70077">
        <ele>2229</ele>
        <time>2021-02-13T11:38:07Z</time>
      </trkpt>
      <trkpt lat="45.61064" lon="6.70077">
        <ele>2229</ele>
        <time>2021-02-13T11:38:17Z</time>
      </trkpt>
      <trkpt lat="45.61064" lon="6.70077">
        <ele>2229</ele>
        <time>2021-02-13T11:38:27Z</time>
      </trkpt>
      <trkpt lat="45.61064" lon="6.70077">
        <ele>2229</ele>
        <time>2021-02-13T11:38:37Z</time>
      </trkpt>
      <trkpt lat="45.61064" lon="6.70077">
        <ele>2229</ele>
        <time>2021-02-13T11:38:47Z</time>
      </trkpt>
      <trkpt lat="45.61064" lon="6.70077">
        <ele>2229</ele>
        <time>2021-02-13T11:38:57Z</time>
      </trkpt>
      <trkpt lat="45.61064" lon="6.70077">
        <ele>2227</ele>
        <time>2021-02-13T11:39:07Z</time>
      </trkpt>
      <trkpt lat="45.61064" lon="6.70077">
        <ele>2229</ele>
        <time>2021-02-13T11:39:18Z</time>
      </trkpt>
      <trkpt lat="45.61064" lon="6.70077">
        <ele>2229</ele>
        <time>2021-02-13T11:39:27Z</time>
      </trkpt>
      <trkpt lat="45.61064" lon="6.70077">
        <ele>2229</ele>
        <time>2021-02-13T11:39:37Z</time>
      </trkpt>
      <trkpt lat="45.61064" lon="6.70077">
        <ele>2228</ele>
        <time>2021-02-13T11:39:47Z</time>
      </trkpt>
      <trkpt lat="45.61064" lon="6.70077">
        <ele>2228</ele>
        <time>2021-02-13T11:39:57Z</time>
      </trkpt>
      <trkpt lat="45.61064" lon="6.70077">
        <ele>2227</ele>
        <time>2021-02-13T11:40:07Z</time>
      </trkpt>
      <trkpt lat="45.61064" lon="6.70077">
        <ele>2227</ele>
        <time>2021-02-13T11:40:17Z</time>
      </trkpt>
      <trkpt lat="45.61064" lon="6.70077">
        <ele>2227</ele>
        <time>2021-02-13T11:40:27Z</time>
      </trkpt>
      <trkpt lat="45.61064" lon="6.70077">
        <ele>2228</ele>
        <time>2021-02-13T11:40:37Z</time>
      </trkpt>
      <trkpt lat="45.61064" lon="6.70077">
        <ele>2228</ele>
        <time>2021-02-13T11:40:47Z</time>
      </trkpt>
      <trkpt lat="45.61064" lon="6.70077">
        <ele>2228</ele>
        <time>2021-02-13T11:40:57Z</time>
      </trkpt>
      <trkpt lat="45.61064" lon="6.70077">
        <ele>2228</ele>
        <time>2021-02-13T11:41:07Z</time>
      </trkpt>
      <trkpt lat="45.61064" lon="6.70077">
        <ele>2228</ele>
        <time>2021-02-13T11:41:17Z</time>
      </trkpt>
      <trkpt lat="45.61064" lon="6.70077">
        <ele>2228</ele>
        <time>2021-02-13T11:41:27Z</time>
      </trkpt>
      <trkpt lat="45.61064" lon="6.70077">
        <ele>2228</ele>
        <time>2021-02-13T11:41:37Z</time>
      </trkpt>
      <trkpt lat="45.61064" lon="6.70077">
        <ele>2228</ele>
        <time>2021-02-13T11:41:47Z</time>
      </trkpt>
      <trkpt lat="45.61064" lon="6.70077">
        <ele>2228</ele>
        <time>2021-02-13T11:41:57Z</time>
      </trkpt>
      <trkpt lat="45.61064" lon="6.70077">
        <ele>2227</ele>
        <time>2021-02-13T11:42:07Z</time>
      </trkpt>
      <trkpt lat="45.61064" lon="6.70077">
        <ele>2228</ele>
        <time>2021-02-13T11:42:17Z</time>
      </trkpt>
      <trkpt lat="45.61064" lon="6.70077">
        <ele>2228</ele>
        <time>2021-02-13T11:42:28Z</time>
      </trkpt>
      <trkpt lat="45.61064" lon="6.70077">
        <ele>2228</ele>
        <time>2021-02-13T11:42:37Z</time>
      </trkpt>
      <trkpt lat="45.61064" lon="6.70077">
        <ele>2228</ele>
        <time>2021-02-13T11:42:47Z</time>
      </trkpt>
      <trkpt lat="45.61064" lon="6.70077">
        <ele>2228</ele>
        <time>2021-02-13T11:42:57Z</time>
      </trkpt>
      <trkpt lat="45.61064" lon="6.70077">
        <ele>2228</ele>
        <time>2021-02-13T11:43:07Z</time>
      </trkpt>
      <trkpt lat="45.61064" lon="6.70077">
        <ele>2229</ele>
        <time>2021-02-13T11:43:17Z</time>
      </trkpt>
      <trkpt lat="45.61064" lon="6.70077">
        <ele>2229</ele>
        <time>2021-02-13T11:43:27Z</time>
      </trkpt>
      <trkpt lat="45.61064" lon="6.70077">
        <ele>2228</ele>
        <time>2021-02-13T11:43:37Z</time>
      </trkpt>
      <trkpt lat="45.61064" lon="6.70077">
        <ele>2228</ele>
        <time>2021-02-13T11:43:47Z</time>
      </trkpt>
      <trkpt lat="45.61064" lon="6.70077">
        <ele>2228</ele>
        <time>2021-02-13T11:43:57Z</time>
      </trkpt>
      <trkpt lat="45.61064" lon="6.70077">
        <ele>2228</ele>
        <time>2021-02-13T11:44:07Z</time>
      </trkpt>
      <trkpt lat="45.61064" lon="6.70077">
        <ele>2228</ele>
        <time>2021-02-13T11:44:17Z</time>
      </trkpt>
      <trkpt lat="45.61064" lon="6.70077">
        <ele>2228</ele>
        <time>2021-02-13T11:44:27Z</time>
      </trkpt>
      <trkpt lat="45.61064" lon="6.70077">
        <ele>2228</ele>
        <time>2021-02-13T11:44:37Z</time>
      </trkpt>
      <trkpt lat="45.61064" lon="6.70077">
        <ele>2228</ele>
        <time>2021-02-13T11:44:47Z</time>
      </trkpt>
      <trkpt lat="45.61064" lon="6.70077">
        <ele>2229</ele>
        <time>2021-02-13T11:44:57Z</time>
      </trkpt>
      <trkpt lat="45.61064" lon="6.70077">
        <ele>2228</ele>
        <time>2021-02-13T11:45:07Z</time>
      </trkpt>
      <trkpt lat="45.61063" lon="6.70079">
        <ele>2228</ele>
        <time>2021-02-13T11:45:13Z</time>
      </trkpt>
      <trkpt lat="45.61063" lon="6.70079">
        <ele>2228</ele>
        <time>2021-02-13T11:45:17Z</time>
      </trkpt>
      <trkpt lat="45.61063" lon="6.70079">
        <ele>2228</ele>
        <time>2021-02-13T11:45:27Z</time>
      </trkpt>
      <trkpt lat="45.61063" lon="6.70079">
        <ele>2228</ele>
        <time>2021-02-13T11:45:38Z</time>
      </trkpt>
      <trkpt lat="45.61063" lon="6.70079">
        <ele>2229</ele>
        <time>2021-02-13T11:45:47Z</time>
      </trkpt>
      <trkpt lat="45.61063" lon="6.70079">
        <ele>2228</ele>
        <time>2021-02-13T11:45:57Z</time>
      </trkpt>
      <trkpt lat="45.61063" lon="6.70079">
        <ele>2228</ele>
        <time>2021-02-13T11:46:07Z</time>
      </trkpt>
      <trkpt lat="45.61063" lon="6.70079">
        <ele>2228</ele>
        <time>2021-02-13T11:46:17Z</time>
      </trkpt>
      <trkpt lat="45.61063" lon="6.70079">
        <ele>2228</ele>
        <time>2021-02-13T11:46:27Z</time>
      </trkpt>
      <trkpt lat="45.61063" lon="6.70079">
        <ele>2228</ele>
        <time>2021-02-13T11:46:37Z</time>
      </trkpt>
      <trkpt lat="45.61063" lon="6.70079">
        <ele>2227</ele>
        <time>2021-02-13T11:46:47Z</time>
      </trkpt>
      <trkpt lat="45.61063" lon="6.70079">
        <ele>2228</ele>
        <time>2021-02-13T11:46:57Z</time>
      </trkpt>
      <trkpt lat="45.61063" lon="6.70079">
        <ele>2228</ele>
        <time>2021-02-13T11:47:07Z</time>
      </trkpt>
      <trkpt lat="45.61063" lon="6.70079">
        <ele>2228</ele>
        <time>2021-02-13T11:47:17Z</time>
      </trkpt>
      <trkpt lat="45.61063" lon="6.70079">
        <ele>2230</ele>
        <time>2021-02-13T11:47:27Z</time>
      </trkpt>
      <trkpt lat="45.61063" lon="6.70079">
        <ele>2229</ele>
        <time>2021-02-13T11:47:37Z</time>
      </trkpt>
      <trkpt lat="45.61063" lon="6.70079">
        <ele>2228</ele>
        <time>2021-02-13T11:47:47Z</time>
      </trkpt>
      <trkpt lat="45.61063" lon="6.70079">
        <ele>2227</ele>
        <time>2021-02-13T11:47:57Z</time>
      </trkpt>
      <trkpt lat="45.61063" lon="6.70079">
        <ele>2228</ele>
        <time>2021-02-13T11:48:07Z</time>
      </trkpt>
      <trkpt lat="45.61063" lon="6.70079">
        <ele>2228</ele>
        <time>2021-02-13T11:48:17Z</time>
      </trkpt>
      <trkpt lat="45.61063" lon="6.70079">
        <ele>2227</ele>
        <time>2021-02-13T11:48:27Z</time>
      </trkpt>
      <trkpt lat="45.61063" lon="6.70079">
        <ele>2227</ele>
        <time>2021-02-13T11:48:37Z</time>
      </trkpt>
      <trkpt lat="45.61063" lon="6.70079">
        <ele>2227</ele>
        <time>2021-02-13T11:48:48Z</time>
      </trkpt>
      <trkpt lat="45.61063" lon="6.70079">
        <ele>2227</ele>
        <time>2021-02-13T11:48:57Z</time>
      </trkpt>
      <trkpt lat="45.61063" lon="6.70079">
        <ele>2227</ele>
        <time>2021-02-13T11:49:07Z</time>
      </trkpt>
      <trkpt lat="45.61063" lon="6.70079">
        <ele>2227</ele>
        <time>2021-02-13T11:49:17Z</time>
      </trkpt>
      <trkpt lat="45.61065" lon="6.70077">
        <ele>2227</ele>
        <time>2021-02-13T11:49:18Z</time>
      </trkpt>
      <trkpt lat="45.61065" lon="6.70077">
        <ele>2227</ele>
        <time>2021-02-13T11:49:27Z</time>
      </trkpt>
      <trkpt lat="45.61065" lon="6.70077">
        <ele>2227</ele>
        <time>2021-02-13T11:49:37Z</time>
      </trkpt>
      <trkpt lat="45.61065" lon="6.70077">
        <ele>2227</ele>
        <time>2021-02-13T11:49:47Z</time>
      </trkpt>
      <trkpt lat="45.61065" lon="6.70077">
        <ele>2227</ele>
        <time>2021-02-13T11:49:57Z</time>
      </trkpt>
      <trkpt lat="45.61065" lon="6.70077">
        <ele>2228</ele>
        <time>2021-02-13T11:50:07Z</time>
      </trkpt>
      <trkpt lat="45.61065" lon="6.70077">
        <ele>2228</ele>
        <time>2021-02-13T11:50:17Z</time>
      </trkpt>
      <trkpt lat="45.61065" lon="6.70077">
        <ele>2228</ele>
        <time>2021-02-13T11:50:27Z</time>
      </trkpt>
      <trkpt lat="45.61065" lon="6.70077">
        <ele>2228</ele>
        <time>2021-02-13T11:50:37Z</time>
      </trkpt>
      <trkpt lat="45.61065" lon="6.70077">
        <ele>2229</ele>
        <time>2021-02-13T11:50:47Z</time>
      </trkpt>
      <trkpt lat="45.61065" lon="6.70077">
        <ele>2229</ele>
        <time>2021-02-13T11:50:57Z</time>
      </trkpt>
      <trkpt lat="45.61065" lon="6.70077">
        <ele>2228</ele>
        <time>2021-02-13T11:51:07Z</time>
      </trkpt>
      <trkpt lat="45.61065" lon="6.70077">
        <ele>2228</ele>
        <time>2021-02-13T11:51:17Z</time>
      </trkpt>
      <trkpt lat="45.61065" lon="6.70077">
        <ele>2229</ele>
        <time>2021-02-13T11:51:27Z</time>
      </trkpt>
      <trkpt lat="45.61065" lon="6.70074">
        <ele>2229</ele>
        <time>2021-02-13T11:51:30Z</time>
      </trkpt>
      <trkpt lat="45.61065" lon="6.70071">
        <ele>2229</ele>
        <time>2021-02-13T11:51:33Z</time>
      </trkpt>
      <trkpt lat="45.61066" lon="6.70068">
        <ele>2229</ele>
        <time>2021-02-13T11:51:35Z</time>
      </trkpt>
      <trkpt lat="45.61067" lon="6.70065">
        <ele>2229</ele>
        <time>2021-02-13T11:51:37Z</time>
      </trkpt>
      <trkpt lat="45.61067" lon="6.70063">
        <ele>2229</ele>
        <time>2021-02-13T11:51:40Z</time>
      </trkpt>
      <trkpt lat="45.61067" lon="6.70064">
        <ele>2229</ele>
        <time>2021-02-13T11:51:47Z</time>
      </trkpt>
      <trkpt lat="45.61067" lon="6.70065">
        <ele>2228</ele>
        <time>2021-02-13T11:51:58Z</time>
      </trkpt>
      <trkpt lat="45.61067" lon="6.70066">
        <ele>2227</ele>
        <time>2021-02-13T11:52:07Z</time>
      </trkpt>
      <trkpt lat="45.61066" lon="6.70067">
        <ele>2228</ele>
        <time>2021-02-13T11:52:17Z</time>
      </trkpt>
      <trkpt lat="45.61066" lon="6.70068">
        <ele>2228</ele>
        <time>2021-02-13T11:52:27Z</time>
      </trkpt>
      <trkpt lat="45.61066" lon="6.70069">
        <ele>2228</ele>
        <time>2021-02-13T11:52:37Z</time>
      </trkpt>
      <trkpt lat="45.61066" lon="6.7007">
        <ele>2228</ele>
        <time>2021-02-13T11:52:45Z</time>
      </trkpt>
      <trkpt lat="45.61065" lon="6.70071">
        <ele>2229</ele>
        <time>2021-02-13T11:52:47Z</time>
      </trkpt>
      <trkpt lat="45.61065" lon="6.70072">
        <ele>2229</ele>
        <time>2021-02-13T11:52:48Z</time>
      </trkpt>
      <trkpt lat="45.61065" lon="6.70073">
        <ele>2229</ele>
        <time>2021-02-13T11:52:51Z</time>
      </trkpt>
      <trkpt lat="45.61065" lon="6.70074">
        <ele>2229</ele>
        <time>2021-02-13T11:52:54Z</time>
      </trkpt>
      <trkpt lat="45.61064" lon="6.70075">
        <ele>2229</ele>
        <time>2021-02-13T11:52:57Z</time>
      </trkpt>
      <trkpt lat="45.61064" lon="6.70076">
        <ele>2229</ele>
        <time>2021-02-13T11:52:58Z</time>
      </trkpt>
      <trkpt lat="45.61064" lon="6.70077">
        <ele>2229</ele>
        <time>2021-02-13T11:53:07Z</time>
      </trkpt>
      <trkpt lat="45.61063" lon="6.70078">
        <ele>2228</ele>
        <time>2021-02-13T11:53:17Z</time>
      </trkpt>
      <trkpt lat="45.61063" lon="6.70079">
        <ele>2227</ele>
        <time>2021-02-13T11:53:27Z</time>
      </trkpt>
      <trkpt lat="45.61063" lon="6.70079">
        <ele>2227</ele>
        <time>2021-02-13T11:53:37Z</time>
      </trkpt>
      <trkpt lat="45.61062" lon="6.7008">
        <ele>2228</ele>
        <time>2021-02-13T11:53:47Z</time>
      </trkpt>
      <trkpt lat="45.61062" lon="6.70081">
        <ele>2228</ele>
        <time>2021-02-13T11:53:57Z</time>
      </trkpt>
      <trkpt lat="45.61062" lon="6.70082">
        <ele>2228</ele>
        <time>2021-02-13T11:54:07Z</time>
      </trkpt>
      <trkpt lat="45.61061" lon="6.70082">
        <ele>2228</ele>
        <time>2021-02-13T11:54:17Z</time>
      </trkpt>
      <trkpt lat="45.61061" lon="6.70083">
        <ele>2229</ele>
        <time>2021-02-13T11:54:27Z</time>
      </trkpt>
      <trkpt lat="45.61061" lon="6.70084">
        <ele>2228</ele>
        <time>2021-02-13T11:54:37Z</time>
      </trkpt>
      <trkpt lat="45.6106" lon="6.70085">
        <ele>2227</ele>
        <time>2021-02-13T11:54:47Z</time>
      </trkpt>
      <trkpt lat="45.6106" lon="6.70085">
        <ele>2229</ele>
        <time>2021-02-13T11:54:57Z</time>
      </trkpt>
      <trkpt lat="45.6106" lon="6.70086">
        <ele>2229</ele>
        <time>2021-02-13T11:55:08Z</time>
      </trkpt>
      <trkpt lat="45.6106" lon="6.70087">
        <ele>2229</ele>
        <time>2021-02-13T11:55:17Z</time>
      </trkpt>
      <trkpt lat="45.61059" lon="6.70088">
        <ele>2228</ele>
        <time>2021-02-13T11:55:27Z</time>
      </trkpt>
      <trkpt lat="45.61059" lon="6.70088">
        <ele>2228</ele>
        <time>2021-02-13T11:55:37Z</time>
      </trkpt>
      <trkpt lat="45.61059" lon="6.70089">
        <ele>2228</ele>
        <time>2021-02-13T11:55:47Z</time>
      </trkpt>
      <trkpt lat="45.61058" lon="6.7009">
        <ele>2228</ele>
        <time>2021-02-13T11:55:57Z</time>
      </trkpt>
      <trkpt lat="45.61058" lon="6.70091">
        <ele>2227</ele>
        <time>2021-02-13T11:56:07Z</time>
      </trkpt>
      <trkpt lat="45.61058" lon="6.70091">
        <ele>2228</ele>
        <time>2021-02-13T11:56:17Z</time>
      </trkpt>
      <trkpt lat="45.61057" lon="6.70092">
        <ele>2228</ele>
        <time>2021-02-13T11:56:27Z</time>
      </trkpt>
      <trkpt lat="45.61057" lon="6.70093">
        <ele>2228</ele>
        <time>2021-02-13T11:56:37Z</time>
      </trkpt>
      <trkpt lat="45.61057" lon="6.70094">
        <ele>2228</ele>
        <time>2021-02-13T11:56:47Z</time>
      </trkpt>
      <trkpt lat="45.61056" lon="6.70094">
        <ele>2228</ele>
        <time>2021-02-13T11:56:57Z</time>
      </trkpt>
      <trkpt lat="45.61056" lon="6.70095">
        <ele>2228</ele>
        <time>2021-02-13T11:57:03Z</time>
      </trkpt>
      <trkpt lat="45.61056" lon="6.70096">
        <ele>2227</ele>
        <time>2021-02-13T11:57:07Z</time>
      </trkpt>
      <trkpt lat="45.61055" lon="6.70097">
        <ele>2228</ele>
        <time>2021-02-13T11:57:17Z</time>
      </trkpt>
      <trkpt lat="45.61055" lon="6.70097">
        <ele>2228</ele>
        <time>2021-02-13T11:57:27Z</time>
      </trkpt>
      <trkpt lat="45.61055" lon="6.70098">
        <ele>2228</ele>
        <time>2021-02-13T11:57:37Z</time>
      </trkpt>
      <trkpt lat="45.61054" lon="6.70099">
        <ele>2228</ele>
        <time>2021-02-13T11:57:47Z</time>
      </trkpt>
      <trkpt lat="45.61054" lon="6.701">
        <ele>2228</ele>
        <time>2021-02-13T11:57:57Z</time>
      </trkpt>
      <trkpt lat="45.61054" lon="6.701">
        <ele>2229</ele>
        <time>2021-02-13T11:58:07Z</time>
      </trkpt>
      <trkpt lat="45.61053" lon="6.70101">
        <ele>2229</ele>
        <time>2021-02-13T11:58:18Z</time>
      </trkpt>
      <trkpt lat="45.61053" lon="6.70102">
        <ele>2228</ele>
        <time>2021-02-13T11:58:27Z</time>
      </trkpt>
      <trkpt lat="45.61053" lon="6.70103">
        <ele>2228</ele>
        <time>2021-02-13T11:58:31Z</time>
      </trkpt>
      <trkpt lat="45.61052" lon="6.70103">
        <ele>2228</ele>
        <time>2021-02-13T11:58:32Z</time>
      </trkpt>
      <trkpt lat="45.61052" lon="6.70104">
        <ele>2228</ele>
        <time>2021-02-13T11:58:33Z</time>
      </trkpt>
      <trkpt lat="45.61052" lon="6.70105">
        <ele>2228</ele>
        <time>2021-02-13T11:58:34Z</time>
      </trkpt>
      <trkpt lat="45.61051" lon="6.70106">
        <ele>2228</ele>
        <time>2021-02-13T11:58:35Z</time>
      </trkpt>
      <trkpt lat="45.61051" lon="6.70106">
        <ele>2228</ele>
        <time>2021-02-13T11:58:36Z</time>
      </trkpt>
      <trkpt lat="45.61051" lon="6.70107">
        <ele>2227</ele>
        <time>2021-02-13T11:58:37Z</time>
      </trkpt>
      <trkpt lat="45.61045" lon="6.70117">
        <ele>2227</ele>
        <time>2021-02-13T11:58:38Z</time>
      </trkpt>
      <trkpt lat="45.61043" lon="6.70121">
        <ele>2227</ele>
        <time>2021-02-13T11:58:39Z</time>
      </trkpt>
      <trkpt lat="45.61041" lon="6.70126">
        <ele>2227</ele>
        <time>2021-02-13T11:58:40Z</time>
      </trkpt>
      <trkpt lat="45.61038" lon="6.7013">
        <ele>2227</ele>
        <time>2021-02-13T11:58:41Z</time>
      </trkpt>
      <trkpt lat="45.61036" lon="6.70134">
        <ele>2227</ele>
        <time>2021-02-13T11:58:42Z</time>
      </trkpt>
      <trkpt lat="45.61033" lon="6.70138">
        <ele>2227</ele>
        <time>2021-02-13T11:58:43Z</time>
      </trkpt>
      <trkpt lat="45.61031" lon="6.70143">
        <ele>2227</ele>
        <time>2021-02-13T11:58:44Z</time>
      </trkpt>
      <trkpt lat="45.61029" lon="6.70147">
        <ele>2227</ele>
        <time>2021-02-13T11:58:45Z</time>
      </trkpt>
      <trkpt lat="45.61026" lon="6.70151">
        <ele>2227</ele>
        <time>2021-02-13T11:58:46Z</time>
      </trkpt>
      <trkpt lat="45.61024" lon="6.70155">
        <ele>2227</ele>
        <time>2021-02-13T11:58:47Z</time>
      </trkpt>
      <trkpt lat="45.61021" lon="6.7016">
        <ele>2216</ele>
        <time>2021-02-13T11:58:48Z</time>
      </trkpt>
      <trkpt lat="45.61016" lon="6.70172">
        <ele>2216</ele>
        <time>2021-02-13T11:58:49Z</time>
      </trkpt>
      <trkpt lat="45.61014" lon="6.70179">
        <ele>2216</ele>
        <time>2021-02-13T11:58:50Z</time>
      </trkpt>
      <trkpt lat="45.61011" lon="6.70185">
        <ele>2216</ele>
        <time>2021-02-13T11:58:51Z</time>
      </trkpt>
      <trkpt lat="45.61009" lon="6.70192">
        <ele>2216</ele>
        <time>2021-02-13T11:58:52Z</time>
      </trkpt>
      <trkpt lat="45.61006" lon="6.70199">
        <ele>2216</ele>
        <time>2021-02-13T11:58:53Z</time>
      </trkpt>
      <trkpt lat="45.61004" lon="6.70206">
        <ele>2216</ele>
        <time>2021-02-13T11:58:54Z</time>
      </trkpt>
      <trkpt lat="45.61001" lon="6.70212">
        <ele>2216</ele>
        <time>2021-02-13T11:58:55Z</time>
      </trkpt>
      <trkpt lat="45.60999" lon="6.70219">
        <ele>2216</ele>
        <time>2021-02-13T11:58:56Z</time>
      </trkpt>
      <trkpt lat="45.60996" lon="6.70226">
        <ele>2199</ele>
        <time>2021-02-13T11:58:57Z</time>
      </trkpt>
      <trkpt lat="45.60988" lon="6.70245">
        <ele>2199</ele>
        <time>2021-02-13T11:58:58Z</time>
      </trkpt>
      <trkpt lat="45.60983" lon="6.70255">
        <ele>2199</ele>
        <time>2021-02-13T11:58:59Z</time>
      </trkpt>
      <trkpt lat="45.60979" lon="6.70264">
        <ele>2199</ele>
        <time>2021-02-13T11:59:00Z</time>
      </trkpt>
      <trkpt lat="45.60974" lon="6.70274">
        <ele>2199</ele>
        <time>2021-02-13T11:59:01Z</time>
      </trkpt>
      <trkpt lat="45.6097" lon="6.70283">
        <ele>2199</ele>
        <time>2021-02-13T11:59:02Z</time>
      </trkpt>
      <trkpt lat="45.60966" lon="6.70293">
        <ele>2199</ele>
        <time>2021-02-13T11:59:03Z</time>
      </trkpt>
      <trkpt lat="45.60961" lon="6.70302">
        <ele>2199</ele>
        <time>2021-02-13T11:59:04Z</time>
      </trkpt>
      <trkpt lat="45.60957" lon="6.70312">
        <ele>2199</ele>
        <time>2021-02-13T11:59:05Z</time>
      </trkpt>
      <trkpt lat="45.60952" lon="6.70321">
        <ele>2199</ele>
        <time>2021-02-13T11:59:06Z</time>
      </trkpt>
      <trkpt lat="45.60948" lon="6.70331">
        <ele>2182</ele>
        <time>2021-02-13T11:59:07Z</time>
      </trkpt>
      <trkpt lat="45.60938" lon="6.70344">
        <ele>2182</ele>
        <time>2021-02-13T11:59:08Z</time>
      </trkpt>
      <trkpt lat="45.60934" lon="6.70346">
        <ele>2182</ele>
        <time>2021-02-13T11:59:09Z</time>
      </trkpt>
      <trkpt lat="45.6093" lon="6.70348">
        <ele>2182</ele>
        <time>2021-02-13T11:59:10Z</time>
      </trkpt>
      <trkpt lat="45.60926" lon="6.7035">
        <ele>2182</ele>
        <time>2021-02-13T11:59:11Z</time>
      </trkpt>
      <trkpt lat="45.60922" lon="6.70352">
        <ele>2182</ele>
        <time>2021-02-13T11:59:12Z</time>
      </trkpt>
      <trkpt lat="45.60918" lon="6.70354">
        <ele>2182</ele>
        <time>2021-02-13T11:59:13Z</time>
      </trkpt>
      <trkpt lat="45.60915" lon="6.70355">
        <ele>2182</ele>
        <time>2021-02-13T11:59:14Z</time>
      </trkpt>
      <trkpt lat="45.60911" lon="6.70357">
        <ele>2182</ele>
        <time>2021-02-13T11:59:15Z</time>
      </trkpt>
      <trkpt lat="45.60907" lon="6.70359">
        <ele>2172</ele>
        <time>2021-02-13T11:59:17Z</time>
      </trkpt>
      <trkpt lat="45.60907" lon="6.70363">
        <ele>2171</ele>
        <time>2021-02-13T11:59:27Z</time>
      </trkpt>
      <trkpt lat="45.60907" lon="6.70365">
        <ele>2171</ele>
        <time>2021-02-13T11:59:37Z</time>
      </trkpt>
      <trkpt lat="45.60907" lon="6.70366">
        <ele>2171</ele>
        <time>2021-02-13T11:59:47Z</time>
      </trkpt>
      <trkpt lat="45.60908" lon="6.70368">
        <ele>2169</ele>
        <time>2021-02-13T11:59:57Z</time>
      </trkpt>
      <trkpt lat="45.60908" lon="6.70369">
        <ele>2169</ele>
        <time>2021-02-13T12:00:07Z</time>
      </trkpt>
      <trkpt lat="45.60908" lon="6.70371">
        <ele>2171</ele>
        <time>2021-02-13T12:00:17Z</time>
      </trkpt>
      <trkpt lat="45.60908" lon="6.70373">
        <ele>2171</ele>
        <time>2021-02-13T12:00:27Z</time>
      </trkpt>
      <trkpt lat="45.60908" lon="6.70374">
        <ele>2169</ele>
        <time>2021-02-13T12:00:37Z</time>
      </trkpt>
      <trkpt lat="45.60908" lon="6.70376">
        <ele>2169</ele>
        <time>2021-02-13T12:00:43Z</time>
      </trkpt>
      <trkpt lat="45.60908" lon="6.70377">
        <ele>2169</ele>
        <time>2021-02-13T12:00:45Z</time>
      </trkpt>
      <trkpt lat="45.60908" lon="6.70379">
        <ele>2169</ele>
        <time>2021-02-13T12:00:46Z</time>
      </trkpt>
      <trkpt lat="45.60908" lon="6.7038">
        <ele>2171</ele>
        <time>2021-02-13T12:00:47Z</time>
      </trkpt>
      <trkpt lat="45.60907" lon="6.70391">
        <ele>2171</ele>
        <time>2021-02-13T12:00:48Z</time>
      </trkpt>
      <trkpt lat="45.60906" lon="6.70397">
        <ele>2171</ele>
        <time>2021-02-13T12:00:49Z</time>
      </trkpt>
      <trkpt lat="45.60905" lon="6.70403">
        <ele>2171</ele>
        <time>2021-02-13T12:00:50Z</time>
      </trkpt>
      <trkpt lat="45.60903" lon="6.70408">
        <ele>2171</ele>
        <time>2021-02-13T12:00:51Z</time>
      </trkpt>
      <trkpt lat="45.60902" lon="6.70414">
        <ele>2171</ele>
        <time>2021-02-13T12:00:52Z</time>
      </trkpt>
      <trkpt lat="45.60901" lon="6.70419">
        <ele>2171</ele>
        <time>2021-02-13T12:00:53Z</time>
      </trkpt>
      <trkpt lat="45.609" lon="6.70425">
        <ele>2171</ele>
        <time>2021-02-13T12:00:54Z</time>
      </trkpt>
      <trkpt lat="45.60898" lon="6.70431">
        <ele>2171</ele>
        <time>2021-02-13T12:00:55Z</time>
      </trkpt>
      <trkpt lat="45.60897" lon="6.70436">
        <ele>2171</ele>
        <time>2021-02-13T12:00:56Z</time>
      </trkpt>
      <trkpt lat="45.60896" lon="6.70442">
        <ele>2161</ele>
        <time>2021-02-13T12:00:57Z</time>
      </trkpt>
      <trkpt lat="45.60893" lon="6.70457">
        <ele>2161</ele>
        <time>2021-02-13T12:00:58Z</time>
      </trkpt>
      <trkpt lat="45.60892" lon="6.70464">
        <ele>2161</ele>
        <time>2021-02-13T12:00:59Z</time>
      </trkpt>
      <trkpt lat="45.6089" lon="6.70471">
        <ele>2161</ele>
        <time>2021-02-13T12:01:00Z</time>
      </trkpt>
      <trkpt lat="45.60889" lon="6.70478">
        <ele>2161</ele>
        <time>2021-02-13T12:01:01Z</time>
      </trkpt>
      <trkpt lat="45.60888" lon="6.70486">
        <ele>2161</ele>
        <time>2021-02-13T12:01:02Z</time>
      </trkpt>
      <trkpt lat="45.60887" lon="6.70493">
        <ele>2161</ele>
        <time>2021-02-13T12:01:03Z</time>
      </trkpt>
      <trkpt lat="45.60885" lon="6.705">
        <ele>2161</ele>
        <time>2021-02-13T12:01:04Z</time>
      </trkpt>
      <trkpt lat="45.60884" lon="6.70507">
        <ele>2161</ele>
        <time>2021-02-13T12:01:05Z</time>
      </trkpt>
      <trkpt lat="45.60883" lon="6.70514">
        <ele>2161</ele>
        <time>2021-02-13T12:01:06Z</time>
      </trkpt>
      <trkpt lat="45.60881" lon="6.70522">
        <ele>2145</ele>
        <time>2021-02-13T12:01:07Z</time>
      </trkpt>
      <trkpt lat="45.60878" lon="6.70537">
        <ele>2145</ele>
        <time>2021-02-13T12:01:08Z</time>
      </trkpt>
      <trkpt lat="45.60877" lon="6.70544">
        <ele>2145</ele>
        <time>2021-02-13T12:01:09Z</time>
      </trkpt>
      <trkpt lat="45.60876" lon="6.70551">
        <ele>2145</ele>
        <time>2021-02-13T12:01:10Z</time>
      </trkpt>
      <trkpt lat="45.60874" lon="6.70557">
        <ele>2145</ele>
        <time>2021-02-13T12:01:11Z</time>
      </trkpt>
      <trkpt lat="45.60873" lon="6.70564">
        <ele>2145</ele>
        <time>2021-02-13T12:01:12Z</time>
      </trkpt>
      <trkpt lat="45.60872" lon="6.70571">
        <ele>2145</ele>
        <time>2021-02-13T12:01:13Z</time>
      </trkpt>
      <trkpt lat="45.60871" lon="6.70577">
        <ele>2145</ele>
        <time>2021-02-13T12:01:14Z</time>
      </trkpt>
      <trkpt lat="45.60869" lon="6.70584">
        <ele>2145</ele>
        <time>2021-02-13T12:01:15Z</time>
      </trkpt>
      <trkpt lat="45.60868" lon="6.70591">
        <ele>2145</ele>
        <time>2021-02-13T12:01:16Z</time>
      </trkpt>
      <trkpt lat="45.60867" lon="6.70597">
        <ele>2134</ele>
        <time>2021-02-13T12:01:17Z</time>
      </trkpt>
      <trkpt lat="45.60865" lon="6.70605">
        <ele>2134</ele>
        <time>2021-02-13T12:01:18Z</time>
      </trkpt>
      <trkpt lat="45.60866" lon="6.70607">
        <ele>2134</ele>
        <time>2021-02-13T12:01:19Z</time>
      </trkpt>
      <trkpt lat="45.60866" lon="6.7061">
        <ele>2134</ele>
        <time>2021-02-13T12:01:21Z</time>
      </trkpt>
      <trkpt lat="45.60866" lon="6.70612">
        <ele>2128</ele>
        <time>2021-02-13T12:01:28Z</time>
      </trkpt>
      <trkpt lat="45.60867" lon="6.70614">
        <ele>2128</ele>
        <time>2021-02-13T12:01:37Z</time>
      </trkpt>
      <trkpt lat="45.60867" lon="6.70617">
        <ele>2127</ele>
        <time>2021-02-13T12:01:47Z</time>
      </trkpt>
      <trkpt lat="45.60867" lon="6.70619">
        <ele>2127</ele>
        <time>2021-02-13T12:01:57Z</time>
      </trkpt>
      <trkpt lat="45.60867" lon="6.70622">
        <ele>2127</ele>
        <time>2021-02-13T12:02:07Z</time>
      </trkpt>
      <trkpt lat="45.60868" lon="6.70624">
        <ele>2127</ele>
        <time>2021-02-13T12:02:17Z</time>
      </trkpt>
      <trkpt lat="45.60868" lon="6.70627">
        <ele>2127</ele>
        <time>2021-02-13T12:02:27Z</time>
      </trkpt>
      <trkpt lat="45.60868" lon="6.70629">
        <ele>2127</ele>
        <time>2021-02-13T12:02:37Z</time>
      </trkpt>
      <trkpt lat="45.60869" lon="6.70632">
        <ele>2127</ele>
        <time>2021-02-13T12:02:41Z</time>
      </trkpt>
      <trkpt lat="45.60869" lon="6.70634">
        <ele>2127</ele>
        <time>2021-02-13T12:02:42Z</time>
      </trkpt>
      <trkpt lat="45.60869" lon="6.70636">
        <ele>2127</ele>
        <time>2021-02-13T12:02:43Z</time>
      </trkpt>
      <trkpt lat="45.6087" lon="6.70639">
        <ele>2127</ele>
        <time>2021-02-13T12:02:44Z</time>
      </trkpt>
      <trkpt lat="45.6087" lon="6.70641">
        <ele>2127</ele>
        <time>2021-02-13T12:02:45Z</time>
      </trkpt>
      <trkpt lat="45.6087" lon="6.70644">
        <ele>2127</ele>
        <time>2021-02-13T12:02:46Z</time>
      </trkpt>
      <trkpt lat="45.60871" lon="6.70646">
        <ele>2127</ele>
        <time>2021-02-13T12:02:47Z</time>
      </trkpt>
      <trkpt lat="45.60871" lon="6.70649">
        <ele>2127</ele>
        <time>2021-02-13T12:02:48Z</time>
      </trkpt>
      <trkpt lat="45.6087" lon="6.70668">
        <ele>2127</ele>
        <time>2021-02-13T12:02:49Z</time>
      </trkpt>
      <trkpt lat="45.60869" lon="6.70678">
        <ele>2127</ele>
        <time>2021-02-13T12:02:50Z</time>
      </trkpt>
      <trkpt lat="45.60868" lon="6.70687">
        <ele>2127</ele>
        <time>2021-02-13T12:02:51Z</time>
      </trkpt>
      <trkpt lat="45.60867" lon="6.70697">
        <ele>2127</ele>
        <time>2021-02-13T12:02:52Z</time>
      </trkpt>
      <trkpt lat="45.60867" lon="6.70706">
        <ele>2127</ele>
        <time>2021-02-13T12:02:53Z</time>
      </trkpt>
      <trkpt lat="45.60866" lon="6.70716">
        <ele>2127</ele>
        <time>2021-02-13T12:02:54Z</time>
      </trkpt>
      <trkpt lat="45.60865" lon="6.70725">
        <ele>2127</ele>
        <time>2021-02-13T12:02:55Z</time>
      </trkpt>
      <trkpt lat="45.60864" lon="6.70735">
        <ele>2127</ele>
        <time>2021-02-13T12:02:56Z</time>
      </trkpt>
      <trkpt lat="45.60864" lon="6.70744">
        <ele>2110</ele>
        <time>2021-02-13T12:02:57Z</time>
      </trkpt>
      <trkpt lat="45.60861" lon="6.70762">
        <ele>2110</ele>
        <time>2021-02-13T12:02:58Z</time>
      </trkpt>
      <trkpt lat="45.60859" lon="6.70771">
        <ele>2110</ele>
        <time>2021-02-13T12:02:59Z</time>
      </trkpt>
      <trkpt lat="45.60857" lon="6.7078">
        <ele>2110</ele>
        <time>2021-02-13T12:03:00Z</time>
      </trkpt>
      <trkpt lat="45.60856" lon="6.70789">
        <ele>2110</ele>
        <time>2021-02-13T12:03:01Z</time>
      </trkpt>
      <trkpt lat="45.60854" lon="6.70798">
        <ele>2110</ele>
        <time>2021-02-13T12:03:02Z</time>
      </trkpt>
      <trkpt lat="45.60853" lon="6.70806">
        <ele>2110</ele>
        <time>2021-02-13T12:03:03Z</time>
      </trkpt>
      <trkpt lat="45.60851" lon="6.70815">
        <ele>2110</ele>
        <time>2021-02-13T12:03:04Z</time>
      </trkpt>
      <trkpt lat="45.60849" lon="6.70824">
        <ele>2110</ele>
        <time>2021-02-13T12:03:05Z</time>
      </trkpt>
      <trkpt lat="45.60848" lon="6.70833">
        <ele>2110</ele>
        <time>2021-02-13T12:03:06Z</time>
      </trkpt>
      <trkpt lat="45.60846" lon="6.70842">
        <ele>2098</ele>
        <time>2021-02-13T12:03:07Z</time>
      </trkpt>
      <trkpt lat="45.60844" lon="6.70857">
        <ele>2098</ele>
        <time>2021-02-13T12:03:08Z</time>
      </trkpt>
      <trkpt lat="45.60844" lon="6.70864">
        <ele>2098</ele>
        <time>2021-02-13T12:03:09Z</time>
      </trkpt>
      <trkpt lat="45.60843" lon="6.7087">
        <ele>2098</ele>
        <time>2021-02-13T12:03:10Z</time>
      </trkpt>
      <trkpt lat="45.60842" lon="6.70877">
        <ele>2098</ele>
        <time>2021-02-13T12:03:11Z</time>
      </trkpt>
      <trkpt lat="45.60842" lon="6.70884">
        <ele>2098</ele>
        <time>2021-02-13T12:03:12Z</time>
      </trkpt>
      <trkpt lat="45.60841" lon="6.70891">
        <ele>2098</ele>
        <time>2021-02-13T12:03:13Z</time>
      </trkpt>
      <trkpt lat="45.6084" lon="6.70897">
        <ele>2098</ele>
        <time>2021-02-13T12:03:14Z</time>
      </trkpt>
      <trkpt lat="45.6084" lon="6.70904">
        <ele>2098</ele>
        <time>2021-02-13T12:03:15Z</time>
      </trkpt>
      <trkpt lat="45.60839" lon="6.70911">
        <ele>2098</ele>
        <time>2021-02-13T12:03:16Z</time>
      </trkpt>
      <trkpt lat="45.60838" lon="6.70917">
        <ele>2089</ele>
        <time>2021-02-13T12:03:17Z</time>
      </trkpt>
      <trkpt lat="45.60835" lon="6.70922">
        <ele>2089</ele>
        <time>2021-02-13T12:03:27Z</time>
      </trkpt>
      <trkpt lat="45.60833" lon="6.70925">
        <ele>2089</ele>
        <time>2021-02-13T12:03:37Z</time>
      </trkpt>
      <trkpt lat="45.60831" lon="6.70928">
        <ele>2089</ele>
        <time>2021-02-13T12:03:47Z</time>
      </trkpt>
      <trkpt lat="45.60829" lon="6.70931">
        <ele>2089</ele>
        <time>2021-02-13T12:03:54Z</time>
      </trkpt>
      <trkpt lat="45.60826" lon="6.70934">
        <ele>2088</ele>
        <time>2021-02-13T12:03:57Z</time>
      </trkpt>
      <trkpt lat="45.60824" lon="6.70937">
        <ele>2088</ele>
        <time>2021-02-13T12:03:58Z</time>
      </trkpt>
      <trkpt lat="45.60822" lon="6.7094">
        <ele>2088</ele>
        <time>2021-02-13T12:03:59Z</time>
      </trkpt>
      <trkpt lat="45.6082" lon="6.70943">
        <ele>2088</ele>
        <time>2021-02-13T12:04:00Z</time>
      </trkpt>
      <trkpt lat="45.60818" lon="6.70946">
        <ele>2088</ele>
        <time>2021-02-13T12:04:01Z</time>
      </trkpt>
      <trkpt lat="45.60816" lon="6.70948">
        <ele>2088</ele>
        <time>2021-02-13T12:04:02Z</time>
      </trkpt>
      <trkpt lat="45.60814" lon="6.70951">
        <ele>2088</ele>
        <time>2021-02-13T12:04:03Z</time>
      </trkpt>
      <trkpt lat="45.60812" lon="6.70954">
        <ele>2088</ele>
        <time>2021-02-13T12:04:04Z</time>
      </trkpt>
      <trkpt lat="45.6081" lon="6.70957">
        <ele>2088</ele>
        <time>2021-02-13T12:04:05Z</time>
      </trkpt>
      <trkpt lat="45.60808" lon="6.7096">
        <ele>2088</ele>
        <time>2021-02-13T12:04:06Z</time>
      </trkpt>
      <trkpt lat="45.60806" lon="6.70963">
        <ele>2087</ele>
        <time>2021-02-13T12:04:07Z</time>
      </trkpt>
      <trkpt lat="45.608" lon="6.70974">
        <ele>2087</ele>
        <time>2021-02-13T12:04:08Z</time>
      </trkpt>
      <trkpt lat="45.60798" lon="6.70981">
        <ele>2087</ele>
        <time>2021-02-13T12:04:09Z</time>
      </trkpt>
      <trkpt lat="45.60795" lon="6.70987">
        <ele>2087</ele>
        <time>2021-02-13T12:04:10Z</time>
      </trkpt>
      <trkpt lat="45.60793" lon="6.70994">
        <ele>2087</ele>
        <time>2021-02-13T12:04:11Z</time>
      </trkpt>
      <trkpt lat="45.60791" lon="6.71">
        <ele>2087</ele>
        <time>2021-02-13T12:04:12Z</time>
      </trkpt>
      <trkpt lat="45.60789" lon="6.71007">
        <ele>2087</ele>
        <time>2021-02-13T12:04:13Z</time>
      </trkpt>
      <trkpt lat="45.60786" lon="6.71013">
        <ele>2087</ele>
        <time>2021-02-13T12:04:14Z</time>
      </trkpt>
      <trkpt lat="45.60784" lon="6.7102">
        <ele>2087</ele>
        <time>2021-02-13T12:04:15Z</time>
      </trkpt>
      <trkpt lat="45.60782" lon="6.71026">
        <ele>2087</ele>
        <time>2021-02-13T12:04:16Z</time>
      </trkpt>
      <trkpt lat="45.6078" lon="6.71033">
        <ele>2071</ele>
        <time>2021-02-13T12:04:17Z</time>
      </trkpt>
      <trkpt lat="45.60776" lon="6.71039">
        <ele>2071</ele>
        <time>2021-02-13T12:04:18Z</time>
      </trkpt>
      <trkpt lat="45.60776" lon="6.7104">
        <ele>2071</ele>
        <time>2021-02-13T12:04:19Z</time>
      </trkpt>
      <trkpt lat="45.60775" lon="6.71041">
        <ele>2071</ele>
        <time>2021-02-13T12:04:20Z</time>
      </trkpt>
      <trkpt lat="45.60774" lon="6.71042">
        <ele>2067</ele>
        <time>2021-02-13T12:04:27Z</time>
      </trkpt>
      <trkpt lat="45.60774" lon="6.71043">
        <ele>2067</ele>
        <time>2021-02-13T12:04:38Z</time>
      </trkpt>
      <trkpt lat="45.60773" lon="6.71044">
        <ele>2067</ele>
        <time>2021-02-13T12:04:47Z</time>
      </trkpt>
      <trkpt lat="45.60772" lon="6.71045">
        <ele>2067</ele>
        <time>2021-02-13T12:04:57Z</time>
      </trkpt>
      <trkpt lat="45.60771" lon="6.71046">
        <ele>2066</ele>
        <time>2021-02-13T12:05:07Z</time>
      </trkpt>
      <trkpt lat="45.60771" lon="6.71047">
        <ele>2066</ele>
        <time>2021-02-13T12:05:17Z</time>
      </trkpt>
      <trkpt lat="45.6077" lon="6.71048">
        <ele>2066</ele>
        <time>2021-02-13T12:05:26Z</time>
      </trkpt>
      <trkpt lat="45.60769" lon="6.71049">
        <ele>2066</ele>
        <time>2021-02-13T12:05:27Z</time>
      </trkpt>
      <trkpt lat="45.60763" lon="6.71052">
        <ele>2066</ele>
        <time>2021-02-13T12:05:28Z</time>
      </trkpt>
      <trkpt lat="45.6076" lon="6.71054">
        <ele>2066</ele>
        <time>2021-02-13T12:05:29Z</time>
      </trkpt>
      <trkpt lat="45.60756" lon="6.71056">
        <ele>2066</ele>
        <time>2021-02-13T12:05:30Z</time>
      </trkpt>
      <trkpt lat="45.60753" lon="6.71058">
        <ele>2066</ele>
        <time>2021-02-13T12:05:31Z</time>
      </trkpt>
      <trkpt lat="45.6075" lon="6.7106">
        <ele>2066</ele>
        <time>2021-02-13T12:05:32Z</time>
      </trkpt>
      <trkpt lat="45.60746" lon="6.71062">
        <ele>2066</ele>
        <time>2021-02-13T12:05:33Z</time>
      </trkpt>
      <trkpt lat="45.60743" lon="6.71064">
        <ele>2066</ele>
        <time>2021-02-13T12:05:34Z</time>
      </trkpt>
      <trkpt lat="45.60739" lon="6.71066">
        <ele>2066</ele>
        <time>2021-02-13T12:05:35Z</time>
      </trkpt>
      <trkpt lat="45.60736" lon="6.71068">
        <ele>2066</ele>
        <time>2021-02-13T12:05:36Z</time>
      </trkpt>
      <trkpt lat="45.60732" lon="6.7107">
        <ele>2064</ele>
        <time>2021-02-13T12:05:37Z</time>
      </trkpt>
      <trkpt lat="45.60726" lon="6.71076">
        <ele>2064</ele>
        <time>2021-02-13T12:05:38Z</time>
      </trkpt>
      <trkpt lat="45.60722" lon="6.71079">
        <ele>2064</ele>
        <time>2021-02-13T12:05:39Z</time>
      </trkpt>
      <trkpt lat="45.60719" lon="6.71082">
        <ele>2064</ele>
        <time>2021-02-13T12:05:40Z</time>
      </trkpt>
      <trkpt lat="45.60715" lon="6.71085">
        <ele>2064</ele>
        <time>2021-02-13T12:05:41Z</time>
      </trkpt>
      <trkpt lat="45.60712" lon="6.71088">
        <ele>2064</ele>
        <time>2021-02-13T12:05:42Z</time>
      </trkpt>
      <trkpt lat="45.60708" lon="6.71091">
        <ele>2064</ele>
        <time>2021-02-13T12:05:43Z</time>
      </trkpt>
      <trkpt lat="45.60705" lon="6.71094">
        <ele>2064</ele>
        <time>2021-02-13T12:05:44Z</time>
      </trkpt>
      <trkpt lat="45.60701" lon="6.71098">
        <ele>2064</ele>
        <time>2021-02-13T12:05:45Z</time>
      </trkpt>
      <trkpt lat="45.60698" lon="6.71101">
        <ele>2064</ele>
        <time>2021-02-13T12:05:46Z</time>
      </trkpt>
      <trkpt lat="45.60695" lon="6.71104">
        <ele>2052</ele>
        <time>2021-02-13T12:05:47Z</time>
      </trkpt>
      <trkpt lat="45.60687" lon="6.7111">
        <ele>2052</ele>
        <time>2021-02-13T12:05:48Z</time>
      </trkpt>
      <trkpt lat="45.60684" lon="6.71112">
        <ele>2052</ele>
        <time>2021-02-13T12:05:49Z</time>
      </trkpt>
      <trkpt lat="45.6068" lon="6.71113">
        <ele>2052</ele>
        <time>2021-02-13T12:05:50Z</time>
      </trkpt>
      <trkpt lat="45.60677" lon="6.71115">
        <ele>2052</ele>
        <time>2021-02-13T12:05:51Z</time>
      </trkpt>
      <trkpt lat="45.60674" lon="6.71116">
        <ele>2052</ele>
        <time>2021-02-13T12:05:52Z</time>
      </trkpt>
      <trkpt lat="45.60671" lon="6.71118">
        <ele>2052</ele>
        <time>2021-02-13T12:05:53Z</time>
      </trkpt>
      <trkpt lat="45.60668" lon="6.71119">
        <ele>2052</ele>
        <time>2021-02-13T12:05:54Z</time>
      </trkpt>
      <trkpt lat="45.60664" lon="6.71121">
        <ele>2052</ele>
        <time>2021-02-13T12:05:55Z</time>
      </trkpt>
      <trkpt lat="45.60661" lon="6.71122">
        <ele>2052</ele>
        <time>2021-02-13T12:05:56Z</time>
      </trkpt>
      <trkpt lat="45.60658" lon="6.71124">
        <ele>2043</ele>
        <time>2021-02-13T12:05:57Z</time>
      </trkpt>
      <trkpt lat="45.60651" lon="6.71126">
        <ele>2043</ele>
        <time>2021-02-13T12:05:58Z</time>
      </trkpt>
      <trkpt lat="45.60648" lon="6.71127">
        <ele>2043</ele>
        <time>2021-02-13T12:05:59Z</time>
      </trkpt>
      <trkpt lat="45.60645" lon="6.71128">
        <ele>2043</ele>
        <time>2021-02-13T12:06:00Z</time>
      </trkpt>
      <trkpt lat="45.60642" lon="6.71129">
        <ele>2043</ele>
        <time>2021-02-13T12:06:01Z</time>
      </trkpt>
      <trkpt lat="45.60639" lon="6.7113">
        <ele>2043</ele>
        <time>2021-02-13T12:06:02Z</time>
      </trkpt>
      <trkpt lat="45.60635" lon="6.71131">
        <ele>2043</ele>
        <time>2021-02-13T12:06:03Z</time>
      </trkpt>
      <trkpt lat="45.60632" lon="6.71132">
        <ele>2043</ele>
        <time>2021-02-13T12:06:04Z</time>
      </trkpt>
      <trkpt lat="45.60629" lon="6.71134">
        <ele>2043</ele>
        <time>2021-02-13T12:06:05Z</time>
      </trkpt>
      <trkpt lat="45.60626" lon="6.71135">
        <ele>2043</ele>
        <time>2021-02-13T12:06:06Z</time>
      </trkpt>
      <trkpt lat="45.60623" lon="6.71136">
        <ele>2038</ele>
        <time>2021-02-13T12:06:07Z</time>
      </trkpt>
      <trkpt lat="45.6062" lon="6.71137">
        <ele>2038</ele>
        <time>2021-02-13T12:06:08Z</time>
      </trkpt>
      <trkpt lat="45.60619" lon="6.71137">
        <ele>2038</ele>
        <time>2021-02-13T12:06:12Z</time>
      </trkpt>
      <trkpt lat="45.60619" lon="6.71138">
        <ele>2037</ele>
        <time>2021-02-13T12:06:17Z</time>
      </trkpt>
      <trkpt lat="45.60618" lon="6.71139">
        <ele>2036</ele>
        <time>2021-02-13T12:06:27Z</time>
      </trkpt>
      <trkpt lat="45.60618" lon="6.7114">
        <ele>2036</ele>
        <time>2021-02-13T12:06:37Z</time>
      </trkpt>
      <trkpt lat="45.60618" lon="6.71141">
        <ele>2037</ele>
        <time>2021-02-13T12:06:47Z</time>
      </trkpt>
      <trkpt lat="45.60617" lon="6.71142">
        <ele>2037</ele>
        <time>2021-02-13T12:06:57Z</time>
      </trkpt>
      <trkpt lat="45.60617" lon="6.71142">
        <ele>2037</ele>
        <time>2021-02-13T12:07:05Z</time>
      </trkpt>
      <trkpt lat="45.60616" lon="6.71143">
        <ele>2037</ele>
        <time>2021-02-13T12:07:06Z</time>
      </trkpt>
      <trkpt lat="45.60616" lon="6.71144">
        <ele>2035</ele>
        <time>2021-02-13T12:07:07Z</time>
      </trkpt>
      <trkpt lat="45.60618" lon="6.71151">
        <ele>2035</ele>
        <time>2021-02-13T12:07:08Z</time>
      </trkpt>
      <trkpt lat="45.60618" lon="6.71155">
        <ele>2035</ele>
        <time>2021-02-13T12:07:09Z</time>
      </trkpt>
      <trkpt lat="45.60617" lon="6.71158">
        <ele>2035</ele>
        <time>2021-02-13T12:07:10Z</time>
      </trkpt>
      <trkpt lat="45.60617" lon="6.71161">
        <ele>2035</ele>
        <time>2021-02-13T12:07:11Z</time>
      </trkpt>
      <trkpt lat="45.60616" lon="6.71164">
        <ele>2035</ele>
        <time>2021-02-13T12:07:12Z</time>
      </trkpt>
      <trkpt lat="45.60616" lon="6.71167">
        <ele>2035</ele>
        <time>2021-02-13T12:07:13Z</time>
      </trkpt>
      <trkpt lat="45.60616" lon="6.71171">
        <ele>2035</ele>
        <time>2021-02-13T12:07:14Z</time>
      </trkpt>
      <trkpt lat="45.60615" lon="6.71174">
        <ele>2035</ele>
        <time>2021-02-13T12:07:15Z</time>
      </trkpt>
      <trkpt lat="45.60615" lon="6.71177">
        <ele>2035</ele>
        <time>2021-02-13T12:07:16Z</time>
      </trkpt>
      <trkpt lat="45.60615" lon="6.7118">
        <ele>2026</ele>
        <time>2021-02-13T12:07:17Z</time>
      </trkpt>
      <trkpt lat="45.6061" lon="6.71185">
        <ele>2026</ele>
        <time>2021-02-13T12:07:18Z</time>
      </trkpt>
      <trkpt lat="45.60609" lon="6.71188">
        <ele>2026</ele>
        <time>2021-02-13T12:07:19Z</time>
      </trkpt>
      <trkpt lat="45.60608" lon="6.71192">
        <ele>2026</ele>
        <time>2021-02-13T12:07:20Z</time>
      </trkpt>
      <trkpt lat="45.60607" lon="6.71195">
        <ele>2026</ele>
        <time>2021-02-13T12:07:21Z</time>
      </trkpt>
      <trkpt lat="45.60605" lon="6.71198">
        <ele>2026</ele>
        <time>2021-02-13T12:07:22Z</time>
      </trkpt>
      <trkpt lat="45.60604" lon="6.71201">
        <ele>2026</ele>
        <time>2021-02-13T12:07:23Z</time>
      </trkpt>
      <trkpt lat="45.60603" lon="6.71205">
        <ele>2026</ele>
        <time>2021-02-13T12:07:24Z</time>
      </trkpt>
      <trkpt lat="45.60602" lon="6.71208">
        <ele>2026</ele>
        <time>2021-02-13T12:07:25Z</time>
      </trkpt>
      <trkpt lat="45.60601" lon="6.71211">
        <ele>2026</ele>
        <time>2021-02-13T12:07:26Z</time>
      </trkpt>
      <trkpt lat="45.60599" lon="6.71215">
        <ele>2006</ele>
        <time>2021-02-13T12:07:27Z</time>
      </trkpt>
      <trkpt lat="45.60598" lon="6.7122">
        <ele>2006</ele>
        <time>2021-02-13T12:07:28Z</time>
      </trkpt>
      <trkpt lat="45.60596" lon="6.71227">
        <ele>2006</ele>
        <time>2021-02-13T12:07:29Z</time>
      </trkpt>
      <trkpt lat="45.60593" lon="6.71231">
        <ele>2006</ele>
        <time>2021-02-13T12:07:30Z</time>
      </trkpt>
      <trkpt lat="45.6059" lon="6.71231">
        <ele>2006</ele>
        <time>2021-02-13T12:07:31Z</time>
      </trkpt>
      <trkpt lat="45.60583" lon="6.71228">
        <ele>2006</ele>
        <time>2021-02-13T12:07:33Z</time>
      </trkpt>
      <trkpt lat="45.60583" lon="6.71228">
        <ele>1994</ele>
        <time>2021-02-13T12:07:37Z</time>
      </trkpt>
      <trkpt lat="45.60584" lon="6.71226">
        <ele>1994</ele>
        <time>2021-02-13T12:07:44Z</time>
      </trkpt>
      <trkpt lat="45.60584" lon="6.71225">
        <ele>1994</ele>
        <time>2021-02-13T12:07:48Z</time>
      </trkpt>
      <trkpt lat="45.60584" lon="6.71225">
        <ele>1994</ele>
        <time>2021-02-13T12:07:57Z</time>
      </trkpt>
      <trkpt lat="45.60584" lon="6.71225">
        <ele>1993</ele>
        <time>2021-02-13T12:08:07Z</time>
      </trkpt>
      <trkpt lat="45.60584" lon="6.71225">
        <ele>1993</ele>
        <time>2021-02-13T12:08:17Z</time>
      </trkpt>
      <trkpt lat="45.60584" lon="6.71225">
        <ele>1993</ele>
        <time>2021-02-13T12:08:27Z</time>
      </trkpt>
      <trkpt lat="45.60585" lon="6.71225">
        <ele>1993</ele>
        <time>2021-02-13T12:08:37Z</time>
      </trkpt>
      <trkpt lat="45.60585" lon="6.71225">
        <ele>1993</ele>
        <time>2021-02-13T12:08:47Z</time>
      </trkpt>
      <trkpt lat="45.60585" lon="6.71225">
        <ele>1993</ele>
        <time>2021-02-13T12:08:57Z</time>
      </trkpt>
      <trkpt lat="45.60585" lon="6.71225">
        <ele>1993</ele>
        <time>2021-02-13T12:08:58Z</time>
      </trkpt>
      <trkpt lat="45.60585" lon="6.71225">
        <ele>1993</ele>
        <time>2021-02-13T12:09:07Z</time>
      </trkpt>
      <trkpt lat="45.60585" lon="6.71225">
        <ele>1993</ele>
        <time>2021-02-13T12:09:17Z</time>
      </trkpt>
      <trkpt lat="45.60586" lon="6.71225">
        <ele>1993</ele>
        <time>2021-02-13T12:09:27Z</time>
      </trkpt>
      <trkpt lat="45.60586" lon="6.71224">
        <ele>1993</ele>
        <time>2021-02-13T12:09:37Z</time>
      </trkpt>
      <trkpt lat="45.60586" lon="6.71224">
        <ele>1993</ele>
        <time>2021-02-13T12:09:47Z</time>
      </trkpt>
      <trkpt lat="45.60586" lon="6.71224">
        <ele>1993</ele>
        <time>2021-02-13T12:09:57Z</time>
      </trkpt>
      <trkpt lat="45.60586" lon="6.71224">
        <ele>1993</ele>
        <time>2021-02-13T12:10:07Z</time>
      </trkpt>
      <trkpt lat="45.60586" lon="6.71224">
        <ele>1993</ele>
        <time>2021-02-13T12:10:17Z</time>
      </trkpt>
      <trkpt lat="45.60587" lon="6.71224">
        <ele>1993</ele>
        <time>2021-02-13T12:10:22Z</time>
      </trkpt>
      <trkpt lat="45.60587" lon="6.71224">
        <ele>1993</ele>
        <time>2021-02-13T12:10:27Z</time>
      </trkpt>
      <trkpt lat="45.60587" lon="6.71224">
        <ele>1993</ele>
        <time>2021-02-13T12:10:37Z</time>
      </trkpt>
      <trkpt lat="45.60587" lon="6.71224">
        <ele>1993</ele>
        <time>2021-02-13T12:10:47Z</time>
      </trkpt>
      <trkpt lat="45.60587" lon="6.71224">
        <ele>1993</ele>
        <time>2021-02-13T12:10:58Z</time>
      </trkpt>
      <trkpt lat="45.60587" lon="6.71224">
        <ele>1993</ele>
        <time>2021-02-13T12:11:07Z</time>
      </trkpt>
      <trkpt lat="45.60588" lon="6.71224">
        <ele>1993</ele>
        <time>2021-02-13T12:11:17Z</time>
      </trkpt>
      <trkpt lat="45.60588" lon="6.71224">
        <ele>1993</ele>
        <time>2021-02-13T12:11:27Z</time>
      </trkpt>
      <trkpt lat="45.60588" lon="6.71223">
        <ele>1993</ele>
        <time>2021-02-13T12:11:37Z</time>
      </trkpt>
      <trkpt lat="45.60588" lon="6.71223">
        <ele>1993</ele>
        <time>2021-02-13T12:11:47Z</time>
      </trkpt>
      <trkpt lat="45.60588" lon="6.71223">
        <ele>1994</ele>
        <time>2021-02-13T12:11:57Z</time>
      </trkpt>
      <trkpt lat="45.60588" lon="6.71223">
        <ele>1994</ele>
        <time>2021-02-13T12:12:07Z</time>
      </trkpt>
      <trkpt lat="45.60589" lon="6.71223">
        <ele>1994</ele>
        <time>2021-02-13T12:12:17Z</time>
      </trkpt>
      <trkpt lat="45.60589" lon="6.71223">
        <ele>1994</ele>
        <time>2021-02-13T12:12:22Z</time>
      </trkpt>
      <trkpt lat="45.60589" lon="6.71223">
        <ele>1994</ele>
        <time>2021-02-13T12:12:26Z</time>
      </trkpt>
      <trkpt lat="45.60589" lon="6.71223">
        <ele>1994</ele>
        <time>2021-02-13T12:12:27Z</time>
      </trkpt>
      <trkpt lat="45.60595" lon="6.71229">
        <ele>1994</ele>
        <time>2021-02-13T12:12:28Z</time>
      </trkpt>
      <trkpt lat="45.60598" lon="6.71232">
        <ele>1994</ele>
        <time>2021-02-13T12:12:29Z</time>
      </trkpt>
      <trkpt lat="45.60601" lon="6.71235">
        <ele>1994</ele>
        <time>2021-02-13T12:12:30Z</time>
      </trkpt>
      <trkpt lat="45.60604" lon="6.71238">
        <ele>1994</ele>
        <time>2021-02-13T12:12:31Z</time>
      </trkpt>
      <trkpt lat="45.60608" lon="6.71241">
        <ele>1994</ele>
        <time>2021-02-13T12:12:32Z</time>
      </trkpt>
      <trkpt lat="45.60611" lon="6.71245">
        <ele>1994</ele>
        <time>2021-02-13T12:12:33Z</time>
      </trkpt>
      <trkpt lat="45.60614" lon="6.71248">
        <ele>1994</ele>
        <time>2021-02-13T12:12:34Z</time>
      </trkpt>
      <trkpt lat="45.60617" lon="6.71251">
        <ele>1994</ele>
        <time>2021-02-13T12:12:35Z</time>
      </trkpt>
      <trkpt lat="45.6062" lon="6.71254">
        <ele>1994</ele>
        <time>2021-02-13T12:12:36Z</time>
      </trkpt>
      <trkpt lat="45.60624" lon="6.71257">
        <ele>1994</ele>
        <time>2021-02-13T12:12:37Z</time>
      </trkpt>
      <trkpt lat="45.60628" lon="6.71267">
        <ele>1994</ele>
        <time>2021-02-13T12:12:38Z</time>
      </trkpt>
      <trkpt lat="45.6063" lon="6.71272">
        <ele>1994</ele>
        <time>2021-02-13T12:12:39Z</time>
      </trkpt>
      <trkpt lat="45.60631" lon="6.71277">
        <ele>1994</ele>
        <time>2021-02-13T12:12:40Z</time>
      </trkpt>
      <trkpt lat="45.60633" lon="6.71282">
        <ele>1994</ele>
        <time>2021-02-13T12:12:41Z</time>
      </trkpt>
      <trkpt lat="45.60634" lon="6.71286">
        <ele>1994</ele>
        <time>2021-02-13T12:12:42Z</time>
      </trkpt>
      <trkpt lat="45.60635" lon="6.71291">
        <ele>1994</ele>
        <time>2021-02-13T12:12:43Z</time>
      </trkpt>
      <trkpt lat="45.60637" lon="6.71296">
        <ele>1994</ele>
        <time>2021-02-13T12:12:44Z</time>
      </trkpt>
      <trkpt lat="45.60638" lon="6.71301">
        <ele>1994</ele>
        <time>2021-02-13T12:12:45Z</time>
      </trkpt>
      <trkpt lat="45.6064" lon="6.71305">
        <ele>1994</ele>
        <time>2021-02-13T12:12:46Z</time>
      </trkpt>
      <trkpt lat="45.60641" lon="6.7131">
        <ele>1988</ele>
        <time>2021-02-13T12:12:47Z</time>
      </trkpt>
      <trkpt lat="45.60641" lon="6.7132">
        <ele>1988</ele>
        <time>2021-02-13T12:12:48Z</time>
      </trkpt>
      <trkpt lat="45.60641" lon="6.71325">
        <ele>1988</ele>
        <time>2021-02-13T12:12:49Z</time>
      </trkpt>
      <trkpt lat="45.60642" lon="6.71331">
        <ele>1988</ele>
        <time>2021-02-13T12:12:50Z</time>
      </trkpt>
      <trkpt lat="45.60643" lon="6.71336">
        <ele>1988</ele>
        <time>2021-02-13T12:12:51Z</time>
      </trkpt>
      <trkpt lat="45.60644" lon="6.71341">
        <ele>1988</ele>
        <time>2021-02-13T12:12:52Z</time>
      </trkpt>
      <trkpt lat="45.60645" lon="6.71347">
        <ele>1988</ele>
        <time>2021-02-13T12:12:53Z</time>
      </trkpt>
      <trkpt lat="45.60646" lon="6.71352">
        <ele>1988</ele>
        <time>2021-02-13T12:12:54Z</time>
      </trkpt>
      <trkpt lat="45.60647" lon="6.71357">
        <ele>1988</ele>
        <time>2021-02-13T12:12:55Z</time>
      </trkpt>
      <trkpt lat="45.60647" lon="6.71363">
        <ele>1988</ele>
        <time>2021-02-13T12:12:56Z</time>
      </trkpt>
      <trkpt lat="45.60648" lon="6.71368">
        <ele>1978</ele>
        <time>2021-02-13T12:12:57Z</time>
      </trkpt>
      <trkpt lat="45.60644" lon="6.71373">
        <ele>1978</ele>
        <time>2021-02-13T12:12:58Z</time>
      </trkpt>
      <trkpt lat="45.60641" lon="6.71375">
        <ele>1978</ele>
        <time>2021-02-13T12:12:59Z</time>
      </trkpt>
      <trkpt lat="45.60639" lon="6.71376">
        <ele>1978</ele>
        <time>2021-02-13T12:13:00Z</time>
      </trkpt>
      <trkpt lat="45.60636" lon="6.71377">
        <ele>1978</ele>
        <time>2021-02-13T12:13:01Z</time>
      </trkpt>
      <trkpt lat="45.60634" lon="6.71378">
        <ele>1978</ele>
        <time>2021-02-13T12:13:02Z</time>
      </trkpt>
      <trkpt lat="45.60631" lon="6.71379">
        <ele>1978</ele>
        <time>2021-02-13T12:13:03Z</time>
      </trkpt>
      <trkpt lat="45.60629" lon="6.7138">
        <ele>1978</ele>
        <time>2021-02-13T12:13:04Z</time>
      </trkpt>
      <trkpt lat="45.60626" lon="6.71381">
        <ele>1978</ele>
        <time>2021-02-13T12:13:05Z</time>
      </trkpt>
      <trkpt lat="45.60624" lon="6.71382">
        <ele>1978</ele>
        <time>2021-02-13T12:13:06Z</time>
      </trkpt>
      <trkpt lat="45.60621" lon="6.71384">
        <ele>1967</ele>
        <time>2021-02-13T12:13:07Z</time>
      </trkpt>
      <trkpt lat="45.60618" lon="6.71391">
        <ele>1967</ele>
        <time>2021-02-13T12:13:08Z</time>
      </trkpt>
      <trkpt lat="45.60615" lon="6.71394">
        <ele>1967</ele>
        <time>2021-02-13T12:13:09Z</time>
      </trkpt>
      <trkpt lat="45.60613" lon="6.71397">
        <ele>1967</ele>
        <time>2021-02-13T12:13:10Z</time>
      </trkpt>
      <trkpt lat="45.6061" lon="6.714">
        <ele>1967</ele>
        <time>2021-02-13T12:13:11Z</time>
      </trkpt>
      <trkpt lat="45.60608" lon="6.71403">
        <ele>1967</ele>
        <time>2021-02-13T12:13:12Z</time>
      </trkpt>
      <trkpt lat="45.60606" lon="6.71407">
        <ele>1967</ele>
        <time>2021-02-13T12:13:13Z</time>
      </trkpt>
      <trkpt lat="45.60603" lon="6.7141">
        <ele>1967</ele>
        <time>2021-02-13T12:13:14Z</time>
      </trkpt>
      <trkpt lat="45.60601" lon="6.71413">
        <ele>1967</ele>
        <time>2021-02-13T12:13:15Z</time>
      </trkpt>
      <trkpt lat="45.60598" lon="6.71416">
        <ele>1967</ele>
        <time>2021-02-13T12:13:16Z</time>
      </trkpt>
      <trkpt lat="45.60596" lon="6.71419">
        <ele>1967</ele>
        <time>2021-02-13T12:13:17Z</time>
      </trkpt>
      <trkpt lat="45.60594" lon="6.71422">
        <ele>1954</ele>
        <time>2021-02-13T12:13:18Z</time>
      </trkpt>
      <trkpt lat="45.60585" lon="6.71431">
        <ele>1954</ele>
        <time>2021-02-13T12:13:19Z</time>
      </trkpt>
      <trkpt lat="45.60581" lon="6.71436">
        <ele>1954</ele>
        <time>2021-02-13T12:13:20Z</time>
      </trkpt>
      <trkpt lat="45.60576" lon="6.7144">
        <ele>1954</ele>
        <time>2021-02-13T12:13:21Z</time>
      </trkpt>
      <trkpt lat="45.60572" lon="6.71445">
        <ele>1954</ele>
        <time>2021-02-13T12:13:22Z</time>
      </trkpt>
      <trkpt lat="45.60567" lon="6.7145">
        <ele>1954</ele>
        <time>2021-02-13T12:13:23Z</time>
      </trkpt>
      <trkpt lat="45.60563" lon="6.71455">
        <ele>1954</ele>
        <time>2021-02-13T12:13:24Z</time>
      </trkpt>
      <trkpt lat="45.60558" lon="6.71459">
        <ele>1954</ele>
        <time>2021-02-13T12:13:25Z</time>
      </trkpt>
      <trkpt lat="45.60554" lon="6.71464">
        <ele>1954</ele>
        <time>2021-02-13T12:13:26Z</time>
      </trkpt>
      <trkpt lat="45.60549" lon="6.71469">
        <ele>1932</ele>
        <time>2021-02-13T12:13:27Z</time>
      </trkpt>
      <trkpt lat="45.60542" lon="6.71471">
        <ele>1932</ele>
        <time>2021-02-13T12:13:28Z</time>
      </trkpt>
      <trkpt lat="45.60538" lon="6.71469">
        <ele>1932</ele>
        <time>2021-02-13T12:13:29Z</time>
      </trkpt>
      <trkpt lat="45.60535" lon="6.71466">
        <ele>1932</ele>
        <time>2021-02-13T12:13:30Z</time>
      </trkpt>
      <trkpt lat="45.60534" lon="6.71464">
        <ele>1932</ele>
        <time>2021-02-13T12:13:31Z</time>
      </trkpt>
      <trkpt lat="45.60533" lon="6.71461">
        <ele>1932</ele>
        <time>2021-02-13T12:13:34Z</time>
      </trkpt>
      <trkpt lat="45.60533" lon="6.71461">
        <ele>1926</ele>
        <time>2021-02-13T12:13:37Z</time>
      </trkpt>
      <trkpt lat="45.60533" lon="6.71461">
        <ele>1926</ele>
        <time>2021-02-13T12:13:47Z</time>
      </trkpt>
      <trkpt lat="45.60532" lon="6.71462">
        <ele>1926</ele>
        <time>2021-02-13T12:13:57Z</time>
      </trkpt>
      <trkpt lat="45.60532" lon="6.71462">
        <ele>1926</ele>
        <time>2021-02-13T12:14:08Z</time>
      </trkpt>
      <trkpt lat="45.60531" lon="6.71462">
        <ele>1926</ele>
        <time>2021-02-13T12:14:17Z</time>
      </trkpt>
      <trkpt lat="45.60531" lon="6.71462">
        <ele>1926</ele>
        <time>2021-02-13T12:14:27Z</time>
      </trkpt>
      <trkpt lat="45.6053" lon="6.71462">
        <ele>1926</ele>
        <time>2021-02-13T12:14:37Z</time>
      </trkpt>
      <trkpt lat="45.6053" lon="6.71462">
        <ele>1925</ele>
        <time>2021-02-13T12:14:47Z</time>
      </trkpt>
      <trkpt lat="45.60529" lon="6.71463">
        <ele>1925</ele>
        <time>2021-02-13T12:14:57Z</time>
      </trkpt>
      <trkpt lat="45.60529" lon="6.71463">
        <ele>1925</ele>
        <time>2021-02-13T12:14:59Z</time>
      </trkpt>
      <trkpt lat="45.60528" lon="6.71463">
        <ele>1925</ele>
        <time>2021-02-13T12:15:07Z</time>
      </trkpt>
      <trkpt lat="45.60528" lon="6.71463">
        <ele>1925</ele>
        <time>2021-02-13T12:15:17Z</time>
      </trkpt>
      <trkpt lat="45.60527" lon="6.71463">
        <ele>1925</ele>
        <time>2021-02-13T12:15:27Z</time>
      </trkpt>
      <trkpt lat="45.60527" lon="6.71463">
        <ele>1925</ele>
        <time>2021-02-13T12:15:37Z</time>
      </trkpt>
      <trkpt lat="45.60526" lon="6.71464">
        <ele>1925</ele>
        <time>2021-02-13T12:15:46Z</time>
      </trkpt>
      <trkpt lat="45.60526" lon="6.71464">
        <ele>1925</ele>
        <time>2021-02-13T12:15:47Z</time>
      </trkpt>
      <trkpt lat="45.60518" lon="6.71466">
        <ele>1925</ele>
        <time>2021-02-13T12:15:48Z</time>
      </trkpt>
      <trkpt lat="45.60514" lon="6.71467">
        <ele>1925</ele>
        <time>2021-02-13T12:15:49Z</time>
      </trkpt>
      <trkpt lat="45.60509" lon="6.71468">
        <ele>1925</ele>
        <time>2021-02-13T12:15:50Z</time>
      </trkpt>
      <trkpt lat="45.60504" lon="6.71469">
        <ele>1925</ele>
        <time>2021-02-13T12:15:51Z</time>
      </trkpt>
      <trkpt lat="45.60499" lon="6.71471">
        <ele>1925</ele>
        <time>2021-02-13T12:15:52Z</time>
      </trkpt>
      <trkpt lat="45.60495" lon="6.71472">
        <ele>1925</ele>
        <time>2021-02-13T12:15:53Z</time>
      </trkpt>
      <trkpt lat="45.6049" lon="6.71473">
        <ele>1925</ele>
        <time>2021-02-13T12:15:54Z</time>
      </trkpt>
      <trkpt lat="45.60485" lon="6.71474">
        <ele>1925</ele>
        <time>2021-02-13T12:15:55Z</time>
      </trkpt>
      <trkpt lat="45.6048" lon="6.71475">
        <ele>1925</ele>
        <time>2021-02-13T12:15:56Z</time>
      </trkpt>
      <trkpt lat="45.60475" lon="6.71476">
        <ele>1924</ele>
        <time>2021-02-13T12:15:57Z</time>
      </trkpt>
      <trkpt lat="45.60463" lon="6.71479">
        <ele>1924</ele>
        <time>2021-02-13T12:15:58Z</time>
      </trkpt>
      <trkpt lat="45.60458" lon="6.71482">
        <ele>1924</ele>
        <time>2021-02-13T12:15:59Z</time>
      </trkpt>
      <trkpt lat="45.60453" lon="6.71484">
        <ele>1924</ele>
        <time>2021-02-13T12:16:00Z</time>
      </trkpt>
      <trkpt lat="45.60448" lon="6.71486">
        <ele>1924</ele>
        <time>2021-02-13T12:16:01Z</time>
      </trkpt>
      <trkpt lat="45.60443" lon="6.71489">
        <ele>1924</ele>
        <time>2021-02-13T12:16:02Z</time>
      </trkpt>
      <trkpt lat="45.60438" lon="6.71491">
        <ele>1924</ele>
        <time>2021-02-13T12:16:03Z</time>
      </trkpt>
      <trkpt lat="45.60433" lon="6.71493">
        <ele>1924</ele>
        <time>2021-02-13T12:16:04Z</time>
      </trkpt>
      <trkpt lat="45.60428" lon="6.71496">
        <ele>1924</ele>
        <time>2021-02-13T12:16:05Z</time>
      </trkpt>
      <trkpt lat="45.60423" lon="6.71498">
        <ele>1924</ele>
        <time>2021-02-13T12:16:06Z</time>
      </trkpt>
      <trkpt lat="45.60418" lon="6.71501">
        <ele>1924</ele>
        <time>2021-02-13T12:16:07Z</time>
      </trkpt>
      <trkpt lat="45.60413" lon="6.71503">
        <ele>1908</ele>
        <time>2021-02-13T12:16:08Z</time>
      </trkpt>
      <trkpt lat="45.60408" lon="6.71508">
        <ele>1908</ele>
        <time>2021-02-13T12:16:09Z</time>
      </trkpt>
      <trkpt lat="45.60406" lon="6.71511">
        <ele>1908</ele>
        <time>2021-02-13T12:16:10Z</time>
      </trkpt>
      <trkpt lat="45.60404" lon="6.71515">
        <ele>1908</ele>
        <time>2021-02-13T12:16:11Z</time>
      </trkpt>
      <trkpt lat="45.60403" lon="6.71518">
        <ele>1908</ele>
        <time>2021-02-13T12:16:12Z</time>
      </trkpt>
      <trkpt lat="45.60401" lon="6.71521">
        <ele>1908</ele>
        <time>2021-02-13T12:16:13Z</time>
      </trkpt>
      <trkpt lat="45.60399" lon="6.71525">
        <ele>1908</ele>
        <time>2021-02-13T12:16:14Z</time>
      </trkpt>
      <trkpt lat="45.60398" lon="6.71528">
        <ele>1908</ele>
        <time>2021-02-13T12:16:15Z</time>
      </trkpt>
      <trkpt lat="45.60396" lon="6.71531">
        <ele>1908</ele>
        <time>2021-02-13T12:16:16Z</time>
      </trkpt>
      <trkpt lat="45.60394" lon="6.71534">
        <ele>1894</ele>
        <time>2021-02-13T12:16:17Z</time>
      </trkpt>
      <trkpt lat="45.60392" lon="6.71545">
        <ele>1894</ele>
        <time>2021-02-13T12:16:18Z</time>
      </trkpt>
      <trkpt lat="45.6039" lon="6.7155">
        <ele>1894</ele>
        <time>2021-02-13T12:16:19Z</time>
      </trkpt>
      <trkpt lat="45.60388" lon="6.71555">
        <ele>1894</ele>
        <time>2021-02-13T12:16:20Z</time>
      </trkpt>
      <trkpt lat="45.60386" lon="6.7156">
        <ele>1894</ele>
        <time>2021-02-13T12:16:21Z</time>
      </trkpt>
      <trkpt lat="45.60384" lon="6.71566">
        <ele>1894</ele>
        <time>2021-02-13T12:16:22Z</time>
      </trkpt>
      <trkpt lat="45.60382" lon="6.71571">
        <ele>1894</ele>
        <time>2021-02-13T12:16:23Z</time>
      </trkpt>
      <trkpt lat="45.6038" lon="6.71576">
        <ele>1894</ele>
        <time>2021-02-13T12:16:24Z</time>
      </trkpt>
      <trkpt lat="45.60378" lon="6.71581">
        <ele>1894</ele>
        <time>2021-02-13T12:16:25Z</time>
      </trkpt>
      <trkpt lat="45.60376" lon="6.71587">
        <ele>1894</ele>
        <time>2021-02-13T12:16:26Z</time>
      </trkpt>
      <trkpt lat="45.60374" lon="6.71592">
        <ele>1875</ele>
        <time>2021-02-13T12:16:27Z</time>
      </trkpt>
      <trkpt lat="45.60365" lon="6.71599">
        <ele>1875</ele>
        <time>2021-02-13T12:16:28Z</time>
      </trkpt>
      <trkpt lat="45.60361" lon="6.71601">
        <ele>1875</ele>
        <time>2021-02-13T12:16:29Z</time>
      </trkpt>
      <trkpt lat="45.60357" lon="6.71603">
        <ele>1875</ele>
        <time>2021-02-13T12:16:30Z</time>
      </trkpt>
      <trkpt lat="45.60353" lon="6.71605">
        <ele>1875</ele>
        <time>2021-02-13T12:16:31Z</time>
      </trkpt>
      <trkpt lat="45.60348" lon="6.71607">
        <ele>1875</ele>
        <time>2021-02-13T12:16:32Z</time>
      </trkpt>
      <trkpt lat="45.60344" lon="6.71609">
        <ele>1875</ele>
        <time>2021-02-13T12:16:33Z</time>
      </trkpt>
      <trkpt lat="45.6034" lon="6.71611">
        <ele>1875</ele>
        <time>2021-02-13T12:16:34Z</time>
      </trkpt>
      <trkpt lat="45.60335" lon="6.71613">
        <ele>1875</ele>
        <time>2021-02-13T12:16:35Z</time>
      </trkpt>
      <trkpt lat="45.60331" lon="6.71615">
        <ele>1875</ele>
        <time>2021-02-13T12:16:36Z</time>
      </trkpt>
      <trkpt lat="45.60327" lon="6.71617">
        <ele>1858</ele>
        <time>2021-02-13T12:16:37Z</time>
      </trkpt>
      <trkpt lat="45.60323" lon="6.71614">
        <ele>1858</ele>
        <time>2021-02-13T12:16:38Z</time>
      </trkpt>
      <trkpt lat="45.60321" lon="6.71614">
        <ele>1858</ele>
        <time>2021-02-13T12:16:40Z</time>
      </trkpt>
      <trkpt lat="45.6032" lon="6.71614">
        <ele>1856</ele>
        <time>2021-02-13T12:16:47Z</time>
      </trkpt>
      <trkpt lat="45.60319" lon="6.71614">
        <ele>1856</ele>
        <time>2021-02-13T12:16:57Z</time>
      </trkpt>
      <trkpt lat="45.60317" lon="6.71614">
        <ele>1856</ele>
        <time>2021-02-13T12:17:07Z</time>
      </trkpt>
      <trkpt lat="45.60316" lon="6.71614">
        <ele>1856</ele>
        <time>2021-02-13T12:17:18Z</time>
      </trkpt>
      <trkpt lat="45.60315" lon="6.71614">
        <ele>1856</ele>
        <time>2021-02-13T12:17:27Z</time>
      </trkpt>
      <trkpt lat="45.60314" lon="6.71613">
        <ele>1856</ele>
        <time>2021-02-13T12:17:37Z</time>
      </trkpt>
      <trkpt lat="45.60312" lon="6.71613">
        <ele>1856</ele>
        <time>2021-02-13T12:17:47Z</time>
      </trkpt>
      <trkpt lat="45.60311" lon="6.71613">
        <ele>1855</ele>
        <time>2021-02-13T12:17:57Z</time>
      </trkpt>
      <trkpt lat="45.6031" lon="6.71613">
        <ele>1855</ele>
        <time>2021-02-13T12:18:07Z</time>
      </trkpt>
      <trkpt lat="45.60309" lon="6.71613">
        <ele>1855</ele>
        <time>2021-02-13T12:18:17Z</time>
      </trkpt>
      <trkpt lat="45.60307" lon="6.71613">
        <ele>1855</ele>
        <time>2021-02-13T12:18:27Z</time>
      </trkpt>
      <trkpt lat="45.60306" lon="6.71613">
        <ele>1856</ele>
        <time>2021-02-13T12:18:37Z</time>
      </trkpt>
      <trkpt lat="45.60305" lon="6.71613">
        <ele>1856</ele>
        <time>2021-02-13T12:18:40Z</time>
      </trkpt>
      <trkpt lat="45.60304" lon="6.71612">
        <ele>1856</ele>
        <time>2021-02-13T12:18:42Z</time>
      </trkpt>
      <trkpt lat="45.60302" lon="6.71612">
        <ele>1856</ele>
        <time>2021-02-13T12:18:43Z</time>
      </trkpt>
      <trkpt lat="45.60301" lon="6.71612">
        <ele>1856</ele>
        <time>2021-02-13T12:18:44Z</time>
      </trkpt>
      <trkpt lat="45.603" lon="6.71612">
        <ele>1856</ele>
        <time>2021-02-13T12:18:45Z</time>
      </trkpt>
      <trkpt lat="45.60298" lon="6.71612">
        <ele>1856</ele>
        <time>2021-02-13T12:18:46Z</time>
      </trkpt>
      <trkpt lat="45.60297" lon="6.71612">
        <ele>1856</ele>
        <time>2021-02-13T12:18:47Z</time>
      </trkpt>
      <trkpt lat="45.60291" lon="6.71613">
        <ele>1856</ele>
        <time>2021-02-13T12:18:48Z</time>
      </trkpt>
      <trkpt lat="45.60289" lon="6.71614">
        <ele>1856</ele>
        <time>2021-02-13T12:18:49Z</time>
      </trkpt>
      <trkpt lat="45.60287" lon="6.71616">
        <ele>1856</ele>
        <time>2021-02-13T12:18:51Z</time>
      </trkpt>
      <trkpt lat="45.60285" lon="6.71617">
        <ele>1856</ele>
        <time>2021-02-13T12:18:55Z</time>
      </trkpt>
      <trkpt lat="45.60284" lon="6.71618">
        <ele>1856</ele>
        <time>2021-02-13T12:18:56Z</time>
      </trkpt>
      <trkpt lat="45.60282" lon="6.7162">
        <ele>1851</ele>
        <time>2021-02-13T12:18:57Z</time>
      </trkpt>
      <trkpt lat="45.60279" lon="6.71627">
        <ele>1851</ele>
        <time>2021-02-13T12:18:58Z</time>
      </trkpt>
      <trkpt lat="45.60277" lon="6.7163">
        <ele>1851</ele>
        <time>2021-02-13T12:18:59Z</time>
      </trkpt>
      <trkpt lat="45.60276" lon="6.71633">
        <ele>1851</ele>
        <time>2021-02-13T12:19:00Z</time>
      </trkpt>
      <trkpt lat="45.60274" lon="6.71635">
        <ele>1851</ele>
        <time>2021-02-13T12:19:01Z</time>
      </trkpt>
      <trkpt lat="45.60272" lon="6.71638">
        <ele>1851</ele>
        <time>2021-02-13T12:19:02Z</time>
      </trkpt>
      <trkpt lat="45.6027" lon="6.71641">
        <ele>1851</ele>
        <time>2021-02-13T12:19:03Z</time>
      </trkpt>
      <trkpt lat="45.60268" lon="6.71643">
        <ele>1851</ele>
        <time>2021-02-13T12:19:04Z</time>
      </trkpt>
      <trkpt lat="45.60267" lon="6.71646">
        <ele>1851</ele>
        <time>2021-02-13T12:19:05Z</time>
      </trkpt>
      <trkpt lat="45.60265" lon="6.71649">
        <ele>1851</ele>
        <time>2021-02-13T12:19:06Z</time>
      </trkpt>
      <trkpt lat="45.60263" lon="6.71651">
        <ele>1839</ele>
        <time>2021-02-13T12:19:07Z</time>
      </trkpt>
      <trkpt lat="45.60256" lon="6.71654">
        <ele>1839</ele>
        <time>2021-02-13T12:19:08Z</time>
      </trkpt>
      <trkpt lat="45.60252" lon="6.71655">
        <ele>1839</ele>
        <time>2021-02-13T12:19:09Z</time>
      </trkpt>
      <trkpt lat="45.60248" lon="6.71657">
        <ele>1839</ele>
        <time>2021-02-13T12:19:10Z</time>
      </trkpt>
      <trkpt lat="45.60244" lon="6.71658">
        <ele>1839</ele>
        <time>2021-02-13T12:19:11Z</time>
      </trkpt>
      <trkpt lat="45.60239" lon="6.71659">
        <ele>1839</ele>
        <time>2021-02-13T12:19:12Z</time>
      </trkpt>
      <trkpt lat="45.60235" lon="6.71661">
        <ele>1839</ele>
        <time>2021-02-13T12:19:13Z</time>
      </trkpt>
      <trkpt lat="45.60231" lon="6.71662">
        <ele>1839</ele>
        <time>2021-02-13T12:19:14Z</time>
      </trkpt>
      <trkpt lat="45.60227" lon="6.71663">
        <ele>1839</ele>
        <time>2021-02-13T12:19:15Z</time>
      </trkpt>
      <trkpt lat="45.60222" lon="6.71664">
        <ele>1839</ele>
        <time>2021-02-13T12:19:16Z</time>
      </trkpt>
      <trkpt lat="45.60218" lon="6.71666">
        <ele>1826</ele>
        <time>2021-02-13T12:19:17Z</time>
      </trkpt>
      <trkpt lat="45.60208" lon="6.71667">
        <ele>1826</ele>
        <time>2021-02-13T12:19:18Z</time>
      </trkpt>
      <trkpt lat="45.60204" lon="6.71667">
        <ele>1826</ele>
        <time>2021-02-13T12:19:19Z</time>
      </trkpt>
      <trkpt lat="45.602" lon="6.71667">
        <ele>1826</ele>
        <time>2021-02-13T12:19:20Z</time>
      </trkpt>
      <trkpt lat="45.60195" lon="6.71667">
        <ele>1826</ele>
        <time>2021-02-13T12:19:21Z</time>
      </trkpt>
      <trkpt lat="45.60191" lon="6.71667">
        <ele>1826</ele>
        <time>2021-02-13T12:19:22Z</time>
      </trkpt>
      <trkpt lat="45.60187" lon="6.71667">
        <ele>1826</ele>
        <time>2021-02-13T12:19:23Z</time>
      </trkpt>
      <trkpt lat="45.60183" lon="6.71667">
        <ele>1826</ele>
        <time>2021-02-13T12:19:24Z</time>
      </trkpt>
      <trkpt lat="45.60179" lon="6.71666">
        <ele>1826</ele>
        <time>2021-02-13T12:19:25Z</time>
      </trkpt>
      <trkpt lat="45.60174" lon="6.71666">
        <ele>1826</ele>
        <time>2021-02-13T12:19:26Z</time>
      </trkpt>
      <trkpt lat="45.6017" lon="6.71666">
        <ele>1818</ele>
        <time>2021-02-13T12:19:27Z</time>
      </trkpt>
      <trkpt lat="45.6017" lon="6.71666">
        <ele>1818</ele>
        <time>2021-02-13T12:19:37Z</time>
      </trkpt>
      <trkpt lat="45.60169" lon="6.71665">
        <ele>1818</ele>
        <time>2021-02-13T12:19:39Z</time>
      </trkpt>
      <trkpt lat="45.60168" lon="6.71665">
        <ele>1818</ele>
        <time>2021-02-13T12:19:47Z</time>
      </trkpt>
      <trkpt lat="45.60168" lon="6.71664">
        <ele>1818</ele>
        <time>2021-02-13T12:19:57Z</time>
      </trkpt>
      <trkpt lat="45.60167" lon="6.71664">
        <ele>1817</ele>
        <time>2021-02-13T12:20:07Z</time>
      </trkpt>
      <trkpt lat="45.60166" lon="6.71663">
        <ele>1817</ele>
        <time>2021-02-13T12:20:14Z</time>
      </trkpt>
      <trkpt lat="45.60165" lon="6.71663">
        <ele>1817</ele>
        <time>2021-02-13T12:20:16Z</time>
      </trkpt>
      <trkpt lat="45.60165" lon="6.71662">
        <ele>1818</ele>
        <time>2021-02-13T12:20:17Z</time>
      </trkpt>
      <trkpt lat="45.60161" lon="6.71661">
        <ele>1818</ele>
        <time>2021-02-13T12:20:18Z</time>
      </trkpt>
      <trkpt lat="45.60159" lon="6.71661">
        <ele>1818</ele>
        <time>2021-02-13T12:20:19Z</time>
      </trkpt>
      <trkpt lat="45.60157" lon="6.7166">
        <ele>1818</ele>
        <time>2021-02-13T12:20:20Z</time>
      </trkpt>
      <trkpt lat="45.60155" lon="6.71659">
        <ele>1818</ele>
        <time>2021-02-13T12:20:21Z</time>
      </trkpt>
      <trkpt lat="45.60153" lon="6.71659">
        <ele>1818</ele>
        <time>2021-02-13T12:20:22Z</time>
      </trkpt>
      <trkpt lat="45.60152" lon="6.71658">
        <ele>1818</ele>
        <time>2021-02-13T12:20:23Z</time>
      </trkpt>
      <trkpt lat="45.6015" lon="6.71657">
        <ele>1818</ele>
        <time>2021-02-13T12:20:24Z</time>
      </trkpt>
      <trkpt lat="45.60148" lon="6.71657">
        <ele>1818</ele>
        <time>2021-02-13T12:20:26Z</time>
      </trkpt>
      <trkpt lat="45.60146" lon="6.71656">
        <ele>1817</ele>
        <time>2021-02-13T12:20:27Z</time>
      </trkpt>
      <trkpt lat="45.60143" lon="6.71656">
        <ele>1817</ele>
        <time>2021-02-13T12:20:30Z</time>
      </trkpt>
      <trkpt lat="45.60141" lon="6.71656">
        <ele>1815</ele>
        <time>2021-02-13T12:20:37Z</time>
      </trkpt>
      <trkpt lat="45.60139" lon="6.71657">
        <ele>1815</ele>
        <time>2021-02-13T12:20:44Z</time>
      </trkpt>
      <trkpt lat="45.60138" lon="6.71657">
        <ele>1815</ele>
        <time>2021-02-13T12:20:45Z</time>
      </trkpt>
      <trkpt lat="45.60136" lon="6.71657">
        <ele>1815</ele>
        <time>2021-02-13T12:20:46Z</time>
      </trkpt>
      <trkpt lat="45.60134" lon="6.71658">
        <ele>1814</ele>
        <time>2021-02-13T12:20:47Z</time>
      </trkpt>
      <trkpt lat="45.6013" lon="6.7166">
        <ele>1814</ele>
        <time>2021-02-13T12:20:48Z</time>
      </trkpt>
      <trkpt lat="45.6013" lon="6.71663">
        <ele>1814</ele>
        <time>2021-02-13T12:20:50Z</time>
      </trkpt>
      <trkpt lat="45.60129" lon="6.71666">
        <ele>1814</ele>
        <time>2021-02-13T12:20:52Z</time>
      </trkpt>
      <trkpt lat="45.60129" lon="6.71669">
        <ele>1814</ele>
        <time>2021-02-13T12:20:53Z</time>
      </trkpt>
      <trkpt lat="45.60128" lon="6.71672">
        <ele>1814</ele>
        <time>2021-02-13T12:20:54Z</time>
      </trkpt>
      <trkpt lat="45.60128" lon="6.71675">
        <ele>1814</ele>
        <time>2021-02-13T12:20:55Z</time>
      </trkpt>
      <trkpt lat="45.60128" lon="6.71678">
        <ele>1814</ele>
        <time>2021-02-13T12:20:56Z</time>
      </trkpt>
      <trkpt lat="45.60127" lon="6.71681">
        <ele>1813</ele>
        <time>2021-02-13T12:20:57Z</time>
      </trkpt>
      <trkpt lat="45.60126" lon="6.71685">
        <ele>1813</ele>
        <time>2021-02-13T12:20:58Z</time>
      </trkpt>
      <trkpt lat="45.60126" lon="6.7169">
        <ele>1813</ele>
        <time>2021-02-13T12:20:59Z</time>
      </trkpt>
      <trkpt lat="45.60124" lon="6.71695">
        <ele>1813</ele>
        <time>2021-02-13T12:21:00Z</time>
      </trkpt>
      <trkpt lat="45.60121" lon="6.71696">
        <ele>1813</ele>
        <time>2021-02-13T12:21:01Z</time>
      </trkpt>
      <trkpt lat="45.60118" lon="6.71695">
        <ele>1813</ele>
        <time>2021-02-13T12:21:02Z</time>
      </trkpt>
      <trkpt lat="45.60116" lon="6.71693">
        <ele>1813</ele>
        <time>2021-02-13T12:21:04Z</time>
      </trkpt>
      <trkpt lat="45.60116" lon="6.71693">
        <ele>1802</ele>
        <time>2021-02-13T12:21:07Z</time>
      </trkpt>
      <trkpt lat="45.60116" lon="6.71693">
        <ele>1802</ele>
        <time>2021-02-13T12:21:17Z</time>
      </trkpt>
      <trkpt lat="45.60116" lon="6.71693">
        <ele>1802</ele>
        <time>2021-02-13T12:21:27Z</time>
      </trkpt>
      <trkpt lat="45.60116" lon="6.71693">
        <ele>1801</ele>
        <time>2021-02-13T12:21:37Z</time>
      </trkpt>
      <trkpt lat="45.60116" lon="6.71693">
        <ele>1801</ele>
        <time>2021-02-13T12:21:47Z</time>
      </trkpt>
      <trkpt lat="45.60114" lon="6.71692">
        <ele>1801</ele>
        <time>2021-02-13T12:21:56Z</time>
      </trkpt>
      <trkpt lat="45.60114" lon="6.71692">
        <ele>1802</ele>
        <time>2021-02-13T12:21:57Z</time>
      </trkpt>
      <trkpt lat="45.60107" lon="6.71691">
        <ele>1802</ele>
        <time>2021-02-13T12:21:58Z</time>
      </trkpt>
      <trkpt lat="45.60102" lon="6.71691">
        <ele>1802</ele>
        <time>2021-02-13T12:21:59Z</time>
      </trkpt>
      <trkpt lat="45.60098" lon="6.7169">
        <ele>1802</ele>
        <time>2021-02-13T12:22:00Z</time>
      </trkpt>
      <trkpt lat="45.60094" lon="6.7169">
        <ele>1802</ele>
        <time>2021-02-13T12:22:01Z</time>
      </trkpt>
      <trkpt lat="45.6009" lon="6.7169">
        <ele>1802</ele>
        <time>2021-02-13T12:22:02Z</time>
      </trkpt>
      <trkpt lat="45.60086" lon="6.71689">
        <ele>1802</ele>
        <time>2021-02-13T12:22:03Z</time>
      </trkpt>
      <trkpt lat="45.60082" lon="6.71689">
        <ele>1802</ele>
        <time>2021-02-13T12:22:04Z</time>
      </trkpt>
      <trkpt lat="45.60078" lon="6.71688">
        <ele>1802</ele>
        <time>2021-02-13T12:22:05Z</time>
      </trkpt>
      <trkpt lat="45.60074" lon="6.71688">
        <ele>1802</ele>
        <time>2021-02-13T12:22:06Z</time>
      </trkpt>
      <trkpt lat="45.60069" lon="6.71688">
        <ele>1802</ele>
        <time>2021-02-13T12:22:07Z</time>
      </trkpt>
      <trkpt lat="45.60065" lon="6.71687">
        <ele>1800</ele>
        <time>2021-02-13T12:22:08Z</time>
      </trkpt>
      <trkpt lat="45.60053" lon="6.71689">
        <ele>1800</ele>
        <time>2021-02-13T12:22:09Z</time>
      </trkpt>
      <trkpt lat="45.60048" lon="6.71691">
        <ele>1800</ele>
        <time>2021-02-13T12:22:10Z</time>
      </trkpt>
      <trkpt lat="45.60043" lon="6.71692">
        <ele>1800</ele>
        <time>2021-02-13T12:22:11Z</time>
      </trkpt>
      <trkpt lat="45.60039" lon="6.71694">
        <ele>1800</ele>
        <time>2021-02-13T12:22:12Z</time>
      </trkpt>
      <trkpt lat="45.60034" lon="6.71696">
        <ele>1800</ele>
        <time>2021-02-13T12:22:13Z</time>
      </trkpt>
      <trkpt lat="45.60029" lon="6.71698">
        <ele>1800</ele>
        <time>2021-02-13T12:22:14Z</time>
      </trkpt>
      <trkpt lat="45.60024" lon="6.71699">
        <ele>1800</ele>
        <time>2021-02-13T12:22:15Z</time>
      </trkpt>
      <trkpt lat="45.60019" lon="6.71701">
        <ele>1800</ele>
        <time>2021-02-13T12:22:16Z</time>
      </trkpt>
      <trkpt lat="45.60015" lon="6.71703">
        <ele>1791</ele>
        <time>2021-02-13T12:22:17Z</time>
      </trkpt>
      <trkpt lat="45.60007" lon="6.717">
        <ele>1791</ele>
        <time>2021-02-13T12:22:18Z</time>
      </trkpt>
      <trkpt lat="45.60004" lon="6.71698">
        <ele>1791</ele>
        <time>2021-02-13T12:22:19Z</time>
      </trkpt>
      <trkpt lat="45.6" lon="6.71696">
        <ele>1791</ele>
        <time>2021-02-13T12:22:20Z</time>
      </trkpt>
      <trkpt lat="45.59997" lon="6.71693">
        <ele>1791</ele>
        <time>2021-02-13T12:22:21Z</time>
      </trkpt>
      <trkpt lat="45.59993" lon="6.71691">
        <ele>1791</ele>
        <time>2021-02-13T12:22:22Z</time>
      </trkpt>
      <trkpt lat="45.59989" lon="6.71688">
        <ele>1791</ele>
        <time>2021-02-13T12:22:23Z</time>
      </trkpt>
      <trkpt lat="45.59986" lon="6.71686">
        <ele>1791</ele>
        <time>2021-02-13T12:22:24Z</time>
      </trkpt>
      <trkpt lat="45.59982" lon="6.71683">
        <ele>1791</ele>
        <time>2021-02-13T12:22:25Z</time>
      </trkpt>
      <trkpt lat="45.59979" lon="6.71681">
        <ele>1791</ele>
        <time>2021-02-13T12:22:26Z</time>
      </trkpt>
      <trkpt lat="45.59975" lon="6.71678">
        <ele>1791</ele>
        <time>2021-02-13T12:22:27Z</time>
      </trkpt>
      <trkpt lat="45.59972" lon="6.71676">
        <ele>1786</ele>
        <time>2021-02-13T12:22:28Z</time>
      </trkpt>
      <trkpt lat="45.59963" lon="6.71669">
        <ele>1786</ele>
        <time>2021-02-13T12:22:29Z</time>
      </trkpt>
      <trkpt lat="45.59959" lon="6.71666">
        <ele>1786</ele>
        <time>2021-02-13T12:22:30Z</time>
      </trkpt>
      <trkpt lat="45.59954" lon="6.71663">
        <ele>1786</ele>
        <time>2021-02-13T12:22:31Z</time>
      </trkpt>
      <trkpt lat="45.5995" lon="6.71661">
        <ele>1786</ele>
        <time>2021-02-13T12:22:32Z</time>
      </trkpt>
      <trkpt lat="45.59946" lon="6.71658">
        <ele>1786</ele>
        <time>2021-02-13T12:22:33Z</time>
      </trkpt>
      <trkpt lat="45.59941" lon="6.71655">
        <ele>1786</ele>
        <time>2021-02-13T12:22:34Z</time>
      </trkpt>
      <trkpt lat="45.59937" lon="6.71652">
        <ele>1786</ele>
        <time>2021-02-13T12:22:35Z</time>
      </trkpt>
      <trkpt lat="45.59933" lon="6.71649">
        <ele>1786</ele>
        <time>2021-02-13T12:22:36Z</time>
      </trkpt>
      <trkpt lat="45.59929" lon="6.71646">
        <ele>1779</ele>
        <time>2021-02-13T12:22:37Z</time>
      </trkpt>
      <trkpt lat="45.59924" lon="6.71644">
        <ele>1779</ele>
        <time>2021-02-13T12:22:38Z</time>
      </trkpt>
      <trkpt lat="45.59922" lon="6.71642">
        <ele>1779</ele>
        <time>2021-02-13T12:22:39Z</time>
      </trkpt>
      <trkpt lat="45.59922" lon="6.71642">
        <ele>1777</ele>
        <time>2021-02-13T12:22:47Z</time>
      </trkpt>
      <trkpt lat="45.59921" lon="6.7164">
        <ele>1777</ele>
        <time>2021-02-13T12:22:50Z</time>
      </trkpt>
      <trkpt lat="45.59921" lon="6.7164">
        <ele>1777</ele>
        <time>2021-02-13T12:22:57Z</time>
      </trkpt>
      <trkpt lat="45.5992" lon="6.7164">
        <ele>1777</ele>
        <time>2021-02-13T12:23:07Z</time>
      </trkpt>
      <trkpt lat="45.59917" lon="6.71642">
        <ele>1777</ele>
        <time>2021-02-13T12:23:08Z</time>
      </trkpt>
      <trkpt lat="45.59913" lon="6.71644">
        <ele>1777</ele>
        <time>2021-02-13T12:23:09Z</time>
      </trkpt>
      <trkpt lat="45.59907" lon="6.71647">
        <ele>1777</ele>
        <time>2021-02-13T12:23:10Z</time>
      </trkpt>
      <trkpt lat="45.599" lon="6.71651">
        <ele>1777</ele>
        <time>2021-02-13T12:23:11Z</time>
      </trkpt>
      <trkpt lat="45.59895" lon="6.71655">
        <ele>1777</ele>
        <time>2021-02-13T12:23:12Z</time>
      </trkpt>
      <trkpt lat="45.59892" lon="6.71658">
        <ele>1777</ele>
        <time>2021-02-13T12:23:13Z</time>
      </trkpt>
      <trkpt lat="45.59892" lon="6.71658">
        <ele>1775</ele>
        <time>2021-02-13T12:23:17Z</time>
      </trkpt>
      <trkpt lat="45.5989" lon="6.7166">
        <ele>1775</ele>
        <time>2021-02-13T12:23:18Z</time>
      </trkpt>
      <trkpt lat="45.59889" lon="6.7166">
        <ele>1771</ele>
        <time>2021-02-13T12:23:27Z</time>
      </trkpt>
      <trkpt lat="45.59888" lon="6.7166">
        <ele>1771</ele>
        <time>2021-02-13T12:23:38Z</time>
      </trkpt>
      <trkpt lat="45.59887" lon="6.7166">
        <ele>1771</ele>
        <time>2021-02-13T12:23:47Z</time>
      </trkpt>
      <trkpt lat="45.59887" lon="6.7166">
        <ele>1770</ele>
        <time>2021-02-13T12:23:57Z</time>
      </trkpt>
      <trkpt lat="45.59886" lon="6.7166">
        <ele>1770</ele>
        <time>2021-02-13T12:24:07Z</time>
      </trkpt>
      <trkpt lat="45.59885" lon="6.7166">
        <ele>1771</ele>
        <time>2021-02-13T12:24:17Z</time>
      </trkpt>
      <trkpt lat="45.59884" lon="6.7166">
        <ele>1771</ele>
        <time>2021-02-13T12:24:27Z</time>
      </trkpt>
      <trkpt lat="45.59883" lon="6.7166">
        <ele>1772</ele>
        <time>2021-02-13T12:24:37Z</time>
      </trkpt>
      <trkpt lat="45.59882" lon="6.7166">
        <ele>1772</ele>
        <time>2021-02-13T12:24:47Z</time>
      </trkpt>
      <trkpt lat="45.59882" lon="6.7166">
        <ele>1771</ele>
        <time>2021-02-13T12:24:57Z</time>
      </trkpt>
      <trkpt lat="45.59881" lon="6.71661">
        <ele>1771</ele>
        <time>2021-02-13T12:25:07Z</time>
      </trkpt>
      <trkpt lat="45.5988" lon="6.71661">
        <ele>1771</ele>
        <time>2021-02-13T12:25:12Z</time>
      </trkpt>
      <trkpt lat="45.59879" lon="6.71661">
        <ele>1771</ele>
        <time>2021-02-13T12:25:13Z</time>
      </trkpt>
      <trkpt lat="45.59878" lon="6.71661">
        <ele>1771</ele>
        <time>2021-02-13T12:25:14Z</time>
      </trkpt>
      <trkpt lat="45.59877" lon="6.71661">
        <ele>1771</ele>
        <time>2021-02-13T12:25:15Z</time>
      </trkpt>
      <trkpt lat="45.59877" lon="6.71661">
        <ele>1771</ele>
        <time>2021-02-13T12:25:16Z</time>
      </trkpt>
      <trkpt lat="45.59876" lon="6.71661">
        <ele>1771</ele>
        <time>2021-02-13T12:25:17Z</time>
      </trkpt>
      <trkpt lat="45.5987" lon="6.71661">
        <ele>1771</ele>
        <time>2021-02-13T12:25:18Z</time>
      </trkpt>
      <trkpt lat="45.59867" lon="6.7166">
        <ele>1771</ele>
        <time>2021-02-13T12:25:19Z</time>
      </trkpt>
      <trkpt lat="45.59864" lon="6.71659">
        <ele>1771</ele>
        <time>2021-02-13T12:25:20Z</time>
      </trkpt>
      <trkpt lat="45.59861" lon="6.71658">
        <ele>1771</ele>
        <time>2021-02-13T12:25:21Z</time>
      </trkpt>
      <trkpt lat="45.59858" lon="6.71658">
        <ele>1771</ele>
        <time>2021-02-13T12:25:22Z</time>
      </trkpt>
      <trkpt lat="45.59855" lon="6.71657">
        <ele>1771</ele>
        <time>2021-02-13T12:25:23Z</time>
      </trkpt>
      <trkpt lat="45.59852" lon="6.71656">
        <ele>1771</ele>
        <time>2021-02-13T12:25:24Z</time>
      </trkpt>
      <trkpt lat="45.59849" lon="6.71655">
        <ele>1771</ele>
        <time>2021-02-13T12:25:25Z</time>
      </trkpt>
      <trkpt lat="45.59846" lon="6.71655">
        <ele>1771</ele>
        <time>2021-02-13T12:25:26Z</time>
      </trkpt>
      <trkpt lat="45.59843" lon="6.71654">
        <ele>1770</ele>
        <time>2021-02-13T12:25:27Z</time>
      </trkpt>
      <trkpt lat="45.59836" lon="6.71657">
        <ele>1770</ele>
        <time>2021-02-13T12:25:28Z</time>
      </trkpt>
      <trkpt lat="45.59832" lon="6.7166">
        <ele>1770</ele>
        <time>2021-02-13T12:25:29Z</time>
      </trkpt>
      <trkpt lat="45.59829" lon="6.71664">
        <ele>1770</ele>
        <time>2021-02-13T12:25:30Z</time>
      </trkpt>
      <trkpt lat="45.59826" lon="6.71667">
        <ele>1770</ele>
        <time>2021-02-13T12:25:31Z</time>
      </trkpt>
      <trkpt lat="45.59822" lon="6.7167">
        <ele>1770</ele>
        <time>2021-02-13T12:25:32Z</time>
      </trkpt>
      <trkpt lat="45.59819" lon="6.71674">
        <ele>1770</ele>
        <time>2021-02-13T12:25:33Z</time>
      </trkpt>
      <trkpt lat="45.59815" lon="6.71677">
        <ele>1770</ele>
        <time>2021-02-13T12:25:34Z</time>
      </trkpt>
      <trkpt lat="45.59812" lon="6.7168">
        <ele>1770</ele>
        <time>2021-02-13T12:25:35Z</time>
      </trkpt>
      <trkpt lat="45.59808" lon="6.71684">
        <ele>1770</ele>
        <time>2021-02-13T12:25:36Z</time>
      </trkpt>
      <trkpt lat="45.59805" lon="6.71687">
        <ele>1760</ele>
        <time>2021-02-13T12:25:37Z</time>
      </trkpt>
      <trkpt lat="45.59796" lon="6.71688">
        <ele>1760</ele>
        <time>2021-02-13T12:25:38Z</time>
      </trkpt>
      <trkpt lat="45.59791" lon="6.71688">
        <ele>1760</ele>
        <time>2021-02-13T12:25:39Z</time>
      </trkpt>
      <trkpt lat="45.59787" lon="6.71688">
        <ele>1760</ele>
        <time>2021-02-13T12:25:40Z</time>
      </trkpt>
      <trkpt lat="45.59782" lon="6.71688">
        <ele>1760</ele>
        <time>2021-02-13T12:25:41Z</time>
      </trkpt>
      <trkpt lat="45.59777" lon="6.71688">
        <ele>1760</ele>
        <time>2021-02-13T12:25:42Z</time>
      </trkpt>
      <trkpt lat="45.59772" lon="6.71688">
        <ele>1760</ele>
        <time>2021-02-13T12:25:43Z</time>
      </trkpt>
      <trkpt lat="45.59768" lon="6.71688">
        <ele>1760</ele>
        <time>2021-02-13T12:25:44Z</time>
      </trkpt>
      <trkpt lat="45.59763" lon="6.71688">
        <ele>1760</ele>
        <time>2021-02-13T12:25:45Z</time>
      </trkpt>
      <trkpt lat="45.59758" lon="6.71688">
        <ele>1760</ele>
        <time>2021-02-13T12:25:46Z</time>
      </trkpt>
      <trkpt lat="45.59753" lon="6.71688">
        <ele>1746</ele>
        <time>2021-02-13T12:25:47Z</time>
      </trkpt>
      <trkpt lat="45.59745" lon="6.71684">
        <ele>1746</ele>
        <time>2021-02-13T12:25:48Z</time>
      </trkpt>
      <trkpt lat="45.59743" lon="6.71681">
        <ele>1746</ele>
        <time>2021-02-13T12:25:49Z</time>
      </trkpt>
      <trkpt lat="45.59741" lon="6.71679">
        <ele>1746</ele>
        <time>2021-02-13T12:25:50Z</time>
      </trkpt>
      <trkpt lat="45.59738" lon="6.71677">
        <ele>1746</ele>
        <time>2021-02-13T12:25:51Z</time>
      </trkpt>
      <trkpt lat="45.59736" lon="6.71674">
        <ele>1746</ele>
        <time>2021-02-13T12:25:52Z</time>
      </trkpt>
      <trkpt lat="45.59733" lon="6.71672">
        <ele>1746</ele>
        <time>2021-02-13T12:25:53Z</time>
      </trkpt>
      <trkpt lat="45.59731" lon="6.71669">
        <ele>1746</ele>
        <time>2021-02-13T12:25:54Z</time>
      </trkpt>
      <trkpt lat="45.59728" lon="6.71667">
        <ele>1746</ele>
        <time>2021-02-13T12:25:55Z</time>
      </trkpt>
      <trkpt lat="45.59726" lon="6.71665">
        <ele>1746</ele>
        <time>2021-02-13T12:25:56Z</time>
      </trkpt>
      <trkpt lat="45.59723" lon="6.71662">
        <ele>1742</ele>
        <time>2021-02-13T12:25:57Z</time>
      </trkpt>
      <trkpt lat="45.59715" lon="6.71657">
        <ele>1742</ele>
        <time>2021-02-13T12:25:58Z</time>
      </trkpt>
      <trkpt lat="45.59711" lon="6.71654">
        <ele>1742</ele>
        <time>2021-02-13T12:25:59Z</time>
      </trkpt>
      <trkpt lat="45.59707" lon="6.71651">
        <ele>1742</ele>
        <time>2021-02-13T12:26:00Z</time>
      </trkpt>
      <trkpt lat="45.59703" lon="6.71648">
        <ele>1742</ele>
        <time>2021-02-13T12:26:01Z</time>
      </trkpt>
      <trkpt lat="45.59698" lon="6.71645">
        <ele>1742</ele>
        <time>2021-02-13T12:26:02Z</time>
      </trkpt>
      <trkpt lat="45.59694" lon="6.71642">
        <ele>1742</ele>
        <time>2021-02-13T12:26:03Z</time>
      </trkpt>
      <trkpt lat="45.5969" lon="6.71639">
        <ele>1742</ele>
        <time>2021-02-13T12:26:04Z</time>
      </trkpt>
      <trkpt lat="45.59686" lon="6.71636">
        <ele>1742</ele>
        <time>2021-02-13T12:26:05Z</time>
      </trkpt>
      <trkpt lat="45.59681" lon="6.71633">
        <ele>1742</ele>
        <time>2021-02-13T12:26:06Z</time>
      </trkpt>
      <trkpt lat="45.59677" lon="6.7163">
        <ele>1735</ele>
        <time>2021-02-13T12:26:07Z</time>
      </trkpt>
      <trkpt lat="45.59667" lon="6.71623">
        <ele>1735</ele>
        <time>2021-02-13T12:26:08Z</time>
      </trkpt>
      <trkpt lat="45.59663" lon="6.71621">
        <ele>1735</ele>
        <time>2021-02-13T12:26:09Z</time>
      </trkpt>
      <trkpt lat="45.59659" lon="6.7162">
        <ele>1735</ele>
        <time>2021-02-13T12:26:10Z</time>
      </trkpt>
      <trkpt lat="45.59655" lon="6.71618">
        <ele>1735</ele>
        <time>2021-02-13T12:26:11Z</time>
      </trkpt>
      <trkpt lat="45.59651" lon="6.71616">
        <ele>1735</ele>
        <time>2021-02-13T12:26:12Z</time>
      </trkpt>
      <trkpt lat="45.59646" lon="6.71614">
        <ele>1735</ele>
        <time>2021-02-13T12:26:13Z</time>
      </trkpt>
      <trkpt lat="45.59642" lon="6.71612">
        <ele>1735</ele>
        <time>2021-02-13T12:26:14Z</time>
      </trkpt>
      <trkpt lat="45.59638" lon="6.7161">
        <ele>1735</ele>
        <time>2021-02-13T12:26:15Z</time>
      </trkpt>
      <trkpt lat="45.59634" lon="6.71608">
        <ele>1735</ele>
        <time>2021-02-13T12:26:16Z</time>
      </trkpt>
      <trkpt lat="45.5963" lon="6.71606">
        <ele>1721</ele>
        <time>2021-02-13T12:26:17Z</time>
      </trkpt>
      <trkpt lat="45.59625" lon="6.71604">
        <ele>1721</ele>
        <time>2021-02-13T12:26:18Z</time>
      </trkpt>
      <trkpt lat="45.59622" lon="6.71603">
        <ele>1721</ele>
        <time>2021-02-13T12:26:19Z</time>
      </trkpt>
      <trkpt lat="45.59619" lon="6.71602">
        <ele>1721</ele>
        <time>2021-02-13T12:26:20Z</time>
      </trkpt>
      <trkpt lat="45.59617" lon="6.71603">
        <ele>1721</ele>
        <time>2021-02-13T12:26:21Z</time>
      </trkpt>
      <trkpt lat="45.59617" lon="6.71603">
        <ele>1716</ele>
        <time>2021-02-13T12:26:27Z</time>
      </trkpt>
      <trkpt lat="45.59618" lon="6.71606">
        <ele>1716</ele>
        <time>2021-02-13T12:26:37Z</time>
      </trkpt>
      <trkpt lat="45.59619" lon="6.7161">
        <ele>1716</ele>
        <time>2021-02-13T12:26:42Z</time>
      </trkpt>
      <trkpt lat="45.5962" lon="6.71613">
        <ele>1716</ele>
        <time>2021-02-13T12:26:48Z</time>
      </trkpt>
      <trkpt lat="45.59621" lon="6.71617">
        <ele>1715</ele>
        <time>2021-02-13T12:26:57Z</time>
      </trkpt>
      <trkpt lat="45.59622" lon="6.7162">
        <ele>1715</ele>
        <time>2021-02-13T12:27:07Z</time>
      </trkpt>
      <trkpt lat="45.59623" lon="6.71623">
        <ele>1715</ele>
        <time>2021-02-13T12:27:17Z</time>
      </trkpt>
      <trkpt lat="45.59624" lon="6.71627">
        <ele>1715</ele>
        <time>2021-02-13T12:27:22Z</time>
      </trkpt>
      <trkpt lat="45.59625" lon="6.7163">
        <ele>1715</ele>
        <time>2021-02-13T12:27:27Z</time>
      </trkpt>
      <trkpt lat="45.59626" lon="6.71634">
        <ele>1715</ele>
        <time>2021-02-13T12:27:28Z</time>
      </trkpt>
      <trkpt lat="45.59627" lon="6.71637">
        <ele>1715</ele>
        <time>2021-02-13T12:27:29Z</time>
      </trkpt>
      <trkpt lat="45.59628" lon="6.71641">
        <ele>1715</ele>
        <time>2021-02-13T12:27:30Z</time>
      </trkpt>
      <trkpt lat="45.59629" lon="6.71644">
        <ele>1715</ele>
        <time>2021-02-13T12:27:31Z</time>
      </trkpt>
      <trkpt lat="45.5963" lon="6.71648">
        <ele>1715</ele>
        <time>2021-02-13T12:27:32Z</time>
      </trkpt>
      <trkpt lat="45.59631" lon="6.71651">
        <ele>1715</ele>
        <time>2021-02-13T12:27:33Z</time>
      </trkpt>
      <trkpt lat="45.59632" lon="6.71654">
        <ele>1715</ele>
        <time>2021-02-13T12:27:34Z</time>
      </trkpt>
      <trkpt lat="45.59633" lon="6.71658">
        <ele>1715</ele>
        <time>2021-02-13T12:27:35Z</time>
      </trkpt>
      <trkpt lat="45.59634" lon="6.71661">
        <ele>1715</ele>
        <time>2021-02-13T12:27:36Z</time>
      </trkpt>
      <trkpt lat="45.59635" lon="6.71665">
        <ele>1715</ele>
        <time>2021-02-13T12:27:37Z</time>
      </trkpt>
      <trkpt lat="45.59627" lon="6.71679">
        <ele>1715</ele>
        <time>2021-02-13T12:27:39Z</time>
      </trkpt>
      <trkpt lat="45.59624" lon="6.71682">
        <ele>1715</ele>
        <time>2021-02-13T12:27:40Z</time>
      </trkpt>
      <trkpt lat="45.5962" lon="6.71684">
        <ele>1715</ele>
        <time>2021-02-13T12:27:41Z</time>
      </trkpt>
      <trkpt lat="45.59617" lon="6.71687">
        <ele>1715</ele>
        <time>2021-02-13T12:27:42Z</time>
      </trkpt>
      <trkpt lat="45.59613" lon="6.7169">
        <ele>1715</ele>
        <time>2021-02-13T12:27:43Z</time>
      </trkpt>
      <trkpt lat="45.5961" lon="6.71693">
        <ele>1715</ele>
        <time>2021-02-13T12:27:45Z</time>
      </trkpt>
      <trkpt lat="45.59607" lon="6.71696">
        <ele>1715</ele>
        <time>2021-02-13T12:27:46Z</time>
      </trkpt>
      <trkpt lat="45.59603" lon="6.71699">
        <ele>1703</ele>
        <time>2021-02-13T12:27:47Z</time>
      </trkpt>
      <trkpt lat="45.59599" lon="6.71705">
        <ele>1703</ele>
        <time>2021-02-13T12:27:48Z</time>
      </trkpt>
      <trkpt lat="45.59598" lon="6.71708">
        <ele>1703</ele>
        <time>2021-02-13T12:27:49Z</time>
      </trkpt>
      <trkpt lat="45.59597" lon="6.71711">
        <ele>1703</ele>
        <time>2021-02-13T12:27:50Z</time>
      </trkpt>
      <trkpt lat="45.59597" lon="6.71715">
        <ele>1703</ele>
        <time>2021-02-13T12:27:51Z</time>
      </trkpt>
      <trkpt lat="45.59596" lon="6.71718">
        <ele>1703</ele>
        <time>2021-02-13T12:27:52Z</time>
      </trkpt>
      <trkpt lat="45.59595" lon="6.71721">
        <ele>1703</ele>
        <time>2021-02-13T12:27:53Z</time>
      </trkpt>
      <trkpt lat="45.59594" lon="6.71725">
        <ele>1703</ele>
        <time>2021-02-13T12:27:54Z</time>
      </trkpt>
      <trkpt lat="45.59593" lon="6.71728">
        <ele>1703</ele>
        <time>2021-02-13T12:27:55Z</time>
      </trkpt>
      <trkpt lat="45.59592" lon="6.71732">
        <ele>1703</ele>
        <time>2021-02-13T12:27:56Z</time>
      </trkpt>
      <trkpt lat="45.59591" lon="6.71735">
        <ele>1691</ele>
        <time>2021-02-13T12:27:57Z</time>
      </trkpt>
      <trkpt lat="45.59586" lon="6.71738">
        <ele>1691</ele>
        <time>2021-02-13T12:27:58Z</time>
      </trkpt>
      <trkpt lat="45.59583" lon="6.71739">
        <ele>1691</ele>
        <time>2021-02-13T12:27:59Z</time>
      </trkpt>
      <trkpt lat="45.5958" lon="6.71739">
        <ele>1691</ele>
        <time>2021-02-13T12:28:00Z</time>
      </trkpt>
      <trkpt lat="45.59577" lon="6.7174">
        <ele>1691</ele>
        <time>2021-02-13T12:28:01Z</time>
      </trkpt>
      <trkpt lat="45.59574" lon="6.71741">
        <ele>1691</ele>
        <time>2021-02-13T12:28:02Z</time>
      </trkpt>
      <trkpt lat="45.59571" lon="6.71741">
        <ele>1691</ele>
        <time>2021-02-13T12:28:03Z</time>
      </trkpt>
      <trkpt lat="45.59568" lon="6.71742">
        <ele>1691</ele>
        <time>2021-02-13T12:28:04Z</time>
      </trkpt>
      <trkpt lat="45.59565" lon="6.71742">
        <ele>1691</ele>
        <time>2021-02-13T12:28:05Z</time>
      </trkpt>
      <trkpt lat="45.59562" lon="6.71743">
        <ele>1691</ele>
        <time>2021-02-13T12:28:06Z</time>
      </trkpt>
      <trkpt lat="45.59559" lon="6.71744">
        <ele>1680</ele>
        <time>2021-02-13T12:28:07Z</time>
      </trkpt>
      <trkpt lat="45.59552" lon="6.71747">
        <ele>1680</ele>
        <time>2021-02-13T12:28:08Z</time>
      </trkpt>
      <trkpt lat="45.59548" lon="6.7175">
        <ele>1680</ele>
        <time>2021-02-13T12:28:09Z</time>
      </trkpt>
      <trkpt lat="45.59545" lon="6.71753">
        <ele>1680</ele>
        <time>2021-02-13T12:28:10Z</time>
      </trkpt>
      <trkpt lat="45.59542" lon="6.71756">
        <ele>1680</ele>
        <time>2021-02-13T12:28:11Z</time>
      </trkpt>
      <trkpt lat="45.59538" lon="6.71759">
        <ele>1680</ele>
        <time>2021-02-13T12:28:12Z</time>
      </trkpt>
      <trkpt lat="45.59535" lon="6.71762">
        <ele>1680</ele>
        <time>2021-02-13T12:28:13Z</time>
      </trkpt>
      <trkpt lat="45.59532" lon="6.71765">
        <ele>1680</ele>
        <time>2021-02-13T12:28:14Z</time>
      </trkpt>
      <trkpt lat="45.59528" lon="6.71769">
        <ele>1680</ele>
        <time>2021-02-13T12:28:15Z</time>
      </trkpt>
      <trkpt lat="45.59525" lon="6.71772">
        <ele>1672</ele>
        <time>2021-02-13T12:28:17Z</time>
      </trkpt>
      <trkpt lat="45.5952" lon="6.7178">
        <ele>1672</ele>
        <time>2021-02-13T12:28:18Z</time>
      </trkpt>
      <trkpt lat="45.59517" lon="6.71784">
        <ele>1672</ele>
        <time>2021-02-13T12:28:19Z</time>
      </trkpt>
      <trkpt lat="45.59515" lon="6.71788">
        <ele>1672</ele>
        <time>2021-02-13T12:28:20Z</time>
      </trkpt>
      <trkpt lat="45.59512" lon="6.71792">
        <ele>1672</ele>
        <time>2021-02-13T12:28:21Z</time>
      </trkpt>
      <trkpt lat="45.5951" lon="6.71796">
        <ele>1672</ele>
        <time>2021-02-13T12:28:23Z</time>
      </trkpt>
      <trkpt lat="45.59507" lon="6.718">
        <ele>1672</ele>
        <time>2021-02-13T12:28:24Z</time>
      </trkpt>
      <trkpt lat="45.59504" lon="6.71804">
        <ele>1672</ele>
        <time>2021-02-13T12:28:25Z</time>
      </trkpt>
      <trkpt lat="45.59502" lon="6.71808">
        <ele>1672</ele>
        <time>2021-02-13T12:28:26Z</time>
      </trkpt>
      <trkpt lat="45.59499" lon="6.71812">
        <ele>1658</ele>
        <time>2021-02-13T12:28:27Z</time>
      </trkpt>
      <trkpt lat="45.59498" lon="6.71822">
        <ele>1658</ele>
        <time>2021-02-13T12:28:29Z</time>
      </trkpt>
      <trkpt lat="45.59498" lon="6.71824">
        <ele>1658</ele>
        <time>2021-02-13T12:28:31Z</time>
      </trkpt>
      <trkpt lat="45.59499" lon="6.71825">
        <ele>1658</ele>
        <time>2021-02-13T12:28:32Z</time>
      </trkpt>
      <trkpt lat="45.595" lon="6.71826">
        <ele>1658</ele>
        <time>2021-02-13T12:28:33Z</time>
      </trkpt>
      <trkpt lat="45.59501" lon="6.71828">
        <ele>1658</ele>
        <time>2021-02-13T12:28:35Z</time>
      </trkpt>
      <trkpt lat="45.59502" lon="6.71829">
        <ele>1658</ele>
        <time>2021-02-13T12:28:36Z</time>
      </trkpt>
      <trkpt lat="45.59503" lon="6.7183">
        <ele>1652</ele>
        <time>2021-02-13T12:28:37Z</time>
      </trkpt>
      <trkpt lat="45.595" lon="6.71831">
        <ele>1652</ele>
        <time>2021-02-13T12:28:38Z</time>
      </trkpt>
      <trkpt lat="45.59497" lon="6.71832">
        <ele>1652</ele>
        <time>2021-02-13T12:28:39Z</time>
      </trkpt>
      <trkpt lat="45.59497" lon="6.71832">
        <ele>1651</ele>
        <time>2021-02-13T12:28:47Z</time>
      </trkpt>
      <trkpt lat="45.59497" lon="6.71832">
        <ele>1651</ele>
        <time>2021-02-13T12:28:57Z</time>
      </trkpt>
      <trkpt lat="45.59497" lon="6.71832">
        <ele>1651</ele>
        <time>2021-02-13T12:29:07Z</time>
      </trkpt>
      <trkpt lat="45.59495" lon="6.71831">
        <ele>1651</ele>
        <time>2021-02-13T12:29:13Z</time>
      </trkpt>
      <trkpt lat="45.59492" lon="6.71827">
        <ele>1651</ele>
        <time>2021-02-13T12:29:15Z</time>
      </trkpt>
      <trkpt lat="45.59492" lon="6.71827">
        <ele>1651</ele>
        <time>2021-02-13T12:29:17Z</time>
      </trkpt>
      <trkpt lat="45.59492" lon="6.71827">
        <ele>1650</ele>
        <time>2021-02-13T12:29:27Z</time>
      </trkpt>
      <trkpt lat="45.59491" lon="6.71828">
        <ele>1650</ele>
        <time>2021-02-13T12:29:31Z</time>
      </trkpt>
      <trkpt lat="45.5949" lon="6.71828">
        <ele>1650</ele>
        <time>2021-02-13T12:29:37Z</time>
      </trkpt>
      <trkpt lat="45.5949" lon="6.71828">
        <ele>1650</ele>
        <time>2021-02-13T12:29:47Z</time>
      </trkpt>
      <trkpt lat="45.59489" lon="6.71829">
        <ele>1649</ele>
        <time>2021-02-13T12:29:58Z</time>
      </trkpt>
      <trkpt lat="45.59488" lon="6.71829">
        <ele>1649</ele>
        <time>2021-02-13T12:30:07Z</time>
      </trkpt>
      <trkpt lat="45.59488" lon="6.7183">
        <ele>1649</ele>
        <time>2021-02-13T12:30:17Z</time>
      </trkpt>
      <trkpt lat="45.59487" lon="6.7183">
        <ele>1649</ele>
        <time>2021-02-13T12:30:27Z</time>
      </trkpt>
      <trkpt lat="45.59486" lon="6.7183">
        <ele>1649</ele>
        <time>2021-02-13T12:30:35Z</time>
      </trkpt>
      <trkpt lat="45.59485" lon="6.71831">
        <ele>1649</ele>
        <time>2021-02-13T12:30:36Z</time>
      </trkpt>
      <trkpt lat="45.59485" lon="6.71831">
        <ele>1649</ele>
        <time>2021-02-13T12:30:37Z</time>
      </trkpt>
      <trkpt lat="45.59485" lon="6.71836">
        <ele>1649</ele>
        <time>2021-02-13T12:30:38Z</time>
      </trkpt>
      <trkpt lat="45.59486" lon="6.71841">
        <ele>1649</ele>
        <time>2021-02-13T12:30:39Z</time>
      </trkpt>
      <trkpt lat="45.59488" lon="6.71846">
        <ele>1649</ele>
        <time>2021-02-13T12:30:40Z</time>
      </trkpt>
      <trkpt lat="45.59489" lon="6.71851">
        <ele>1649</ele>
        <time>2021-02-13T12:30:41Z</time>
      </trkpt>
      <trkpt lat="45.59487" lon="6.71856">
        <ele>1649</ele>
        <time>2021-02-13T12:30:42Z</time>
      </trkpt>
      <trkpt lat="45.59485" lon="6.71857">
        <ele>1649</ele>
        <time>2021-02-13T12:30:43Z</time>
      </trkpt>
      <trkpt lat="45.59485" lon="6.71857">
        <ele>1647</ele>
        <time>2021-02-13T12:30:47Z</time>
      </trkpt>
      <trkpt lat="45.59483" lon="6.71861">
        <ele>1645</ele>
        <time>2021-02-13T12:30:57Z</time>
      </trkpt>
      <trkpt lat="45.59482" lon="6.71865">
        <ele>1644</ele>
        <time>2021-02-13T12:31:07Z</time>
      </trkpt>
      <trkpt lat="45.5948" lon="6.71868">
        <ele>1644</ele>
        <time>2021-02-13T12:31:17Z</time>
      </trkpt>
      <trkpt lat="45.59478" lon="6.71872">
        <ele>1645</ele>
        <time>2021-02-13T12:31:27Z</time>
      </trkpt>
      <trkpt lat="45.59476" lon="6.71875">
        <ele>1645</ele>
        <time>2021-02-13T12:31:28Z</time>
      </trkpt>
      <trkpt lat="45.59475" lon="6.71879">
        <ele>1645</ele>
        <time>2021-02-13T12:31:30Z</time>
      </trkpt>
      <trkpt lat="45.59473" lon="6.71882">
        <ele>1645</ele>
        <time>2021-02-13T12:31:31Z</time>
      </trkpt>
      <trkpt lat="45.59471" lon="6.71886">
        <ele>1645</ele>
        <time>2021-02-13T12:31:32Z</time>
      </trkpt>
      <trkpt lat="45.59469" lon="6.71889">
        <ele>1645</ele>
        <time>2021-02-13T12:31:33Z</time>
      </trkpt>
      <trkpt lat="45.59467" lon="6.71893">
        <ele>1645</ele>
        <time>2021-02-13T12:31:34Z</time>
      </trkpt>
      <trkpt lat="45.59466" lon="6.71897">
        <ele>1645</ele>
        <time>2021-02-13T12:31:35Z</time>
      </trkpt>
      <trkpt lat="45.59464" lon="6.719">
        <ele>1645</ele>
        <time>2021-02-13T12:31:36Z</time>
      </trkpt>
      <trkpt lat="45.59462" lon="6.71904">
        <ele>1644</ele>
        <time>2021-02-13T12:31:37Z</time>
      </trkpt>
      <trkpt lat="45.59458" lon="6.71911">
        <ele>1644</ele>
        <time>2021-02-13T12:31:38Z</time>
      </trkpt>
      <trkpt lat="45.59457" lon="6.71914">
        <ele>1644</ele>
        <time>2021-02-13T12:31:39Z</time>
      </trkpt>
      <trkpt lat="45.59456" lon="6.71917">
        <ele>1644</ele>
        <time>2021-02-13T12:31:40Z</time>
      </trkpt>
      <trkpt lat="45.59455" lon="6.7192">
        <ele>1644</ele>
        <time>2021-02-13T12:31:41Z</time>
      </trkpt>
      <trkpt lat="45.59454" lon="6.71923">
        <ele>1644</ele>
        <time>2021-02-13T12:31:42Z</time>
      </trkpt>
      <trkpt lat="45.59453" lon="6.71926">
        <ele>1644</ele>
        <time>2021-02-13T12:31:43Z</time>
      </trkpt>
      <trkpt lat="45.59452" lon="6.71929">
        <ele>1644</ele>
        <time>2021-02-13T12:31:44Z</time>
      </trkpt>
      <trkpt lat="45.59452" lon="6.71932">
        <ele>1644</ele>
        <time>2021-02-13T12:31:45Z</time>
      </trkpt>
      <trkpt lat="45.59451" lon="6.71935">
        <ele>1644</ele>
        <time>2021-02-13T12:31:46Z</time>
      </trkpt>
      <trkpt lat="45.5945" lon="6.71938">
        <ele>1625</ele>
        <time>2021-02-13T12:31:47Z</time>
      </trkpt>
      <trkpt lat="45.59447" lon="6.71948">
        <ele>1625</ele>
        <time>2021-02-13T12:31:48Z</time>
      </trkpt>
      <trkpt lat="45.59444" lon="6.71954">
        <ele>1625</ele>
        <time>2021-02-13T12:31:49Z</time>
      </trkpt>
      <trkpt lat="45.59442" lon="6.71959">
        <ele>1625</ele>
        <time>2021-02-13T12:31:50Z</time>
      </trkpt>
      <trkpt lat="45.59439" lon="6.71965">
        <ele>1625</ele>
        <time>2021-02-13T12:31:51Z</time>
      </trkpt>
      <trkpt lat="45.59437" lon="6.71971">
        <ele>1625</ele>
        <time>2021-02-13T12:31:52Z</time>
      </trkpt>
      <trkpt lat="45.59434" lon="6.71977">
        <ele>1625</ele>
        <time>2021-02-13T12:31:53Z</time>
      </trkpt>
      <trkpt lat="45.59432" lon="6.71983">
        <ele>1625</ele>
        <time>2021-02-13T12:31:54Z</time>
      </trkpt>
      <trkpt lat="45.59429" lon="6.71988">
        <ele>1625</ele>
        <time>2021-02-13T12:31:55Z</time>
      </trkpt>
      <trkpt lat="45.59427" lon="6.71994">
        <ele>1625</ele>
        <time>2021-02-13T12:31:56Z</time>
      </trkpt>
      <trkpt lat="45.59424" lon="6.72">
        <ele>1606</ele>
        <time>2021-02-13T12:31:57Z</time>
      </trkpt>
      <trkpt lat="45.59419" lon="6.72006">
        <ele>1606</ele>
        <time>2021-02-13T12:31:58Z</time>
      </trkpt>
      <trkpt lat="45.59418" lon="6.72008">
        <ele>1606</ele>
        <time>2021-02-13T12:31:59Z</time>
      </trkpt>
      <trkpt lat="45.59416" lon="6.72011">
        <ele>1606</ele>
        <time>2021-02-13T12:32:01Z</time>
      </trkpt>
      <trkpt lat="45.59415" lon="6.72013">
        <ele>1606</ele>
        <time>2021-02-13T12:32:02Z</time>
      </trkpt>
      <trkpt lat="45.59413" lon="6.72015">
        <ele>1606</ele>
        <time>2021-02-13T12:32:03Z</time>
      </trkpt>
      <trkpt lat="45.59411" lon="6.72017">
        <ele>1606</ele>
        <time>2021-02-13T12:32:04Z</time>
      </trkpt>
      <trkpt lat="45.5941" lon="6.7202">
        <ele>1606</ele>
        <time>2021-02-13T12:32:05Z</time>
      </trkpt>
      <trkpt lat="45.59408" lon="6.72022">
        <ele>1606</ele>
        <time>2021-02-13T12:32:06Z</time>
      </trkpt>
      <trkpt lat="45.59407" lon="6.72024">
        <ele>1592</ele>
        <time>2021-02-13T12:32:07Z</time>
      </trkpt>
      <trkpt lat="45.59405" lon="6.72024">
        <ele>1592</ele>
        <time>2021-02-13T12:32:12Z</time>
      </trkpt>
      <trkpt lat="45.59406" lon="6.72021">
        <ele>1590</ele>
        <time>2021-02-13T12:32:17Z</time>
      </trkpt>
      <trkpt lat="45.59408" lon="6.7202">
        <ele>1590</ele>
        <time>2021-02-13T12:32:24Z</time>
      </trkpt>
      <trkpt lat="45.59408" lon="6.7202">
        <ele>1590</ele>
        <time>2021-02-13T12:32:27Z</time>
      </trkpt>
      <trkpt lat="45.59408" lon="6.7202">
        <ele>1591</ele>
        <time>2021-02-13T12:32:37Z</time>
      </trkpt>
      <trkpt lat="45.59408" lon="6.7202">
        <ele>1591</ele>
        <time>2021-02-13T12:32:47Z</time>
      </trkpt>
      <trkpt lat="45.5941" lon="6.7202">
        <ele>1591</ele>
        <time>2021-02-13T12:32:56Z</time>
      </trkpt>
      <trkpt lat="45.5941" lon="6.7202">
        <ele>1590</ele>
        <time>2021-02-13T12:32:57Z</time>
      </trkpt>
      <trkpt lat="45.59409" lon="6.72022">
        <ele>1590</ele>
        <time>2021-02-13T12:33:08Z</time>
      </trkpt>
      <trkpt lat="45.59407" lon="6.72024">
        <ele>1590</ele>
        <time>2021-02-13T12:33:17Z</time>
      </trkpt>
      <trkpt lat="45.59406" lon="6.72027">
        <ele>1590</ele>
        <time>2021-02-13T12:33:27Z</time>
      </trkpt>
      <trkpt lat="45.59405" lon="6.72029">
        <ele>1590</ele>
        <time>2021-02-13T12:33:37Z</time>
      </trkpt>
      <trkpt lat="45.59404" lon="6.72031">
        <ele>1591</ele>
        <time>2021-02-13T12:33:47Z</time>
      </trkpt>
      <trkpt lat="45.59403" lon="6.72033">
        <ele>1591</ele>
        <time>2021-02-13T12:33:53Z</time>
      </trkpt>
      <trkpt lat="45.59402" lon="6.72036">
        <ele>1591</ele>
        <time>2021-02-13T12:33:54Z</time>
      </trkpt>
      <trkpt lat="45.59401" lon="6.72038">
        <ele>1591</ele>
        <time>2021-02-13T12:33:55Z</time>
      </trkpt>
      <trkpt lat="45.59399" lon="6.7204">
        <ele>1591</ele>
        <time>2021-02-13T12:33:56Z</time>
      </trkpt>
      <trkpt lat="45.59398" lon="6.72043">
        <ele>1591</ele>
        <time>2021-02-13T12:33:57Z</time>
      </trkpt>
      <trkpt lat="45.59397" lon="6.72045">
        <ele>1591</ele>
        <time>2021-02-13T12:33:58Z</time>
      </trkpt>
      <trkpt lat="45.59394" lon="6.7205">
        <ele>1591</ele>
        <time>2021-02-13T12:33:59Z</time>
      </trkpt>
      <trkpt lat="45.59393" lon="6.72053">
        <ele>1591</ele>
        <time>2021-02-13T12:34:00Z</time>
      </trkpt>
      <trkpt lat="45.59393" lon="6.72055">
        <ele>1591</ele>
        <time>2021-02-13T12:34:01Z</time>
      </trkpt>
      <trkpt lat="45.59393" lon="6.72058">
        <ele>1591</ele>
        <time>2021-02-13T12:34:02Z</time>
      </trkpt>
      <trkpt lat="45.59393" lon="6.72061">
        <ele>1591</ele>
        <time>2021-02-13T12:34:03Z</time>
      </trkpt>
      <trkpt lat="45.59393" lon="6.72063">
        <ele>1591</ele>
        <time>2021-02-13T12:34:04Z</time>
      </trkpt>
      <trkpt lat="45.59392" lon="6.72066">
        <ele>1591</ele>
        <time>2021-02-13T12:34:05Z</time>
      </trkpt>
      <trkpt lat="45.59392" lon="6.72068">
        <ele>1591</ele>
        <time>2021-02-13T12:34:06Z</time>
      </trkpt>
      <trkpt lat="45.59392" lon="6.72071">
        <ele>1579</ele>
        <time>2021-02-13T12:34:07Z</time>
      </trkpt>
      <trkpt lat="45.59386" lon="6.72072">
        <ele>1579</ele>
        <time>2021-02-13T12:34:08Z</time>
      </trkpt>
      <trkpt lat="45.59383" lon="6.72074">
        <ele>1579</ele>
        <time>2021-02-13T12:34:09Z</time>
      </trkpt>
      <trkpt lat="45.5938" lon="6.72076">
        <ele>1579</ele>
        <time>2021-02-13T12:34:10Z</time>
      </trkpt>
      <trkpt lat="45.59377" lon="6.72078">
        <ele>1579</ele>
        <time>2021-02-13T12:34:11Z</time>
      </trkpt>
      <trkpt lat="45.59375" lon="6.7208">
        <ele>1579</ele>
        <time>2021-02-13T12:34:12Z</time>
      </trkpt>
      <trkpt lat="45.59372" lon="6.72082">
        <ele>1579</ele>
        <time>2021-02-13T12:34:13Z</time>
      </trkpt>
      <trkpt lat="45.59369" lon="6.72084">
        <ele>1579</ele>
        <time>2021-02-13T12:34:14Z</time>
      </trkpt>
      <trkpt lat="45.59366" lon="6.72086">
        <ele>1579</ele>
        <time>2021-02-13T12:34:15Z</time>
      </trkpt>
      <trkpt lat="45.59364" lon="6.72088">
        <ele>1579</ele>
        <time>2021-02-13T12:34:16Z</time>
      </trkpt>
      <trkpt lat="45.59361" lon="6.7209">
        <ele>1579</ele>
        <time>2021-02-13T12:34:17Z</time>
      </trkpt>
      <trkpt lat="45.59355" lon="6.72092">
        <ele>1579</ele>
        <time>2021-02-13T12:34:18Z</time>
      </trkpt>
      <trkpt lat="45.59352" lon="6.72091">
        <ele>1579</ele>
        <time>2021-02-13T12:34:19Z</time>
      </trkpt>
      <trkpt lat="45.59349" lon="6.72091">
        <ele>1579</ele>
        <time>2021-02-13T12:34:20Z</time>
      </trkpt>
      <trkpt lat="45.59346" lon="6.72091">
        <ele>1579</ele>
        <time>2021-02-13T12:34:21Z</time>
      </trkpt>
      <trkpt lat="45.59343" lon="6.7209">
        <ele>1579</ele>
        <time>2021-02-13T12:34:22Z</time>
      </trkpt>
      <trkpt lat="45.5934" lon="6.7209">
        <ele>1579</ele>
        <time>2021-02-13T12:34:23Z</time>
      </trkpt>
      <trkpt lat="45.59337" lon="6.7209">
        <ele>1579</ele>
        <time>2021-02-13T12:34:24Z</time>
      </trkpt>
      <trkpt lat="45.59334" lon="6.7209">
        <ele>1579</ele>
        <time>2021-02-13T12:34:25Z</time>
      </trkpt>
      <trkpt lat="45.59331" lon="6.72089">
        <ele>1579</ele>
        <time>2021-02-13T12:34:26Z</time>
      </trkpt>
      <trkpt lat="45.59328" lon="6.72089">
        <ele>1559</ele>
        <time>2021-02-13T12:34:27Z</time>
      </trkpt>
      <trkpt lat="45.59321" lon="6.72084">
        <ele>1559</ele>
        <time>2021-02-13T12:34:28Z</time>
      </trkpt>
      <trkpt lat="45.59319" lon="6.72082">
        <ele>1559</ele>
        <time>2021-02-13T12:34:29Z</time>
      </trkpt>
      <trkpt lat="45.59316" lon="6.7208">
        <ele>1559</ele>
        <time>2021-02-13T12:34:30Z</time>
      </trkpt>
      <trkpt lat="45.59314" lon="6.72078">
        <ele>1559</ele>
        <time>2021-02-13T12:34:31Z</time>
      </trkpt>
      <trkpt lat="45.59311" lon="6.72076">
        <ele>1559</ele>
        <time>2021-02-13T12:34:32Z</time>
      </trkpt>
      <trkpt lat="45.59309" lon="6.72074">
        <ele>1559</ele>
        <time>2021-02-13T12:34:33Z</time>
      </trkpt>
      <trkpt lat="45.59306" lon="6.72072">
        <ele>1559</ele>
        <time>2021-02-13T12:34:34Z</time>
      </trkpt>
      <trkpt lat="45.59304" lon="6.7207">
        <ele>1559</ele>
        <time>2021-02-13T12:34:35Z</time>
      </trkpt>
      <trkpt lat="45.59301" lon="6.72068">
        <ele>1559</ele>
        <time>2021-02-13T12:34:36Z</time>
      </trkpt>
      <trkpt lat="45.59299" lon="6.72066">
        <ele>1554</ele>
        <time>2021-02-13T12:34:37Z</time>
      </trkpt>
      <trkpt lat="45.59295" lon="6.72061">
        <ele>1554</ele>
        <time>2021-02-13T12:34:38Z</time>
      </trkpt>
      <trkpt lat="45.59293" lon="6.72059">
        <ele>1554</ele>
        <time>2021-02-13T12:34:39Z</time>
      </trkpt>
      <trkpt lat="45.59291" lon="6.72058">
        <ele>1554</ele>
        <time>2021-02-13T12:34:40Z</time>
      </trkpt>
      <trkpt lat="45.59289" lon="6.72056">
        <ele>1554</ele>
        <time>2021-02-13T12:34:41Z</time>
      </trkpt>
      <trkpt lat="45.59288" lon="6.72054">
        <ele>1554</ele>
        <time>2021-02-13T12:34:42Z</time>
      </trkpt>
      <trkpt lat="45.59286" lon="6.72052">
        <ele>1554</ele>
        <time>2021-02-13T12:34:43Z</time>
      </trkpt>
      <trkpt lat="45.59284" lon="6.7205">
        <ele>1554</ele>
        <time>2021-02-13T12:34:44Z</time>
      </trkpt>
      <trkpt lat="45.59282" lon="6.72048">
        <ele>1554</ele>
        <time>2021-02-13T12:34:46Z</time>
      </trkpt>
      <trkpt lat="45.5928" lon="6.72046">
        <ele>1550</ele>
        <time>2021-02-13T12:34:47Z</time>
      </trkpt>
      <trkpt lat="45.59279" lon="6.72049">
        <ele>1548</ele>
        <time>2021-02-13T12:34:57Z</time>
      </trkpt>
      <trkpt lat="45.59279" lon="6.72051">
        <ele>1549</ele>
        <time>2021-02-13T12:35:07Z</time>
      </trkpt>
      <trkpt lat="45.59278" lon="6.72053">
        <ele>1549</ele>
        <time>2021-02-13T12:35:17Z</time>
      </trkpt>
      <trkpt lat="45.59277" lon="6.72056">
        <ele>1549</ele>
        <time>2021-02-13T12:35:25Z</time>
      </trkpt>
      <trkpt lat="45.59276" lon="6.72058">
        <ele>1549</ele>
        <time>2021-02-13T12:35:26Z</time>
      </trkpt>
      <trkpt lat="45.59275" lon="6.7206">
        <ele>1548</ele>
        <time>2021-02-13T12:35:27Z</time>
      </trkpt>
      <trkpt lat="45.59271" lon="6.72068">
        <ele>1548</ele>
        <time>2021-02-13T12:35:28Z</time>
      </trkpt>
      <trkpt lat="45.59267" lon="6.72071">
        <ele>1548</ele>
        <time>2021-02-13T12:35:29Z</time>
      </trkpt>
      <trkpt lat="45.59264" lon="6.72073">
        <ele>1548</ele>
        <time>2021-02-13T12:35:30Z</time>
      </trkpt>
      <trkpt lat="45.59261" lon="6.72076">
        <ele>1548</ele>
        <time>2021-02-13T12:35:31Z</time>
      </trkpt>
      <trkpt lat="45.59258" lon="6.72078">
        <ele>1548</ele>
        <time>2021-02-13T12:35:32Z</time>
      </trkpt>
      <trkpt lat="45.59255" lon="6.7208">
        <ele>1548</ele>
        <time>2021-02-13T12:35:33Z</time>
      </trkpt>
      <trkpt lat="45.59252" lon="6.72083">
        <ele>1548</ele>
        <time>2021-02-13T12:35:34Z</time>
      </trkpt>
      <trkpt lat="45.59249" lon="6.72085">
        <ele>1548</ele>
        <time>2021-02-13T12:35:35Z</time>
      </trkpt>
      <trkpt lat="45.59245" lon="6.72087">
        <ele>1548</ele>
        <time>2021-02-13T12:35:36Z</time>
      </trkpt>
      <trkpt lat="45.59242" lon="6.7209">
        <ele>1532</ele>
        <time>2021-02-13T12:35:37Z</time>
      </trkpt>
      <trkpt lat="45.59237" lon="6.72093">
        <ele>1532</ele>
        <time>2021-02-13T12:35:38Z</time>
      </trkpt>
      <trkpt lat="45.59235" lon="6.72096">
        <ele>1532</ele>
        <time>2021-02-13T12:35:39Z</time>
      </trkpt>
      <trkpt lat="45.59233" lon="6.72098">
        <ele>1532</ele>
        <time>2021-02-13T12:35:40Z</time>
      </trkpt>
      <trkpt lat="45.59232" lon="6.721">
        <ele>1532</ele>
        <time>2021-02-13T12:35:41Z</time>
      </trkpt>
      <trkpt lat="45.5923" lon="6.72102">
        <ele>1532</ele>
        <time>2021-02-13T12:35:42Z</time>
      </trkpt>
      <trkpt lat="45.59228" lon="6.72104">
        <ele>1532</ele>
        <time>2021-02-13T12:35:43Z</time>
      </trkpt>
      <trkpt lat="45.59226" lon="6.72106">
        <ele>1532</ele>
        <time>2021-02-13T12:35:44Z</time>
      </trkpt>
      <trkpt lat="45.59224" lon="6.72108">
        <ele>1532</ele>
        <time>2021-02-13T12:35:45Z</time>
      </trkpt>
      <trkpt lat="45.59223" lon="6.72111">
        <ele>1532</ele>
        <time>2021-02-13T12:35:46Z</time>
      </trkpt>
      <trkpt lat="45.59221" lon="6.72113">
        <ele>1516</ele>
        <time>2021-02-13T12:35:47Z</time>
      </trkpt>
      <trkpt lat="45.59218" lon="6.72114">
        <ele>1516</ele>
        <time>2021-02-13T12:35:48Z</time>
      </trkpt>
      <trkpt lat="45.59217" lon="6.72113">
        <ele>1516</ele>
        <time>2021-02-13T12:35:49Z</time>
      </trkpt>
      <trkpt lat="45.59216" lon="6.72113">
        <ele>1516</ele>
        <time>2021-02-13T12:35:50Z</time>
      </trkpt>
      <trkpt lat="45.59215" lon="6.72112">
        <ele>1512</ele>
        <time>2021-02-13T12:35:57Z</time>
      </trkpt>
      <trkpt lat="45.59214" lon="6.72112">
        <ele>1512</ele>
        <time>2021-02-13T12:36:07Z</time>
      </trkpt>
      <trkpt lat="45.59213" lon="6.72111">
        <ele>1512</ele>
        <time>2021-02-13T12:36:18Z</time>
      </trkpt>
      <trkpt lat="45.59212" lon="6.72111">
        <ele>1511</ele>
        <time>2021-02-13T12:36:27Z</time>
      </trkpt>
      <trkpt lat="45.5921" lon="6.7211">
        <ele>1511</ele>
        <time>2021-02-13T12:36:37Z</time>
      </trkpt>
      <trkpt lat="45.59209" lon="6.7211">
        <ele>1511</ele>
        <time>2021-02-13T12:36:47Z</time>
      </trkpt>
      <trkpt lat="45.59208" lon="6.72109">
        <ele>1511</ele>
        <time>2021-02-13T12:36:57Z</time>
      </trkpt>
      <trkpt lat="45.59207" lon="6.72108">
        <ele>1511</ele>
        <time>2021-02-13T12:37:07Z</time>
      </trkpt>
      <trkpt lat="45.59206" lon="6.72108">
        <ele>1511</ele>
        <time>2021-02-13T12:37:17Z</time>
      </trkpt>
      <trkpt lat="45.59205" lon="6.72107">
        <ele>1511</ele>
        <time>2021-02-13T12:37:18Z</time>
      </trkpt>
      <trkpt lat="45.59204" lon="6.72107">
        <ele>1511</ele>
        <time>2021-02-13T12:37:21Z</time>
      </trkpt>
      <trkpt lat="45.59203" lon="6.72106">
        <ele>1511</ele>
        <time>2021-02-13T12:37:22Z</time>
      </trkpt>
      <trkpt lat="45.59202" lon="6.72106">
        <ele>1511</ele>
        <time>2021-02-13T12:37:23Z</time>
      </trkpt>
      <trkpt lat="45.592" lon="6.72105">
        <ele>1511</ele>
        <time>2021-02-13T12:37:24Z</time>
      </trkpt>
      <trkpt lat="45.59199" lon="6.72105">
        <ele>1511</ele>
        <time>2021-02-13T12:37:25Z</time>
      </trkpt>
      <trkpt lat="45.59198" lon="6.72104">
        <ele>1511</ele>
        <time>2021-02-13T12:37:26Z</time>
      </trkpt>
      <trkpt lat="45.59197" lon="6.72104">
        <ele>1511</ele>
        <time>2021-02-13T12:37:27Z</time>
      </trkpt>
      <trkpt lat="45.59186" lon="6.72095">
        <ele>1511</ele>
        <time>2021-02-13T12:37:28Z</time>
      </trkpt>
      <trkpt lat="45.5918" lon="6.72091">
        <ele>1511</ele>
        <time>2021-02-13T12:37:30Z</time>
      </trkpt>
      <trkpt lat="45.59174" lon="6.72088">
        <ele>1511</ele>
        <time>2021-02-13T12:37:31Z</time>
      </trkpt>
      <trkpt lat="45.59168" lon="6.72084">
        <ele>1511</ele>
        <time>2021-02-13T12:37:32Z</time>
      </trkpt>
      <trkpt lat="45.59162" lon="6.7208">
        <ele>1511</ele>
        <time>2021-02-13T12:37:34Z</time>
      </trkpt>
      <trkpt lat="45.59155" lon="6.72076">
        <ele>1511</ele>
        <time>2021-02-13T12:37:35Z</time>
      </trkpt>
      <trkpt lat="45.59149" lon="6.72072">
        <ele>1511</ele>
        <time>2021-02-13T12:37:36Z</time>
      </trkpt>
      <trkpt lat="45.59143" lon="6.72068">
        <ele>1498</ele>
        <time>2021-02-13T12:37:37Z</time>
      </trkpt>
      <trkpt lat="45.59135" lon="6.72063">
        <ele>1498</ele>
        <time>2021-02-13T12:37:38Z</time>
      </trkpt>
      <trkpt lat="45.59132" lon="6.7206">
        <ele>1498</ele>
        <time>2021-02-13T12:37:39Z</time>
      </trkpt>
      <trkpt lat="45.59129" lon="6.72057">
        <ele>1498</ele>
        <time>2021-02-13T12:37:40Z</time>
      </trkpt>
      <trkpt lat="45.59127" lon="6.72054">
        <ele>1498</ele>
        <time>2021-02-13T12:37:41Z</time>
      </trkpt>
      <trkpt lat="45.59124" lon="6.72052">
        <ele>1498</ele>
        <time>2021-02-13T12:37:42Z</time>
      </trkpt>
      <trkpt lat="45.59121" lon="6.72049">
        <ele>1498</ele>
        <time>2021-02-13T12:37:43Z</time>
      </trkpt>
      <trkpt lat="45.59118" lon="6.72046">
        <ele>1498</ele>
        <time>2021-02-13T12:37:44Z</time>
      </trkpt>
      <trkpt lat="45.59116" lon="6.72043">
        <ele>1498</ele>
        <time>2021-02-13T12:37:45Z</time>
      </trkpt>
      <trkpt lat="45.59113" lon="6.72041">
        <ele>1498</ele>
        <time>2021-02-13T12:37:46Z</time>
      </trkpt>
      <trkpt lat="45.5911" lon="6.72038">
        <ele>1488</ele>
        <time>2021-02-13T12:37:47Z</time>
      </trkpt>
      <trkpt lat="45.59108" lon="6.72036">
        <ele>1488</ele>
        <time>2021-02-13T12:37:48Z</time>
      </trkpt>
      <trkpt lat="45.59106" lon="6.72033">
        <ele>1488</ele>
        <time>2021-02-13T12:37:49Z</time>
      </trkpt>
      <trkpt lat="45.59104" lon="6.72029">
        <ele>1488</ele>
        <time>2021-02-13T12:37:50Z</time>
      </trkpt>
      <trkpt lat="45.59103" lon="6.72025">
        <ele>1488</ele>
        <time>2021-02-13T12:37:51Z</time>
      </trkpt>
      <trkpt lat="45.591" lon="6.72023">
        <ele>1488</ele>
        <time>2021-02-13T12:37:52Z</time>
      </trkpt>
      <trkpt lat="45.59097" lon="6.72023">
        <ele>1488</ele>
        <time>2021-02-13T12:37:53Z</time>
      </trkpt>
      <trkpt lat="45.59095" lon="6.72023">
        <ele>1488</ele>
        <time>2021-02-13T12:37:54Z</time>
      </trkpt>
      <trkpt lat="45.59095" lon="6.72023">
        <ele>1485</ele>
        <time>2021-02-13T12:37:57Z</time>
      </trkpt>
      <trkpt lat="45.59095" lon="6.72023">
        <ele>1484</ele>
        <time>2021-02-13T12:38:07Z</time>
      </trkpt>
      <trkpt lat="45.59092" lon="6.72023">
        <ele>1484</ele>
        <time>2021-02-13T12:38:14Z</time>
      </trkpt>
      <trkpt lat="45.59092" lon="6.72023">
        <ele>1484</ele>
        <time>2021-02-13T12:38:17Z</time>
      </trkpt>
      <trkpt lat="45.59091" lon="6.72019">
        <ele>1484</ele>
        <time>2021-02-13T12:38:26Z</time>
      </trkpt>
      <trkpt lat="45.59091" lon="6.72019">
        <ele>1483</ele>
        <time>2021-02-13T12:38:27Z</time>
      </trkpt>
      <trkpt lat="45.59091" lon="6.72016">
        <ele>1483</ele>
        <time>2021-02-13T12:38:36Z</time>
      </trkpt>
      <trkpt lat="45.59091" lon="6.72016">
        <ele>1483</ele>
        <time>2021-02-13T12:38:37Z</time>
      </trkpt>
      <trkpt lat="45.59089" lon="6.72015">
        <ele>1482</ele>
        <time>2021-02-13T12:38:47Z</time>
      </trkpt>
      <trkpt lat="45.59086" lon="6.72014">
        <ele>1481</ele>
        <time>2021-02-13T12:38:57Z</time>
      </trkpt>
      <trkpt lat="45.59084" lon="6.72013">
        <ele>1481</ele>
        <time>2021-02-13T12:39:07Z</time>
      </trkpt>
      <trkpt lat="45.59081" lon="6.72012">
        <ele>1482</ele>
        <time>2021-02-13T12:39:17Z</time>
      </trkpt>
      <trkpt lat="45.59079" lon="6.7201">
        <ele>1482</ele>
        <time>2021-02-13T12:39:19Z</time>
      </trkpt>
      <trkpt lat="45.59076" lon="6.72009">
        <ele>1482</ele>
        <time>2021-02-13T12:39:20Z</time>
      </trkpt>
      <trkpt lat="45.59074" lon="6.72008">
        <ele>1482</ele>
        <time>2021-02-13T12:39:21Z</time>
      </trkpt>
      <trkpt lat="45.59071" lon="6.72007">
        <ele>1482</ele>
        <time>2021-02-13T12:39:22Z</time>
      </trkpt>
      <trkpt lat="45.59068" lon="6.72006">
        <ele>1482</ele>
        <time>2021-02-13T12:39:23Z</time>
      </trkpt>
      <trkpt lat="45.59066" lon="6.72005">
        <ele>1482</ele>
        <time>2021-02-13T12:39:24Z</time>
      </trkpt>
      <trkpt lat="45.59063" lon="6.72003">
        <ele>1482</ele>
        <time>2021-02-13T12:39:25Z</time>
      </trkpt>
      <trkpt lat="45.59061" lon="6.72002">
        <ele>1482</ele>
        <time>2021-02-13T12:39:26Z</time>
      </trkpt>
      <trkpt lat="45.59058" lon="6.72001">
        <ele>1482</ele>
        <time>2021-02-13T12:39:27Z</time>
      </trkpt>
      <trkpt lat="45.59056" lon="6.72">
        <ele>1481</ele>
        <time>2021-02-13T12:39:28Z</time>
      </trkpt>
      <trkpt lat="45.5905" lon="6.71994">
        <ele>1481</ele>
        <time>2021-02-13T12:39:29Z</time>
      </trkpt>
      <trkpt lat="45.59048" lon="6.71991">
        <ele>1481</ele>
        <time>2021-02-13T12:39:30Z</time>
      </trkpt>
      <trkpt lat="45.59046" lon="6.71988">
        <ele>1481</ele>
        <time>2021-02-13T12:39:31Z</time>
      </trkpt>
      <trkpt lat="45.59044" lon="6.71985">
        <ele>1481</ele>
        <time>2021-02-13T12:39:32Z</time>
      </trkpt>
      <trkpt lat="45.59042" lon="6.71982">
        <ele>1481</ele>
        <time>2021-02-13T12:39:33Z</time>
      </trkpt>
      <trkpt lat="45.5904" lon="6.71979">
        <ele>1481</ele>
        <time>2021-02-13T12:39:34Z</time>
      </trkpt>
      <trkpt lat="45.59038" lon="6.71976">
        <ele>1481</ele>
        <time>2021-02-13T12:39:35Z</time>
      </trkpt>
      <trkpt lat="45.59036" lon="6.71973">
        <ele>1481</ele>
        <time>2021-02-13T12:39:36Z</time>
      </trkpt>
      <trkpt lat="45.59034" lon="6.7197">
        <ele>1472</ele>
        <time>2021-02-13T12:39:37Z</time>
      </trkpt>
      <trkpt lat="45.59028" lon="6.71964">
        <ele>1472</ele>
        <time>2021-02-13T12:39:38Z</time>
      </trkpt>
      <trkpt lat="45.59024" lon="6.7196">
        <ele>1472</ele>
        <time>2021-02-13T12:39:39Z</time>
      </trkpt>
      <trkpt lat="45.59019" lon="6.71956">
        <ele>1472</ele>
        <time>2021-02-13T12:39:40Z</time>
      </trkpt>
      <trkpt lat="45.59015" lon="6.71953">
        <ele>1472</ele>
        <time>2021-02-13T12:39:42Z</time>
      </trkpt>
      <trkpt lat="45.59011" lon="6.71949">
        <ele>1472</ele>
        <time>2021-02-13T12:39:43Z</time>
      </trkpt>
      <trkpt lat="45.59007" lon="6.71945">
        <ele>1472</ele>
        <time>2021-02-13T12:39:44Z</time>
      </trkpt>
      <trkpt lat="45.59003" lon="6.71942">
        <ele>1472</ele>
        <time>2021-02-13T12:39:45Z</time>
      </trkpt>
      <trkpt lat="45.58999" lon="6.71938">
        <ele>1463</ele>
        <time>2021-02-13T12:39:47Z</time>
      </trkpt>
      <trkpt lat="45.58993" lon="6.71933">
        <ele>1463</ele>
        <time>2021-02-13T12:39:48Z</time>
      </trkpt>
      <trkpt lat="45.58992" lon="6.71931">
        <ele>1463</ele>
        <time>2021-02-13T12:39:49Z</time>
      </trkpt>
      <trkpt lat="45.5899" lon="6.71929">
        <ele>1463</ele>
        <time>2021-02-13T12:39:50Z</time>
      </trkpt>
      <trkpt lat="45.58988" lon="6.71927">
        <ele>1458</ele>
        <time>2021-02-13T12:39:57Z</time>
      </trkpt>
      <trkpt lat="45.58986" lon="6.71925">
        <ele>1458</ele>
        <time>2021-02-13T12:40:01Z</time>
      </trkpt>
      <trkpt lat="45.58984" lon="6.71923">
        <ele>1458</ele>
        <time>2021-02-13T12:40:05Z</time>
      </trkpt>
      <trkpt lat="45.58983" lon="6.71921">
        <ele>1458</ele>
        <time>2021-02-13T12:40:07Z</time>
      </trkpt>
      <trkpt lat="45.58981" lon="6.71919">
        <ele>1458</ele>
        <time>2021-02-13T12:40:08Z</time>
      </trkpt>
      <trkpt lat="45.58975" lon="6.71913">
        <ele>1458</ele>
        <time>2021-02-13T12:40:09Z</time>
      </trkpt>
      <trkpt lat="45.58972" lon="6.7191">
        <ele>1458</ele>
        <time>2021-02-13T12:40:10Z</time>
      </trkpt>
      <trkpt lat="45.58968" lon="6.71908">
        <ele>1458</ele>
        <time>2021-02-13T12:40:11Z</time>
      </trkpt>
      <trkpt lat="45.58965" lon="6.71906">
        <ele>1458</ele>
        <time>2021-02-13T12:40:12Z</time>
      </trkpt>
      <trkpt lat="45.58962" lon="6.71903">
        <ele>1458</ele>
        <time>2021-02-13T12:40:13Z</time>
      </trkpt>
      <trkpt lat="45.58959" lon="6.71901">
        <ele>1458</ele>
        <time>2021-02-13T12:40:14Z</time>
      </trkpt>
      <trkpt lat="45.58956" lon="6.71898">
        <ele>1458</ele>
        <time>2021-02-13T12:40:15Z</time>
      </trkpt>
      <trkpt lat="45.58952" lon="6.71896">
        <ele>1458</ele>
        <time>2021-02-13T12:40:16Z</time>
      </trkpt>
      <trkpt lat="45.58949" lon="6.71893">
        <ele>1456</ele>
        <time>2021-02-13T12:40:17Z</time>
      </trkpt>
      <trkpt lat="45.58946" lon="6.7189">
        <ele>1456</ele>
        <time>2021-02-13T12:40:18Z</time>
      </trkpt>
      <trkpt lat="45.58944" lon="6.71884">
        <ele>1456</ele>
        <time>2021-02-13T12:40:19Z</time>
      </trkpt>
      <trkpt lat="45.58942" lon="6.71881">
        <ele>1456</ele>
        <time>2021-02-13T12:40:21Z</time>
      </trkpt>
      <trkpt lat="45.58942" lon="6.71881">
        <ele>1442</ele>
        <time>2021-02-13T12:40:27Z</time>
      </trkpt>
      <trkpt lat="45.5894" lon="6.71877">
        <ele>1442</ele>
        <time>2021-02-13T12:40:30Z</time>
      </trkpt>
      <trkpt lat="45.58939" lon="6.71876">
        <ele>1441</ele>
        <time>2021-02-13T12:40:37Z</time>
      </trkpt>
      <trkpt lat="45.58938" lon="6.71874">
        <ele>1441</ele>
        <time>2021-02-13T12:40:39Z</time>
      </trkpt>
      <trkpt lat="45.58937" lon="6.71872">
        <ele>1440</ele>
        <time>2021-02-13T12:40:47Z</time>
      </trkpt>
      <trkpt lat="45.58936" lon="6.71871">
        <ele>1440</ele>
        <time>2021-02-13T12:40:57Z</time>
      </trkpt>
      <trkpt lat="45.58936" lon="6.71869">
        <ele>1440</ele>
        <time>2021-02-13T12:41:00Z</time>
      </trkpt>
      <trkpt lat="45.58935" lon="6.71867">
        <ele>1440</ele>
        <time>2021-02-13T12:41:07Z</time>
      </trkpt>
      <trkpt lat="45.58934" lon="6.71866">
        <ele>1442</ele>
        <time>2021-02-13T12:41:17Z</time>
      </trkpt>
      <trkpt lat="45.58933" lon="6.71864">
        <ele>1440</ele>
        <time>2021-02-13T12:41:27Z</time>
      </trkpt>
      <trkpt lat="45.58933" lon="6.71862">
        <ele>1439</ele>
        <time>2021-02-13T12:41:37Z</time>
      </trkpt>
      <trkpt lat="45.58932" lon="6.7186">
        <ele>1439</ele>
        <time>2021-02-13T12:41:43Z</time>
      </trkpt>
      <trkpt lat="45.58931" lon="6.71859">
        <ele>1439</ele>
        <time>2021-02-13T12:41:44Z</time>
      </trkpt>
      <trkpt lat="45.5893" lon="6.71857">
        <ele>1439</ele>
        <time>2021-02-13T12:41:45Z</time>
      </trkpt>
      <trkpt lat="45.58929" lon="6.71855">
        <ele>1439</ele>
        <time>2021-02-13T12:41:46Z</time>
      </trkpt>
      <trkpt lat="45.58929" lon="6.71854">
        <ele>1440</ele>
        <time>2021-02-13T12:41:47Z</time>
      </trkpt>
      <trkpt lat="45.58923" lon="6.71846">
        <ele>1440</ele>
        <time>2021-02-13T12:41:48Z</time>
      </trkpt>
      <trkpt lat="45.5892" lon="6.71842">
        <ele>1440</ele>
        <time>2021-02-13T12:41:49Z</time>
      </trkpt>
      <trkpt lat="45.58917" lon="6.71838">
        <ele>1440</ele>
        <time>2021-02-13T12:41:50Z</time>
      </trkpt>
      <trkpt lat="45.58914" lon="6.71834">
        <ele>1440</ele>
        <time>2021-02-13T12:41:51Z</time>
      </trkpt>
      <trkpt lat="45.58911" lon="6.7183">
        <ele>1440</ele>
        <time>2021-02-13T12:41:52Z</time>
      </trkpt>
      <trkpt lat="45.58908" lon="6.71826">
        <ele>1440</ele>
        <time>2021-02-13T12:41:54Z</time>
      </trkpt>
      <trkpt lat="45.58905" lon="6.71823">
        <ele>1440</ele>
        <time>2021-02-13T12:41:55Z</time>
      </trkpt>
      <trkpt lat="45.58901" lon="6.71819">
        <ele>1440</ele>
        <time>2021-02-13T12:41:56Z</time>
      </trkpt>
      <trkpt lat="45.58898" lon="6.71815">
        <ele>1438</ele>
        <time>2021-02-13T12:41:57Z</time>
      </trkpt>
      <trkpt lat="45.58896" lon="6.71811">
        <ele>1438</ele>
        <time>2021-02-13T12:41:58Z</time>
      </trkpt>
      <trkpt lat="45.58892" lon="6.718">
        <ele>1438</ele>
        <time>2021-02-13T12:42:00Z</time>
      </trkpt>
      <trkpt lat="45.5889" lon="6.71794">
        <ele>1438</ele>
        <time>2021-02-13T12:42:01Z</time>
      </trkpt>
      <trkpt lat="45.58888" lon="6.71789">
        <ele>1438</ele>
        <time>2021-02-13T12:42:02Z</time>
      </trkpt>
      <trkpt lat="45.58887" lon="6.71785">
        <ele>1438</ele>
        <time>2021-02-13T12:42:03Z</time>
      </trkpt>
      <trkpt lat="45.58886" lon="6.71789">
        <ele>1428</ele>
        <time>2021-02-13T12:42:07Z</time>
      </trkpt>
      <trkpt lat="45.58886" lon="6.71795">
        <ele>1428</ele>
        <time>2021-02-13T12:42:08Z</time>
      </trkpt>
      <trkpt lat="45.58886" lon="6.71798">
        <ele>1428</ele>
        <time>2021-02-13T12:42:09Z</time>
      </trkpt>
      <trkpt lat="45.58886" lon="6.71802">
        <ele>1428</ele>
        <time>2021-02-13T12:42:10Z</time>
      </trkpt>
      <trkpt lat="45.58887" lon="6.71805">
        <ele>1428</ele>
        <time>2021-02-13T12:42:11Z</time>
      </trkpt>
      <trkpt lat="45.58887" lon="6.71809">
        <ele>1428</ele>
        <time>2021-02-13T12:42:12Z</time>
      </trkpt>
      <trkpt lat="45.58887" lon="6.71812">
        <ele>1428</ele>
        <time>2021-02-13T12:42:13Z</time>
      </trkpt>
      <trkpt lat="45.58888" lon="6.71815">
        <ele>1428</ele>
        <time>2021-02-13T12:42:14Z</time>
      </trkpt>
      <trkpt lat="45.58888" lon="6.71819">
        <ele>1428</ele>
        <time>2021-02-13T12:42:15Z</time>
      </trkpt>
      <trkpt lat="45.58888" lon="6.71822">
        <ele>1428</ele>
        <time>2021-02-13T12:42:16Z</time>
      </trkpt>
      <trkpt lat="45.58889" lon="6.71826">
        <ele>1428</ele>
        <time>2021-02-13T12:42:17Z</time>
      </trkpt>
      <trkpt lat="45.58891" lon="6.71833">
        <ele>1428</ele>
        <time>2021-02-13T12:42:18Z</time>
      </trkpt>
      <trkpt lat="45.58892" lon="6.71836">
        <ele>1428</ele>
        <time>2021-02-13T12:42:19Z</time>
      </trkpt>
      <trkpt lat="45.58893" lon="6.71839">
        <ele>1428</ele>
        <time>2021-02-13T12:42:20Z</time>
      </trkpt>
      <trkpt lat="45.58894" lon="6.71842">
        <ele>1428</ele>
        <time>2021-02-13T12:42:21Z</time>
      </trkpt>
      <trkpt lat="45.58895" lon="6.71845">
        <ele>1428</ele>
        <time>2021-02-13T12:42:22Z</time>
      </trkpt>
      <trkpt lat="45.58896" lon="6.71848">
        <ele>1428</ele>
        <time>2021-02-13T12:42:23Z</time>
      </trkpt>
      <trkpt lat="45.58898" lon="6.71851">
        <ele>1428</ele>
        <time>2021-02-13T12:42:24Z</time>
      </trkpt>
      <trkpt lat="45.58899" lon="6.71854">
        <ele>1428</ele>
        <time>2021-02-13T12:42:25Z</time>
      </trkpt>
      <trkpt lat="45.589" lon="6.71857">
        <ele>1428</ele>
        <time>2021-02-13T12:42:26Z</time>
      </trkpt>
      <trkpt lat="45.58901" lon="6.7186">
        <ele>1428</ele>
        <time>2021-02-13T12:42:27Z</time>
      </trkpt>
      <trkpt lat="45.58902" lon="6.71863">
        <ele>1426</ele>
        <time>2021-02-13T12:42:28Z</time>
      </trkpt>
      <trkpt lat="45.58905" lon="6.7187">
        <ele>1426</ele>
        <time>2021-02-13T12:42:29Z</time>
      </trkpt>
      <trkpt lat="45.58907" lon="6.71874">
        <ele>1426</ele>
        <time>2021-02-13T12:42:30Z</time>
      </trkpt>
      <trkpt lat="45.58909" lon="6.71878">
        <ele>1426</ele>
        <time>2021-02-13T12:42:31Z</time>
      </trkpt>
      <trkpt lat="45.58911" lon="6.71881">
        <ele>1426</ele>
        <time>2021-02-13T12:42:32Z</time>
      </trkpt>
      <trkpt lat="45.58912" lon="6.71885">
        <ele>1426</ele>
        <time>2021-02-13T12:42:33Z</time>
      </trkpt>
      <trkpt lat="45.58914" lon="6.71889">
        <ele>1426</ele>
        <time>2021-02-13T12:42:34Z</time>
      </trkpt>
      <trkpt lat="45.58916" lon="6.71892">
        <ele>1426</ele>
        <time>2021-02-13T12:42:35Z</time>
      </trkpt>
      <trkpt lat="45.58918" lon="6.71896">
        <ele>1426</ele>
        <time>2021-02-13T12:42:36Z</time>
      </trkpt>
      <trkpt lat="45.58919" lon="6.719">
        <ele>1426</ele>
        <time>2021-02-13T12:42:37Z</time>
      </trkpt>
      <trkpt lat="45.58921" lon="6.71903">
        <ele>1422</ele>
        <time>2021-02-13T12:42:38Z</time>
      </trkpt>
      <trkpt lat="45.58924" lon="6.71913">
        <ele>1422</ele>
        <time>2021-02-13T12:42:39Z</time>
      </trkpt>
      <trkpt lat="45.58925" lon="6.71917">
        <ele>1422</ele>
        <time>2021-02-13T12:42:40Z</time>
      </trkpt>
      <trkpt lat="45.58926" lon="6.71921">
        <ele>1422</ele>
        <time>2021-02-13T12:42:41Z</time>
      </trkpt>
      <trkpt lat="45.58927" lon="6.71925">
        <ele>1422</ele>
        <time>2021-02-13T12:42:42Z</time>
      </trkpt>
      <trkpt lat="45.58927" lon="6.71929">
        <ele>1422</ele>
        <time>2021-02-13T12:42:43Z</time>
      </trkpt>
      <trkpt lat="45.58928" lon="6.71933">
        <ele>1422</ele>
        <time>2021-02-13T12:42:44Z</time>
      </trkpt>
      <trkpt lat="45.58929" lon="6.71937">
        <ele>1422</ele>
        <time>2021-02-13T12:42:45Z</time>
      </trkpt>
      <trkpt lat="45.5893" lon="6.71941">
        <ele>1422</ele>
        <time>2021-02-13T12:42:46Z</time>
      </trkpt>
      <trkpt lat="45.58931" lon="6.71945">
        <ele>1419</ele>
        <time>2021-02-13T12:42:47Z</time>
      </trkpt>
      <trkpt lat="45.58932" lon="6.71953">
        <ele>1419</ele>
        <time>2021-02-13T12:42:48Z</time>
      </trkpt>
      <trkpt lat="45.58933" lon="6.71957">
        <ele>1419</ele>
        <time>2021-02-13T12:42:49Z</time>
      </trkpt>
      <trkpt lat="45.58934" lon="6.7196">
        <ele>1419</ele>
        <time>2021-02-13T12:42:50Z</time>
      </trkpt>
      <trkpt lat="45.58934" lon="6.71964">
        <ele>1419</ele>
        <time>2021-02-13T12:42:51Z</time>
      </trkpt>
      <trkpt lat="45.58935" lon="6.71967">
        <ele>1419</ele>
        <time>2021-02-13T12:42:52Z</time>
      </trkpt>
      <trkpt lat="45.58936" lon="6.71971">
        <ele>1419</ele>
        <time>2021-02-13T12:42:53Z</time>
      </trkpt>
      <trkpt lat="45.58936" lon="6.71975">
        <ele>1419</ele>
        <time>2021-02-13T12:42:54Z</time>
      </trkpt>
      <trkpt lat="45.58937" lon="6.71978">
        <ele>1419</ele>
        <time>2021-02-13T12:42:55Z</time>
      </trkpt>
      <trkpt lat="45.58938" lon="6.71982">
        <ele>1418</ele>
        <time>2021-02-13T12:42:57Z</time>
      </trkpt>
      <trkpt lat="45.58939" lon="6.71989">
        <ele>1418</ele>
        <time>2021-02-13T12:42:58Z</time>
      </trkpt>
      <trkpt lat="45.5894" lon="6.71993">
        <ele>1418</ele>
        <time>2021-02-13T12:42:59Z</time>
      </trkpt>
      <trkpt lat="45.58941" lon="6.71996">
        <ele>1418</ele>
        <time>2021-02-13T12:43:00Z</time>
      </trkpt>
      <trkpt lat="45.58942" lon="6.72">
        <ele>1418</ele>
        <time>2021-02-13T12:43:01Z</time>
      </trkpt>
      <trkpt lat="45.58942" lon="6.72003">
        <ele>1418</ele>
        <time>2021-02-13T12:43:02Z</time>
      </trkpt>
      <trkpt lat="45.58943" lon="6.72006">
        <ele>1418</ele>
        <time>2021-02-13T12:43:03Z</time>
      </trkpt>
      <trkpt lat="45.58944" lon="6.7201">
        <ele>1418</ele>
        <time>2021-02-13T12:43:04Z</time>
      </trkpt>
      <trkpt lat="45.58945" lon="6.72013">
        <ele>1418</ele>
        <time>2021-02-13T12:43:05Z</time>
      </trkpt>
      <trkpt lat="45.58946" lon="6.72016">
        <ele>1418</ele>
        <time>2021-02-13T12:43:06Z</time>
      </trkpt>
      <trkpt lat="45.58946" lon="6.7202">
        <ele>1416</ele>
        <time>2021-02-13T12:43:07Z</time>
      </trkpt>
      <trkpt lat="45.58949" lon="6.72027">
        <ele>1416</ele>
        <time>2021-02-13T12:43:08Z</time>
      </trkpt>
      <trkpt lat="45.58951" lon="6.72031">
        <ele>1416</ele>
        <time>2021-02-13T12:43:09Z</time>
      </trkpt>
      <trkpt lat="45.58952" lon="6.72034">
        <ele>1416</ele>
        <time>2021-02-13T12:43:10Z</time>
      </trkpt>
      <trkpt lat="45.58954" lon="6.72038">
        <ele>1416</ele>
        <time>2021-02-13T12:43:11Z</time>
      </trkpt>
      <trkpt lat="45.58955" lon="6.72041">
        <ele>1416</ele>
        <time>2021-02-13T12:43:12Z</time>
      </trkpt>
      <trkpt lat="45.58957" lon="6.72044">
        <ele>1416</ele>
        <time>2021-02-13T12:43:13Z</time>
      </trkpt>
      <trkpt lat="45.58958" lon="6.72048">
        <ele>1416</ele>
        <time>2021-02-13T12:43:14Z</time>
      </trkpt>
      <trkpt lat="45.5896" lon="6.72051">
        <ele>1416</ele>
        <time>2021-02-13T12:43:15Z</time>
      </trkpt>
      <trkpt lat="45.58961" lon="6.72055">
        <ele>1416</ele>
        <time>2021-02-13T12:43:16Z</time>
      </trkpt>
      <trkpt lat="45.58963" lon="6.72058">
        <ele>1415</ele>
        <time>2021-02-13T12:43:17Z</time>
      </trkpt>
      <trkpt lat="45.58966" lon="6.72065">
        <ele>1415</ele>
        <time>2021-02-13T12:43:18Z</time>
      </trkpt>
      <trkpt lat="45.58968" lon="6.72069">
        <ele>1415</ele>
        <time>2021-02-13T12:43:19Z</time>
      </trkpt>
      <trkpt lat="45.58969" lon="6.72072">
        <ele>1415</ele>
        <time>2021-02-13T12:43:20Z</time>
      </trkpt>
      <trkpt lat="45.58971" lon="6.72075">
        <ele>1415</ele>
        <time>2021-02-13T12:43:21Z</time>
      </trkpt>
      <trkpt lat="45.58973" lon="6.72079">
        <ele>1415</ele>
        <time>2021-02-13T12:43:22Z</time>
      </trkpt>
      <trkpt lat="45.58974" lon="6.72082">
        <ele>1415</ele>
        <time>2021-02-13T12:43:23Z</time>
      </trkpt>
      <trkpt lat="45.58976" lon="6.72086">
        <ele>1415</ele>
        <time>2021-02-13T12:43:24Z</time>
      </trkpt>
      <trkpt lat="45.58977" lon="6.72089">
        <ele>1415</ele>
        <time>2021-02-13T12:43:25Z</time>
      </trkpt>
      <trkpt lat="45.58979" lon="6.72093">
        <ele>1415</ele>
        <time>2021-02-13T12:43:26Z</time>
      </trkpt>
      <trkpt lat="45.58981" lon="6.72096">
        <ele>1413</ele>
        <time>2021-02-13T12:43:27Z</time>
      </trkpt>
      <trkpt lat="45.58985" lon="6.72106">
        <ele>1413</ele>
        <time>2021-02-13T12:43:28Z</time>
      </trkpt>
      <trkpt lat="45.58987" lon="6.72111">
        <ele>1413</ele>
        <time>2021-02-13T12:43:29Z</time>
      </trkpt>
      <trkpt lat="45.58989" lon="6.72116">
        <ele>1413</ele>
        <time>2021-02-13T12:43:30Z</time>
      </trkpt>
      <trkpt lat="45.58991" lon="6.72121">
        <ele>1413</ele>
        <time>2021-02-13T12:43:31Z</time>
      </trkpt>
      <trkpt lat="45.58993" lon="6.72126">
        <ele>1413</ele>
        <time>2021-02-13T12:43:33Z</time>
      </trkpt>
      <trkpt lat="45.58995" lon="6.72131">
        <ele>1413</ele>
        <time>2021-02-13T12:43:35Z</time>
      </trkpt>
      <trkpt lat="45.58997" lon="6.72136">
        <ele>1413</ele>
        <time>2021-02-13T12:43:36Z</time>
      </trkpt>
      <trkpt lat="45.58999" lon="6.72141">
        <ele>1411</ele>
        <time>2021-02-13T12:43:37Z</time>
      </trkpt>
      <trkpt lat="45.59002" lon="6.72151">
        <ele>1411</ele>
        <time>2021-02-13T12:43:38Z</time>
      </trkpt>
      <trkpt lat="45.59002" lon="6.72156">
        <ele>1411</ele>
        <time>2021-02-13T12:43:39Z</time>
      </trkpt>
      <trkpt lat="45.59003" lon="6.72161">
        <ele>1411</ele>
        <time>2021-02-13T12:43:40Z</time>
      </trkpt>
      <trkpt lat="45.59004" lon="6.72166">
        <ele>1411</ele>
        <time>2021-02-13T12:43:41Z</time>
      </trkpt>
      <trkpt lat="45.59005" lon="6.72171">
        <ele>1411</ele>
        <time>2021-02-13T12:43:42Z</time>
      </trkpt>
      <trkpt lat="45.59006" lon="6.72176">
        <ele>1411</ele>
        <time>2021-02-13T12:43:43Z</time>
      </trkpt>
      <trkpt lat="45.59006" lon="6.72181">
        <ele>1411</ele>
        <time>2021-02-13T12:43:44Z</time>
      </trkpt>
      <trkpt lat="45.59007" lon="6.72186">
        <ele>1411</ele>
        <time>2021-02-13T12:43:45Z</time>
      </trkpt>
      <trkpt lat="45.59008" lon="6.72191">
        <ele>1406</ele>
        <time>2021-02-13T12:43:47Z</time>
      </trkpt>
      <trkpt lat="45.59009" lon="6.72196">
        <ele>1406</ele>
        <time>2021-02-13T12:43:48Z</time>
      </trkpt>
      <trkpt lat="45.5901" lon="6.72202">
        <ele>1406</ele>
        <time>2021-02-13T12:43:49Z</time>
      </trkpt>
      <trkpt lat="45.5901" lon="6.72206">
        <ele>1406</ele>
        <time>2021-02-13T12:43:50Z</time>
      </trkpt>
      <trkpt lat="45.59008" lon="6.72209">
        <ele>1406</ele>
        <time>2021-02-13T12:43:51Z</time>
      </trkpt>
      <trkpt lat="45.59008" lon="6.72209">
        <ele>1405</ele>
        <time>2021-02-13T12:43:57Z</time>
      </trkpt>
      <trkpt lat="45.59007" lon="6.72214">
        <ele>1405</ele>
        <time>2021-02-13T12:44:01Z</time>
      </trkpt>
      <trkpt lat="45.59007" lon="6.72217">
        <ele>1405</ele>
        <time>2021-02-13T12:44:07Z</time>
      </trkpt>
      <trkpt lat="45.59008" lon="6.7222">
        <ele>1405</ele>
        <time>2021-02-13T12:44:17Z</time>
      </trkpt>
      <trkpt lat="45.59008" lon="6.72224">
        <ele>1404</ele>
        <time>2021-02-13T12:44:27Z</time>
      </trkpt>
      <trkpt lat="45.59009" lon="6.72227">
        <ele>1404</ele>
        <time>2021-02-13T12:44:35Z</time>
      </trkpt>
      <trkpt lat="45.59009" lon="6.72231">
        <ele>1404</ele>
        <time>2021-02-13T12:44:37Z</time>
      </trkpt>
      <trkpt lat="45.59009" lon="6.72234">
        <ele>1404</ele>
        <time>2021-02-13T12:44:39Z</time>
      </trkpt>
      <trkpt lat="45.5901" lon="6.72238">
        <ele>1404</ele>
        <time>2021-02-13T12:44:40Z</time>
      </trkpt>
      <trkpt lat="45.5901" lon="6.72241">
        <ele>1404</ele>
        <time>2021-02-13T12:44:41Z</time>
      </trkpt>
      <trkpt lat="45.59011" lon="6.72245">
        <ele>1404</ele>
        <time>2021-02-13T12:44:42Z</time>
      </trkpt>
      <trkpt lat="45.59011" lon="6.72248">
        <ele>1404</ele>
        <time>2021-02-13T12:44:43Z</time>
      </trkpt>
      <trkpt lat="45.59012" lon="6.72252">
        <ele>1404</ele>
        <time>2021-02-13T12:44:44Z</time>
      </trkpt>
      <trkpt lat="45.59012" lon="6.72255">
        <ele>1404</ele>
        <time>2021-02-13T12:44:45Z</time>
      </trkpt>
      <trkpt lat="45.59013" lon="6.72259">
        <ele>1404</ele>
        <time>2021-02-13T12:44:47Z</time>
      </trkpt>
      <trkpt lat="45.59014" lon="6.72273">
        <ele>1404</ele>
        <time>2021-02-13T12:44:48Z</time>
      </trkpt>
      <trkpt lat="45.59015" lon="6.72281">
        <ele>1404</ele>
        <time>2021-02-13T12:44:49Z</time>
      </trkpt>
      <trkpt lat="45.59016" lon="6.7229">
        <ele>1404</ele>
        <time>2021-02-13T12:44:51Z</time>
      </trkpt>
      <trkpt lat="45.59017" lon="6.72298">
        <ele>1404</ele>
        <time>2021-02-13T12:44:52Z</time>
      </trkpt>
      <trkpt lat="45.59018" lon="6.72306">
        <ele>1404</ele>
        <time>2021-02-13T12:44:53Z</time>
      </trkpt>
      <trkpt lat="45.59019" lon="6.72314">
        <ele>1404</ele>
        <time>2021-02-13T12:44:54Z</time>
      </trkpt>
      <trkpt lat="45.59019" lon="6.72323">
        <ele>1404</ele>
        <time>2021-02-13T12:44:55Z</time>
      </trkpt>
      <trkpt lat="45.5902" lon="6.72331">
        <ele>1399</ele>
        <time>2021-02-13T12:44:57Z</time>
      </trkpt>
      <trkpt lat="45.59024" lon="6.72345">
        <ele>1399</ele>
        <time>2021-02-13T12:44:59Z</time>
      </trkpt>
      <trkpt lat="45.59025" lon="6.72351">
        <ele>1399</ele>
        <time>2021-02-13T12:45:00Z</time>
      </trkpt>
      <trkpt lat="45.59025" lon="6.72354">
        <ele>1399</ele>
        <time>2021-02-13T12:45:01Z</time>
      </trkpt>
      <trkpt lat="45.59025" lon="6.72354">
        <ele>1395</ele>
        <time>2021-02-13T12:45:07Z</time>
      </trkpt>
      <trkpt lat="45.59029" lon="6.72359">
        <ele>1395</ele>
        <time>2021-02-13T12:45:08Z</time>
      </trkpt>
      <trkpt lat="45.5903" lon="6.72362">
        <ele>1395</ele>
        <time>2021-02-13T12:45:10Z</time>
      </trkpt>
      <trkpt lat="45.59032" lon="6.72365">
        <ele>1395</ele>
        <time>2021-02-13T12:45:11Z</time>
      </trkpt>
      <trkpt lat="45.59033" lon="6.72367">
        <ele>1395</ele>
        <time>2021-02-13T12:45:12Z</time>
      </trkpt>
      <trkpt lat="45.59035" lon="6.7237">
        <ele>1395</ele>
        <time>2021-02-13T12:45:13Z</time>
      </trkpt>
      <trkpt lat="45.59037" lon="6.72373">
        <ele>1395</ele>
        <time>2021-02-13T12:45:14Z</time>
      </trkpt>
      <trkpt lat="45.59038" lon="6.72376">
        <ele>1395</ele>
        <time>2021-02-13T12:45:15Z</time>
      </trkpt>
      <trkpt lat="45.5904" lon="6.72378">
        <ele>1395</ele>
        <time>2021-02-13T12:45:16Z</time>
      </trkpt>
      <trkpt lat="45.59042" lon="6.72381">
        <ele>1395</ele>
        <time>2021-02-13T12:45:17Z</time>
      </trkpt>
      <trkpt lat="45.59043" lon="6.72384">
        <ele>1395</ele>
        <time>2021-02-13T12:45:18Z</time>
      </trkpt>
      <trkpt lat="45.59049" lon="6.72393">
        <ele>1395</ele>
        <time>2021-02-13T12:45:19Z</time>
      </trkpt>
      <trkpt lat="45.59052" lon="6.72397">
        <ele>1395</ele>
        <time>2021-02-13T12:45:20Z</time>
      </trkpt>
      <trkpt lat="45.59055" lon="6.72402">
        <ele>1395</ele>
        <time>2021-02-13T12:45:21Z</time>
      </trkpt>
      <trkpt lat="45.59058" lon="6.72407">
        <ele>1395</ele>
        <time>2021-02-13T12:45:22Z</time>
      </trkpt>
      <trkpt lat="45.59061" lon="6.72411">
        <ele>1395</ele>
        <time>2021-02-13T12:45:23Z</time>
      </trkpt>
      <trkpt lat="45.59065" lon="6.72416">
        <ele>1395</ele>
        <time>2021-02-13T12:45:24Z</time>
      </trkpt>
      <trkpt lat="45.59068" lon="6.72421">
        <ele>1395</ele>
        <time>2021-02-13T12:45:25Z</time>
      </trkpt>
      <trkpt lat="45.59071" lon="6.72425">
        <ele>1395</ele>
        <time>2021-02-13T12:45:26Z</time>
      </trkpt>
      <trkpt lat="45.59074" lon="6.7243">
        <ele>1393</ele>
        <time>2021-02-13T12:45:27Z</time>
      </trkpt>
      <trkpt lat="45.5908" lon="6.72448">
        <ele>1393</ele>
        <time>2021-02-13T12:45:29Z</time>
      </trkpt>
      <trkpt lat="45.59081" lon="6.72453">
        <ele>1393</ele>
        <time>2021-02-13T12:45:30Z</time>
      </trkpt>
      <trkpt lat="45.59082" lon="6.72458">
        <ele>1393</ele>
        <time>2021-02-13T12:45:31Z</time>
      </trkpt>
      <trkpt lat="45.59083" lon="6.72463">
        <ele>1393</ele>
        <time>2021-02-13T12:45:32Z</time>
      </trkpt>
      <trkpt lat="45.59084" lon="6.72468">
        <ele>1393</ele>
        <time>2021-02-13T12:45:33Z</time>
      </trkpt>
      <trkpt lat="45.59085" lon="6.72474">
        <ele>1393</ele>
        <time>2021-02-13T12:45:34Z</time>
      </trkpt>
      <trkpt lat="45.59086" lon="6.72479">
        <ele>1393</ele>
        <time>2021-02-13T12:45:35Z</time>
      </trkpt>
      <trkpt lat="45.59087" lon="6.72484">
        <ele>1393</ele>
        <time>2021-02-13T12:45:36Z</time>
      </trkpt>
      <trkpt lat="45.59088" lon="6.72489">
        <ele>1385</ele>
        <time>2021-02-13T12:45:37Z</time>
      </trkpt>
      <trkpt lat="45.59092" lon="6.72499">
        <ele>1385</ele>
        <time>2021-02-13T12:45:38Z</time>
      </trkpt>
      <trkpt lat="45.59095" lon="6.72504">
        <ele>1385</ele>
        <time>2021-02-13T12:45:39Z</time>
      </trkpt>
      <trkpt lat="45.59097" lon="6.72508">
        <ele>1385</ele>
        <time>2021-02-13T12:45:40Z</time>
      </trkpt>
      <trkpt lat="45.591" lon="6.72512">
        <ele>1385</ele>
        <time>2021-02-13T12:45:41Z</time>
      </trkpt>
      <trkpt lat="45.59102" lon="6.72516">
        <ele>1385</ele>
        <time>2021-02-13T12:45:42Z</time>
      </trkpt>
      <trkpt lat="45.59105" lon="6.72521">
        <ele>1385</ele>
        <time>2021-02-13T12:45:43Z</time>
      </trkpt>
      <trkpt lat="45.59107" lon="6.72525">
        <ele>1385</ele>
        <time>2021-02-13T12:45:44Z</time>
      </trkpt>
      <trkpt lat="45.5911" lon="6.72529">
        <ele>1385</ele>
        <time>2021-02-13T12:45:45Z</time>
      </trkpt>
      <trkpt lat="45.59112" lon="6.72533">
        <ele>1385</ele>
        <time>2021-02-13T12:45:46Z</time>
      </trkpt>
      <trkpt lat="45.59115" lon="6.72538">
        <ele>1385</ele>
        <time>2021-02-13T12:45:47Z</time>
      </trkpt>
      <trkpt lat="45.59117" lon="6.72542">
        <ele>1381</ele>
        <time>2021-02-13T12:45:48Z</time>
      </trkpt>
      <trkpt lat="45.59125" lon="6.72547">
        <ele>1381</ele>
        <time>2021-02-13T12:45:49Z</time>
      </trkpt>
      <trkpt lat="45.59129" lon="6.72548">
        <ele>1381</ele>
        <time>2021-02-13T12:45:50Z</time>
      </trkpt>
      <trkpt lat="45.59133" lon="6.72549">
        <ele>1381</ele>
        <time>2021-02-13T12:45:51Z</time>
      </trkpt>
      <trkpt lat="45.59137" lon="6.72551">
        <ele>1381</ele>
        <time>2021-02-13T12:45:52Z</time>
      </trkpt>
      <trkpt lat="45.59142" lon="6.72552">
        <ele>1381</ele>
        <time>2021-02-13T12:45:53Z</time>
      </trkpt>
      <trkpt lat="45.59146" lon="6.72553">
        <ele>1381</ele>
        <time>2021-02-13T12:45:54Z</time>
      </trkpt>
      <trkpt lat="45.5915" lon="6.72554">
        <ele>1381</ele>
        <time>2021-02-13T12:45:55Z</time>
      </trkpt>
      <trkpt lat="45.59154" lon="6.72555">
        <ele>1381</ele>
        <time>2021-02-13T12:45:56Z</time>
      </trkpt>
      <trkpt lat="45.59158" lon="6.72556">
        <ele>1375</ele>
        <time>2021-02-13T12:45:57Z</time>
      </trkpt>
      <trkpt lat="45.59167" lon="6.72559">
        <ele>1375</ele>
        <time>2021-02-13T12:45:58Z</time>
      </trkpt>
      <trkpt lat="45.59171" lon="6.72562">
        <ele>1375</ele>
        <time>2021-02-13T12:45:59Z</time>
      </trkpt>
      <trkpt lat="45.59175" lon="6.72565">
        <ele>1375</ele>
        <time>2021-02-13T12:46:00Z</time>
      </trkpt>
      <trkpt lat="45.5918" lon="6.72568">
        <ele>1375</ele>
        <time>2021-02-13T12:46:02Z</time>
      </trkpt>
      <trkpt lat="45.59184" lon="6.72571">
        <ele>1375</ele>
        <time>2021-02-13T12:46:03Z</time>
      </trkpt>
      <trkpt lat="45.59188" lon="6.72574">
        <ele>1375</ele>
        <time>2021-02-13T12:46:04Z</time>
      </trkpt>
      <trkpt lat="45.59192" lon="6.72577">
        <ele>1375</ele>
        <time>2021-02-13T12:46:05Z</time>
      </trkpt>
      <trkpt lat="45.59196" lon="6.7258">
        <ele>1370</ele>
        <time>2021-02-13T12:46:07Z</time>
      </trkpt>
      <trkpt lat="45.59198" lon="6.72597">
        <ele>1370</ele>
        <time>2021-02-13T12:46:08Z</time>
      </trkpt>
      <trkpt lat="45.59199" lon="6.72606">
        <ele>1370</ele>
        <time>2021-02-13T12:46:09Z</time>
      </trkpt>
      <trkpt lat="45.592" lon="6.72615">
        <ele>1370</ele>
        <time>2021-02-13T12:46:11Z</time>
      </trkpt>
      <trkpt lat="45.592" lon="6.72624">
        <ele>1370</ele>
        <time>2021-02-13T12:46:13Z</time>
      </trkpt>
      <trkpt lat="45.59201" lon="6.72633">
        <ele>1370</ele>
        <time>2021-02-13T12:46:14Z</time>
      </trkpt>
      <trkpt lat="45.59202" lon="6.72642">
        <ele>1370</ele>
        <time>2021-02-13T12:46:15Z</time>
      </trkpt>
      <trkpt lat="45.59203" lon="6.72651">
        <ele>1370</ele>
        <time>2021-02-13T12:46:16Z</time>
      </trkpt>
      <trkpt lat="45.59204" lon="6.7266">
        <ele>1364</ele>
        <time>2021-02-13T12:46:17Z</time>
      </trkpt>
      <trkpt lat="45.5921" lon="6.72673">
        <ele>1364</ele>
        <time>2021-02-13T12:46:18Z</time>
      </trkpt>
      <trkpt lat="45.59214" lon="6.7268">
        <ele>1364</ele>
        <time>2021-02-13T12:46:19Z</time>
      </trkpt>
      <trkpt lat="45.59217" lon="6.72687">
        <ele>1364</ele>
        <time>2021-02-13T12:46:21Z</time>
      </trkpt>
      <trkpt lat="45.5922" lon="6.72695">
        <ele>1364</ele>
        <time>2021-02-13T12:46:22Z</time>
      </trkpt>
      <trkpt lat="45.59224" lon="6.72702">
        <ele>1364</ele>
        <time>2021-02-13T12:46:23Z</time>
      </trkpt>
      <trkpt lat="45.59227" lon="6.72709">
        <ele>1364</ele>
        <time>2021-02-13T12:46:26Z</time>
      </trkpt>
      <trkpt lat="45.5923" lon="6.72716">
        <ele>1356</ele>
        <time>2021-02-13T12:46:27Z</time>
      </trkpt>
      <trkpt lat="45.59236" lon="6.72735">
        <ele>1356</ele>
        <time>2021-02-13T12:46:28Z</time>
      </trkpt>
      <trkpt lat="45.59241" lon="6.72746">
        <ele>1356</ele>
        <time>2021-02-13T12:46:30Z</time>
      </trkpt>
      <trkpt lat="45.59246" lon="6.72757">
        <ele>1356</ele>
        <time>2021-02-13T12:46:32Z</time>
      </trkpt>
      <trkpt lat="45.5925" lon="6.72767">
        <ele>1356</ele>
        <time>2021-02-13T12:46:34Z</time>
      </trkpt>
      <trkpt lat="45.59255" lon="6.72778">
        <ele>1356</ele>
        <time>2021-02-13T12:46:36Z</time>
      </trkpt>
      <trkpt lat="45.5926" lon="6.72789">
        <ele>1350</ele>
        <time>2021-02-13T12:46:37Z</time>
      </trkpt>
      <trkpt lat="45.59266" lon="6.72798">
        <ele>1350</ele>
        <time>2021-02-13T12:46:38Z</time>
      </trkpt>
      <trkpt lat="45.59269" lon="6.72801">
        <ele>1350</ele>
        <time>2021-02-13T12:46:40Z</time>
      </trkpt>
      <trkpt lat="45.59271" lon="6.72804">
        <ele>1350</ele>
        <time>2021-02-13T12:46:41Z</time>
      </trkpt>
      <trkpt lat="45.59274" lon="6.72807">
        <ele>1350</ele>
        <time>2021-02-13T12:46:42Z</time>
      </trkpt>
      <trkpt lat="45.59277" lon="6.7281">
        <ele>1350</ele>
        <time>2021-02-13T12:46:43Z</time>
      </trkpt>
      <trkpt lat="45.5928" lon="6.72813">
        <ele>1350</ele>
        <time>2021-02-13T12:46:44Z</time>
      </trkpt>
      <trkpt lat="45.59282" lon="6.72815">
        <ele>1350</ele>
        <time>2021-02-13T12:46:45Z</time>
      </trkpt>
      <trkpt lat="45.59285" lon="6.72818">
        <ele>1350</ele>
        <time>2021-02-13T12:46:46Z</time>
      </trkpt>
      <trkpt lat="45.59288" lon="6.72821">
        <ele>1345</ele>
        <time>2021-02-13T12:46:47Z</time>
      </trkpt>
      <trkpt lat="45.5929" lon="6.72823">
        <ele>1345</ele>
        <time>2021-02-13T12:46:48Z</time>
      </trkpt>
      <trkpt lat="45.59291" lon="6.72825">
        <ele>1345</ele>
        <time>2021-02-13T12:46:49Z</time>
      </trkpt>
      <trkpt lat="45.59293" lon="6.72828">
        <ele>1345</ele>
        <time>2021-02-13T12:46:51Z</time>
      </trkpt>
      <trkpt lat="45.59295" lon="6.72831">
        <ele>1345</ele>
        <time>2021-02-13T12:46:53Z</time>
      </trkpt>
      <trkpt lat="45.59295" lon="6.72831">
        <ele>1345</ele>
        <time>2021-02-13T12:46:57Z</time>
      </trkpt>
      <trkpt lat="45.59295" lon="6.72831">
        <ele>1344</ele>
        <time>2021-02-13T12:47:07Z</time>
      </trkpt>
      <trkpt lat="45.59296" lon="6.72831">
        <ele>1344</ele>
        <time>2021-02-13T12:47:17Z</time>
      </trkpt>
      <trkpt lat="45.59296" lon="6.72831">
        <ele>1344</ele>
        <time>2021-02-13T12:47:27Z</time>
      </trkpt>
      <trkpt lat="45.59297" lon="6.72832">
        <ele>1344</ele>
        <time>2021-02-13T12:47:37Z</time>
      </trkpt>
      <trkpt lat="45.59297" lon="6.72832">
        <ele>1345</ele>
        <time>2021-02-13T12:47:47Z</time>
      </trkpt>
      <trkpt lat="45.59297" lon="6.72832">
        <ele>1345</ele>
        <time>2021-02-13T12:47:57Z</time>
      </trkpt>
      <trkpt lat="45.59298" lon="6.72832">
        <ele>1344</ele>
        <time>2021-02-13T12:48:07Z</time>
      </trkpt>
      <trkpt lat="45.59298" lon="6.72832">
        <ele>1345</ele>
        <time>2021-02-13T12:48:17Z</time>
      </trkpt>
      <trkpt lat="45.59299" lon="6.72832">
        <ele>1345</ele>
        <time>2021-02-13T12:48:27Z</time>
      </trkpt>
      <trkpt lat="45.59299" lon="6.72833">
        <ele>1345</ele>
        <time>2021-02-13T12:48:34Z</time>
      </trkpt>
      <trkpt lat="45.593" lon="6.72833">
        <ele>1345</ele>
        <time>2021-02-13T12:48:36Z</time>
      </trkpt>
      <trkpt lat="45.593" lon="6.72833">
        <ele>1344</ele>
        <time>2021-02-13T12:48:37Z</time>
      </trkpt>
      <trkpt lat="45.59301" lon="6.72835">
        <ele>1344</ele>
        <time>2021-02-13T12:48:40Z</time>
      </trkpt>
      <trkpt lat="45.59303" lon="6.72837">
        <ele>1344</ele>
        <time>2021-02-13T12:48:42Z</time>
      </trkpt>
      <trkpt lat="45.59304" lon="6.72842">
        <ele>1344</ele>
        <time>2021-02-13T12:48:44Z</time>
      </trkpt>
      <trkpt lat="45.59308" lon="6.72851">
        <ele>1344</ele>
        <time>2021-02-13T12:48:47Z</time>
      </trkpt>
      <trkpt lat="45.59311" lon="6.72859">
        <ele>1344</ele>
        <time>2021-02-13T12:48:48Z</time>
      </trkpt>
      <trkpt lat="45.59312" lon="6.72863">
        <ele>1344</ele>
        <time>2021-02-13T12:48:49Z</time>
      </trkpt>
      <trkpt lat="45.59314" lon="6.72867">
        <ele>1344</ele>
        <time>2021-02-13T12:48:50Z</time>
      </trkpt>
      <trkpt lat="45.59316" lon="6.72871">
        <ele>1344</ele>
        <time>2021-02-13T12:48:51Z</time>
      </trkpt>
      <trkpt lat="45.59318" lon="6.72876">
        <ele>1344</ele>
        <time>2021-02-13T12:48:52Z</time>
      </trkpt>
      <trkpt lat="45.59319" lon="6.7288">
        <ele>1344</ele>
        <time>2021-02-13T12:48:56Z</time>
      </trkpt>
      <trkpt lat="45.59321" lon="6.72884">
        <ele>1344</ele>
        <time>2021-02-13T12:48:57Z</time>
      </trkpt>
      <trkpt lat="45.59323" lon="6.72888">
        <ele>1344</ele>
        <time>2021-02-13T12:48:58Z</time>
      </trkpt>
      <trkpt lat="45.59326" lon="6.729">
        <ele>1344</ele>
        <time>2021-02-13T12:49:01Z</time>
      </trkpt>
      <trkpt lat="45.5933" lon="6.72913">
        <ele>1344</ele>
        <time>2021-02-13T12:49:04Z</time>
      </trkpt>
      <trkpt lat="45.59333" lon="6.72927">
        <ele>1342</ele>
        <time>2021-02-13T12:49:07Z</time>
      </trkpt>
      <trkpt lat="45.59336" lon="6.72935">
        <ele>1342</ele>
        <time>2021-02-13T12:49:08Z</time>
      </trkpt>
      <trkpt lat="45.59338" lon="6.72938">
        <ele>1342</ele>
        <time>2021-02-13T12:49:09Z</time>
      </trkpt>
      <trkpt lat="45.5934" lon="6.72941">
        <ele>1342</ele>
        <time>2021-02-13T12:49:10Z</time>
      </trkpt>
      <trkpt lat="45.59341" lon="6.72945">
        <ele>1342</ele>
        <time>2021-02-13T12:49:11Z</time>
      </trkpt>
      <trkpt lat="45.59343" lon="6.72948">
        <ele>1342</ele>
        <time>2021-02-13T12:49:12Z</time>
      </trkpt>
      <trkpt lat="45.59345" lon="6.72951">
        <ele>1342</ele>
        <time>2021-02-13T12:49:13Z</time>
      </trkpt>
      <trkpt lat="45.59346" lon="6.72954">
        <ele>1342</ele>
        <time>2021-02-13T12:49:14Z</time>
      </trkpt>
      <trkpt lat="45.59348" lon="6.72958">
        <ele>1342</ele>
        <time>2021-02-13T12:49:15Z</time>
      </trkpt>
      <trkpt lat="45.5935" lon="6.72961">
        <ele>1341</ele>
        <time>2021-02-13T12:49:17Z</time>
      </trkpt>
      <trkpt lat="45.59352" lon="6.7297">
        <ele>1341</ele>
        <time>2021-02-13T12:49:18Z</time>
      </trkpt>
      <trkpt lat="45.59352" lon="6.72975">
        <ele>1341</ele>
        <time>2021-02-13T12:49:19Z</time>
      </trkpt>
      <trkpt lat="45.59353" lon="6.7298">
        <ele>1341</ele>
        <time>2021-02-13T12:49:20Z</time>
      </trkpt>
      <trkpt lat="45.59353" lon="6.72985">
        <ele>1341</ele>
        <time>2021-02-13T12:49:21Z</time>
      </trkpt>
      <trkpt lat="45.59353" lon="6.7299">
        <ele>1341</ele>
        <time>2021-02-13T12:49:22Z</time>
      </trkpt>
      <trkpt lat="45.59353" lon="6.72995">
        <ele>1341</ele>
        <time>2021-02-13T12:49:23Z</time>
      </trkpt>
      <trkpt lat="45.59354" lon="6.73">
        <ele>1341</ele>
        <time>2021-02-13T12:49:24Z</time>
      </trkpt>
      <trkpt lat="45.59354" lon="6.73005">
        <ele>1341</ele>
        <time>2021-02-13T12:49:26Z</time>
      </trkpt>
      <trkpt lat="45.59354" lon="6.7301">
        <ele>1341</ele>
        <time>2021-02-13T12:49:27Z</time>
      </trkpt>
      <trkpt lat="45.59354" lon="6.73015">
        <ele>1335</ele>
        <time>2021-02-13T12:49:28Z</time>
      </trkpt>
      <trkpt lat="45.59347" lon="6.7301">
        <ele>1335</ele>
        <time>2021-02-13T12:49:29Z</time>
      </trkpt>
      <trkpt lat="45.59343" lon="6.73006">
        <ele>1335</ele>
        <time>2021-02-13T12:49:31Z</time>
      </trkpt>
      <trkpt lat="45.5934" lon="6.73001">
        <ele>1335</ele>
        <time>2021-02-13T12:49:32Z</time>
      </trkpt>
      <trkpt lat="45.59336" lon="6.72997">
        <ele>1335</ele>
        <time>2021-02-13T12:49:33Z</time>
      </trkpt>
      <trkpt lat="45.59333" lon="6.72993">
        <ele>1335</ele>
        <time>2021-02-13T12:49:34Z</time>
      </trkpt>
      <trkpt lat="45.5933" lon="6.72989">
        <ele>1335</ele>
        <time>2021-02-13T12:49:35Z</time>
      </trkpt>
      <trkpt lat="45.59326" lon="6.72985">
        <ele>1335</ele>
        <time>2021-02-13T12:49:36Z</time>
      </trkpt>
      <trkpt lat="45.59323" lon="6.72981">
        <ele>1328</ele>
        <time>2021-02-13T12:49:37Z</time>
      </trkpt>
      <trkpt lat="45.59316" lon="6.72974">
        <ele>1328</ele>
        <time>2021-02-13T12:49:38Z</time>
      </trkpt>
      <trkpt lat="45.59313" lon="6.72971">
        <ele>1328</ele>
        <time>2021-02-13T12:49:39Z</time>
      </trkpt>
      <trkpt lat="45.5931" lon="6.72967">
        <ele>1328</ele>
        <time>2021-02-13T12:49:40Z</time>
      </trkpt>
      <trkpt lat="45.59307" lon="6.72964">
        <ele>1328</ele>
        <time>2021-02-13T12:49:41Z</time>
      </trkpt>
      <trkpt lat="45.59304" lon="6.72961">
        <ele>1328</ele>
        <time>2021-02-13T12:49:42Z</time>
      </trkpt>
      <trkpt lat="45.59301" lon="6.72958">
        <ele>1328</ele>
        <time>2021-02-13T12:49:43Z</time>
      </trkpt>
      <trkpt lat="45.59298" lon="6.72955">
        <ele>1328</ele>
        <time>2021-02-13T12:49:44Z</time>
      </trkpt>
      <trkpt lat="45.59295" lon="6.72951">
        <ele>1328</ele>
        <time>2021-02-13T12:49:45Z</time>
      </trkpt>
      <trkpt lat="45.59292" lon="6.72948">
        <ele>1328</ele>
        <time>2021-02-13T12:49:46Z</time>
      </trkpt>
      <trkpt lat="45.59289" lon="6.72945">
        <ele>1323</ele>
        <time>2021-02-13T12:49:47Z</time>
      </trkpt>
      <trkpt lat="45.59283" lon="6.72939">
        <ele>1323</ele>
        <time>2021-02-13T12:49:48Z</time>
      </trkpt>
      <trkpt lat="45.59281" lon="6.72937">
        <ele>1323</ele>
        <time>2021-02-13T12:49:49Z</time>
      </trkpt>
      <trkpt lat="45.59279" lon="6.72934">
        <ele>1323</ele>
        <time>2021-02-13T12:49:50Z</time>
      </trkpt>
      <trkpt lat="45.59277" lon="6.72932">
        <ele>1323</ele>
        <time>2021-02-13T12:49:51Z</time>
      </trkpt>
      <trkpt lat="45.59275" lon="6.72929">
        <ele>1323</ele>
        <time>2021-02-13T12:49:52Z</time>
      </trkpt>
      <trkpt lat="45.59273" lon="6.72927">
        <ele>1323</ele>
        <time>2021-02-13T12:49:53Z</time>
      </trkpt>
      <trkpt lat="45.59271" lon="6.72925">
        <ele>1323</ele>
        <time>2021-02-13T12:49:54Z</time>
      </trkpt>
      <trkpt lat="45.59268" lon="6.72922">
        <ele>1323</ele>
        <time>2021-02-13T12:49:55Z</time>
      </trkpt>
      <trkpt lat="45.59266" lon="6.7292">
        <ele>1323</ele>
        <time>2021-02-13T12:49:56Z</time>
      </trkpt>
      <trkpt lat="45.59264" lon="6.72918">
        <ele>1319</ele>
        <time>2021-02-13T12:49:57Z</time>
      </trkpt>
      <trkpt lat="45.5926" lon="6.72914">
        <ele>1319</ele>
        <time>2021-02-13T12:49:58Z</time>
      </trkpt>
      <trkpt lat="45.59257" lon="6.72912">
        <ele>1319</ele>
        <time>2021-02-13T12:49:59Z</time>
      </trkpt>
      <trkpt lat="45.59255" lon="6.7291">
        <ele>1319</ele>
        <time>2021-02-13T12:50:00Z</time>
      </trkpt>
      <trkpt lat="45.59252" lon="6.72908">
        <ele>1319</ele>
        <time>2021-02-13T12:50:01Z</time>
      </trkpt>
      <trkpt lat="45.59249" lon="6.72906">
        <ele>1319</ele>
        <time>2021-02-13T12:50:02Z</time>
      </trkpt>
      <trkpt lat="45.59247" lon="6.72904">
        <ele>1319</ele>
        <time>2021-02-13T12:50:03Z</time>
      </trkpt>
      <trkpt lat="45.59244" lon="6.72902">
        <ele>1319</ele>
        <time>2021-02-13T12:50:04Z</time>
      </trkpt>
      <trkpt lat="45.59242" lon="6.729">
        <ele>1319</ele>
        <time>2021-02-13T12:50:05Z</time>
      </trkpt>
      <trkpt lat="45.59239" lon="6.72898">
        <ele>1319</ele>
        <time>2021-02-13T12:50:06Z</time>
      </trkpt>
      <trkpt lat="45.59237" lon="6.72896">
        <ele>1315</ele>
        <time>2021-02-13T12:50:07Z</time>
      </trkpt>
      <trkpt lat="45.59233" lon="6.72892">
        <ele>1315</ele>
        <time>2021-02-13T12:50:08Z</time>
      </trkpt>
      <trkpt lat="45.59231" lon="6.72889">
        <ele>1315</ele>
        <time>2021-02-13T12:50:09Z</time>
      </trkpt>
      <trkpt lat="45.59229" lon="6.72887">
        <ele>1315</ele>
        <time>2021-02-13T12:50:10Z</time>
      </trkpt>
      <trkpt lat="45.59227" lon="6.72885">
        <ele>1315</ele>
        <time>2021-02-13T12:50:11Z</time>
      </trkpt>
      <trkpt lat="45.59225" lon="6.72883">
        <ele>1315</ele>
        <time>2021-02-13T12:50:12Z</time>
      </trkpt>
      <trkpt lat="45.59223" lon="6.7288">
        <ele>1315</ele>
        <time>2021-02-13T12:50:13Z</time>
      </trkpt>
      <trkpt lat="45.59221" lon="6.72878">
        <ele>1315</ele>
        <time>2021-02-13T12:50:14Z</time>
      </trkpt>
      <trkpt lat="45.59219" lon="6.72876">
        <ele>1315</ele>
        <time>2021-02-13T12:50:15Z</time>
      </trkpt>
      <trkpt lat="45.59217" lon="6.72874">
        <ele>1315</ele>
        <time>2021-02-13T12:50:16Z</time>
      </trkpt>
      <trkpt lat="45.59215" lon="6.72871">
        <ele>1313</ele>
        <time>2021-02-13T12:50:17Z</time>
      </trkpt>
      <trkpt lat="45.59212" lon="6.72868">
        <ele>1313</ele>
        <time>2021-02-13T12:50:18Z</time>
      </trkpt>
      <trkpt lat="45.5921" lon="6.72866">
        <ele>1313</ele>
        <time>2021-02-13T12:50:19Z</time>
      </trkpt>
      <trkpt lat="45.59208" lon="6.72864">
        <ele>1313</ele>
        <time>2021-02-13T12:50:20Z</time>
      </trkpt>
      <trkpt lat="45.59206" lon="6.72861">
        <ele>1313</ele>
        <time>2021-02-13T12:50:22Z</time>
      </trkpt>
      <trkpt lat="45.59206" lon="6.72861">
        <ele>1310</ele>
        <time>2021-02-13T12:50:27Z</time>
      </trkpt>
      <trkpt lat="45.59206" lon="6.72861">
        <ele>1310</ele>
        <time>2021-02-13T12:50:37Z</time>
      </trkpt>
      <trkpt lat="45.59205" lon="6.72859">
        <ele>1310</ele>
        <time>2021-02-13T12:50:39Z</time>
      </trkpt>
      <trkpt lat="45.59205" lon="6.72859">
        <ele>1310</ele>
        <time>2021-02-13T12:50:47Z</time>
      </trkpt>
      <trkpt lat="45.59205" lon="6.72859">
        <ele>1309</ele>
        <time>2021-02-13T12:50:57Z</time>
      </trkpt>
      <trkpt lat="45.59204" lon="6.72862">
        <ele>1309</ele>
        <time>2021-02-13T12:51:04Z</time>
      </trkpt>
      <trkpt lat="45.59204" lon="6.72862">
        <ele>1308</ele>
        <time>2021-02-13T12:51:07Z</time>
      </trkpt>
      <trkpt lat="45.59204" lon="6.72862">
        <ele>1308</ele>
        <time>2021-02-13T12:51:17Z</time>
      </trkpt>
      <trkpt lat="45.59204" lon="6.72862">
        <ele>1308</ele>
        <time>2021-02-13T12:51:27Z</time>
      </trkpt>
      <trkpt lat="45.59204" lon="6.72862">
        <ele>1307</ele>
        <time>2021-02-13T12:51:37Z</time>
      </trkpt>
      <trkpt lat="45.59204" lon="6.72862">
        <ele>1308</ele>
        <time>2021-02-13T12:51:47Z</time>
      </trkpt>
      <trkpt lat="45.59201" lon="6.72862">
        <ele>1308</ele>
        <time>2021-02-13T12:51:57Z</time>
      </trkpt>
      <trkpt lat="45.59201" lon="6.72862">
        <ele>1308</ele>
        <time>2021-02-13T12:51:58Z</time>
      </trkpt>
      <trkpt lat="45.59201" lon="6.72861">
        <ele>1307</ele>
        <time>2021-02-13T12:52:08Z</time>
      </trkpt>
      <trkpt lat="45.59201" lon="6.7286">
        <ele>1308</ele>
        <time>2021-02-13T12:52:17Z</time>
      </trkpt>
      <trkpt lat="45.592" lon="6.72859">
        <ele>1308</ele>
        <time>2021-02-13T12:52:27Z</time>
      </trkpt>
      <trkpt lat="45.592" lon="6.72858">
        <ele>1308</ele>
        <time>2021-02-13T12:52:29Z</time>
      </trkpt>
      <trkpt lat="45.592" lon="6.72857">
        <ele>1308</ele>
        <time>2021-02-13T12:52:37Z</time>
      </trkpt>
      <trkpt lat="45.592" lon="6.72856">
        <ele>1308</ele>
        <time>2021-02-13T12:52:47Z</time>
      </trkpt>
      <trkpt lat="45.59199" lon="6.72855">
        <ele>1310</ele>
        <time>2021-02-13T12:52:48Z</time>
      </trkpt>
      <trkpt lat="45.59198" lon="6.72853">
        <ele>1310</ele>
        <time>2021-02-13T12:52:49Z</time>
      </trkpt>
      <trkpt lat="45.59196" lon="6.72851">
        <ele>1310</ele>
        <time>2021-02-13T12:52:51Z</time>
      </trkpt>
      <trkpt lat="45.59195" lon="6.7285">
        <ele>1310</ele>
        <time>2021-02-13T12:52:53Z</time>
      </trkpt>
      <trkpt lat="45.59193" lon="6.72848">
        <ele>1310</ele>
        <time>2021-02-13T12:52:55Z</time>
      </trkpt>
      <trkpt lat="45.59193" lon="6.72848">
        <ele>1310</ele>
        <time>2021-02-13T12:52:57Z</time>
      </trkpt>
      <trkpt lat="45.59191" lon="6.72846">
        <ele>1310</ele>
        <time>2021-02-13T12:52:58Z</time>
      </trkpt>
      <trkpt lat="45.59189" lon="6.72844">
        <ele>1310</ele>
        <time>2021-02-13T12:53:01Z</time>
      </trkpt>
      <trkpt lat="45.59187" lon="6.72843">
        <ele>1310</ele>
        <time>2021-02-13T12:53:03Z</time>
      </trkpt>
      <trkpt lat="45.59186" lon="6.72841">
        <ele>1310</ele>
        <time>2021-02-13T12:53:05Z</time>
      </trkpt>
      <trkpt lat="45.59184" lon="6.7284">
        <ele>1309</ele>
        <time>2021-02-13T12:53:07Z</time>
      </trkpt>
      <trkpt lat="45.59182" lon="6.72838">
        <ele>1309</ele>
        <time>2021-02-13T12:53:09Z</time>
      </trkpt>
      <trkpt lat="45.59181" lon="6.72836">
        <ele>1309</ele>
        <time>2021-02-13T12:53:11Z</time>
      </trkpt>
      <trkpt lat="45.59179" lon="6.72835">
        <ele>1309</ele>
        <time>2021-02-13T12:53:13Z</time>
      </trkpt>
      <trkpt lat="45.59178" lon="6.72834">
        <ele>1309</ele>
        <time>2021-02-13T12:53:15Z</time>
      </trkpt>
      <trkpt lat="45.59176" lon="6.72832">
        <ele>1308</ele>
        <time>2021-02-13T12:53:17Z</time>
      </trkpt>
      <trkpt lat="45.59173" lon="6.7283">
        <ele>1308</ele>
        <time>2021-02-13T12:53:19Z</time>
      </trkpt>
      <trkpt lat="45.59172" lon="6.72829">
        <ele>1308</ele>
        <time>2021-02-13T12:53:21Z</time>
      </trkpt>
      <trkpt lat="45.59171" lon="6.72828">
        <ele>1308</ele>
        <time>2021-02-13T12:53:23Z</time>
      </trkpt>
      <trkpt lat="45.5917" lon="6.72827">
        <ele>1308</ele>
        <time>2021-02-13T12:53:26Z</time>
      </trkpt>
      <trkpt lat="45.59169" lon="6.72826">
        <ele>1307</ele>
        <time>2021-02-13T12:53:27Z</time>
      </trkpt>
      <trkpt lat="45.59166" lon="6.72824">
        <ele>1307</ele>
        <time>2021-02-13T12:53:28Z</time>
      </trkpt>
      <trkpt lat="45.59165" lon="6.72824">
        <ele>1307</ele>
        <time>2021-02-13T12:53:30Z</time>
      </trkpt>
      <trkpt lat="45.59163" lon="6.72823">
        <ele>1307</ele>
        <time>2021-02-13T12:53:32Z</time>
      </trkpt>
      <trkpt lat="45.59162" lon="6.72823">
        <ele>1307</ele>
        <time>2021-02-13T12:53:34Z</time>
      </trkpt>
      <trkpt lat="45.59161" lon="6.72823">
        <ele>1307</ele>
        <time>2021-02-13T12:53:36Z</time>
      </trkpt>
      <trkpt lat="45.5916" lon="6.72822">
        <ele>1306</ele>
        <time>2021-02-13T12:53:37Z</time>
      </trkpt>
      <trkpt lat="45.59156" lon="6.72821">
        <ele>1306</ele>
        <time>2021-02-13T12:53:38Z</time>
      </trkpt>
      <trkpt lat="45.59155" lon="6.72821">
        <ele>1306</ele>
        <time>2021-02-13T12:53:40Z</time>
      </trkpt>
      <trkpt lat="45.59154" lon="6.72821">
        <ele>1306</ele>
        <time>2021-02-13T12:53:42Z</time>
      </trkpt>
      <trkpt lat="45.59152" lon="6.7282">
        <ele>1306</ele>
        <time>2021-02-13T12:53:44Z</time>
      </trkpt>
      <trkpt lat="45.59151" lon="6.7282">
        <ele>1306</ele>
        <time>2021-02-13T12:53:46Z</time>
      </trkpt>
      <trkpt lat="45.5915" lon="6.72819">
        <ele>1305</ele>
        <time>2021-02-13T12:53:47Z</time>
      </trkpt>
      <trkpt lat="45.59146" lon="6.72818">
        <ele>1305</ele>
        <time>2021-02-13T12:53:48Z</time>
      </trkpt>
      <trkpt lat="45.59145" lon="6.72818">
        <ele>1305</ele>
        <time>2021-02-13T12:53:50Z</time>
      </trkpt>
      <trkpt lat="45.59143" lon="6.72818">
        <ele>1305</ele>
        <time>2021-02-13T12:53:52Z</time>
      </trkpt>
      <trkpt lat="45.59141" lon="6.72818">
        <ele>1305</ele>
        <time>2021-02-13T12:53:54Z</time>
      </trkpt>
      <trkpt lat="45.5914" lon="6.72818">
        <ele>1305</ele>
        <time>2021-02-13T12:53:56Z</time>
      </trkpt>
      <trkpt lat="45.59138" lon="6.72818">
        <ele>1304</ele>
        <time>2021-02-13T12:53:57Z</time>
      </trkpt>
      <trkpt lat="45.59136" lon="6.72817">
        <ele>1304</ele>
        <time>2021-02-13T12:53:58Z</time>
      </trkpt>
      <trkpt lat="45.59134" lon="6.72817">
        <ele>1304</ele>
        <time>2021-02-13T12:54:00Z</time>
      </trkpt>
      <trkpt lat="45.59132" lon="6.72817">
        <ele>1304</ele>
        <time>2021-02-13T12:54:02Z</time>
      </trkpt>
      <trkpt lat="45.59131" lon="6.72817">
        <ele>1304</ele>
        <time>2021-02-13T12:54:04Z</time>
      </trkpt>
      <trkpt lat="45.59129" lon="6.72817">
        <ele>1304</ele>
        <time>2021-02-13T12:54:06Z</time>
      </trkpt>
      <trkpt lat="45.59127" lon="6.72817">
        <ele>1303</ele>
        <time>2021-02-13T12:54:07Z</time>
      </trkpt>
      <trkpt lat="45.59125" lon="6.72816">
        <ele>1303</ele>
        <time>2021-02-13T12:54:08Z</time>
      </trkpt>
      <trkpt lat="45.59124" lon="6.72816">
        <ele>1303</ele>
        <time>2021-02-13T12:54:10Z</time>
      </trkpt>
      <trkpt lat="45.59123" lon="6.72815">
        <ele>1303</ele>
        <time>2021-02-13T12:54:12Z</time>
      </trkpt>
      <trkpt lat="45.59122" lon="6.72815">
        <ele>1303</ele>
        <time>2021-02-13T12:54:14Z</time>
      </trkpt>
      <trkpt lat="45.5912" lon="6.72814">
        <ele>1303</ele>
        <time>2021-02-13T12:54:16Z</time>
      </trkpt>
      <trkpt lat="45.59119" lon="6.72813">
        <ele>1303</ele>
        <time>2021-02-13T12:54:17Z</time>
      </trkpt>
      <trkpt lat="45.59116" lon="6.72813">
        <ele>1303</ele>
        <time>2021-02-13T12:54:18Z</time>
      </trkpt>
      <trkpt lat="45.59115" lon="6.72813">
        <ele>1303</ele>
        <time>2021-02-13T12:54:20Z</time>
      </trkpt>
      <trkpt lat="45.59113" lon="6.72812">
        <ele>1303</ele>
        <time>2021-02-13T12:54:22Z</time>
      </trkpt>
      <trkpt lat="45.59112" lon="6.72812">
        <ele>1303</ele>
        <time>2021-02-13T12:54:24Z</time>
      </trkpt>
      <trkpt lat="45.59111" lon="6.72812">
        <ele>1303</ele>
        <time>2021-02-13T12:54:26Z</time>
      </trkpt>
      <trkpt lat="45.59109" lon="6.72812">
        <ele>1303</ele>
        <time>2021-02-13T12:54:27Z</time>
      </trkpt>
      <trkpt lat="45.59108" lon="6.72811">
        <ele>1303</ele>
        <time>2021-02-13T12:54:28Z</time>
      </trkpt>
      <trkpt lat="45.59106" lon="6.7281">
        <ele>1303</ele>
        <time>2021-02-13T12:54:31Z</time>
      </trkpt>
      <trkpt lat="45.59106" lon="6.7281">
        <ele>1302</ele>
        <time>2021-02-13T12:54:37Z</time>
      </trkpt>
      <trkpt lat="45.59106" lon="6.7281">
        <ele>1302</ele>
        <time>2021-02-13T12:54:47Z</time>
      </trkpt>
      <trkpt lat="45.59106" lon="6.7281">
        <ele>1301</ele>
        <time>2021-02-13T12:54:57Z</time>
      </trkpt>
      <trkpt lat="45.59106" lon="6.7281">
        <ele>1301</ele>
        <time>2021-02-13T12:55:07Z</time>
      </trkpt>
      <trkpt lat="45.59104" lon="6.72809">
        <ele>1301</ele>
        <time>2021-02-13T12:55:09Z</time>
      </trkpt>
      <trkpt lat="45.59102" lon="6.72809">
        <ele>1301</ele>
        <time>2021-02-13T12:55:11Z</time>
      </trkpt>
      <trkpt lat="45.591" lon="6.72808">
        <ele>1301</ele>
        <time>2021-02-13T12:55:13Z</time>
      </trkpt>
      <trkpt lat="45.59098" lon="6.72808">
        <ele>1301</ele>
        <time>2021-02-13T12:55:15Z</time>
      </trkpt>
      <trkpt lat="45.59096" lon="6.72808">
        <ele>1301</ele>
        <time>2021-02-13T12:55:18Z</time>
      </trkpt>
      <trkpt lat="45.59094" lon="6.72808">
        <ele>1301</ele>
        <time>2021-02-13T12:55:19Z</time>
      </trkpt>
      <trkpt lat="45.59092" lon="6.72807">
        <ele>1301</ele>
        <time>2021-02-13T12:55:21Z</time>
      </trkpt>
      <trkpt lat="45.5909" lon="6.72807">
        <ele>1301</ele>
        <time>2021-02-13T12:55:23Z</time>
      </trkpt>
      <trkpt lat="45.59087" lon="6.72807">
        <ele>1301</ele>
        <time>2021-02-13T12:55:25Z</time>
      </trkpt>
      <trkpt lat="45.59085" lon="6.72807">
        <ele>1301</ele>
        <time>2021-02-13T12:55:27Z</time>
      </trkpt>
      <trkpt lat="45.59083" lon="6.72806">
        <ele>1301</ele>
        <time>2021-02-13T12:55:30Z</time>
      </trkpt>
      <trkpt lat="45.59082" lon="6.72805">
        <ele>1301</ele>
        <time>2021-02-13T12:55:37Z</time>
      </trkpt>
      <trkpt lat="45.59081" lon="6.72805">
        <ele>1301</ele>
        <time>2021-02-13T12:55:38Z</time>
      </trkpt>
      <trkpt lat="45.59079" lon="6.72804">
        <ele>1301</ele>
        <time>2021-02-13T12:55:39Z</time>
      </trkpt>
      <trkpt lat="45.59077" lon="6.72804">
        <ele>1301</ele>
        <time>2021-02-13T12:55:41Z</time>
      </trkpt>
      <trkpt lat="45.59076" lon="6.72804">
        <ele>1301</ele>
        <time>2021-02-13T12:55:43Z</time>
      </trkpt>
      <trkpt lat="45.59073" lon="6.72803">
        <ele>1301</ele>
        <time>2021-02-13T12:55:45Z</time>
      </trkpt>
      <trkpt lat="45.59071" lon="6.72803">
        <ele>1300</ele>
        <time>2021-02-13T12:55:47Z</time>
      </trkpt>
      <trkpt lat="45.59067" lon="6.72803">
        <ele>1300</ele>
        <time>2021-02-13T12:55:49Z</time>
      </trkpt>
      <trkpt lat="45.59066" lon="6.72802">
        <ele>1300</ele>
        <time>2021-02-13T12:55:51Z</time>
      </trkpt>
      <trkpt lat="45.59064" lon="6.72802">
        <ele>1300</ele>
        <time>2021-02-13T12:55:53Z</time>
      </trkpt>
      <trkpt lat="45.59063" lon="6.72802">
        <ele>1300</ele>
        <time>2021-02-13T12:55:55Z</time>
      </trkpt>
      <trkpt lat="45.59061" lon="6.72801">
        <ele>1300</ele>
        <time>2021-02-13T12:55:57Z</time>
      </trkpt>
      <trkpt lat="45.59059" lon="6.72801">
        <ele>1300</ele>
        <time>2021-02-13T12:55:58Z</time>
      </trkpt>
      <trkpt lat="45.59058" lon="6.72801">
        <ele>1300</ele>
        <time>2021-02-13T12:55:59Z</time>
      </trkpt>
      <trkpt lat="45.59056" lon="6.728">
        <ele>1300</ele>
        <time>2021-02-13T12:56:01Z</time>
      </trkpt>
      <trkpt lat="45.59054" lon="6.728">
        <ele>1300</ele>
        <time>2021-02-13T12:56:03Z</time>
      </trkpt>
      <trkpt lat="45.59052" lon="6.72799">
        <ele>1300</ele>
        <time>2021-02-13T12:56:05Z</time>
      </trkpt>
      <trkpt lat="45.59049" lon="6.72799">
        <ele>1298</ele>
        <time>2021-02-13T12:56:07Z</time>
      </trkpt>
      <trkpt lat="45.59047" lon="6.72799">
        <ele>1298</ele>
        <time>2021-02-13T12:56:09Z</time>
      </trkpt>
      <trkpt lat="45.59045" lon="6.72798">
        <ele>1298</ele>
        <time>2021-02-13T12:56:11Z</time>
      </trkpt>
      <trkpt lat="45.59043" lon="6.72798">
        <ele>1298</ele>
        <time>2021-02-13T12:56:13Z</time>
      </trkpt>
      <trkpt lat="45.59041" lon="6.72798">
        <ele>1298</ele>
        <time>2021-02-13T12:56:15Z</time>
      </trkpt>
      <trkpt lat="45.59038" lon="6.72798">
        <ele>1299</ele>
        <time>2021-02-13T12:56:17Z</time>
      </trkpt>
      <trkpt lat="45.59036" lon="6.72798">
        <ele>1299</ele>
        <time>2021-02-13T12:56:19Z</time>
      </trkpt>
      <trkpt lat="45.59034" lon="6.72798">
        <ele>1299</ele>
        <time>2021-02-13T12:56:21Z</time>
      </trkpt>
      <trkpt lat="45.59032" lon="6.72797">
        <ele>1299</ele>
        <time>2021-02-13T12:56:23Z</time>
      </trkpt>
      <trkpt lat="45.5903" lon="6.72796">
        <ele>1299</ele>
        <time>2021-02-13T12:56:25Z</time>
      </trkpt>
      <trkpt lat="45.59028" lon="6.72795">
        <ele>1298</ele>
        <time>2021-02-13T12:56:27Z</time>
      </trkpt>
      <trkpt lat="45.59026" lon="6.72795">
        <ele>1298</ele>
        <time>2021-02-13T12:56:29Z</time>
      </trkpt>
      <trkpt lat="45.59024" lon="6.72795">
        <ele>1298</ele>
        <time>2021-02-13T12:56:31Z</time>
      </trkpt>
      <trkpt lat="45.59023" lon="6.72794">
        <ele>1298</ele>
        <time>2021-02-13T12:56:33Z</time>
      </trkpt>
      <trkpt lat="45.59021" lon="6.72794">
        <ele>1298</ele>
        <time>2021-02-13T12:56:35Z</time>
      </trkpt>
      <trkpt lat="45.59018" lon="6.72794">
        <ele>1297</ele>
        <time>2021-02-13T12:56:37Z</time>
      </trkpt>
      <trkpt lat="45.59016" lon="6.72793">
        <ele>1297</ele>
        <time>2021-02-13T12:56:39Z</time>
      </trkpt>
      <trkpt lat="45.59014" lon="6.72793">
        <ele>1297</ele>
        <time>2021-02-13T12:56:41Z</time>
      </trkpt>
      <trkpt lat="45.59012" lon="6.72793">
        <ele>1297</ele>
        <time>2021-02-13T12:56:43Z</time>
      </trkpt>
      <trkpt lat="45.5901" lon="6.72793">
        <ele>1297</ele>
        <time>2021-02-13T12:56:45Z</time>
      </trkpt>
      <trkpt lat="45.59008" lon="6.72793">
        <ele>1296</ele>
        <time>2021-02-13T12:56:47Z</time>
      </trkpt>
      <trkpt lat="45.59006" lon="6.72792">
        <ele>1296</ele>
        <time>2021-02-13T12:56:49Z</time>
      </trkpt>
      <trkpt lat="45.59004" lon="6.72791">
        <ele>1296</ele>
        <time>2021-02-13T12:56:51Z</time>
      </trkpt>
      <trkpt lat="45.59003" lon="6.72791">
        <ele>1296</ele>
        <time>2021-02-13T12:56:53Z</time>
      </trkpt>
      <trkpt lat="45.59001" lon="6.7279">
        <ele>1296</ele>
        <time>2021-02-13T12:56:55Z</time>
      </trkpt>
      <trkpt lat="45.58999" lon="6.7279">
        <ele>1295</ele>
        <time>2021-02-13T12:56:57Z</time>
      </trkpt>
      <trkpt lat="45.58997" lon="6.7279">
        <ele>1295</ele>
        <time>2021-02-13T12:56:59Z</time>
      </trkpt>
      <trkpt lat="45.58994" lon="6.7279">
        <ele>1295</ele>
        <time>2021-02-13T12:57:01Z</time>
      </trkpt>
      <trkpt lat="45.58992" lon="6.7279">
        <ele>1295</ele>
        <time>2021-02-13T12:57:03Z</time>
      </trkpt>
      <trkpt lat="45.5899" lon="6.7279">
        <ele>1295</ele>
        <time>2021-02-13T12:57:05Z</time>
      </trkpt>
      <trkpt lat="45.58988" lon="6.7279">
        <ele>1293</ele>
        <time>2021-02-13T12:57:07Z</time>
      </trkpt>
      <trkpt lat="45.58986" lon="6.7279">
        <ele>1293</ele>
        <time>2021-02-13T12:57:09Z</time>
      </trkpt>
      <trkpt lat="45.58984" lon="6.7279">
        <ele>1293</ele>
        <time>2021-02-13T12:57:11Z</time>
      </trkpt>
      <trkpt lat="45.58982" lon="6.7279">
        <ele>1293</ele>
        <time>2021-02-13T12:57:13Z</time>
      </trkpt>
      <trkpt lat="45.5898" lon="6.7279">
        <ele>1293</ele>
        <time>2021-02-13T12:57:15Z</time>
      </trkpt>
      <trkpt lat="45.58978" lon="6.72791">
        <ele>1294</ele>
        <time>2021-02-13T12:57:17Z</time>
      </trkpt>
      <trkpt lat="45.58976" lon="6.72791">
        <ele>1294</ele>
        <time>2021-02-13T12:57:19Z</time>
      </trkpt>
      <trkpt lat="45.58973" lon="6.72791">
        <ele>1294</ele>
        <time>2021-02-13T12:57:21Z</time>
      </trkpt>
      <trkpt lat="45.58971" lon="6.72791">
        <ele>1294</ele>
        <time>2021-02-13T12:57:23Z</time>
      </trkpt>
      <trkpt lat="45.58969" lon="6.72791">
        <ele>1294</ele>
        <time>2021-02-13T12:57:25Z</time>
      </trkpt>
      <trkpt lat="45.58967" lon="6.72791">
        <ele>1292</ele>
        <time>2021-02-13T12:57:27Z</time>
      </trkpt>
      <trkpt lat="45.58965" lon="6.72791">
        <ele>1292</ele>
        <time>2021-02-13T12:57:29Z</time>
      </trkpt>
      <trkpt lat="45.58963" lon="6.72791">
        <ele>1292</ele>
        <time>2021-02-13T12:57:31Z</time>
      </trkpt>
      <trkpt lat="45.58961" lon="6.72791">
        <ele>1292</ele>
        <time>2021-02-13T12:57:33Z</time>
      </trkpt>
      <trkpt lat="45.58959" lon="6.72791">
        <ele>1292</ele>
        <time>2021-02-13T12:57:35Z</time>
      </trkpt>
      <trkpt lat="45.58957" lon="6.72791">
        <ele>1292</ele>
        <time>2021-02-13T12:57:37Z</time>
      </trkpt>
      <trkpt lat="45.58955" lon="6.72791">
        <ele>1292</ele>
        <time>2021-02-13T12:57:39Z</time>
      </trkpt>
      <trkpt lat="45.58953" lon="6.72791">
        <ele>1292</ele>
        <time>2021-02-13T12:57:41Z</time>
      </trkpt>
      <trkpt lat="45.58951" lon="6.7279">
        <ele>1292</ele>
        <time>2021-02-13T12:57:43Z</time>
      </trkpt>
      <trkpt lat="45.58949" lon="6.7279">
        <ele>1292</ele>
        <time>2021-02-13T12:57:45Z</time>
      </trkpt>
      <trkpt lat="45.58947" lon="6.7279">
        <ele>1291</ele>
        <time>2021-02-13T12:57:47Z</time>
      </trkpt>
      <trkpt lat="45.58945" lon="6.7279">
        <ele>1291</ele>
        <time>2021-02-13T12:57:49Z</time>
      </trkpt>
      <trkpt lat="45.58943" lon="6.7279">
        <ele>1291</ele>
        <time>2021-02-13T12:57:51Z</time>
      </trkpt>
      <trkpt lat="45.58941" lon="6.7279">
        <ele>1291</ele>
        <time>2021-02-13T12:57:53Z</time>
      </trkpt>
      <trkpt lat="45.58939" lon="6.7279">
        <ele>1291</ele>
        <time>2021-02-13T12:57:55Z</time>
      </trkpt>
      <trkpt lat="45.58937" lon="6.7279">
        <ele>1290</ele>
        <time>2021-02-13T12:57:57Z</time>
      </trkpt>
      <trkpt lat="45.58935" lon="6.7279">
        <ele>1290</ele>
        <time>2021-02-13T12:57:59Z</time>
      </trkpt>
      <trkpt lat="45.58932" lon="6.7279">
        <ele>1290</ele>
        <time>2021-02-13T12:58:01Z</time>
      </trkpt>
      <trkpt lat="45.5893" lon="6.7279">
        <ele>1290</ele>
        <time>2021-02-13T12:58:03Z</time>
      </trkpt>
      <trkpt lat="45.58928" lon="6.7279">
        <ele>1290</ele>
        <time>2021-02-13T12:58:05Z</time>
      </trkpt>
      <trkpt lat="45.58926" lon="6.7279">
        <ele>1290</ele>
        <time>2021-02-13T12:58:07Z</time>
      </trkpt>
      <trkpt lat="45.58923" lon="6.7279">
        <ele>1290</ele>
        <time>2021-02-13T12:58:09Z</time>
      </trkpt>
      <trkpt lat="45.58922" lon="6.7279">
        <ele>1290</ele>
        <time>2021-02-13T12:58:11Z</time>
      </trkpt>
      <trkpt lat="45.5892" lon="6.72789">
        <ele>1290</ele>
        <time>2021-02-13T12:58:13Z</time>
      </trkpt>
      <trkpt lat="45.58919" lon="6.72789">
        <ele>1290</ele>
        <time>2021-02-13T12:58:15Z</time>
      </trkpt>
      <trkpt lat="45.58918" lon="6.72789">
        <ele>1290</ele>
        <time>2021-02-13T12:58:17Z</time>
      </trkpt>
      <trkpt lat="45.58916" lon="6.72789">
        <ele>1289</ele>
        <time>2021-02-13T12:58:18Z</time>
      </trkpt>
      <trkpt lat="45.58914" lon="6.72789">
        <ele>1289</ele>
        <time>2021-02-13T12:58:19Z</time>
      </trkpt>
      <trkpt lat="45.58912" lon="6.7279">
        <ele>1289</ele>
        <time>2021-02-13T12:58:21Z</time>
      </trkpt>
      <trkpt lat="45.5891" lon="6.7279">
        <ele>1289</ele>
        <time>2021-02-13T12:58:23Z</time>
      </trkpt>
      <trkpt lat="45.58908" lon="6.7279">
        <ele>1289</ele>
        <time>2021-02-13T12:58:25Z</time>
      </trkpt>
      <trkpt lat="45.58906" lon="6.72789">
        <ele>1288</ele>
        <time>2021-02-13T12:58:28Z</time>
      </trkpt>
      <trkpt lat="45.58904" lon="6.72789">
        <ele>1288</ele>
        <time>2021-02-13T12:58:29Z</time>
      </trkpt>
      <trkpt lat="45.58902" lon="6.72789">
        <ele>1288</ele>
        <time>2021-02-13T12:58:31Z</time>
      </trkpt>
      <trkpt lat="45.589" lon="6.7279">
        <ele>1288</ele>
        <time>2021-02-13T12:58:33Z</time>
      </trkpt>
      <trkpt lat="45.58898" lon="6.7279">
        <ele>1288</ele>
        <time>2021-02-13T12:58:35Z</time>
      </trkpt>
      <trkpt lat="45.58896" lon="6.7279">
        <ele>1288</ele>
        <time>2021-02-13T12:58:37Z</time>
      </trkpt>
      <trkpt lat="45.58893" lon="6.7279">
        <ele>1288</ele>
        <time>2021-02-13T12:58:39Z</time>
      </trkpt>
      <trkpt lat="45.58891" lon="6.7279">
        <ele>1288</ele>
        <time>2021-02-13T12:58:41Z</time>
      </trkpt>
      <trkpt lat="45.5889" lon="6.7279">
        <ele>1288</ele>
        <time>2021-02-13T12:58:43Z</time>
      </trkpt>
      <trkpt lat="45.58889" lon="6.7279">
        <ele>1288</ele>
        <time>2021-02-13T12:58:45Z</time>
      </trkpt>
      <trkpt lat="45.58887" lon="6.7279">
        <ele>1288</ele>
        <time>2021-02-13T12:58:47Z</time>
      </trkpt>
      <trkpt lat="45.58886" lon="6.7279">
        <ele>1287</ele>
        <time>2021-02-13T12:58:48Z</time>
      </trkpt>
      <trkpt lat="45.58884" lon="6.7279">
        <ele>1287</ele>
        <time>2021-02-13T12:58:49Z</time>
      </trkpt>
      <trkpt lat="45.58882" lon="6.7279">
        <ele>1287</ele>
        <time>2021-02-13T12:58:51Z</time>
      </trkpt>
      <trkpt lat="45.5888" lon="6.7279">
        <ele>1287</ele>
        <time>2021-02-13T12:58:53Z</time>
      </trkpt>
      <trkpt lat="45.58878" lon="6.7279">
        <ele>1287</ele>
        <time>2021-02-13T12:58:55Z</time>
      </trkpt>
      <trkpt lat="45.58876" lon="6.7279">
        <ele>1286</ele>
        <time>2021-02-13T12:58:57Z</time>
      </trkpt>
      <trkpt lat="45.58873" lon="6.7279">
        <ele>1286</ele>
        <time>2021-02-13T12:58:59Z</time>
      </trkpt>
      <trkpt lat="45.58872" lon="6.7279">
        <ele>1286</ele>
        <time>2021-02-13T12:59:01Z</time>
      </trkpt>
      <trkpt lat="45.5887" lon="6.7279">
        <ele>1286</ele>
        <time>2021-02-13T12:59:03Z</time>
      </trkpt>
      <trkpt lat="45.58869" lon="6.7279">
        <ele>1286</ele>
        <time>2021-02-13T12:59:06Z</time>
      </trkpt>
      <trkpt lat="45.58868" lon="6.7279">
        <ele>1286</ele>
        <time>2021-02-13T12:59:07Z</time>
      </trkpt>
      <trkpt lat="45.58867" lon="6.7279">
        <ele>1285</ele>
        <time>2021-02-13T12:59:08Z</time>
      </trkpt>
      <trkpt lat="45.58865" lon="6.72791">
        <ele>1285</ele>
        <time>2021-02-13T12:59:10Z</time>
      </trkpt>
      <trkpt lat="45.58865" lon="6.72794">
        <ele>1285</ele>
        <time>2021-02-13T12:59:13Z</time>
      </trkpt>
      <trkpt lat="45.58866" lon="6.72796">
        <ele>1285</ele>
        <time>2021-02-13T12:59:15Z</time>
      </trkpt>
      <trkpt lat="45.58868" lon="6.72798">
        <ele>1284</ele>
        <time>2021-02-13T12:59:17Z</time>
      </trkpt>
      <trkpt lat="45.58869" lon="6.728">
        <ele>1284</ele>
        <time>2021-02-13T12:59:19Z</time>
      </trkpt>
      <trkpt lat="45.58871" lon="6.72802">
        <ele>1284</ele>
        <time>2021-02-13T12:59:21Z</time>
      </trkpt>
      <trkpt lat="45.58873" lon="6.72804">
        <ele>1284</ele>
        <time>2021-02-13T12:59:23Z</time>
      </trkpt>
      <trkpt lat="45.58875" lon="6.72805">
        <ele>1284</ele>
        <time>2021-02-13T12:59:25Z</time>
      </trkpt>
      <trkpt lat="45.58876" lon="6.72807">
        <ele>1284</ele>
        <time>2021-02-13T12:59:27Z</time>
      </trkpt>
      <trkpt lat="45.58878" lon="6.72809">
        <ele>1284</ele>
        <time>2021-02-13T12:59:29Z</time>
      </trkpt>
      <trkpt lat="45.5888" lon="6.72811">
        <ele>1284</ele>
        <time>2021-02-13T12:59:31Z</time>
      </trkpt>
      <trkpt lat="45.58882" lon="6.72813">
        <ele>1284</ele>
        <time>2021-02-13T12:59:33Z</time>
      </trkpt>
      <trkpt lat="45.58883" lon="6.72815">
        <ele>1284</ele>
        <time>2021-02-13T12:59:35Z</time>
      </trkpt>
      <trkpt lat="45.58885" lon="6.72817">
        <ele>1284</ele>
        <time>2021-02-13T12:59:37Z</time>
      </trkpt>
      <trkpt lat="45.58887" lon="6.72818">
        <ele>1284</ele>
        <time>2021-02-13T12:59:39Z</time>
      </trkpt>
      <trkpt lat="45.58889" lon="6.72819">
        <ele>1284</ele>
        <time>2021-02-13T12:59:41Z</time>
      </trkpt>
      <trkpt lat="45.58891" lon="6.72821">
        <ele>1284</ele>
        <time>2021-02-13T12:59:43Z</time>
      </trkpt>
      <trkpt lat="45.58892" lon="6.72823">
        <ele>1284</ele>
        <time>2021-02-13T12:59:45Z</time>
      </trkpt>
      <trkpt lat="45.58894" lon="6.72824">
        <ele>1284</ele>
        <time>2021-02-13T12:59:47Z</time>
      </trkpt>
      <trkpt lat="45.58897" lon="6.72828">
        <ele>1284</ele>
        <time>2021-02-13T12:59:49Z</time>
      </trkpt>
      <trkpt lat="45.58898" lon="6.72829">
        <ele>1284</ele>
        <time>2021-02-13T12:59:51Z</time>
      </trkpt>
      <trkpt lat="45.58899" lon="6.72831">
        <ele>1284</ele>
        <time>2021-02-13T12:59:53Z</time>
      </trkpt>
      <trkpt lat="45.589" lon="6.72832">
        <ele>1284</ele>
        <time>2021-02-13T12:59:55Z</time>
      </trkpt>
      <trkpt lat="45.58902" lon="6.72833">
        <ele>1284</ele>
        <time>2021-02-13T12:59:57Z</time>
      </trkpt>
      <trkpt lat="45.58903" lon="6.72835">
        <ele>1285</ele>
        <time>2021-02-13T12:59:58Z</time>
      </trkpt>
      <trkpt lat="45.58904" lon="6.72836">
        <ele>1285</ele>
        <time>2021-02-13T12:59:59Z</time>
      </trkpt>
      <trkpt lat="45.58905" lon="6.72836">
        <ele>1285</ele>
        <time>2021-02-13T13:00:03Z</time>
      </trkpt>
    </trkseg>
  </trk>
</gpx>